<?xml version="1.0" encoding="UTF-8" standalone="no" ?>
<gpx xmlns="http://www.topografix.com/GPX/1/1" xmlns:xsi="http://www.w3.org/2001/XMLSchema-instance" xsi:schemaLocation="http://www.topografix.com/GPX/1/1 http://www.topografix.com/GPX/1/1/gpx.xsd" version="1.1" creator="VisuGPX - https://www.visugpx.com">
  <metadata>
    <name>Forêt de la Sine</name>
    <desc><![CDATA[Footing agréable en sous bois et un peu valonné]]></desc>
  </metadata>
  <trk>
    <name><![CDATA[43]]></name>
    <trkseg>
      <trkpt lat="43.71336" lon="7.09413">
        <ele>362.554321</ele>
        <time>2010-08-13T15:57:00Z</time>
      </trkpt>
      <trkpt lat="43.71337" lon="7.09413">
        <ele>364.476929</ele>
        <time>2010-08-13T15:57:01Z</time>
      </trkpt>
      <trkpt lat="43.71336" lon="7.09414">
        <ele>363.515747</ele>
        <time>2010-08-13T15:57:02Z</time>
      </trkpt>
      <trkpt lat="43.71336" lon="7.09414">
        <ele>362.554321</ele>
        <time>2010-08-13T15:57:03Z</time>
      </trkpt>
      <trkpt lat="43.71337" lon="7.09414">
        <ele>361.112427</ele>
        <time>2010-08-13T15:57:04Z</time>
      </trkpt>
      <trkpt lat="43.71339" lon="7.09415">
        <ele>359.189697</ele>
        <time>2010-08-13T15:57:05Z</time>
      </trkpt>
      <trkpt lat="43.71342" lon="7.09414">
        <ele>357.26709</ele>
        <time>2010-08-13T15:57:07Z</time>
      </trkpt>
      <trkpt lat="43.71344" lon="7.09413">
        <ele>355.825195</ele>
        <time>2010-08-13T15:57:08Z</time>
      </trkpt>
      <trkpt lat="43.71345" lon="7.09413">
        <ele>352.941162</ele>
        <time>2010-08-13T15:57:09Z</time>
      </trkpt>
      <trkpt lat="43.71347" lon="7.09411">
        <ele>350.537842</ele>
        <time>2010-08-13T15:57:10Z</time>
      </trkpt>
      <trkpt lat="43.71348" lon="7.09409">
        <ele>348.615234</ele>
        <time>2010-08-13T15:57:11Z</time>
      </trkpt>
      <trkpt lat="43.71349" lon="7.09408">
        <ele>346.212036</ele>
        <time>2010-08-13T15:57:12Z</time>
      </trkpt>
      <trkpt lat="43.71351" lon="7.09407">
        <ele>344.289429</ele>
        <time>2010-08-13T15:57:13Z</time>
      </trkpt>
      <trkpt lat="43.71352" lon="7.09406">
        <ele>342.84729</ele>
        <time>2010-08-13T15:57:14Z</time>
      </trkpt>
      <trkpt lat="43.71354" lon="7.09406">
        <ele>341.885986</ele>
        <time>2010-08-13T15:57:15Z</time>
      </trkpt>
      <trkpt lat="43.71357" lon="7.09406">
        <ele>341.885986</ele>
        <time>2010-08-13T15:57:16Z</time>
      </trkpt>
      <trkpt lat="43.71358" lon="7.09406">
        <ele>340.924683</ele>
        <time>2010-08-13T15:57:17Z</time>
      </trkpt>
      <trkpt lat="43.71361" lon="7.09406">
        <ele>340.924683</ele>
        <time>2010-08-13T15:57:18Z</time>
      </trkpt>
      <trkpt lat="43.71363" lon="7.09406">
        <ele>340.924683</ele>
        <time>2010-08-13T15:57:19Z</time>
      </trkpt>
      <trkpt lat="43.71365" lon="7.09407">
        <ele>338.521484</ele>
        <time>2010-08-13T15:57:20Z</time>
      </trkpt>
      <trkpt lat="43.71367" lon="7.09407">
        <ele>336.598877</ele>
        <time>2010-08-13T15:57:21Z</time>
      </trkpt>
      <trkpt lat="43.7137" lon="7.09407">
        <ele>335.156738</ele>
        <time>2010-08-13T15:57:22Z</time>
      </trkpt>
      <trkpt lat="43.71372" lon="7.09406">
        <ele>333.714722</ele>
        <time>2010-08-13T15:57:23Z</time>
      </trkpt>
      <trkpt lat="43.71373" lon="7.09405">
        <ele>331.792114</ele>
        <time>2010-08-13T15:57:24Z</time>
      </trkpt>
      <trkpt lat="43.71375" lon="7.09404">
        <ele>330.830933</ele>
        <time>2010-08-13T15:57:25Z</time>
      </trkpt>
      <trkpt lat="43.71376" lon="7.09404">
        <ele>328.427612</ele>
        <time>2010-08-13T15:57:26Z</time>
      </trkpt>
      <trkpt lat="43.71377" lon="7.09403">
        <ele>327.466187</ele>
        <time>2010-08-13T15:57:27Z</time>
      </trkpt>
      <trkpt lat="43.7138" lon="7.09402">
        <ele>326.504883</ele>
        <time>2010-08-13T15:57:28Z</time>
      </trkpt>
      <trkpt lat="43.71381" lon="7.09402">
        <ele>325.543579</ele>
        <time>2010-08-13T15:57:29Z</time>
      </trkpt>
      <trkpt lat="43.71383" lon="7.09403">
        <ele>326.504883</ele>
        <time>2010-08-13T15:57:30Z</time>
      </trkpt>
      <trkpt lat="43.71384" lon="7.09403">
        <ele>325.543579</ele>
        <time>2010-08-13T15:57:31Z</time>
      </trkpt>
      <trkpt lat="43.71386" lon="7.09403">
        <ele>323.140381</ele>
        <time>2010-08-13T15:57:32Z</time>
      </trkpt>
      <trkpt lat="43.71387" lon="7.09402">
        <ele>322.178955</ele>
        <time>2010-08-13T15:57:33Z</time>
      </trkpt>
      <trkpt lat="43.71389" lon="7.09401">
        <ele>320.737061</ele>
        <time>2010-08-13T15:57:34Z</time>
      </trkpt>
      <trkpt lat="43.7139" lon="7.094">
        <ele>319.775635</ele>
        <time>2010-08-13T15:57:35Z</time>
      </trkpt>
      <trkpt lat="43.71393" lon="7.094">
        <ele>319.775635</ele>
        <time>2010-08-13T15:57:36Z</time>
      </trkpt>
      <trkpt lat="43.71395" lon="7.094">
        <ele>318.814331</ele>
        <time>2010-08-13T15:57:37Z</time>
      </trkpt>
      <trkpt lat="43.71396" lon="7.094">
        <ele>318.814331</ele>
        <time>2010-08-13T15:57:38Z</time>
      </trkpt>
      <trkpt lat="43.71398" lon="7.094">
        <ele>317.853027</ele>
        <time>2010-08-13T15:57:39Z</time>
      </trkpt>
      <trkpt lat="43.71399" lon="7.094">
        <ele>318.333618</ele>
        <time>2010-08-13T15:57:40Z</time>
      </trkpt>
      <trkpt lat="43.714" lon="7.09399">
        <ele>317.372437</ele>
        <time>2010-08-13T15:57:41Z</time>
      </trkpt>
      <trkpt lat="43.714" lon="7.09397">
        <ele>316.891724</ele>
        <time>2010-08-13T15:57:42Z</time>
      </trkpt>
      <trkpt lat="43.71401" lon="7.09396">
        <ele>316.411011</ele>
        <time>2010-08-13T15:57:43Z</time>
      </trkpt>
      <trkpt lat="43.71402" lon="7.09394">
        <ele>316.411011</ele>
        <time>2010-08-13T15:57:44Z</time>
      </trkpt>
      <trkpt lat="43.71403" lon="7.09391">
        <ele>316.411011</ele>
        <time>2010-08-13T15:57:45Z</time>
      </trkpt>
      <trkpt lat="43.71405" lon="7.09389">
        <ele>314.969116</ele>
        <time>2010-08-13T15:57:46Z</time>
      </trkpt>
      <trkpt lat="43.71406" lon="7.09388">
        <ele>314.007812</ele>
        <time>2010-08-13T15:57:47Z</time>
      </trkpt>
      <trkpt lat="43.71408" lon="7.09386">
        <ele>313.046509</ele>
        <time>2010-08-13T15:57:48Z</time>
      </trkpt>
      <trkpt lat="43.7141" lon="7.09385">
        <ele>312.565796</ele>
        <time>2010-08-13T15:57:49Z</time>
      </trkpt>
      <trkpt lat="43.71412" lon="7.09384">
        <ele>311.123779</ele>
        <time>2010-08-13T15:57:50Z</time>
      </trkpt>
      <trkpt lat="43.71414" lon="7.09382">
        <ele>310.643066</ele>
        <time>2010-08-13T15:57:51Z</time>
      </trkpt>
      <trkpt lat="43.71417" lon="7.09381">
        <ele>311.604492</ele>
        <time>2010-08-13T15:57:52Z</time>
      </trkpt>
      <trkpt lat="43.71418" lon="7.09379">
        <ele>310.162476</ele>
        <time>2010-08-13T15:57:53Z</time>
      </trkpt>
      <trkpt lat="43.7142" lon="7.09378">
        <ele>310.162476</ele>
        <time>2010-08-13T15:57:54Z</time>
      </trkpt>
      <trkpt lat="43.71421" lon="7.09376">
        <ele>309.681885</ele>
        <time>2010-08-13T15:57:55Z</time>
      </trkpt>
      <trkpt lat="43.71423" lon="7.09374">
        <ele>308.720459</ele>
        <time>2010-08-13T15:57:56Z</time>
      </trkpt>
      <trkpt lat="43.71424" lon="7.09373">
        <ele>307.759277</ele>
        <time>2010-08-13T15:57:57Z</time>
      </trkpt>
      <trkpt lat="43.71426" lon="7.09371">
        <ele>308.720459</ele>
        <time>2010-08-13T15:57:58Z</time>
      </trkpt>
      <trkpt lat="43.71428" lon="7.09368">
        <ele>310.162476</ele>
        <time>2010-08-13T15:57:59Z</time>
      </trkpt>
      <trkpt lat="43.71429" lon="7.09364">
        <ele>309.681885</ele>
        <time>2010-08-13T15:58:00Z</time>
      </trkpt>
      <trkpt lat="43.71431" lon="7.09361">
        <ele>310.162476</ele>
        <time>2010-08-13T15:58:01Z</time>
      </trkpt>
      <trkpt lat="43.71432" lon="7.09357">
        <ele>309.201172</ele>
        <time>2010-08-13T15:58:02Z</time>
      </trkpt>
      <trkpt lat="43.71432" lon="7.09354">
        <ele>308.720459</ele>
        <time>2010-08-13T15:58:03Z</time>
      </trkpt>
      <trkpt lat="43.71433" lon="7.09352">
        <ele>308.720459</ele>
        <time>2010-08-13T15:58:04Z</time>
      </trkpt>
      <trkpt lat="43.71434" lon="7.09349">
        <ele>308.239868</ele>
        <time>2010-08-13T15:58:05Z</time>
      </trkpt>
      <trkpt lat="43.71435" lon="7.09346">
        <ele>309.681885</ele>
        <time>2010-08-13T15:58:06Z</time>
      </trkpt>
      <trkpt lat="43.71436" lon="7.09344">
        <ele>310.162476</ele>
        <time>2010-08-13T15:58:07Z</time>
      </trkpt>
      <trkpt lat="43.71437" lon="7.09343">
        <ele>309.681885</ele>
        <time>2010-08-13T15:58:08Z</time>
      </trkpt>
      <trkpt lat="43.71438" lon="7.09341">
        <ele>309.681885</ele>
        <time>2010-08-13T15:58:09Z</time>
      </trkpt>
      <trkpt lat="43.71439" lon="7.09337">
        <ele>309.681885</ele>
        <time>2010-08-13T15:58:10Z</time>
      </trkpt>
      <trkpt lat="43.7144" lon="7.09335">
        <ele>312.085205</ele>
        <time>2010-08-13T15:58:11Z</time>
      </trkpt>
      <trkpt lat="43.71441" lon="7.09332">
        <ele>312.085205</ele>
        <time>2010-08-13T15:58:12Z</time>
      </trkpt>
      <trkpt lat="43.71441" lon="7.09331">
        <ele>313.046509</ele>
        <time>2010-08-13T15:58:13Z</time>
      </trkpt>
      <trkpt lat="43.71441" lon="7.09328">
        <ele>315.93042</ele>
        <time>2010-08-13T15:58:14Z</time>
      </trkpt>
      <trkpt lat="43.71442" lon="7.09326">
        <ele>316.891724</ele>
        <time>2010-08-13T15:58:15Z</time>
      </trkpt>
      <trkpt lat="43.71443" lon="7.09325">
        <ele>318.333618</ele>
        <time>2010-08-13T15:58:16Z</time>
      </trkpt>
      <trkpt lat="43.71444" lon="7.09325">
        <ele>317.853027</ele>
        <time>2010-08-13T15:58:17Z</time>
      </trkpt>
      <trkpt lat="43.71446" lon="7.09324">
        <ele>315.93042</ele>
        <time>2010-08-13T15:58:18Z</time>
      </trkpt>
      <trkpt lat="43.71448" lon="7.09323">
        <ele>314.007812</ele>
        <time>2010-08-13T15:58:19Z</time>
      </trkpt>
      <trkpt lat="43.7145" lon="7.09321">
        <ele>311.604492</ele>
        <time>2010-08-13T15:58:20Z</time>
      </trkpt>
      <trkpt lat="43.71453" lon="7.09318">
        <ele>311.604492</ele>
        <time>2010-08-13T15:58:21Z</time>
      </trkpt>
      <trkpt lat="43.71455" lon="7.09315">
        <ele>311.123779</ele>
        <time>2010-08-13T15:58:22Z</time>
      </trkpt>
      <trkpt lat="43.71456" lon="7.09312">
        <ele>310.643066</ele>
        <time>2010-08-13T15:58:23Z</time>
      </trkpt>
      <trkpt lat="43.71458" lon="7.09309">
        <ele>311.123779</ele>
        <time>2010-08-13T15:58:24Z</time>
      </trkpt>
      <trkpt lat="43.71458" lon="7.09306">
        <ele>310.643066</ele>
        <time>2010-08-13T15:58:25Z</time>
      </trkpt>
      <trkpt lat="43.71459" lon="7.09303">
        <ele>310.162476</ele>
        <time>2010-08-13T15:58:26Z</time>
      </trkpt>
      <trkpt lat="43.71461" lon="7.09301">
        <ele>309.201172</ele>
        <time>2010-08-13T15:58:27Z</time>
      </trkpt>
      <trkpt lat="43.71462" lon="7.09299">
        <ele>307.759277</ele>
        <time>2010-08-13T15:58:28Z</time>
      </trkpt>
      <trkpt lat="43.71465" lon="7.09298">
        <ele>307.759277</ele>
        <time>2010-08-13T15:58:29Z</time>
      </trkpt>
      <trkpt lat="43.71466" lon="7.09297">
        <ele>306.797852</ele>
        <time>2010-08-13T15:58:30Z</time>
      </trkpt>
      <trkpt lat="43.71469" lon="7.09294">
        <ele>307.278564</ele>
        <time>2010-08-13T15:58:31Z</time>
      </trkpt>
      <trkpt lat="43.71472" lon="7.09292">
        <ele>306.797852</ele>
        <time>2010-08-13T15:58:32Z</time>
      </trkpt>
      <trkpt lat="43.71473" lon="7.09289">
        <ele>306.797852</ele>
        <time>2010-08-13T15:58:33Z</time>
      </trkpt>
      <trkpt lat="43.71475" lon="7.09288">
        <ele>306.317261</ele>
        <time>2010-08-13T15:58:34Z</time>
      </trkpt>
      <trkpt lat="43.71476" lon="7.09286">
        <ele>305.355957</ele>
        <time>2010-08-13T15:58:35Z</time>
      </trkpt>
      <trkpt lat="43.71477" lon="7.09284">
        <ele>304.875244</ele>
        <time>2010-08-13T15:58:36Z</time>
      </trkpt>
      <trkpt lat="43.71478" lon="7.09282">
        <ele>303.433228</ele>
        <time>2010-08-13T15:58:37Z</time>
      </trkpt>
      <trkpt lat="43.7148" lon="7.09281">
        <ele>302.952515</ele>
        <time>2010-08-13T15:58:38Z</time>
      </trkpt>
      <trkpt lat="43.71482" lon="7.09279">
        <ele>303.91394</ele>
        <time>2010-08-13T15:58:39Z</time>
      </trkpt>
      <trkpt lat="43.71484" lon="7.09276">
        <ele>303.91394</ele>
        <time>2010-08-13T15:58:40Z</time>
      </trkpt>
      <trkpt lat="43.71485" lon="7.09274">
        <ele>304.394653</ele>
        <time>2010-08-13T15:58:41Z</time>
      </trkpt>
      <trkpt lat="43.71486" lon="7.09271">
        <ele>303.91394</ele>
        <time>2010-08-13T15:58:42Z</time>
      </trkpt>
      <trkpt lat="43.71487" lon="7.09268">
        <ele>302.471924</ele>
        <time>2010-08-13T15:58:43Z</time>
      </trkpt>
      <trkpt lat="43.71487" lon="7.09266">
        <ele>301.51062</ele>
        <time>2010-08-13T15:58:44Z</time>
      </trkpt>
      <trkpt lat="43.71487" lon="7.09263">
        <ele>301.029907</ele>
        <time>2010-08-13T15:58:45Z</time>
      </trkpt>
      <trkpt lat="43.71488" lon="7.0926">
        <ele>300.068726</ele>
        <time>2010-08-13T15:58:46Z</time>
      </trkpt>
      <trkpt lat="43.71488" lon="7.09257">
        <ele>301.51062</ele>
        <time>2010-08-13T15:58:47Z</time>
      </trkpt>
      <trkpt lat="43.7149" lon="7.09254">
        <ele>301.029907</ele>
        <time>2010-08-13T15:58:48Z</time>
      </trkpt>
      <trkpt lat="43.71491" lon="7.0925">
        <ele>300.549316</ele>
        <time>2010-08-13T15:58:49Z</time>
      </trkpt>
      <trkpt lat="43.71491" lon="7.09247">
        <ele>300.068726</ele>
        <time>2010-08-13T15:58:50Z</time>
      </trkpt>
      <trkpt lat="43.71492" lon="7.09243">
        <ele>299.588013</ele>
        <time>2010-08-13T15:58:51Z</time>
      </trkpt>
      <trkpt lat="43.71491" lon="7.09241">
        <ele>300.068726</ele>
        <time>2010-08-13T15:58:52Z</time>
      </trkpt>
      <trkpt lat="43.7149" lon="7.09239">
        <ele>300.549316</ele>
        <time>2010-08-13T15:58:53Z</time>
      </trkpt>
      <trkpt lat="43.71488" lon="7.09237">
        <ele>301.029907</ele>
        <time>2010-08-13T15:58:54Z</time>
      </trkpt>
      <trkpt lat="43.71488" lon="7.09235">
        <ele>300.549316</ele>
        <time>2010-08-13T15:58:55Z</time>
      </trkpt>
      <trkpt lat="43.71488" lon="7.09234">
        <ele>300.549316</ele>
        <time>2010-08-13T15:58:56Z</time>
      </trkpt>
      <trkpt lat="43.71487" lon="7.09231">
        <ele>299.588013</ele>
        <time>2010-08-13T15:58:57Z</time>
      </trkpt>
      <trkpt lat="43.71487" lon="7.09229">
        <ele>299.588013</ele>
        <time>2010-08-13T15:58:58Z</time>
      </trkpt>
      <trkpt lat="43.71487" lon="7.09227">
        <ele>300.068726</ele>
        <time>2010-08-13T15:58:59Z</time>
      </trkpt>
      <trkpt lat="43.71486" lon="7.09227">
        <ele>301.029907</ele>
        <time>2010-08-13T15:59:00Z</time>
      </trkpt>
      <trkpt lat="43.71485" lon="7.09226">
        <ele>302.952515</ele>
        <time>2010-08-13T15:59:01Z</time>
      </trkpt>
      <trkpt lat="43.71484" lon="7.09224">
        <ele>302.471924</ele>
        <time>2010-08-13T15:59:02Z</time>
      </trkpt>
      <trkpt lat="43.71482" lon="7.09222">
        <ele>303.433228</ele>
        <time>2010-08-13T15:59:03Z</time>
      </trkpt>
      <trkpt lat="43.71481" lon="7.0922">
        <ele>303.91394</ele>
        <time>2010-08-13T15:59:04Z</time>
      </trkpt>
      <trkpt lat="43.7148" lon="7.09218">
        <ele>304.394653</ele>
        <time>2010-08-13T15:59:05Z</time>
      </trkpt>
      <trkpt lat="43.7148" lon="7.09215">
        <ele>302.952515</ele>
        <time>2010-08-13T15:59:06Z</time>
      </trkpt>
      <trkpt lat="43.7148" lon="7.09212">
        <ele>302.471924</ele>
        <time>2010-08-13T15:59:07Z</time>
      </trkpt>
      <trkpt lat="43.71479" lon="7.0921">
        <ele>300.549316</ele>
        <time>2010-08-13T15:59:08Z</time>
      </trkpt>
      <trkpt lat="43.7148" lon="7.09208">
        <ele>299.1073</ele>
        <time>2010-08-13T15:59:09Z</time>
      </trkpt>
      <trkpt lat="43.71481" lon="7.09206">
        <ele>298.626709</ele>
        <time>2010-08-13T15:59:10Z</time>
      </trkpt>
      <trkpt lat="43.71481" lon="7.09205">
        <ele>296.704102</ele>
        <time>2010-08-13T15:59:11Z</time>
      </trkpt>
      <trkpt lat="43.71483" lon="7.09203">
        <ele>295.261963</ele>
        <time>2010-08-13T15:59:12Z</time>
      </trkpt>
      <trkpt lat="43.71484" lon="7.092">
        <ele>295.742676</ele>
        <time>2010-08-13T15:59:13Z</time>
      </trkpt>
      <trkpt lat="43.71486" lon="7.09197">
        <ele>296.704102</ele>
        <time>2010-08-13T15:59:14Z</time>
      </trkpt>
      <trkpt lat="43.71488" lon="7.09195">
        <ele>297.184692</ele>
        <time>2010-08-13T15:59:15Z</time>
      </trkpt>
      <trkpt lat="43.7149" lon="7.09194">
        <ele>296.223511</ele>
        <time>2010-08-13T15:59:16Z</time>
      </trkpt>
      <trkpt lat="43.71492" lon="7.09192">
        <ele>295.742676</ele>
        <time>2010-08-13T15:59:17Z</time>
      </trkpt>
      <trkpt lat="43.71494" lon="7.0919">
        <ele>295.261963</ele>
        <time>2010-08-13T15:59:18Z</time>
      </trkpt>
      <trkpt lat="43.71495" lon="7.09188">
        <ele>294.781372</ele>
        <time>2010-08-13T15:59:19Z</time>
      </trkpt>
      <trkpt lat="43.71497" lon="7.09186">
        <ele>293.820068</ele>
        <time>2010-08-13T15:59:20Z</time>
      </trkpt>
      <trkpt lat="43.71499" lon="7.09183">
        <ele>292.378174</ele>
        <time>2010-08-13T15:59:21Z</time>
      </trkpt>
      <trkpt lat="43.71501" lon="7.0918">
        <ele>292.378174</ele>
        <time>2010-08-13T15:59:22Z</time>
      </trkpt>
      <trkpt lat="43.71503" lon="7.09178">
        <ele>292.378174</ele>
        <time>2010-08-13T15:59:23Z</time>
      </trkpt>
      <trkpt lat="43.71504" lon="7.09177">
        <ele>290.936157</ele>
        <time>2010-08-13T15:59:24Z</time>
      </trkpt>
      <trkpt lat="43.71506" lon="7.09175">
        <ele>290.455566</ele>
        <time>2010-08-13T15:59:25Z</time>
      </trkpt>
      <trkpt lat="43.71508" lon="7.09173">
        <ele>289.974854</ele>
        <time>2010-08-13T15:59:26Z</time>
      </trkpt>
      <trkpt lat="43.71509" lon="7.09172">
        <ele>289.01355</ele>
        <time>2010-08-13T15:59:27Z</time>
      </trkpt>
      <trkpt lat="43.71511" lon="7.09171">
        <ele>288.052246</ele>
        <time>2010-08-13T15:59:28Z</time>
      </trkpt>
      <trkpt lat="43.71514" lon="7.0917">
        <ele>289.01355</ele>
        <time>2010-08-13T15:59:29Z</time>
      </trkpt>
      <trkpt lat="43.71515" lon="7.09169">
        <ele>288.052246</ele>
        <time>2010-08-13T15:59:30Z</time>
      </trkpt>
      <trkpt lat="43.71516" lon="7.09166">
        <ele>289.974854</ele>
        <time>2010-08-13T15:59:31Z</time>
      </trkpt>
      <trkpt lat="43.71518" lon="7.09163">
        <ele>291.416748</ele>
        <time>2010-08-13T15:59:32Z</time>
      </trkpt>
      <trkpt lat="43.71519" lon="7.09161">
        <ele>291.416748</ele>
        <time>2010-08-13T15:59:33Z</time>
      </trkpt>
      <trkpt lat="43.71521" lon="7.09159">
        <ele>292.858765</ele>
        <time>2010-08-13T15:59:34Z</time>
      </trkpt>
      <trkpt lat="43.71522" lon="7.09157">
        <ele>294.300781</ele>
        <time>2010-08-13T15:59:35Z</time>
      </trkpt>
      <trkpt lat="43.71524" lon="7.09155">
        <ele>295.742676</ele>
        <time>2010-08-13T15:59:36Z</time>
      </trkpt>
      <trkpt lat="43.71526" lon="7.09154">
        <ele>297.184692</ele>
        <time>2010-08-13T15:59:37Z</time>
      </trkpt>
      <trkpt lat="43.71528" lon="7.09155">
        <ele>298.146118</ele>
        <time>2010-08-13T15:59:38Z</time>
      </trkpt>
      <trkpt lat="43.7153" lon="7.09155">
        <ele>299.588013</ele>
        <time>2010-08-13T15:59:39Z</time>
      </trkpt>
      <trkpt lat="43.7153" lon="7.09155">
        <ele>302.471924</ele>
        <time>2010-08-13T15:59:40Z</time>
      </trkpt>
      <trkpt lat="43.71531" lon="7.09153">
        <ele>302.952515</ele>
        <time>2010-08-13T15:59:41Z</time>
      </trkpt>
      <trkpt lat="43.71532" lon="7.09152">
        <ele>303.433228</ele>
        <time>2010-08-13T15:59:42Z</time>
      </trkpt>
      <trkpt lat="43.71532" lon="7.0915">
        <ele>303.91394</ele>
        <time>2010-08-13T15:59:43Z</time>
      </trkpt>
      <trkpt lat="43.71534" lon="7.09149">
        <ele>303.91394</ele>
        <time>2010-08-13T15:59:44Z</time>
      </trkpt>
      <trkpt lat="43.71536" lon="7.09149">
        <ele>304.875244</ele>
        <time>2010-08-13T15:59:45Z</time>
      </trkpt>
      <trkpt lat="43.71538" lon="7.09149">
        <ele>305.355957</ele>
        <time>2010-08-13T15:59:46Z</time>
      </trkpt>
      <trkpt lat="43.7154" lon="7.09149">
        <ele>305.355957</ele>
        <time>2010-08-13T15:59:47Z</time>
      </trkpt>
      <trkpt lat="43.71541" lon="7.09151">
        <ele>305.83667</ele>
        <time>2010-08-13T15:59:48Z</time>
      </trkpt>
      <trkpt lat="43.71542" lon="7.09152">
        <ele>306.317261</ele>
        <time>2010-08-13T15:59:49Z</time>
      </trkpt>
      <trkpt lat="43.71544" lon="7.09153">
        <ele>306.317261</ele>
        <time>2010-08-13T15:59:50Z</time>
      </trkpt>
      <trkpt lat="43.71545" lon="7.09154">
        <ele>306.317261</ele>
        <time>2010-08-13T15:59:51Z</time>
      </trkpt>
      <trkpt lat="43.71546" lon="7.09154">
        <ele>306.317261</ele>
        <time>2010-08-13T15:59:52Z</time>
      </trkpt>
      <trkpt lat="43.71548" lon="7.09154">
        <ele>306.797852</ele>
        <time>2010-08-13T15:59:53Z</time>
      </trkpt>
      <trkpt lat="43.71549" lon="7.09154">
        <ele>306.797852</ele>
        <time>2010-08-13T15:59:54Z</time>
      </trkpt>
      <trkpt lat="43.7155" lon="7.09152">
        <ele>306.317261</ele>
        <time>2010-08-13T15:59:55Z</time>
      </trkpt>
      <trkpt lat="43.71549" lon="7.09151">
        <ele>304.875244</ele>
        <time>2010-08-13T15:59:56Z</time>
      </trkpt>
      <trkpt lat="43.71549" lon="7.09148">
        <ele>305.83667</ele>
        <time>2010-08-13T15:59:57Z</time>
      </trkpt>
      <trkpt lat="43.7155" lon="7.09146">
        <ele>306.797852</ele>
        <time>2010-08-13T15:59:58Z</time>
      </trkpt>
      <trkpt lat="43.71551" lon="7.09145">
        <ele>306.797852</ele>
        <time>2010-08-13T15:59:59Z</time>
      </trkpt>
      <trkpt lat="43.71552" lon="7.09144">
        <ele>306.797852</ele>
        <time>2010-08-13T16:00:00Z</time>
      </trkpt>
      <trkpt lat="43.71553" lon="7.09143">
        <ele>306.797852</ele>
        <time>2010-08-13T16:00:01Z</time>
      </trkpt>
      <trkpt lat="43.71555" lon="7.09142">
        <ele>307.759277</ele>
        <time>2010-08-13T16:00:02Z</time>
      </trkpt>
      <trkpt lat="43.71556" lon="7.0914">
        <ele>308.720459</ele>
        <time>2010-08-13T16:00:03Z</time>
      </trkpt>
      <trkpt lat="43.71556" lon="7.09138">
        <ele>308.239868</ele>
        <time>2010-08-13T16:00:04Z</time>
      </trkpt>
      <trkpt lat="43.71557" lon="7.09137">
        <ele>308.239868</ele>
        <time>2010-08-13T16:00:05Z</time>
      </trkpt>
      <trkpt lat="43.71557" lon="7.09135">
        <ele>308.239868</ele>
        <time>2010-08-13T16:00:06Z</time>
      </trkpt>
      <trkpt lat="43.71556" lon="7.09133">
        <ele>307.759277</ele>
        <time>2010-08-13T16:00:07Z</time>
      </trkpt>
      <trkpt lat="43.71556" lon="7.09132">
        <ele>307.278564</ele>
        <time>2010-08-13T16:00:08Z</time>
      </trkpt>
      <trkpt lat="43.71556" lon="7.09129">
        <ele>306.317261</ele>
        <time>2010-08-13T16:00:09Z</time>
      </trkpt>
      <trkpt lat="43.71556" lon="7.09127">
        <ele>306.317261</ele>
        <time>2010-08-13T16:00:10Z</time>
      </trkpt>
      <trkpt lat="43.71557" lon="7.09125">
        <ele>306.797852</ele>
        <time>2010-08-13T16:00:11Z</time>
      </trkpt>
      <trkpt lat="43.71557" lon="7.09123">
        <ele>307.278564</ele>
        <time>2010-08-13T16:00:12Z</time>
      </trkpt>
      <trkpt lat="43.71558" lon="7.09121">
        <ele>308.239868</ele>
        <time>2010-08-13T16:00:13Z</time>
      </trkpt>
      <trkpt lat="43.71557" lon="7.09119">
        <ele>308.239868</ele>
        <time>2010-08-13T16:00:14Z</time>
      </trkpt>
      <trkpt lat="43.71557" lon="7.09116">
        <ele>306.797852</ele>
        <time>2010-08-13T16:00:15Z</time>
      </trkpt>
      <trkpt lat="43.71558" lon="7.09114">
        <ele>306.797852</ele>
        <time>2010-08-13T16:00:16Z</time>
      </trkpt>
      <trkpt lat="43.71557" lon="7.09111">
        <ele>304.875244</ele>
        <time>2010-08-13T16:00:17Z</time>
      </trkpt>
      <trkpt lat="43.71557" lon="7.09108">
        <ele>304.394653</ele>
        <time>2010-08-13T16:00:18Z</time>
      </trkpt>
      <trkpt lat="43.71557" lon="7.09105">
        <ele>304.394653</ele>
        <time>2010-08-13T16:00:19Z</time>
      </trkpt>
      <trkpt lat="43.71558" lon="7.09102">
        <ele>304.394653</ele>
        <time>2010-08-13T16:00:20Z</time>
      </trkpt>
      <trkpt lat="43.71559" lon="7.09099">
        <ele>305.355957</ele>
        <time>2010-08-13T16:00:21Z</time>
      </trkpt>
      <trkpt lat="43.7156" lon="7.09098">
        <ele>305.83667</ele>
        <time>2010-08-13T16:00:22Z</time>
      </trkpt>
      <trkpt lat="43.7156" lon="7.09096">
        <ele>305.83667</ele>
        <time>2010-08-13T16:00:23Z</time>
      </trkpt>
      <trkpt lat="43.71561" lon="7.09094">
        <ele>305.83667</ele>
        <time>2010-08-13T16:00:24Z</time>
      </trkpt>
      <trkpt lat="43.71562" lon="7.09092">
        <ele>306.797852</ele>
        <time>2010-08-13T16:00:25Z</time>
      </trkpt>
      <trkpt lat="43.71563" lon="7.09091">
        <ele>308.239868</ele>
        <time>2010-08-13T16:00:26Z</time>
      </trkpt>
      <trkpt lat="43.71565" lon="7.09089">
        <ele>308.720459</ele>
        <time>2010-08-13T16:00:27Z</time>
      </trkpt>
      <trkpt lat="43.71565" lon="7.09087">
        <ele>308.239868</ele>
        <time>2010-08-13T16:00:28Z</time>
      </trkpt>
      <trkpt lat="43.71566" lon="7.09085">
        <ele>308.239868</ele>
        <time>2010-08-13T16:00:29Z</time>
      </trkpt>
      <trkpt lat="43.71567" lon="7.09083">
        <ele>307.759277</ele>
        <time>2010-08-13T16:00:30Z</time>
      </trkpt>
      <trkpt lat="43.71569" lon="7.09081">
        <ele>307.759277</ele>
        <time>2010-08-13T16:00:31Z</time>
      </trkpt>
      <trkpt lat="43.7157" lon="7.0908">
        <ele>307.278564</ele>
        <time>2010-08-13T16:00:32Z</time>
      </trkpt>
      <trkpt lat="43.71572" lon="7.09079">
        <ele>307.759277</ele>
        <time>2010-08-13T16:00:33Z</time>
      </trkpt>
      <trkpt lat="43.71574" lon="7.09078">
        <ele>307.278564</ele>
        <time>2010-08-13T16:00:34Z</time>
      </trkpt>
      <trkpt lat="43.71576" lon="7.09077">
        <ele>307.759277</ele>
        <time>2010-08-13T16:00:35Z</time>
      </trkpt>
      <trkpt lat="43.71578" lon="7.09075">
        <ele>311.123779</ele>
        <time>2010-08-13T16:00:36Z</time>
      </trkpt>
      <trkpt lat="43.7158" lon="7.09074">
        <ele>312.085205</ele>
        <time>2010-08-13T16:00:37Z</time>
      </trkpt>
      <trkpt lat="43.71582" lon="7.09073">
        <ele>312.565796</ele>
        <time>2010-08-13T16:00:38Z</time>
      </trkpt>
      <trkpt lat="43.71583" lon="7.09072">
        <ele>312.085205</ele>
        <time>2010-08-13T16:00:39Z</time>
      </trkpt>
      <trkpt lat="43.71585" lon="7.09072">
        <ele>312.085205</ele>
        <time>2010-08-13T16:00:40Z</time>
      </trkpt>
      <trkpt lat="43.71586" lon="7.0907">
        <ele>311.604492</ele>
        <time>2010-08-13T16:00:41Z</time>
      </trkpt>
      <trkpt lat="43.71588" lon="7.09069">
        <ele>312.085205</ele>
        <time>2010-08-13T16:00:42Z</time>
      </trkpt>
      <trkpt lat="43.7159" lon="7.09069">
        <ele>312.565796</ele>
        <time>2010-08-13T16:00:43Z</time>
      </trkpt>
      <trkpt lat="43.71591" lon="7.0907">
        <ele>313.046509</ele>
        <time>2010-08-13T16:00:44Z</time>
      </trkpt>
      <trkpt lat="43.71593" lon="7.0907">
        <ele>314.007812</ele>
        <time>2010-08-13T16:00:45Z</time>
      </trkpt>
      <trkpt lat="43.71594" lon="7.09071">
        <ele>315.449829</ele>
        <time>2010-08-13T16:00:46Z</time>
      </trkpt>
      <trkpt lat="43.71597" lon="7.0907">
        <ele>320.256348</ele>
        <time>2010-08-13T16:00:47Z</time>
      </trkpt>
      <trkpt lat="43.71599" lon="7.09069">
        <ele>324.101562</ele>
        <time>2010-08-13T16:00:48Z</time>
      </trkpt>
      <trkpt lat="43.716" lon="7.09069">
        <ele>325.062988</ele>
        <time>2010-08-13T16:00:49Z</time>
      </trkpt>
      <trkpt lat="43.71601" lon="7.09069">
        <ele>325.062988</ele>
        <time>2010-08-13T16:00:50Z</time>
      </trkpt>
      <trkpt lat="43.71602" lon="7.09071">
        <ele>324.582275</ele>
        <time>2010-08-13T16:00:51Z</time>
      </trkpt>
      <trkpt lat="43.71602" lon="7.09072">
        <ele>324.582275</ele>
        <time>2010-08-13T16:00:52Z</time>
      </trkpt>
      <trkpt lat="43.71602" lon="7.09075">
        <ele>324.582275</ele>
        <time>2010-08-13T16:00:53Z</time>
      </trkpt>
      <trkpt lat="43.71603" lon="7.09077">
        <ele>324.101562</ele>
        <time>2010-08-13T16:00:54Z</time>
      </trkpt>
      <trkpt lat="43.71603" lon="7.09079">
        <ele>324.582275</ele>
        <time>2010-08-13T16:00:55Z</time>
      </trkpt>
      <trkpt lat="43.71605" lon="7.09081">
        <ele>326.504883</ele>
        <time>2010-08-13T16:00:56Z</time>
      </trkpt>
      <trkpt lat="43.71607" lon="7.09082">
        <ele>327.466187</ele>
        <time>2010-08-13T16:00:57Z</time>
      </trkpt>
      <trkpt lat="43.71608" lon="7.09083">
        <ele>327.466187</ele>
        <time>2010-08-13T16:00:58Z</time>
      </trkpt>
      <trkpt lat="43.7161" lon="7.09085">
        <ele>327.466187</ele>
        <time>2010-08-13T16:00:59Z</time>
      </trkpt>
      <trkpt lat="43.71612" lon="7.09085">
        <ele>328.908325</ele>
        <time>2010-08-13T16:01:00Z</time>
      </trkpt>
      <trkpt lat="43.71614" lon="7.09087">
        <ele>328.427612</ele>
        <time>2010-08-13T16:01:01Z</time>
      </trkpt>
      <trkpt lat="43.71615" lon="7.09089">
        <ele>327.466187</ele>
        <time>2010-08-13T16:01:02Z</time>
      </trkpt>
      <trkpt lat="43.71616" lon="7.0909">
        <ele>327.946777</ele>
        <time>2010-08-13T16:01:03Z</time>
      </trkpt>
      <trkpt lat="43.71618" lon="7.09093">
        <ele>326.985596</ele>
        <time>2010-08-13T16:01:04Z</time>
      </trkpt>
      <trkpt lat="43.71619" lon="7.09095">
        <ele>327.466187</ele>
        <time>2010-08-13T16:01:05Z</time>
      </trkpt>
      <trkpt lat="43.7162" lon="7.09097">
        <ele>326.985596</ele>
        <time>2010-08-13T16:01:06Z</time>
      </trkpt>
      <trkpt lat="43.71622" lon="7.09099">
        <ele>326.02417</ele>
        <time>2010-08-13T16:01:07Z</time>
      </trkpt>
      <trkpt lat="43.71623" lon="7.09102">
        <ele>324.101562</ele>
        <time>2010-08-13T16:01:08Z</time>
      </trkpt>
      <trkpt lat="43.71623" lon="7.09104">
        <ele>323.620972</ele>
        <time>2010-08-13T16:01:09Z</time>
      </trkpt>
      <trkpt lat="43.71622" lon="7.09106">
        <ele>322.659668</ele>
        <time>2010-08-13T16:01:10Z</time>
      </trkpt>
      <trkpt lat="43.71622" lon="7.09108">
        <ele>321.698364</ele>
        <time>2010-08-13T16:01:11Z</time>
      </trkpt>
      <trkpt lat="43.71622" lon="7.09111">
        <ele>321.698364</ele>
        <time>2010-08-13T16:01:12Z</time>
      </trkpt>
      <trkpt lat="43.71622" lon="7.09113">
        <ele>321.217773</ele>
        <time>2010-08-13T16:01:13Z</time>
      </trkpt>
      <trkpt lat="43.71623" lon="7.09114">
        <ele>321.217773</ele>
        <time>2010-08-13T16:01:14Z</time>
      </trkpt>
      <trkpt lat="43.71623" lon="7.09115">
        <ele>321.217773</ele>
        <time>2010-08-13T16:01:15Z</time>
      </trkpt>
      <trkpt lat="43.71623" lon="7.09115">
        <ele>321.217773</ele>
        <time>2010-08-13T16:01:16Z</time>
      </trkpt>
      <trkpt lat="43.71623" lon="7.09115">
        <ele>321.698364</ele>
        <time>2010-08-13T16:01:17Z</time>
      </trkpt>
      <trkpt lat="43.71623" lon="7.09114">
        <ele>321.698364</ele>
        <time>2010-08-13T16:01:18Z</time>
      </trkpt>
      <trkpt lat="43.71622" lon="7.09113">
        <ele>319.775635</ele>
        <time>2010-08-13T16:01:19Z</time>
      </trkpt>
      <trkpt lat="43.71622" lon="7.09113">
        <ele>319.775635</ele>
        <time>2010-08-13T16:01:20Z</time>
      </trkpt>
      <trkpt lat="43.71622" lon="7.09113">
        <ele>318.814331</ele>
        <time>2010-08-13T16:01:21Z</time>
      </trkpt>
      <trkpt lat="43.71623" lon="7.09113">
        <ele>319.295044</ele>
        <time>2010-08-13T16:01:22Z</time>
      </trkpt>
      <trkpt lat="43.71624" lon="7.09113">
        <ele>319.775635</ele>
        <time>2010-08-13T16:01:23Z</time>
      </trkpt>
      <trkpt lat="43.71626" lon="7.09114">
        <ele>321.217773</ele>
        <time>2010-08-13T16:01:24Z</time>
      </trkpt>
      <trkpt lat="43.71629" lon="7.09116">
        <ele>322.178955</ele>
        <time>2010-08-13T16:01:25Z</time>
      </trkpt>
      <trkpt lat="43.71631" lon="7.09117">
        <ele>324.582275</ele>
        <time>2010-08-13T16:01:26Z</time>
      </trkpt>
      <trkpt lat="43.71633" lon="7.09119">
        <ele>324.582275</ele>
        <time>2010-08-13T16:01:27Z</time>
      </trkpt>
      <trkpt lat="43.71636" lon="7.09119">
        <ele>325.543579</ele>
        <time>2010-08-13T16:01:28Z</time>
      </trkpt>
      <trkpt lat="43.71638" lon="7.0912">
        <ele>326.02417</ele>
        <time>2010-08-13T16:01:29Z</time>
      </trkpt>
      <trkpt lat="43.71639" lon="7.09121">
        <ele>325.543579</ele>
        <time>2010-08-13T16:01:30Z</time>
      </trkpt>
      <trkpt lat="43.71642" lon="7.0912">
        <ele>326.02417</ele>
        <time>2010-08-13T16:01:31Z</time>
      </trkpt>
      <trkpt lat="43.71644" lon="7.0912">
        <ele>325.543579</ele>
        <time>2010-08-13T16:01:32Z</time>
      </trkpt>
      <trkpt lat="43.71646" lon="7.0912">
        <ele>325.543579</ele>
        <time>2010-08-13T16:01:33Z</time>
      </trkpt>
      <trkpt lat="43.71648" lon="7.0912">
        <ele>325.062988</ele>
        <time>2010-08-13T16:01:34Z</time>
      </trkpt>
      <trkpt lat="43.7165" lon="7.09118">
        <ele>326.504883</ele>
        <time>2010-08-13T16:01:35Z</time>
      </trkpt>
      <trkpt lat="43.71652" lon="7.09118">
        <ele>325.543579</ele>
        <time>2010-08-13T16:01:36Z</time>
      </trkpt>
      <trkpt lat="43.71654" lon="7.09117">
        <ele>326.02417</ele>
        <time>2010-08-13T16:01:37Z</time>
      </trkpt>
      <trkpt lat="43.71656" lon="7.09117">
        <ele>326.02417</ele>
        <time>2010-08-13T16:01:38Z</time>
      </trkpt>
      <trkpt lat="43.71658" lon="7.09117">
        <ele>325.543579</ele>
        <time>2010-08-13T16:01:39Z</time>
      </trkpt>
      <trkpt lat="43.71659" lon="7.09116">
        <ele>324.101562</ele>
        <time>2010-08-13T16:01:40Z</time>
      </trkpt>
      <trkpt lat="43.71661" lon="7.09114">
        <ele>325.062988</ele>
        <time>2010-08-13T16:01:41Z</time>
      </trkpt>
      <trkpt lat="43.71663" lon="7.09113">
        <ele>327.466187</ele>
        <time>2010-08-13T16:01:42Z</time>
      </trkpt>
      <trkpt lat="43.71665" lon="7.09111">
        <ele>328.908325</ele>
        <time>2010-08-13T16:01:43Z</time>
      </trkpt>
      <trkpt lat="43.71666" lon="7.09109">
        <ele>330.830933</ele>
        <time>2010-08-13T16:01:44Z</time>
      </trkpt>
      <trkpt lat="43.71666" lon="7.09106">
        <ele>330.830933</ele>
        <time>2010-08-13T16:01:45Z</time>
      </trkpt>
      <trkpt lat="43.71667" lon="7.09103">
        <ele>331.311523</ele>
        <time>2010-08-13T16:01:46Z</time>
      </trkpt>
      <trkpt lat="43.71667" lon="7.09101">
        <ele>331.792114</ele>
        <time>2010-08-13T16:01:47Z</time>
      </trkpt>
      <trkpt lat="43.71668" lon="7.09098">
        <ele>331.792114</ele>
        <time>2010-08-13T16:01:48Z</time>
      </trkpt>
      <trkpt lat="43.71668" lon="7.09097">
        <ele>330.830933</ele>
        <time>2010-08-13T16:01:49Z</time>
      </trkpt>
      <trkpt lat="43.71669" lon="7.09094">
        <ele>329.388916</ele>
        <time>2010-08-13T16:01:50Z</time>
      </trkpt>
      <trkpt lat="43.71669" lon="7.09092">
        <ele>328.427612</ele>
        <time>2010-08-13T16:01:51Z</time>
      </trkpt>
      <trkpt lat="43.7167" lon="7.09089">
        <ele>326.985596</ele>
        <time>2010-08-13T16:01:52Z</time>
      </trkpt>
      <trkpt lat="43.7167" lon="7.09087">
        <ele>325.543579</ele>
        <time>2010-08-13T16:01:53Z</time>
      </trkpt>
      <trkpt lat="43.7167" lon="7.09085">
        <ele>325.062988</ele>
        <time>2010-08-13T16:01:54Z</time>
      </trkpt>
      <trkpt lat="43.7167" lon="7.09083">
        <ele>324.101562</ele>
        <time>2010-08-13T16:01:55Z</time>
      </trkpt>
      <trkpt lat="43.7167" lon="7.0908">
        <ele>324.101562</ele>
        <time>2010-08-13T16:01:56Z</time>
      </trkpt>
      <trkpt lat="43.7167" lon="7.09078">
        <ele>323.620972</ele>
        <time>2010-08-13T16:01:57Z</time>
      </trkpt>
      <trkpt lat="43.71669" lon="7.09075">
        <ele>323.620972</ele>
        <time>2010-08-13T16:01:58Z</time>
      </trkpt>
      <trkpt lat="43.7167" lon="7.09073">
        <ele>323.140381</ele>
        <time>2010-08-13T16:01:59Z</time>
      </trkpt>
      <trkpt lat="43.7167" lon="7.09071">
        <ele>322.659668</ele>
        <time>2010-08-13T16:02:00Z</time>
      </trkpt>
      <trkpt lat="43.7167" lon="7.09068">
        <ele>322.659668</ele>
        <time>2010-08-13T16:02:01Z</time>
      </trkpt>
      <trkpt lat="43.7167" lon="7.09065">
        <ele>321.698364</ele>
        <time>2010-08-13T16:02:02Z</time>
      </trkpt>
      <trkpt lat="43.7167" lon="7.09062">
        <ele>321.698364</ele>
        <time>2010-08-13T16:02:03Z</time>
      </trkpt>
      <trkpt lat="43.71669" lon="7.09059">
        <ele>320.256348</ele>
        <time>2010-08-13T16:02:04Z</time>
      </trkpt>
      <trkpt lat="43.71669" lon="7.09056">
        <ele>319.775635</ele>
        <time>2010-08-13T16:02:05Z</time>
      </trkpt>
      <trkpt lat="43.71669" lon="7.09054">
        <ele>318.814331</ele>
        <time>2010-08-13T16:02:06Z</time>
      </trkpt>
      <trkpt lat="43.7167" lon="7.09053">
        <ele>318.814331</ele>
        <time>2010-08-13T16:02:07Z</time>
      </trkpt>
      <trkpt lat="43.71672" lon="7.09051">
        <ele>318.814331</ele>
        <time>2010-08-13T16:02:08Z</time>
      </trkpt>
      <trkpt lat="43.71672" lon="7.09048">
        <ele>318.333618</ele>
        <time>2010-08-13T16:02:09Z</time>
      </trkpt>
      <trkpt lat="43.71672" lon="7.09046">
        <ele>318.333618</ele>
        <time>2010-08-13T16:02:10Z</time>
      </trkpt>
      <trkpt lat="43.71671" lon="7.09045">
        <ele>317.853027</ele>
        <time>2010-08-13T16:02:11Z</time>
      </trkpt>
      <trkpt lat="43.71669" lon="7.09044">
        <ele>318.333618</ele>
        <time>2010-08-13T16:02:12Z</time>
      </trkpt>
      <trkpt lat="43.71667" lon="7.09042">
        <ele>317.853027</ele>
        <time>2010-08-13T16:02:13Z</time>
      </trkpt>
      <trkpt lat="43.71665" lon="7.09041">
        <ele>318.814331</ele>
        <time>2010-08-13T16:02:14Z</time>
      </trkpt>
      <trkpt lat="43.71663" lon="7.09039">
        <ele>319.775635</ele>
        <time>2010-08-13T16:02:15Z</time>
      </trkpt>
      <trkpt lat="43.71661" lon="7.09037">
        <ele>320.256348</ele>
        <time>2010-08-13T16:02:16Z</time>
      </trkpt>
      <trkpt lat="43.71659" lon="7.09036">
        <ele>320.256348</ele>
        <time>2010-08-13T16:02:17Z</time>
      </trkpt>
      <trkpt lat="43.71657" lon="7.09035">
        <ele>319.775635</ele>
        <time>2010-08-13T16:02:18Z</time>
      </trkpt>
      <trkpt lat="43.71656" lon="7.09033">
        <ele>320.256348</ele>
        <time>2010-08-13T16:02:19Z</time>
      </trkpt>
      <trkpt lat="43.71654" lon="7.09032">
        <ele>320.256348</ele>
        <time>2010-08-13T16:02:20Z</time>
      </trkpt>
      <trkpt lat="43.71652" lon="7.09031">
        <ele>321.217773</ele>
        <time>2010-08-13T16:02:21Z</time>
      </trkpt>
      <trkpt lat="43.71651" lon="7.09029">
        <ele>321.217773</ele>
        <time>2010-08-13T16:02:22Z</time>
      </trkpt>
      <trkpt lat="43.71649" lon="7.09027">
        <ele>320.737061</ele>
        <time>2010-08-13T16:02:23Z</time>
      </trkpt>
      <trkpt lat="43.71647" lon="7.09025">
        <ele>321.217773</ele>
        <time>2010-08-13T16:02:24Z</time>
      </trkpt>
      <trkpt lat="43.71646" lon="7.09022">
        <ele>321.217773</ele>
        <time>2010-08-13T16:02:25Z</time>
      </trkpt>
      <trkpt lat="43.71644" lon="7.09019">
        <ele>321.698364</ele>
        <time>2010-08-13T16:02:26Z</time>
      </trkpt>
      <trkpt lat="43.71642" lon="7.09018">
        <ele>321.698364</ele>
        <time>2010-08-13T16:02:27Z</time>
      </trkpt>
      <trkpt lat="43.7164" lon="7.09017">
        <ele>321.698364</ele>
        <time>2010-08-13T16:02:28Z</time>
      </trkpt>
      <trkpt lat="43.71638" lon="7.09015">
        <ele>320.737061</ele>
        <time>2010-08-13T16:02:29Z</time>
      </trkpt>
      <trkpt lat="43.71636" lon="7.09013">
        <ele>320.737061</ele>
        <time>2010-08-13T16:02:30Z</time>
      </trkpt>
      <trkpt lat="43.71635" lon="7.09011">
        <ele>321.217773</ele>
        <time>2010-08-13T16:02:31Z</time>
      </trkpt>
      <trkpt lat="43.71633" lon="7.09009">
        <ele>320.737061</ele>
        <time>2010-08-13T16:02:32Z</time>
      </trkpt>
      <trkpt lat="43.71632" lon="7.09007">
        <ele>320.737061</ele>
        <time>2010-08-13T16:02:33Z</time>
      </trkpt>
      <trkpt lat="43.71631" lon="7.09005">
        <ele>320.256348</ele>
        <time>2010-08-13T16:02:34Z</time>
      </trkpt>
      <trkpt lat="43.71629" lon="7.09002">
        <ele>319.775635</ele>
        <time>2010-08-13T16:02:35Z</time>
      </trkpt>
      <trkpt lat="43.71627" lon="7.09">
        <ele>319.295044</ele>
        <time>2010-08-13T16:02:36Z</time>
      </trkpt>
      <trkpt lat="43.71626" lon="7.08998">
        <ele>317.853027</ele>
        <time>2010-08-13T16:02:37Z</time>
      </trkpt>
      <trkpt lat="43.71624" lon="7.08996">
        <ele>318.333618</ele>
        <time>2010-08-13T16:02:38Z</time>
      </trkpt>
      <trkpt lat="43.71623" lon="7.08994">
        <ele>317.853027</ele>
        <time>2010-08-13T16:02:39Z</time>
      </trkpt>
      <trkpt lat="43.71621" lon="7.08992">
        <ele>317.853027</ele>
        <time>2010-08-13T16:02:40Z</time>
      </trkpt>
      <trkpt lat="43.71619" lon="7.08991">
        <ele>316.891724</ele>
        <time>2010-08-13T16:02:41Z</time>
      </trkpt>
      <trkpt lat="43.71617" lon="7.08991">
        <ele>316.411011</ele>
        <time>2010-08-13T16:02:42Z</time>
      </trkpt>
      <trkpt lat="43.71616" lon="7.0899">
        <ele>315.449829</ele>
        <time>2010-08-13T16:02:43Z</time>
      </trkpt>
      <trkpt lat="43.71613" lon="7.0899">
        <ele>316.411011</ele>
        <time>2010-08-13T16:02:44Z</time>
      </trkpt>
      <trkpt lat="43.71611" lon="7.08991">
        <ele>316.411011</ele>
        <time>2010-08-13T16:02:45Z</time>
      </trkpt>
      <trkpt lat="43.7161" lon="7.08993">
        <ele>316.411011</ele>
        <time>2010-08-13T16:02:46Z</time>
      </trkpt>
      <trkpt lat="43.71609" lon="7.08994">
        <ele>314.969116</ele>
        <time>2010-08-13T16:02:47Z</time>
      </trkpt>
      <trkpt lat="43.71607" lon="7.08996">
        <ele>314.007812</ele>
        <time>2010-08-13T16:02:48Z</time>
      </trkpt>
      <trkpt lat="43.71606" lon="7.08998">
        <ele>312.565796</ele>
        <time>2010-08-13T16:02:49Z</time>
      </trkpt>
      <trkpt lat="43.71604" lon="7.08999">
        <ele>312.085205</ele>
        <time>2010-08-13T16:02:50Z</time>
      </trkpt>
      <trkpt lat="43.71602" lon="7.09001">
        <ele>311.123779</ele>
        <time>2010-08-13T16:02:51Z</time>
      </trkpt>
      <trkpt lat="43.716" lon="7.09003">
        <ele>310.643066</ele>
        <time>2010-08-13T16:02:52Z</time>
      </trkpt>
      <trkpt lat="43.71598" lon="7.09006">
        <ele>310.643066</ele>
        <time>2010-08-13T16:02:53Z</time>
      </trkpt>
      <trkpt lat="43.71597" lon="7.09008">
        <ele>311.123779</ele>
        <time>2010-08-13T16:02:54Z</time>
      </trkpt>
      <trkpt lat="43.71596" lon="7.09011">
        <ele>310.643066</ele>
        <time>2010-08-13T16:02:55Z</time>
      </trkpt>
      <trkpt lat="43.71594" lon="7.09013">
        <ele>311.604492</ele>
        <time>2010-08-13T16:02:56Z</time>
      </trkpt>
      <trkpt lat="43.71593" lon="7.09016">
        <ele>312.565796</ele>
        <time>2010-08-13T16:02:57Z</time>
      </trkpt>
      <trkpt lat="43.71591" lon="7.09018">
        <ele>313.527222</ele>
        <time>2010-08-13T16:02:58Z</time>
      </trkpt>
      <trkpt lat="43.71589" lon="7.0902">
        <ele>313.527222</ele>
        <time>2010-08-13T16:02:59Z</time>
      </trkpt>
      <trkpt lat="43.71587" lon="7.09023">
        <ele>313.046509</ele>
        <time>2010-08-13T16:03:00Z</time>
      </trkpt>
      <trkpt lat="43.71585" lon="7.09026">
        <ele>313.527222</ele>
        <time>2010-08-13T16:03:01Z</time>
      </trkpt>
      <trkpt lat="43.71584" lon="7.09029">
        <ele>313.046509</ele>
        <time>2010-08-13T16:03:02Z</time>
      </trkpt>
      <trkpt lat="43.71583" lon="7.09032">
        <ele>311.604492</ele>
        <time>2010-08-13T16:03:03Z</time>
      </trkpt>
      <trkpt lat="43.71581" lon="7.09034">
        <ele>310.162476</ele>
        <time>2010-08-13T16:03:04Z</time>
      </trkpt>
      <trkpt lat="43.71578" lon="7.09036">
        <ele>310.643066</ele>
        <time>2010-08-13T16:03:05Z</time>
      </trkpt>
      <trkpt lat="43.71577" lon="7.09036">
        <ele>309.681885</ele>
        <time>2010-08-13T16:03:06Z</time>
      </trkpt>
      <trkpt lat="43.71574" lon="7.09037">
        <ele>309.201172</ele>
        <time>2010-08-13T16:03:07Z</time>
      </trkpt>
      <trkpt lat="43.71572" lon="7.09038">
        <ele>309.681885</ele>
        <time>2010-08-13T16:03:08Z</time>
      </trkpt>
      <trkpt lat="43.71569" lon="7.09037">
        <ele>310.162476</ele>
        <time>2010-08-13T16:03:09Z</time>
      </trkpt>
      <trkpt lat="43.71567" lon="7.09037">
        <ele>310.643066</ele>
        <time>2010-08-13T16:03:10Z</time>
      </trkpt>
      <trkpt lat="43.71565" lon="7.09036">
        <ele>311.123779</ele>
        <time>2010-08-13T16:03:11Z</time>
      </trkpt>
      <trkpt lat="43.71564" lon="7.09035">
        <ele>312.085205</ele>
        <time>2010-08-13T16:03:12Z</time>
      </trkpt>
      <trkpt lat="43.71562" lon="7.09035">
        <ele>313.527222</ele>
        <time>2010-08-13T16:03:13Z</time>
      </trkpt>
      <trkpt lat="43.7156" lon="7.09035">
        <ele>315.449829</ele>
        <time>2010-08-13T16:03:14Z</time>
      </trkpt>
      <trkpt lat="43.71558" lon="7.09035">
        <ele>316.411011</ele>
        <time>2010-08-13T16:03:15Z</time>
      </trkpt>
      <trkpt lat="43.71556" lon="7.09035">
        <ele>316.411011</ele>
        <time>2010-08-13T16:03:16Z</time>
      </trkpt>
      <trkpt lat="43.71554" lon="7.09035">
        <ele>318.333618</ele>
        <time>2010-08-13T16:03:17Z</time>
      </trkpt>
      <trkpt lat="43.71552" lon="7.09036">
        <ele>319.295044</ele>
        <time>2010-08-13T16:03:18Z</time>
      </trkpt>
      <trkpt lat="43.71551" lon="7.09036">
        <ele>319.295044</ele>
        <time>2010-08-13T16:03:19Z</time>
      </trkpt>
      <trkpt lat="43.7155" lon="7.09036">
        <ele>319.295044</ele>
        <time>2010-08-13T16:03:20Z</time>
      </trkpt>
      <trkpt lat="43.71548" lon="7.09038">
        <ele>319.775635</ele>
        <time>2010-08-13T16:03:21Z</time>
      </trkpt>
      <trkpt lat="43.71546" lon="7.09039">
        <ele>320.256348</ele>
        <time>2010-08-13T16:03:22Z</time>
      </trkpt>
      <trkpt lat="43.71544" lon="7.09039">
        <ele>322.178955</ele>
        <time>2010-08-13T16:03:23Z</time>
      </trkpt>
      <trkpt lat="43.71543" lon="7.09039">
        <ele>322.178955</ele>
        <time>2010-08-13T16:03:24Z</time>
      </trkpt>
      <trkpt lat="43.71542" lon="7.09039">
        <ele>324.101562</ele>
        <time>2010-08-13T16:03:25Z</time>
      </trkpt>
      <trkpt lat="43.7154" lon="7.09039">
        <ele>325.543579</ele>
        <time>2010-08-13T16:03:26Z</time>
      </trkpt>
      <trkpt lat="43.71538" lon="7.09038">
        <ele>327.946777</ele>
        <time>2010-08-13T16:03:27Z</time>
      </trkpt>
      <trkpt lat="43.71535" lon="7.09037">
        <ele>330.35022</ele>
        <time>2010-08-13T16:03:28Z</time>
      </trkpt>
      <trkpt lat="43.71534" lon="7.09036">
        <ele>329.869507</ele>
        <time>2010-08-13T16:03:29Z</time>
      </trkpt>
      <trkpt lat="43.71532" lon="7.09035">
        <ele>329.869507</ele>
        <time>2010-08-13T16:03:30Z</time>
      </trkpt>
      <trkpt lat="43.71531" lon="7.09034">
        <ele>328.908325</ele>
        <time>2010-08-13T16:03:31Z</time>
      </trkpt>
      <trkpt lat="43.71529" lon="7.09033">
        <ele>330.35022</ele>
        <time>2010-08-13T16:03:32Z</time>
      </trkpt>
      <trkpt lat="43.71528" lon="7.09033">
        <ele>330.35022</ele>
        <time>2010-08-13T16:03:33Z</time>
      </trkpt>
      <trkpt lat="43.71526" lon="7.09034">
        <ele>329.388916</ele>
        <time>2010-08-13T16:03:34Z</time>
      </trkpt>
      <trkpt lat="43.71525" lon="7.09036">
        <ele>329.388916</ele>
        <time>2010-08-13T16:03:35Z</time>
      </trkpt>
      <trkpt lat="43.71523" lon="7.09038">
        <ele>328.908325</ele>
        <time>2010-08-13T16:03:36Z</time>
      </trkpt>
      <trkpt lat="43.71521" lon="7.09039">
        <ele>329.388916</ele>
        <time>2010-08-13T16:03:37Z</time>
      </trkpt>
      <trkpt lat="43.7152" lon="7.0904">
        <ele>329.388916</ele>
        <time>2010-08-13T16:03:38Z</time>
      </trkpt>
      <trkpt lat="43.71519" lon="7.09041">
        <ele>329.388916</ele>
        <time>2010-08-13T16:03:39Z</time>
      </trkpt>
      <trkpt lat="43.71517" lon="7.09041">
        <ele>328.908325</ele>
        <time>2010-08-13T16:03:40Z</time>
      </trkpt>
      <trkpt lat="43.71516" lon="7.09042">
        <ele>329.388916</ele>
        <time>2010-08-13T16:03:41Z</time>
      </trkpt>
      <trkpt lat="43.71514" lon="7.09042">
        <ele>328.908325</ele>
        <time>2010-08-13T16:03:42Z</time>
      </trkpt>
      <trkpt lat="43.71513" lon="7.09042">
        <ele>328.908325</ele>
        <time>2010-08-13T16:03:43Z</time>
      </trkpt>
      <trkpt lat="43.71511" lon="7.09043">
        <ele>328.908325</ele>
        <time>2010-08-13T16:03:44Z</time>
      </trkpt>
      <trkpt lat="43.7151" lon="7.09043">
        <ele>328.908325</ele>
        <time>2010-08-13T16:03:45Z</time>
      </trkpt>
      <trkpt lat="43.7151" lon="7.09044">
        <ele>328.908325</ele>
        <time>2010-08-13T16:03:46Z</time>
      </trkpt>
      <trkpt lat="43.7151" lon="7.09046">
        <ele>327.466187</ele>
        <time>2010-08-13T16:03:47Z</time>
      </trkpt>
      <trkpt lat="43.7151" lon="7.09048">
        <ele>327.466187</ele>
        <time>2010-08-13T16:03:48Z</time>
      </trkpt>
      <trkpt lat="43.7151" lon="7.09051">
        <ele>326.985596</ele>
        <time>2010-08-13T16:03:49Z</time>
      </trkpt>
      <trkpt lat="43.71509" lon="7.09053">
        <ele>325.543579</ele>
        <time>2010-08-13T16:03:50Z</time>
      </trkpt>
      <trkpt lat="43.71509" lon="7.09056">
        <ele>324.101562</ele>
        <time>2010-08-13T16:03:51Z</time>
      </trkpt>
      <trkpt lat="43.71508" lon="7.09058">
        <ele>322.659668</ele>
        <time>2010-08-13T16:03:52Z</time>
      </trkpt>
      <trkpt lat="43.71508" lon="7.0906">
        <ele>321.698364</ele>
        <time>2010-08-13T16:03:53Z</time>
      </trkpt>
      <trkpt lat="43.71507" lon="7.09062">
        <ele>320.737061</ele>
        <time>2010-08-13T16:03:54Z</time>
      </trkpt>
      <trkpt lat="43.71506" lon="7.09065">
        <ele>320.737061</ele>
        <time>2010-08-13T16:03:55Z</time>
      </trkpt>
      <trkpt lat="43.71505" lon="7.09067">
        <ele>320.737061</ele>
        <time>2010-08-13T16:03:56Z</time>
      </trkpt>
      <trkpt lat="43.71503" lon="7.09069">
        <ele>321.217773</ele>
        <time>2010-08-13T16:03:57Z</time>
      </trkpt>
      <trkpt lat="43.71502" lon="7.09071">
        <ele>321.698364</ele>
        <time>2010-08-13T16:03:58Z</time>
      </trkpt>
      <trkpt lat="43.715" lon="7.09073">
        <ele>321.698364</ele>
        <time>2010-08-13T16:03:59Z</time>
      </trkpt>
      <trkpt lat="43.71498" lon="7.09075">
        <ele>322.178955</ele>
        <time>2010-08-13T16:04:00Z</time>
      </trkpt>
      <trkpt lat="43.71497" lon="7.09077">
        <ele>323.620972</ele>
        <time>2010-08-13T16:04:01Z</time>
      </trkpt>
      <trkpt lat="43.71496" lon="7.09079">
        <ele>324.101562</ele>
        <time>2010-08-13T16:04:02Z</time>
      </trkpt>
      <trkpt lat="43.71494" lon="7.0908">
        <ele>324.101562</ele>
        <time>2010-08-13T16:04:03Z</time>
      </trkpt>
      <trkpt lat="43.71493" lon="7.09081">
        <ele>324.582275</ele>
        <time>2010-08-13T16:04:04Z</time>
      </trkpt>
      <trkpt lat="43.71491" lon="7.09082">
        <ele>325.062988</ele>
        <time>2010-08-13T16:04:05Z</time>
      </trkpt>
      <trkpt lat="43.71491" lon="7.09082">
        <ele>325.543579</ele>
        <time>2010-08-13T16:04:06Z</time>
      </trkpt>
      <trkpt lat="43.71491" lon="7.09082">
        <ele>326.985596</ele>
        <time>2010-08-13T16:04:07Z</time>
      </trkpt>
      <trkpt lat="43.71491" lon="7.09083">
        <ele>326.504883</ele>
        <time>2010-08-13T16:04:08Z</time>
      </trkpt>
      <trkpt lat="43.7149" lon="7.09085">
        <ele>326.504883</ele>
        <time>2010-08-13T16:04:09Z</time>
      </trkpt>
      <trkpt lat="43.71489" lon="7.09087">
        <ele>325.543579</ele>
        <time>2010-08-13T16:04:10Z</time>
      </trkpt>
      <trkpt lat="43.71488" lon="7.09088">
        <ele>325.543579</ele>
        <time>2010-08-13T16:04:11Z</time>
      </trkpt>
      <trkpt lat="43.71487" lon="7.0909">
        <ele>325.543579</ele>
        <time>2010-08-13T16:04:12Z</time>
      </trkpt>
      <trkpt lat="43.71486" lon="7.09092">
        <ele>324.582275</ele>
        <time>2010-08-13T16:04:13Z</time>
      </trkpt>
      <trkpt lat="43.71485" lon="7.09094">
        <ele>324.101562</ele>
        <time>2010-08-13T16:04:14Z</time>
      </trkpt>
      <trkpt lat="43.71484" lon="7.09097">
        <ele>324.582275</ele>
        <time>2010-08-13T16:04:15Z</time>
      </trkpt>
      <trkpt lat="43.71482" lon="7.091">
        <ele>323.620972</ele>
        <time>2010-08-13T16:04:16Z</time>
      </trkpt>
      <trkpt lat="43.71481" lon="7.09103">
        <ele>322.659668</ele>
        <time>2010-08-13T16:04:17Z</time>
      </trkpt>
      <trkpt lat="43.7148" lon="7.09106">
        <ele>321.698364</ele>
        <time>2010-08-13T16:04:18Z</time>
      </trkpt>
      <trkpt lat="43.71479" lon="7.09108">
        <ele>320.737061</ele>
        <time>2010-08-13T16:04:19Z</time>
      </trkpt>
      <trkpt lat="43.71477" lon="7.09111">
        <ele>319.775635</ele>
        <time>2010-08-13T16:04:20Z</time>
      </trkpt>
      <trkpt lat="43.71476" lon="7.09114">
        <ele>317.853027</ele>
        <time>2010-08-13T16:04:21Z</time>
      </trkpt>
      <trkpt lat="43.71475" lon="7.09116">
        <ele>316.891724</ele>
        <time>2010-08-13T16:04:22Z</time>
      </trkpt>
      <trkpt lat="43.71473" lon="7.09119">
        <ele>315.449829</ele>
        <time>2010-08-13T16:04:23Z</time>
      </trkpt>
      <trkpt lat="43.71472" lon="7.0912">
        <ele>314.488403</ele>
        <time>2010-08-13T16:04:24Z</time>
      </trkpt>
      <trkpt lat="43.71471" lon="7.09122">
        <ele>314.007812</ele>
        <time>2010-08-13T16:04:25Z</time>
      </trkpt>
      <trkpt lat="43.71469" lon="7.09124">
        <ele>313.046509</ele>
        <time>2010-08-13T16:04:26Z</time>
      </trkpt>
      <trkpt lat="43.71467" lon="7.09125">
        <ele>311.604492</ele>
        <time>2010-08-13T16:04:27Z</time>
      </trkpt>
      <trkpt lat="43.71465" lon="7.09126">
        <ele>311.123779</ele>
        <time>2010-08-13T16:04:28Z</time>
      </trkpt>
      <trkpt lat="43.71463" lon="7.09127">
        <ele>310.643066</ele>
        <time>2010-08-13T16:04:29Z</time>
      </trkpt>
      <trkpt lat="43.71461" lon="7.09127">
        <ele>309.681885</ele>
        <time>2010-08-13T16:04:30Z</time>
      </trkpt>
      <trkpt lat="43.71459" lon="7.09128">
        <ele>308.720459</ele>
        <time>2010-08-13T16:04:31Z</time>
      </trkpt>
      <trkpt lat="43.71457" lon="7.09128">
        <ele>308.239868</ele>
        <time>2010-08-13T16:04:32Z</time>
      </trkpt>
      <trkpt lat="43.71455" lon="7.09129">
        <ele>308.239868</ele>
        <time>2010-08-13T16:04:33Z</time>
      </trkpt>
      <trkpt lat="43.71452" lon="7.09129">
        <ele>307.278564</ele>
        <time>2010-08-13T16:04:34Z</time>
      </trkpt>
      <trkpt lat="43.7145" lon="7.09129">
        <ele>307.278564</ele>
        <time>2010-08-13T16:04:35Z</time>
      </trkpt>
      <trkpt lat="43.71447" lon="7.09129">
        <ele>306.797852</ele>
        <time>2010-08-13T16:04:36Z</time>
      </trkpt>
      <trkpt lat="43.71445" lon="7.09129">
        <ele>306.317261</ele>
        <time>2010-08-13T16:04:37Z</time>
      </trkpt>
      <trkpt lat="43.71443" lon="7.09128">
        <ele>306.317261</ele>
        <time>2010-08-13T16:04:38Z</time>
      </trkpt>
      <trkpt lat="43.71441" lon="7.09127">
        <ele>306.317261</ele>
        <time>2010-08-13T16:04:39Z</time>
      </trkpt>
      <trkpt lat="43.71439" lon="7.09127">
        <ele>305.83667</ele>
        <time>2010-08-13T16:04:40Z</time>
      </trkpt>
      <trkpt lat="43.71438" lon="7.09127">
        <ele>305.83667</ele>
        <time>2010-08-13T16:04:41Z</time>
      </trkpt>
      <trkpt lat="43.71436" lon="7.09127">
        <ele>305.83667</ele>
        <time>2010-08-13T16:04:42Z</time>
      </trkpt>
      <trkpt lat="43.71435" lon="7.09126">
        <ele>305.355957</ele>
        <time>2010-08-13T16:04:43Z</time>
      </trkpt>
      <trkpt lat="43.71433" lon="7.09126">
        <ele>304.875244</ele>
        <time>2010-08-13T16:04:44Z</time>
      </trkpt>
      <trkpt lat="43.71431" lon="7.09126">
        <ele>305.355957</ele>
        <time>2010-08-13T16:04:45Z</time>
      </trkpt>
      <trkpt lat="43.71429" lon="7.09126">
        <ele>305.355957</ele>
        <time>2010-08-13T16:04:46Z</time>
      </trkpt>
      <trkpt lat="43.71427" lon="7.09126">
        <ele>305.83667</ele>
        <time>2010-08-13T16:04:47Z</time>
      </trkpt>
      <trkpt lat="43.71426" lon="7.09125">
        <ele>305.83667</ele>
        <time>2010-08-13T16:04:48Z</time>
      </trkpt>
      <trkpt lat="43.71424" lon="7.09126">
        <ele>305.83667</ele>
        <time>2010-08-13T16:04:49Z</time>
      </trkpt>
      <trkpt lat="43.71422" lon="7.09128">
        <ele>310.162476</ele>
        <time>2010-08-13T16:04:50Z</time>
      </trkpt>
      <trkpt lat="43.7142" lon="7.0913">
        <ele>310.162476</ele>
        <time>2010-08-13T16:04:51Z</time>
      </trkpt>
      <trkpt lat="43.71418" lon="7.09132">
        <ele>309.201172</ele>
        <time>2010-08-13T16:04:52Z</time>
      </trkpt>
      <trkpt lat="43.71416" lon="7.09133">
        <ele>308.720459</ele>
        <time>2010-08-13T16:04:53Z</time>
      </trkpt>
      <trkpt lat="43.71414" lon="7.09135">
        <ele>308.720459</ele>
        <time>2010-08-13T16:04:54Z</time>
      </trkpt>
      <trkpt lat="43.71413" lon="7.09136">
        <ele>308.239868</ele>
        <time>2010-08-13T16:04:55Z</time>
      </trkpt>
      <trkpt lat="43.7141" lon="7.09138">
        <ele>307.278564</ele>
        <time>2010-08-13T16:04:56Z</time>
      </trkpt>
      <trkpt lat="43.71409" lon="7.0914">
        <ele>307.278564</ele>
        <time>2010-08-13T16:04:57Z</time>
      </trkpt>
      <trkpt lat="43.71408" lon="7.09142">
        <ele>306.797852</ele>
        <time>2010-08-13T16:04:58Z</time>
      </trkpt>
      <trkpt lat="43.71407" lon="7.09145">
        <ele>305.355957</ele>
        <time>2010-08-13T16:04:59Z</time>
      </trkpt>
      <trkpt lat="43.71407" lon="7.09148">
        <ele>305.355957</ele>
        <time>2010-08-13T16:05:00Z</time>
      </trkpt>
      <trkpt lat="43.71407" lon="7.0915">
        <ele>304.394653</ele>
        <time>2010-08-13T16:05:01Z</time>
      </trkpt>
      <trkpt lat="43.71407" lon="7.09152">
        <ele>303.433228</ele>
        <time>2010-08-13T16:05:02Z</time>
      </trkpt>
      <trkpt lat="43.71408" lon="7.09154">
        <ele>304.394653</ele>
        <time>2010-08-13T16:05:03Z</time>
      </trkpt>
      <trkpt lat="43.71407" lon="7.09158">
        <ele>310.162476</ele>
        <time>2010-08-13T16:05:04Z</time>
      </trkpt>
      <trkpt lat="43.71406" lon="7.09162">
        <ele>313.527222</ele>
        <time>2010-08-13T16:05:05Z</time>
      </trkpt>
      <trkpt lat="43.71406" lon="7.09164">
        <ele>317.853027</ele>
        <time>2010-08-13T16:05:06Z</time>
      </trkpt>
      <trkpt lat="43.71406" lon="7.09166">
        <ele>322.178955</ele>
        <time>2010-08-13T16:05:07Z</time>
      </trkpt>
      <trkpt lat="43.71407" lon="7.09168">
        <ele>324.101562</ele>
        <time>2010-08-13T16:05:08Z</time>
      </trkpt>
      <trkpt lat="43.71408" lon="7.09171">
        <ele>325.062988</ele>
        <time>2010-08-13T16:05:09Z</time>
      </trkpt>
      <trkpt lat="43.71409" lon="7.09174">
        <ele>325.543579</ele>
        <time>2010-08-13T16:05:10Z</time>
      </trkpt>
      <trkpt lat="43.7141" lon="7.09176">
        <ele>326.02417</ele>
        <time>2010-08-13T16:05:11Z</time>
      </trkpt>
      <trkpt lat="43.71411" lon="7.09179">
        <ele>327.946777</ele>
        <time>2010-08-13T16:05:12Z</time>
      </trkpt>
      <trkpt lat="43.71412" lon="7.09182">
        <ele>328.427612</ele>
        <time>2010-08-13T16:05:13Z</time>
      </trkpt>
      <trkpt lat="43.71413" lon="7.09184">
        <ele>330.35022</ele>
        <time>2010-08-13T16:05:14Z</time>
      </trkpt>
      <trkpt lat="43.71414" lon="7.09187">
        <ele>329.388916</ele>
        <time>2010-08-13T16:05:15Z</time>
      </trkpt>
      <trkpt lat="43.71415" lon="7.0919">
        <ele>329.869507</ele>
        <time>2010-08-13T16:05:16Z</time>
      </trkpt>
      <trkpt lat="43.71416" lon="7.09193">
        <ele>330.830933</ele>
        <time>2010-08-13T16:05:17Z</time>
      </trkpt>
      <trkpt lat="43.71418" lon="7.09196">
        <ele>331.311523</ele>
        <time>2010-08-13T16:05:18Z</time>
      </trkpt>
      <trkpt lat="43.71419" lon="7.09199">
        <ele>332.272827</ele>
        <time>2010-08-13T16:05:19Z</time>
      </trkpt>
      <trkpt lat="43.71421" lon="7.09202">
        <ele>334.195435</ele>
        <time>2010-08-13T16:05:20Z</time>
      </trkpt>
      <trkpt lat="43.71423" lon="7.09204">
        <ele>335.637329</ele>
        <time>2010-08-13T16:05:21Z</time>
      </trkpt>
      <trkpt lat="43.71425" lon="7.09207">
        <ele>336.118164</ele>
        <time>2010-08-13T16:05:22Z</time>
      </trkpt>
      <trkpt lat="43.71427" lon="7.09208">
        <ele>336.118164</ele>
        <time>2010-08-13T16:05:23Z</time>
      </trkpt>
      <trkpt lat="43.71429" lon="7.0921">
        <ele>337.079468</ele>
        <time>2010-08-13T16:05:24Z</time>
      </trkpt>
      <trkpt lat="43.71431" lon="7.09211">
        <ele>337.079468</ele>
        <time>2010-08-13T16:05:25Z</time>
      </trkpt>
      <trkpt lat="43.71433" lon="7.09214">
        <ele>336.598877</ele>
        <time>2010-08-13T16:05:26Z</time>
      </trkpt>
      <trkpt lat="43.71435" lon="7.09215">
        <ele>338.521484</ele>
        <time>2010-08-13T16:05:27Z</time>
      </trkpt>
      <trkpt lat="43.71437" lon="7.09216">
        <ele>339.002075</ele>
        <time>2010-08-13T16:05:28Z</time>
      </trkpt>
      <trkpt lat="43.71439" lon="7.09218">
        <ele>338.521484</ele>
        <time>2010-08-13T16:05:29Z</time>
      </trkpt>
      <trkpt lat="43.7144" lon="7.0922">
        <ele>336.598877</ele>
        <time>2010-08-13T16:05:30Z</time>
      </trkpt>
      <trkpt lat="43.71441" lon="7.09222">
        <ele>335.637329</ele>
        <time>2010-08-13T16:05:31Z</time>
      </trkpt>
      <trkpt lat="43.71443" lon="7.09224">
        <ele>334.195435</ele>
        <time>2010-08-13T16:05:32Z</time>
      </trkpt>
      <trkpt lat="43.71445" lon="7.09227">
        <ele>332.75354</ele>
        <time>2010-08-13T16:05:33Z</time>
      </trkpt>
      <trkpt lat="43.71447" lon="7.0923">
        <ele>331.311523</ele>
        <time>2010-08-13T16:05:34Z</time>
      </trkpt>
      <trkpt lat="43.71449" lon="7.09233">
        <ele>331.311523</ele>
        <time>2010-08-13T16:05:35Z</time>
      </trkpt>
      <trkpt lat="43.7145" lon="7.09236">
        <ele>329.869507</ele>
        <time>2010-08-13T16:05:36Z</time>
      </trkpt>
      <trkpt lat="43.71451" lon="7.0924">
        <ele>327.946777</ele>
        <time>2010-08-13T16:05:37Z</time>
      </trkpt>
      <trkpt lat="43.71451" lon="7.09243">
        <ele>327.466187</ele>
        <time>2010-08-13T16:05:38Z</time>
      </trkpt>
      <trkpt lat="43.71451" lon="7.09247">
        <ele>326.02417</ele>
        <time>2010-08-13T16:05:39Z</time>
      </trkpt>
      <trkpt lat="43.71451" lon="7.09251">
        <ele>325.062988</ele>
        <time>2010-08-13T16:05:40Z</time>
      </trkpt>
      <trkpt lat="43.71449" lon="7.09255">
        <ele>324.101562</ele>
        <time>2010-08-13T16:05:41Z</time>
      </trkpt>
      <trkpt lat="43.71449" lon="7.09259">
        <ele>322.178955</ele>
        <time>2010-08-13T16:05:42Z</time>
      </trkpt>
      <trkpt lat="43.71449" lon="7.09262">
        <ele>321.217773</ele>
        <time>2010-08-13T16:05:43Z</time>
      </trkpt>
      <trkpt lat="43.71449" lon="7.09266">
        <ele>320.737061</ele>
        <time>2010-08-13T16:05:44Z</time>
      </trkpt>
      <trkpt lat="43.71448" lon="7.0927">
        <ele>319.775635</ele>
        <time>2010-08-13T16:05:45Z</time>
      </trkpt>
      <trkpt lat="43.71448" lon="7.09273">
        <ele>319.775635</ele>
        <time>2010-08-13T16:05:46Z</time>
      </trkpt>
      <trkpt lat="43.71448" lon="7.09277">
        <ele>319.295044</ele>
        <time>2010-08-13T16:05:47Z</time>
      </trkpt>
      <trkpt lat="43.71447" lon="7.0928">
        <ele>318.814331</ele>
        <time>2010-08-13T16:05:48Z</time>
      </trkpt>
      <trkpt lat="43.71447" lon="7.09284">
        <ele>318.333618</ele>
        <time>2010-08-13T16:05:49Z</time>
      </trkpt>
      <trkpt lat="43.71446" lon="7.09287">
        <ele>316.891724</ele>
        <time>2010-08-13T16:05:50Z</time>
      </trkpt>
      <trkpt lat="43.71445" lon="7.09291">
        <ele>316.411011</ele>
        <time>2010-08-13T16:05:51Z</time>
      </trkpt>
      <trkpt lat="43.71444" lon="7.09295">
        <ele>315.449829</ele>
        <time>2010-08-13T16:05:52Z</time>
      </trkpt>
      <trkpt lat="43.71443" lon="7.09298">
        <ele>314.969116</ele>
        <time>2010-08-13T16:05:53Z</time>
      </trkpt>
      <trkpt lat="43.71442" lon="7.09301">
        <ele>314.007812</ele>
        <time>2010-08-13T16:05:54Z</time>
      </trkpt>
      <trkpt lat="43.71441" lon="7.09304">
        <ele>313.046509</ele>
        <time>2010-08-13T16:05:55Z</time>
      </trkpt>
      <trkpt lat="43.7144" lon="7.09307">
        <ele>311.604492</ele>
        <time>2010-08-13T16:05:56Z</time>
      </trkpt>
      <trkpt lat="43.71439" lon="7.0931">
        <ele>310.643066</ele>
        <time>2010-08-13T16:05:57Z</time>
      </trkpt>
      <trkpt lat="43.71439" lon="7.09313">
        <ele>308.239868</ele>
        <time>2010-08-13T16:05:58Z</time>
      </trkpt>
      <trkpt lat="43.71438" lon="7.09316">
        <ele>306.797852</ele>
        <time>2010-08-13T16:05:59Z</time>
      </trkpt>
      <trkpt lat="43.71437" lon="7.09319">
        <ele>304.875244</ele>
        <time>2010-08-13T16:06:00Z</time>
      </trkpt>
      <trkpt lat="43.71437" lon="7.09323">
        <ele>303.91394</ele>
        <time>2010-08-13T16:06:01Z</time>
      </trkpt>
      <trkpt lat="43.71435" lon="7.09327">
        <ele>304.875244</ele>
        <time>2010-08-13T16:06:02Z</time>
      </trkpt>
      <trkpt lat="43.71435" lon="7.0933">
        <ele>304.394653</ele>
        <time>2010-08-13T16:06:03Z</time>
      </trkpt>
      <trkpt lat="43.71433" lon="7.09332">
        <ele>304.875244</ele>
        <time>2010-08-13T16:06:04Z</time>
      </trkpt>
      <trkpt lat="43.71432" lon="7.09335">
        <ele>304.875244</ele>
        <time>2010-08-13T16:06:05Z</time>
      </trkpt>
      <trkpt lat="43.71431" lon="7.09339">
        <ele>305.355957</ele>
        <time>2010-08-13T16:06:06Z</time>
      </trkpt>
      <trkpt lat="43.7143" lon="7.09343">
        <ele>305.355957</ele>
        <time>2010-08-13T16:06:07Z</time>
      </trkpt>
      <trkpt lat="43.71429" lon="7.09346">
        <ele>305.355957</ele>
        <time>2010-08-13T16:06:08Z</time>
      </trkpt>
      <trkpt lat="43.71428" lon="7.09349">
        <ele>305.83667</ele>
        <time>2010-08-13T16:06:09Z</time>
      </trkpt>
      <trkpt lat="43.71427" lon="7.09352">
        <ele>306.317261</ele>
        <time>2010-08-13T16:06:10Z</time>
      </trkpt>
      <trkpt lat="43.71426" lon="7.09355">
        <ele>306.317261</ele>
        <time>2010-08-13T16:06:11Z</time>
      </trkpt>
      <trkpt lat="43.71425" lon="7.09358">
        <ele>307.278564</ele>
        <time>2010-08-13T16:06:12Z</time>
      </trkpt>
      <trkpt lat="43.71424" lon="7.0936">
        <ele>308.239868</ele>
        <time>2010-08-13T16:06:13Z</time>
      </trkpt>
      <trkpt lat="43.71423" lon="7.09363">
        <ele>308.239868</ele>
        <time>2010-08-13T16:06:14Z</time>
      </trkpt>
      <trkpt lat="43.71422" lon="7.09366">
        <ele>308.239868</ele>
        <time>2010-08-13T16:06:15Z</time>
      </trkpt>
      <trkpt lat="43.71421" lon="7.09369">
        <ele>308.239868</ele>
        <time>2010-08-13T16:06:16Z</time>
      </trkpt>
      <trkpt lat="43.7142" lon="7.09371">
        <ele>308.720459</ele>
        <time>2010-08-13T16:06:17Z</time>
      </trkpt>
      <trkpt lat="43.71419" lon="7.09374">
        <ele>309.201172</ele>
        <time>2010-08-13T16:06:18Z</time>
      </trkpt>
      <trkpt lat="43.71417" lon="7.09376">
        <ele>309.201172</ele>
        <time>2010-08-13T16:06:19Z</time>
      </trkpt>
      <trkpt lat="43.71416" lon="7.09378">
        <ele>308.720459</ele>
        <time>2010-08-13T16:06:20Z</time>
      </trkpt>
      <trkpt lat="43.71414" lon="7.0938">
        <ele>308.720459</ele>
        <time>2010-08-13T16:06:21Z</time>
      </trkpt>
      <trkpt lat="43.71412" lon="7.09381">
        <ele>309.201172</ele>
        <time>2010-08-13T16:06:22Z</time>
      </trkpt>
      <trkpt lat="43.71411" lon="7.09382">
        <ele>309.201172</ele>
        <time>2010-08-13T16:06:23Z</time>
      </trkpt>
      <trkpt lat="43.7141" lon="7.09383">
        <ele>309.201172</ele>
        <time>2010-08-13T16:06:24Z</time>
      </trkpt>
      <trkpt lat="43.7141" lon="7.09385">
        <ele>308.720459</ele>
        <time>2010-08-13T16:06:25Z</time>
      </trkpt>
      <trkpt lat="43.71409" lon="7.09387">
        <ele>308.239868</ele>
        <time>2010-08-13T16:06:26Z</time>
      </trkpt>
      <trkpt lat="43.71408" lon="7.09389">
        <ele>307.759277</ele>
        <time>2010-08-13T16:06:27Z</time>
      </trkpt>
      <trkpt lat="43.71407" lon="7.09392">
        <ele>307.759277</ele>
        <time>2010-08-13T16:06:28Z</time>
      </trkpt>
      <trkpt lat="43.71406" lon="7.09395">
        <ele>306.797852</ele>
        <time>2010-08-13T16:06:29Z</time>
      </trkpt>
      <trkpt lat="43.71405" lon="7.09398">
        <ele>308.239868</ele>
        <time>2010-08-13T16:06:30Z</time>
      </trkpt>
      <trkpt lat="43.71405" lon="7.094">
        <ele>307.759277</ele>
        <time>2010-08-13T16:06:31Z</time>
      </trkpt>
      <trkpt lat="43.71404" lon="7.09403">
        <ele>308.239868</ele>
        <time>2010-08-13T16:06:32Z</time>
      </trkpt>
      <trkpt lat="43.71404" lon="7.09405">
        <ele>308.239868</ele>
        <time>2010-08-13T16:06:33Z</time>
      </trkpt>
      <trkpt lat="43.71404" lon="7.09408">
        <ele>309.201172</ele>
        <time>2010-08-13T16:06:34Z</time>
      </trkpt>
      <trkpt lat="43.71404" lon="7.09412">
        <ele>309.681885</ele>
        <time>2010-08-13T16:06:35Z</time>
      </trkpt>
      <trkpt lat="43.71404" lon="7.09415">
        <ele>308.720459</ele>
        <time>2010-08-13T16:06:36Z</time>
      </trkpt>
      <trkpt lat="43.71403" lon="7.09418">
        <ele>308.720459</ele>
        <time>2010-08-13T16:06:37Z</time>
      </trkpt>
      <trkpt lat="43.71402" lon="7.09421">
        <ele>310.162476</ele>
        <time>2010-08-13T16:06:38Z</time>
      </trkpt>
      <trkpt lat="43.71402" lon="7.09423">
        <ele>309.201172</ele>
        <time>2010-08-13T16:06:39Z</time>
      </trkpt>
      <trkpt lat="43.71401" lon="7.09427">
        <ele>308.720459</ele>
        <time>2010-08-13T16:06:40Z</time>
      </trkpt>
      <trkpt lat="43.71401" lon="7.0943">
        <ele>308.720459</ele>
        <time>2010-08-13T16:06:41Z</time>
      </trkpt>
      <trkpt lat="43.714" lon="7.09433">
        <ele>309.681885</ele>
        <time>2010-08-13T16:06:42Z</time>
      </trkpt>
      <trkpt lat="43.714" lon="7.09436">
        <ele>311.123779</ele>
        <time>2010-08-13T16:06:43Z</time>
      </trkpt>
      <trkpt lat="43.71399" lon="7.09438">
        <ele>310.162476</ele>
        <time>2010-08-13T16:06:44Z</time>
      </trkpt>
      <trkpt lat="43.71399" lon="7.09442">
        <ele>309.681885</ele>
        <time>2010-08-13T16:06:45Z</time>
      </trkpt>
      <trkpt lat="43.71398" lon="7.09445">
        <ele>310.643066</ele>
        <time>2010-08-13T16:06:46Z</time>
      </trkpt>
      <trkpt lat="43.71397" lon="7.09449">
        <ele>310.643066</ele>
        <time>2010-08-13T16:06:47Z</time>
      </trkpt>
      <trkpt lat="43.71396" lon="7.09452">
        <ele>310.162476</ele>
        <time>2010-08-13T16:06:48Z</time>
      </trkpt>
      <trkpt lat="43.71396" lon="7.09455">
        <ele>309.201172</ele>
        <time>2010-08-13T16:06:49Z</time>
      </trkpt>
      <trkpt lat="43.71395" lon="7.09458">
        <ele>310.162476</ele>
        <time>2010-08-13T16:06:50Z</time>
      </trkpt>
      <trkpt lat="43.71396" lon="7.09461">
        <ele>310.162476</ele>
        <time>2010-08-13T16:06:51Z</time>
      </trkpt>
      <trkpt lat="43.71396" lon="7.09465">
        <ele>310.162476</ele>
        <time>2010-08-13T16:06:52Z</time>
      </trkpt>
      <trkpt lat="43.71397" lon="7.09468">
        <ele>309.681885</ele>
        <time>2010-08-13T16:06:53Z</time>
      </trkpt>
      <trkpt lat="43.71397" lon="7.09471">
        <ele>309.681885</ele>
        <time>2010-08-13T16:06:54Z</time>
      </trkpt>
      <trkpt lat="43.71398" lon="7.09474">
        <ele>308.720459</ele>
        <time>2010-08-13T16:06:55Z</time>
      </trkpt>
      <trkpt lat="43.71398" lon="7.09476">
        <ele>308.239868</ele>
        <time>2010-08-13T16:06:56Z</time>
      </trkpt>
      <trkpt lat="43.71398" lon="7.09479">
        <ele>307.278564</ele>
        <time>2010-08-13T16:06:57Z</time>
      </trkpt>
      <trkpt lat="43.71398" lon="7.09482">
        <ele>306.317261</ele>
        <time>2010-08-13T16:06:58Z</time>
      </trkpt>
      <trkpt lat="43.71398" lon="7.09486">
        <ele>305.355957</ele>
        <time>2010-08-13T16:06:59Z</time>
      </trkpt>
      <trkpt lat="43.71397" lon="7.09489">
        <ele>304.875244</ele>
        <time>2010-08-13T16:07:00Z</time>
      </trkpt>
      <trkpt lat="43.71396" lon="7.09493">
        <ele>303.433228</ele>
        <time>2010-08-13T16:07:01Z</time>
      </trkpt>
      <trkpt lat="43.71395" lon="7.09495">
        <ele>301.51062</ele>
        <time>2010-08-13T16:07:02Z</time>
      </trkpt>
      <trkpt lat="43.71394" lon="7.09499">
        <ele>301.991333</ele>
        <time>2010-08-13T16:07:03Z</time>
      </trkpt>
      <trkpt lat="43.71394" lon="7.09502">
        <ele>301.029907</ele>
        <time>2010-08-13T16:07:04Z</time>
      </trkpt>
      <trkpt lat="43.71394" lon="7.09505">
        <ele>299.1073</ele>
        <time>2010-08-13T16:07:05Z</time>
      </trkpt>
      <trkpt lat="43.71393" lon="7.09508">
        <ele>296.704102</ele>
        <time>2010-08-13T16:07:06Z</time>
      </trkpt>
      <trkpt lat="43.71393" lon="7.09511">
        <ele>295.742676</ele>
        <time>2010-08-13T16:07:07Z</time>
      </trkpt>
      <trkpt lat="43.71391" lon="7.09514">
        <ele>300.068726</ele>
        <time>2010-08-13T16:07:08Z</time>
      </trkpt>
      <trkpt lat="43.71391" lon="7.09517">
        <ele>299.1073</ele>
        <time>2010-08-13T16:07:09Z</time>
      </trkpt>
      <trkpt lat="43.7139" lon="7.0952">
        <ele>298.626709</ele>
        <time>2010-08-13T16:07:10Z</time>
      </trkpt>
      <trkpt lat="43.7139" lon="7.09523">
        <ele>298.146118</ele>
        <time>2010-08-13T16:07:11Z</time>
      </trkpt>
      <trkpt lat="43.7139" lon="7.09527">
        <ele>298.626709</ele>
        <time>2010-08-13T16:07:12Z</time>
      </trkpt>
      <trkpt lat="43.7139" lon="7.09529">
        <ele>298.626709</ele>
        <time>2010-08-13T16:07:13Z</time>
      </trkpt>
      <trkpt lat="43.71389" lon="7.09533">
        <ele>302.952515</ele>
        <time>2010-08-13T16:07:14Z</time>
      </trkpt>
      <trkpt lat="43.71389" lon="7.09536">
        <ele>301.991333</ele>
        <time>2010-08-13T16:07:15Z</time>
      </trkpt>
      <trkpt lat="43.71388" lon="7.09539">
        <ele>301.51062</ele>
        <time>2010-08-13T16:07:16Z</time>
      </trkpt>
      <trkpt lat="43.71387" lon="7.09542">
        <ele>301.029907</ele>
        <time>2010-08-13T16:07:17Z</time>
      </trkpt>
      <trkpt lat="43.71387" lon="7.09545">
        <ele>299.588013</ele>
        <time>2010-08-13T16:07:18Z</time>
      </trkpt>
      <trkpt lat="43.71386" lon="7.09548">
        <ele>299.1073</ele>
        <time>2010-08-13T16:07:19Z</time>
      </trkpt>
      <trkpt lat="43.71385" lon="7.09551">
        <ele>298.146118</ele>
        <time>2010-08-13T16:07:20Z</time>
      </trkpt>
      <trkpt lat="43.71385" lon="7.09554">
        <ele>297.184692</ele>
        <time>2010-08-13T16:07:21Z</time>
      </trkpt>
      <trkpt lat="43.71384" lon="7.09559">
        <ele>299.1073</ele>
        <time>2010-08-13T16:07:22Z</time>
      </trkpt>
      <trkpt lat="43.71382" lon="7.09563">
        <ele>301.991333</ele>
        <time>2010-08-13T16:07:23Z</time>
      </trkpt>
      <trkpt lat="43.7138" lon="7.09566">
        <ele>304.394653</ele>
        <time>2010-08-13T16:07:24Z</time>
      </trkpt>
      <trkpt lat="43.71379" lon="7.09569">
        <ele>304.394653</ele>
        <time>2010-08-13T16:07:25Z</time>
      </trkpt>
      <trkpt lat="43.71378" lon="7.09572">
        <ele>304.875244</ele>
        <time>2010-08-13T16:07:26Z</time>
      </trkpt>
      <trkpt lat="43.71377" lon="7.09576">
        <ele>306.317261</ele>
        <time>2010-08-13T16:07:27Z</time>
      </trkpt>
      <trkpt lat="43.71376" lon="7.09579">
        <ele>306.317261</ele>
        <time>2010-08-13T16:07:28Z</time>
      </trkpt>
      <trkpt lat="43.71375" lon="7.09582">
        <ele>306.797852</ele>
        <time>2010-08-13T16:07:29Z</time>
      </trkpt>
      <trkpt lat="43.71375" lon="7.09585">
        <ele>307.278564</ele>
        <time>2010-08-13T16:07:30Z</time>
      </trkpt>
      <trkpt lat="43.71374" lon="7.09589">
        <ele>307.759277</ele>
        <time>2010-08-13T16:07:31Z</time>
      </trkpt>
      <trkpt lat="43.71373" lon="7.09593">
        <ele>308.239868</ele>
        <time>2010-08-13T16:07:32Z</time>
      </trkpt>
      <trkpt lat="43.71373" lon="7.09597">
        <ele>308.239868</ele>
        <time>2010-08-13T16:07:33Z</time>
      </trkpt>
      <trkpt lat="43.71372" lon="7.096">
        <ele>307.759277</ele>
        <time>2010-08-13T16:07:34Z</time>
      </trkpt>
      <trkpt lat="43.7137" lon="7.09603">
        <ele>307.759277</ele>
        <time>2010-08-13T16:07:35Z</time>
      </trkpt>
      <trkpt lat="43.71369" lon="7.09606">
        <ele>307.759277</ele>
        <time>2010-08-13T16:07:36Z</time>
      </trkpt>
      <trkpt lat="43.71368" lon="7.09609">
        <ele>307.759277</ele>
        <time>2010-08-13T16:07:37Z</time>
      </trkpt>
      <trkpt lat="43.71368" lon="7.09613">
        <ele>305.83667</ele>
        <time>2010-08-13T16:07:38Z</time>
      </trkpt>
      <trkpt lat="43.71368" lon="7.09616">
        <ele>303.433228</ele>
        <time>2010-08-13T16:07:39Z</time>
      </trkpt>
      <trkpt lat="43.71368" lon="7.09619">
        <ele>301.51062</ele>
        <time>2010-08-13T16:07:40Z</time>
      </trkpt>
      <trkpt lat="43.71368" lon="7.09622">
        <ele>299.1073</ele>
        <time>2010-08-13T16:07:41Z</time>
      </trkpt>
      <trkpt lat="43.71367" lon="7.09624">
        <ele>299.588013</ele>
        <time>2010-08-13T16:07:42Z</time>
      </trkpt>
      <trkpt lat="43.71366" lon="7.09628">
        <ele>300.068726</ele>
        <time>2010-08-13T16:07:43Z</time>
      </trkpt>
      <trkpt lat="43.71364" lon="7.09632">
        <ele>301.029907</ele>
        <time>2010-08-13T16:07:44Z</time>
      </trkpt>
      <trkpt lat="43.71362" lon="7.09637">
        <ele>302.952515</ele>
        <time>2010-08-13T16:07:45Z</time>
      </trkpt>
      <trkpt lat="43.71361" lon="7.0964">
        <ele>303.91394</ele>
        <time>2010-08-13T16:07:46Z</time>
      </trkpt>
      <trkpt lat="43.71361" lon="7.09644">
        <ele>303.91394</ele>
        <time>2010-08-13T16:07:47Z</time>
      </trkpt>
      <trkpt lat="43.7136" lon="7.09648">
        <ele>305.355957</ele>
        <time>2010-08-13T16:07:48Z</time>
      </trkpt>
      <trkpt lat="43.71359" lon="7.09651">
        <ele>305.83667</ele>
        <time>2010-08-13T16:07:49Z</time>
      </trkpt>
      <trkpt lat="43.71359" lon="7.09654">
        <ele>305.83667</ele>
        <time>2010-08-13T16:07:50Z</time>
      </trkpt>
      <trkpt lat="43.71358" lon="7.09658">
        <ele>306.317261</ele>
        <time>2010-08-13T16:07:51Z</time>
      </trkpt>
      <trkpt lat="43.71357" lon="7.09662">
        <ele>307.278564</ele>
        <time>2010-08-13T16:07:52Z</time>
      </trkpt>
      <trkpt lat="43.71356" lon="7.09666">
        <ele>307.759277</ele>
        <time>2010-08-13T16:07:53Z</time>
      </trkpt>
      <trkpt lat="43.71356" lon="7.09669">
        <ele>308.720459</ele>
        <time>2010-08-13T16:07:54Z</time>
      </trkpt>
      <trkpt lat="43.71355" lon="7.09672">
        <ele>309.201172</ele>
        <time>2010-08-13T16:07:55Z</time>
      </trkpt>
      <trkpt lat="43.71355" lon="7.09675">
        <ele>309.681885</ele>
        <time>2010-08-13T16:07:56Z</time>
      </trkpt>
      <trkpt lat="43.71355" lon="7.09678">
        <ele>310.162476</ele>
        <time>2010-08-13T16:07:57Z</time>
      </trkpt>
      <trkpt lat="43.71355" lon="7.09681">
        <ele>310.643066</ele>
        <time>2010-08-13T16:07:58Z</time>
      </trkpt>
      <trkpt lat="43.71355" lon="7.09684">
        <ele>310.643066</ele>
        <time>2010-08-13T16:07:59Z</time>
      </trkpt>
      <trkpt lat="43.71355" lon="7.09687">
        <ele>310.643066</ele>
        <time>2010-08-13T16:08:00Z</time>
      </trkpt>
      <trkpt lat="43.71356" lon="7.0969">
        <ele>309.681885</ele>
        <time>2010-08-13T16:08:01Z</time>
      </trkpt>
      <trkpt lat="43.71356" lon="7.09694">
        <ele>309.201172</ele>
        <time>2010-08-13T16:08:02Z</time>
      </trkpt>
      <trkpt lat="43.71356" lon="7.09698">
        <ele>309.201172</ele>
        <time>2010-08-13T16:08:03Z</time>
      </trkpt>
      <trkpt lat="43.71356" lon="7.09702">
        <ele>307.759277</ele>
        <time>2010-08-13T16:08:04Z</time>
      </trkpt>
      <trkpt lat="43.71355" lon="7.09705">
        <ele>307.759277</ele>
        <time>2010-08-13T16:08:05Z</time>
      </trkpt>
      <trkpt lat="43.71355" lon="7.09709">
        <ele>307.278564</ele>
        <time>2010-08-13T16:08:06Z</time>
      </trkpt>
      <trkpt lat="43.71355" lon="7.09713">
        <ele>306.317261</ele>
        <time>2010-08-13T16:08:07Z</time>
      </trkpt>
      <trkpt lat="43.71355" lon="7.09717">
        <ele>305.83667</ele>
        <time>2010-08-13T16:08:08Z</time>
      </trkpt>
      <trkpt lat="43.71355" lon="7.09721">
        <ele>305.83667</ele>
        <time>2010-08-13T16:08:09Z</time>
      </trkpt>
      <trkpt lat="43.71355" lon="7.09725">
        <ele>305.355957</ele>
        <time>2010-08-13T16:08:10Z</time>
      </trkpt>
      <trkpt lat="43.71355" lon="7.09729">
        <ele>305.355957</ele>
        <time>2010-08-13T16:08:11Z</time>
      </trkpt>
      <trkpt lat="43.71355" lon="7.09733">
        <ele>305.83667</ele>
        <time>2010-08-13T16:08:12Z</time>
      </trkpt>
      <trkpt lat="43.71355" lon="7.09737">
        <ele>305.83667</ele>
        <time>2010-08-13T16:08:13Z</time>
      </trkpt>
      <trkpt lat="43.71354" lon="7.09741">
        <ele>304.394653</ele>
        <time>2010-08-13T16:08:14Z</time>
      </trkpt>
      <trkpt lat="43.71353" lon="7.09744">
        <ele>303.91394</ele>
        <time>2010-08-13T16:08:15Z</time>
      </trkpt>
      <trkpt lat="43.71352" lon="7.09747">
        <ele>302.952515</ele>
        <time>2010-08-13T16:08:16Z</time>
      </trkpt>
      <trkpt lat="43.71352" lon="7.0975">
        <ele>301.51062</ele>
        <time>2010-08-13T16:08:17Z</time>
      </trkpt>
      <trkpt lat="43.71352" lon="7.09753">
        <ele>299.588013</ele>
        <time>2010-08-13T16:08:18Z</time>
      </trkpt>
      <trkpt lat="43.71352" lon="7.09756">
        <ele>300.068726</ele>
        <time>2010-08-13T16:08:19Z</time>
      </trkpt>
      <trkpt lat="43.71352" lon="7.0976">
        <ele>299.588013</ele>
        <time>2010-08-13T16:08:20Z</time>
      </trkpt>
      <trkpt lat="43.71353" lon="7.09763">
        <ele>300.549316</ele>
        <time>2010-08-13T16:08:21Z</time>
      </trkpt>
      <trkpt lat="43.71354" lon="7.09767">
        <ele>300.068726</ele>
        <time>2010-08-13T16:08:22Z</time>
      </trkpt>
      <trkpt lat="43.71354" lon="7.0977">
        <ele>299.588013</ele>
        <time>2010-08-13T16:08:23Z</time>
      </trkpt>
      <trkpt lat="43.71353" lon="7.09774">
        <ele>298.626709</ele>
        <time>2010-08-13T16:08:24Z</time>
      </trkpt>
      <trkpt lat="43.71352" lon="7.09776">
        <ele>299.1073</ele>
        <time>2010-08-13T16:08:25Z</time>
      </trkpt>
      <trkpt lat="43.71351" lon="7.0978">
        <ele>299.588013</ele>
        <time>2010-08-13T16:08:26Z</time>
      </trkpt>
      <trkpt lat="43.7135" lon="7.09784">
        <ele>299.1073</ele>
        <time>2010-08-13T16:08:27Z</time>
      </trkpt>
      <trkpt lat="43.7135" lon="7.09787">
        <ele>299.1073</ele>
        <time>2010-08-13T16:08:28Z</time>
      </trkpt>
      <trkpt lat="43.71349" lon="7.09789">
        <ele>297.665405</ele>
        <time>2010-08-13T16:08:29Z</time>
      </trkpt>
      <trkpt lat="43.71348" lon="7.09792">
        <ele>298.146118</ele>
        <time>2010-08-13T16:08:30Z</time>
      </trkpt>
      <trkpt lat="43.71347" lon="7.09795">
        <ele>298.626709</ele>
        <time>2010-08-13T16:08:31Z</time>
      </trkpt>
      <trkpt lat="43.71346" lon="7.09798">
        <ele>299.588013</ele>
        <time>2010-08-13T16:08:32Z</time>
      </trkpt>
      <trkpt lat="43.71346" lon="7.09802">
        <ele>300.068726</ele>
        <time>2010-08-13T16:08:33Z</time>
      </trkpt>
      <trkpt lat="43.71345" lon="7.09806">
        <ele>300.068726</ele>
        <time>2010-08-13T16:08:34Z</time>
      </trkpt>
      <trkpt lat="43.71345" lon="7.09809">
        <ele>299.588013</ele>
        <time>2010-08-13T16:08:35Z</time>
      </trkpt>
      <trkpt lat="43.71344" lon="7.09814">
        <ele>299.588013</ele>
        <time>2010-08-13T16:08:36Z</time>
      </trkpt>
      <trkpt lat="43.71343" lon="7.09818">
        <ele>300.068726</ele>
        <time>2010-08-13T16:08:37Z</time>
      </trkpt>
      <trkpt lat="43.71342" lon="7.09822">
        <ele>301.029907</ele>
        <time>2010-08-13T16:08:38Z</time>
      </trkpt>
      <trkpt lat="43.71342" lon="7.09826">
        <ele>299.588013</ele>
        <time>2010-08-13T16:08:39Z</time>
      </trkpt>
      <trkpt lat="43.71342" lon="7.09829">
        <ele>298.626709</ele>
        <time>2010-08-13T16:08:40Z</time>
      </trkpt>
      <trkpt lat="43.7134" lon="7.09832">
        <ele>297.184692</ele>
        <time>2010-08-13T16:08:41Z</time>
      </trkpt>
      <trkpt lat="43.71339" lon="7.09835">
        <ele>296.704102</ele>
        <time>2010-08-13T16:08:42Z</time>
      </trkpt>
      <trkpt lat="43.71339" lon="7.09839">
        <ele>295.261963</ele>
        <time>2010-08-13T16:08:43Z</time>
      </trkpt>
      <trkpt lat="43.71338" lon="7.09841">
        <ele>293.820068</ele>
        <time>2010-08-13T16:08:44Z</time>
      </trkpt>
      <trkpt lat="43.71338" lon="7.09844">
        <ele>292.378174</ele>
        <time>2010-08-13T16:08:45Z</time>
      </trkpt>
      <trkpt lat="43.71338" lon="7.09846">
        <ele>291.897461</ele>
        <time>2010-08-13T16:08:46Z</time>
      </trkpt>
      <trkpt lat="43.71337" lon="7.0985">
        <ele>290.455566</ele>
        <time>2010-08-13T16:08:47Z</time>
      </trkpt>
      <trkpt lat="43.71336" lon="7.09853">
        <ele>289.494141</ele>
        <time>2010-08-13T16:08:48Z</time>
      </trkpt>
      <trkpt lat="43.71334" lon="7.09856">
        <ele>291.416748</ele>
        <time>2010-08-13T16:08:49Z</time>
      </trkpt>
      <trkpt lat="43.71333" lon="7.09858">
        <ele>291.897461</ele>
        <time>2010-08-13T16:08:50Z</time>
      </trkpt>
      <trkpt lat="43.71332" lon="7.0986">
        <ele>291.416748</ele>
        <time>2010-08-13T16:08:51Z</time>
      </trkpt>
      <trkpt lat="43.71332" lon="7.09861">
        <ele>290.455566</ele>
        <time>2010-08-13T16:08:52Z</time>
      </trkpt>
      <trkpt lat="43.71332" lon="7.09862">
        <ele>290.455566</ele>
        <time>2010-08-13T16:08:53Z</time>
      </trkpt>
      <trkpt lat="43.71331" lon="7.09863">
        <ele>292.378174</ele>
        <time>2010-08-13T16:08:54Z</time>
      </trkpt>
      <trkpt lat="43.7133" lon="7.09864">
        <ele>293.820068</ele>
        <time>2010-08-13T16:08:55Z</time>
      </trkpt>
      <trkpt lat="43.7133" lon="7.09865">
        <ele>293.339355</ele>
        <time>2010-08-13T16:08:56Z</time>
      </trkpt>
      <trkpt lat="43.7133" lon="7.09865">
        <ele>293.339355</ele>
        <time>2010-08-13T16:08:57Z</time>
      </trkpt>
      <trkpt lat="43.7133" lon="7.09865">
        <ele>292.858765</ele>
        <time>2010-08-13T16:08:58Z</time>
      </trkpt>
      <trkpt lat="43.7133" lon="7.09865">
        <ele>292.858765</ele>
        <time>2010-08-13T16:08:59Z</time>
      </trkpt>
      <trkpt lat="43.7133" lon="7.09865">
        <ele>292.858765</ele>
        <time>2010-08-13T16:09:00Z</time>
      </trkpt>
      <trkpt lat="43.7133" lon="7.09865">
        <ele>292.858765</ele>
        <time>2010-08-13T16:09:01Z</time>
      </trkpt>
      <trkpt lat="43.7133" lon="7.09866">
        <ele>292.378174</ele>
        <time>2010-08-13T16:09:02Z</time>
      </trkpt>
      <trkpt lat="43.7133" lon="7.09865">
        <ele>291.897461</ele>
        <time>2010-08-13T16:09:03Z</time>
      </trkpt>
      <trkpt lat="43.71329" lon="7.09865">
        <ele>291.416748</ele>
        <time>2010-08-13T16:09:04Z</time>
      </trkpt>
      <trkpt lat="43.71329" lon="7.09865">
        <ele>291.416748</ele>
        <time>2010-08-13T16:09:05Z</time>
      </trkpt>
      <trkpt lat="43.71328" lon="7.09865">
        <ele>291.416748</ele>
        <time>2010-08-13T16:09:06Z</time>
      </trkpt>
      <trkpt lat="43.71328" lon="7.09865">
        <ele>290.936157</ele>
        <time>2010-08-13T16:09:07Z</time>
      </trkpt>
      <trkpt lat="43.71327" lon="7.09864">
        <ele>290.936157</ele>
        <time>2010-08-13T16:09:08Z</time>
      </trkpt>
      <trkpt lat="43.71326" lon="7.09863">
        <ele>290.936157</ele>
        <time>2010-08-13T16:09:09Z</time>
      </trkpt>
      <trkpt lat="43.71325" lon="7.09862">
        <ele>291.416748</ele>
        <time>2010-08-13T16:09:10Z</time>
      </trkpt>
      <trkpt lat="43.71323" lon="7.0986">
        <ele>291.897461</ele>
        <time>2010-08-13T16:09:11Z</time>
      </trkpt>
      <trkpt lat="43.71321" lon="7.09858">
        <ele>291.416748</ele>
        <time>2010-08-13T16:09:12Z</time>
      </trkpt>
      <trkpt lat="43.7132" lon="7.09856">
        <ele>291.897461</ele>
        <time>2010-08-13T16:09:13Z</time>
      </trkpt>
      <trkpt lat="43.71319" lon="7.09855">
        <ele>291.897461</ele>
        <time>2010-08-13T16:09:14Z</time>
      </trkpt>
      <trkpt lat="43.71317" lon="7.09855">
        <ele>295.261963</ele>
        <time>2010-08-13T16:09:15Z</time>
      </trkpt>
      <trkpt lat="43.71317" lon="7.09854">
        <ele>296.223511</ele>
        <time>2010-08-13T16:09:16Z</time>
      </trkpt>
      <trkpt lat="43.71315" lon="7.09852">
        <ele>297.184692</ele>
        <time>2010-08-13T16:09:17Z</time>
      </trkpt>
      <trkpt lat="43.71314" lon="7.09851">
        <ele>297.184692</ele>
        <time>2010-08-13T16:09:18Z</time>
      </trkpt>
      <trkpt lat="43.71312" lon="7.0985">
        <ele>296.704102</ele>
        <time>2010-08-13T16:09:19Z</time>
      </trkpt>
      <trkpt lat="43.71311" lon="7.09848">
        <ele>297.184692</ele>
        <time>2010-08-13T16:09:20Z</time>
      </trkpt>
      <trkpt lat="43.7131" lon="7.09847">
        <ele>297.184692</ele>
        <time>2010-08-13T16:09:21Z</time>
      </trkpt>
      <trkpt lat="43.71308" lon="7.09845">
        <ele>297.665405</ele>
        <time>2010-08-13T16:09:22Z</time>
      </trkpt>
      <trkpt lat="43.71307" lon="7.09842">
        <ele>297.665405</ele>
        <time>2010-08-13T16:09:23Z</time>
      </trkpt>
      <trkpt lat="43.71307" lon="7.09842">
        <ele>298.626709</ele>
        <time>2010-08-13T16:09:24Z</time>
      </trkpt>
      <trkpt lat="43.71306" lon="7.09841">
        <ele>298.626709</ele>
        <time>2010-08-13T16:09:25Z</time>
      </trkpt>
      <trkpt lat="43.71305" lon="7.09841">
        <ele>299.588013</ele>
        <time>2010-08-13T16:09:26Z</time>
      </trkpt>
      <trkpt lat="43.71303" lon="7.0984">
        <ele>300.068726</ele>
        <time>2010-08-13T16:09:27Z</time>
      </trkpt>
      <trkpt lat="43.71302" lon="7.09836">
        <ele>300.549316</ele>
        <time>2010-08-13T16:09:28Z</time>
      </trkpt>
      <trkpt lat="43.71301" lon="7.09834">
        <ele>300.549316</ele>
        <time>2010-08-13T16:09:29Z</time>
      </trkpt>
      <trkpt lat="43.713" lon="7.09831">
        <ele>300.549316</ele>
        <time>2010-08-13T16:09:30Z</time>
      </trkpt>
      <trkpt lat="43.71298" lon="7.09828">
        <ele>301.991333</ele>
        <time>2010-08-13T16:09:31Z</time>
      </trkpt>
      <trkpt lat="43.71296" lon="7.09826">
        <ele>302.471924</ele>
        <time>2010-08-13T16:09:32Z</time>
      </trkpt>
      <trkpt lat="43.71295" lon="7.09824">
        <ele>302.471924</ele>
        <time>2010-08-13T16:09:33Z</time>
      </trkpt>
      <trkpt lat="43.71293" lon="7.09823">
        <ele>301.991333</ele>
        <time>2010-08-13T16:09:34Z</time>
      </trkpt>
      <trkpt lat="43.71291" lon="7.09822">
        <ele>302.471924</ele>
        <time>2010-08-13T16:09:35Z</time>
      </trkpt>
      <trkpt lat="43.71289" lon="7.09821">
        <ele>303.433228</ele>
        <time>2010-08-13T16:09:36Z</time>
      </trkpt>
      <trkpt lat="43.71287" lon="7.0982">
        <ele>303.433228</ele>
        <time>2010-08-13T16:09:37Z</time>
      </trkpt>
      <trkpt lat="43.71285" lon="7.09819">
        <ele>303.91394</ele>
        <time>2010-08-13T16:09:38Z</time>
      </trkpt>
      <trkpt lat="43.71284" lon="7.09816">
        <ele>303.91394</ele>
        <time>2010-08-13T16:09:39Z</time>
      </trkpt>
      <trkpt lat="43.71284" lon="7.09813">
        <ele>303.433228</ele>
        <time>2010-08-13T16:09:40Z</time>
      </trkpt>
      <trkpt lat="43.71282" lon="7.09811">
        <ele>303.433228</ele>
        <time>2010-08-13T16:09:41Z</time>
      </trkpt>
      <trkpt lat="43.71281" lon="7.09808">
        <ele>302.471924</ele>
        <time>2010-08-13T16:09:42Z</time>
      </trkpt>
      <trkpt lat="43.7128" lon="7.09806">
        <ele>301.991333</ele>
        <time>2010-08-13T16:09:43Z</time>
      </trkpt>
      <trkpt lat="43.71279" lon="7.09803">
        <ele>301.51062</ele>
        <time>2010-08-13T16:09:44Z</time>
      </trkpt>
      <trkpt lat="43.71277" lon="7.098">
        <ele>301.51062</ele>
        <time>2010-08-13T16:09:45Z</time>
      </trkpt>
      <trkpt lat="43.71276" lon="7.09798">
        <ele>301.029907</ele>
        <time>2010-08-13T16:09:46Z</time>
      </trkpt>
      <trkpt lat="43.71274" lon="7.09795">
        <ele>300.549316</ele>
        <time>2010-08-13T16:09:47Z</time>
      </trkpt>
      <trkpt lat="43.71272" lon="7.09793">
        <ele>300.068726</ele>
        <time>2010-08-13T16:09:48Z</time>
      </trkpt>
      <trkpt lat="43.71271" lon="7.0979">
        <ele>300.549316</ele>
        <time>2010-08-13T16:09:49Z</time>
      </trkpt>
      <trkpt lat="43.7127" lon="7.09787">
        <ele>301.029907</ele>
        <time>2010-08-13T16:09:50Z</time>
      </trkpt>
      <trkpt lat="43.71268" lon="7.09784">
        <ele>301.029907</ele>
        <time>2010-08-13T16:09:51Z</time>
      </trkpt>
      <trkpt lat="43.71267" lon="7.09781">
        <ele>301.991333</ele>
        <time>2010-08-13T16:09:52Z</time>
      </trkpt>
      <trkpt lat="43.71265" lon="7.09778">
        <ele>301.029907</ele>
        <time>2010-08-13T16:09:53Z</time>
      </trkpt>
      <trkpt lat="43.71266" lon="7.09775">
        <ele>301.029907</ele>
        <time>2010-08-13T16:09:54Z</time>
      </trkpt>
      <trkpt lat="43.71266" lon="7.09772">
        <ele>300.549316</ele>
        <time>2010-08-13T16:09:55Z</time>
      </trkpt>
      <trkpt lat="43.71267" lon="7.09768">
        <ele>300.549316</ele>
        <time>2010-08-13T16:09:56Z</time>
      </trkpt>
      <trkpt lat="43.71269" lon="7.09766">
        <ele>302.471924</ele>
        <time>2010-08-13T16:09:57Z</time>
      </trkpt>
      <trkpt lat="43.71271" lon="7.09763">
        <ele>302.952515</ele>
        <time>2010-08-13T16:09:58Z</time>
      </trkpt>
      <trkpt lat="43.71273" lon="7.0976">
        <ele>303.91394</ele>
        <time>2010-08-13T16:09:59Z</time>
      </trkpt>
      <trkpt lat="43.71274" lon="7.09758">
        <ele>304.394653</ele>
        <time>2010-08-13T16:10:00Z</time>
      </trkpt>
      <trkpt lat="43.71276" lon="7.09756">
        <ele>304.394653</ele>
        <time>2010-08-13T16:10:01Z</time>
      </trkpt>
      <trkpt lat="43.71278" lon="7.09753">
        <ele>304.394653</ele>
        <time>2010-08-13T16:10:02Z</time>
      </trkpt>
      <trkpt lat="43.71279" lon="7.09751">
        <ele>304.394653</ele>
        <time>2010-08-13T16:10:03Z</time>
      </trkpt>
      <trkpt lat="43.7128" lon="7.09749">
        <ele>304.875244</ele>
        <time>2010-08-13T16:10:04Z</time>
      </trkpt>
      <trkpt lat="43.71281" lon="7.09746">
        <ele>304.394653</ele>
        <time>2010-08-13T16:10:05Z</time>
      </trkpt>
      <trkpt lat="43.71282" lon="7.09744">
        <ele>304.875244</ele>
        <time>2010-08-13T16:10:06Z</time>
      </trkpt>
      <trkpt lat="43.71282" lon="7.09741">
        <ele>304.875244</ele>
        <time>2010-08-13T16:10:07Z</time>
      </trkpt>
      <trkpt lat="43.71282" lon="7.09738">
        <ele>305.83667</ele>
        <time>2010-08-13T16:10:08Z</time>
      </trkpt>
      <trkpt lat="43.71282" lon="7.09735">
        <ele>305.83667</ele>
        <time>2010-08-13T16:10:09Z</time>
      </trkpt>
      <trkpt lat="43.71283" lon="7.09731">
        <ele>306.797852</ele>
        <time>2010-08-13T16:10:10Z</time>
      </trkpt>
      <trkpt lat="43.71283" lon="7.09729">
        <ele>306.797852</ele>
        <time>2010-08-13T16:10:11Z</time>
      </trkpt>
      <trkpt lat="43.71283" lon="7.09726">
        <ele>307.278564</ele>
        <time>2010-08-13T16:10:12Z</time>
      </trkpt>
      <trkpt lat="43.71283" lon="7.09724">
        <ele>307.759277</ele>
        <time>2010-08-13T16:10:13Z</time>
      </trkpt>
      <trkpt lat="43.71284" lon="7.09722">
        <ele>307.759277</ele>
        <time>2010-08-13T16:10:14Z</time>
      </trkpt>
      <trkpt lat="43.71283" lon="7.0972">
        <ele>308.239868</ele>
        <time>2010-08-13T16:10:15Z</time>
      </trkpt>
      <trkpt lat="43.71283" lon="7.09717">
        <ele>309.201172</ele>
        <time>2010-08-13T16:10:16Z</time>
      </trkpt>
      <trkpt lat="43.71283" lon="7.09715">
        <ele>309.681885</ele>
        <time>2010-08-13T16:10:17Z</time>
      </trkpt>
      <trkpt lat="43.71282" lon="7.09712">
        <ele>309.681885</ele>
        <time>2010-08-13T16:10:18Z</time>
      </trkpt>
      <trkpt lat="43.71282" lon="7.09709">
        <ele>309.201172</ele>
        <time>2010-08-13T16:10:19Z</time>
      </trkpt>
      <trkpt lat="43.71282" lon="7.09707">
        <ele>308.720459</ele>
        <time>2010-08-13T16:10:20Z</time>
      </trkpt>
      <trkpt lat="43.71282" lon="7.09705">
        <ele>309.201172</ele>
        <time>2010-08-13T16:10:21Z</time>
      </trkpt>
      <trkpt lat="43.71283" lon="7.09702">
        <ele>309.681885</ele>
        <time>2010-08-13T16:10:22Z</time>
      </trkpt>
      <trkpt lat="43.71285" lon="7.09699">
        <ele>310.643066</ele>
        <time>2010-08-13T16:10:23Z</time>
      </trkpt>
      <trkpt lat="43.71286" lon="7.09697">
        <ele>312.085205</ele>
        <time>2010-08-13T16:10:24Z</time>
      </trkpt>
      <trkpt lat="43.71288" lon="7.09694">
        <ele>313.527222</ele>
        <time>2010-08-13T16:10:25Z</time>
      </trkpt>
      <trkpt lat="43.71289" lon="7.09692">
        <ele>313.046509</ele>
        <time>2010-08-13T16:10:26Z</time>
      </trkpt>
      <trkpt lat="43.7129" lon="7.09691">
        <ele>312.085205</ele>
        <time>2010-08-13T16:10:27Z</time>
      </trkpt>
      <trkpt lat="43.71292" lon="7.09689">
        <ele>312.565796</ele>
        <time>2010-08-13T16:10:28Z</time>
      </trkpt>
      <trkpt lat="43.71293" lon="7.09687">
        <ele>312.565796</ele>
        <time>2010-08-13T16:10:29Z</time>
      </trkpt>
      <trkpt lat="43.71295" lon="7.09685">
        <ele>312.565796</ele>
        <time>2010-08-13T16:10:30Z</time>
      </trkpt>
      <trkpt lat="43.71297" lon="7.09683">
        <ele>313.046509</ele>
        <time>2010-08-13T16:10:31Z</time>
      </trkpt>
      <trkpt lat="43.71299" lon="7.09681">
        <ele>314.007812</ele>
        <time>2010-08-13T16:10:32Z</time>
      </trkpt>
      <trkpt lat="43.71301" lon="7.09679">
        <ele>314.007812</ele>
        <time>2010-08-13T16:10:33Z</time>
      </trkpt>
      <trkpt lat="43.71303" lon="7.09677">
        <ele>314.007812</ele>
        <time>2010-08-13T16:10:34Z</time>
      </trkpt>
      <trkpt lat="43.71305" lon="7.09675">
        <ele>314.007812</ele>
        <time>2010-08-13T16:10:35Z</time>
      </trkpt>
      <trkpt lat="43.71307" lon="7.09673">
        <ele>314.488403</ele>
        <time>2010-08-13T16:10:36Z</time>
      </trkpt>
      <trkpt lat="43.71308" lon="7.09671">
        <ele>314.969116</ele>
        <time>2010-08-13T16:10:37Z</time>
      </trkpt>
      <trkpt lat="43.7131" lon="7.09669">
        <ele>314.488403</ele>
        <time>2010-08-13T16:10:38Z</time>
      </trkpt>
      <trkpt lat="43.71311" lon="7.09668">
        <ele>314.488403</ele>
        <time>2010-08-13T16:10:39Z</time>
      </trkpt>
      <trkpt lat="43.71312" lon="7.09666">
        <ele>314.969116</ele>
        <time>2010-08-13T16:10:40Z</time>
      </trkpt>
      <trkpt lat="43.71314" lon="7.09664">
        <ele>314.969116</ele>
        <time>2010-08-13T16:10:41Z</time>
      </trkpt>
      <trkpt lat="43.71315" lon="7.09662">
        <ele>315.449829</ele>
        <time>2010-08-13T16:10:42Z</time>
      </trkpt>
      <trkpt lat="43.71317" lon="7.0966">
        <ele>315.93042</ele>
        <time>2010-08-13T16:10:43Z</time>
      </trkpt>
      <trkpt lat="43.71318" lon="7.09658">
        <ele>316.411011</ele>
        <time>2010-08-13T16:10:44Z</time>
      </trkpt>
      <trkpt lat="43.71318" lon="7.09655">
        <ele>316.411011</ele>
        <time>2010-08-13T16:10:45Z</time>
      </trkpt>
      <trkpt lat="43.71318" lon="7.09653">
        <ele>316.411011</ele>
        <time>2010-08-13T16:10:46Z</time>
      </trkpt>
      <trkpt lat="43.71317" lon="7.09652">
        <ele>315.93042</ele>
        <time>2010-08-13T16:10:47Z</time>
      </trkpt>
      <trkpt lat="43.71315" lon="7.09651">
        <ele>315.93042</ele>
        <time>2010-08-13T16:10:48Z</time>
      </trkpt>
      <trkpt lat="43.71313" lon="7.09651">
        <ele>315.449829</ele>
        <time>2010-08-13T16:10:49Z</time>
      </trkpt>
      <trkpt lat="43.71311" lon="7.0965">
        <ele>315.449829</ele>
        <time>2010-08-13T16:10:50Z</time>
      </trkpt>
      <trkpt lat="43.71309" lon="7.0965">
        <ele>315.449829</ele>
        <time>2010-08-13T16:10:51Z</time>
      </trkpt>
      <trkpt lat="43.71307" lon="7.0965">
        <ele>315.449829</ele>
        <time>2010-08-13T16:10:52Z</time>
      </trkpt>
      <trkpt lat="43.71306" lon="7.09648">
        <ele>314.969116</ele>
        <time>2010-08-13T16:10:53Z</time>
      </trkpt>
      <trkpt lat="43.71304" lon="7.09648">
        <ele>315.449829</ele>
        <time>2010-08-13T16:10:54Z</time>
      </trkpt>
      <trkpt lat="43.71301" lon="7.09647">
        <ele>315.93042</ele>
        <time>2010-08-13T16:10:55Z</time>
      </trkpt>
      <trkpt lat="43.71299" lon="7.09646">
        <ele>315.93042</ele>
        <time>2010-08-13T16:10:56Z</time>
      </trkpt>
      <trkpt lat="43.71297" lon="7.09644">
        <ele>316.411011</ele>
        <time>2010-08-13T16:10:57Z</time>
      </trkpt>
      <trkpt lat="43.71295" lon="7.09642">
        <ele>316.891724</ele>
        <time>2010-08-13T16:10:58Z</time>
      </trkpt>
      <trkpt lat="43.71294" lon="7.0964">
        <ele>316.411011</ele>
        <time>2010-08-13T16:10:59Z</time>
      </trkpt>
      <trkpt lat="43.71292" lon="7.09637">
        <ele>315.93042</ele>
        <time>2010-08-13T16:11:00Z</time>
      </trkpt>
      <trkpt lat="43.71291" lon="7.09635">
        <ele>315.93042</ele>
        <time>2010-08-13T16:11:01Z</time>
      </trkpt>
      <trkpt lat="43.71289" lon="7.09634">
        <ele>314.969116</ele>
        <time>2010-08-13T16:11:02Z</time>
      </trkpt>
      <trkpt lat="43.71287" lon="7.09633">
        <ele>314.969116</ele>
        <time>2010-08-13T16:11:03Z</time>
      </trkpt>
      <trkpt lat="43.71285" lon="7.09633">
        <ele>315.449829</ele>
        <time>2010-08-13T16:11:04Z</time>
      </trkpt>
      <trkpt lat="43.71283" lon="7.09633">
        <ele>314.969116</ele>
        <time>2010-08-13T16:11:05Z</time>
      </trkpt>
      <trkpt lat="43.71281" lon="7.09634">
        <ele>314.969116</ele>
        <time>2010-08-13T16:11:06Z</time>
      </trkpt>
      <trkpt lat="43.71279" lon="7.09634">
        <ele>314.969116</ele>
        <time>2010-08-13T16:11:07Z</time>
      </trkpt>
      <trkpt lat="43.71276" lon="7.09634">
        <ele>314.007812</ele>
        <time>2010-08-13T16:11:08Z</time>
      </trkpt>
      <trkpt lat="43.71274" lon="7.09634">
        <ele>313.046509</ele>
        <time>2010-08-13T16:11:09Z</time>
      </trkpt>
      <trkpt lat="43.71272" lon="7.09634">
        <ele>312.565796</ele>
        <time>2010-08-13T16:11:10Z</time>
      </trkpt>
      <trkpt lat="43.7127" lon="7.09634">
        <ele>312.085205</ele>
        <time>2010-08-13T16:11:11Z</time>
      </trkpt>
      <trkpt lat="43.71268" lon="7.09634">
        <ele>312.085205</ele>
        <time>2010-08-13T16:11:12Z</time>
      </trkpt>
      <trkpt lat="43.71266" lon="7.09634">
        <ele>311.604492</ele>
        <time>2010-08-13T16:11:13Z</time>
      </trkpt>
      <trkpt lat="43.71263" lon="7.09634">
        <ele>310.643066</ele>
        <time>2010-08-13T16:11:14Z</time>
      </trkpt>
      <trkpt lat="43.71261" lon="7.09634">
        <ele>310.643066</ele>
        <time>2010-08-13T16:11:15Z</time>
      </trkpt>
      <trkpt lat="43.71259" lon="7.09633">
        <ele>310.162476</ele>
        <time>2010-08-13T16:11:16Z</time>
      </trkpt>
      <trkpt lat="43.71258" lon="7.09633">
        <ele>309.681885</ele>
        <time>2010-08-13T16:11:17Z</time>
      </trkpt>
      <trkpt lat="43.71256" lon="7.09633">
        <ele>309.201172</ele>
        <time>2010-08-13T16:11:18Z</time>
      </trkpt>
      <trkpt lat="43.71254" lon="7.09633">
        <ele>308.720459</ele>
        <time>2010-08-13T16:11:19Z</time>
      </trkpt>
      <trkpt lat="43.71252" lon="7.09633">
        <ele>308.720459</ele>
        <time>2010-08-13T16:11:20Z</time>
      </trkpt>
      <trkpt lat="43.7125" lon="7.09633">
        <ele>309.201172</ele>
        <time>2010-08-13T16:11:21Z</time>
      </trkpt>
      <trkpt lat="43.71247" lon="7.09633">
        <ele>309.201172</ele>
        <time>2010-08-13T16:11:22Z</time>
      </trkpt>
      <trkpt lat="43.71245" lon="7.09633">
        <ele>308.720459</ele>
        <time>2010-08-13T16:11:23Z</time>
      </trkpt>
      <trkpt lat="43.71243" lon="7.09633">
        <ele>308.239868</ele>
        <time>2010-08-13T16:11:24Z</time>
      </trkpt>
      <trkpt lat="43.71241" lon="7.09633">
        <ele>308.239868</ele>
        <time>2010-08-13T16:11:25Z</time>
      </trkpt>
      <trkpt lat="43.71239" lon="7.09632">
        <ele>309.201172</ele>
        <time>2010-08-13T16:11:26Z</time>
      </trkpt>
      <trkpt lat="43.71235" lon="7.09631">
        <ele>309.681885</ele>
        <time>2010-08-13T16:11:27Z</time>
      </trkpt>
      <trkpt lat="43.71233" lon="7.0963">
        <ele>309.681885</ele>
        <time>2010-08-13T16:11:28Z</time>
      </trkpt>
      <trkpt lat="43.71231" lon="7.09629">
        <ele>310.162476</ele>
        <time>2010-08-13T16:11:29Z</time>
      </trkpt>
      <trkpt lat="43.71228" lon="7.0963">
        <ele>310.162476</ele>
        <time>2010-08-13T16:11:30Z</time>
      </trkpt>
      <trkpt lat="43.71226" lon="7.0963">
        <ele>310.643066</ele>
        <time>2010-08-13T16:11:31Z</time>
      </trkpt>
      <trkpt lat="43.71224" lon="7.09631">
        <ele>311.604492</ele>
        <time>2010-08-13T16:11:32Z</time>
      </trkpt>
      <trkpt lat="43.71222" lon="7.09632">
        <ele>313.527222</ele>
        <time>2010-08-13T16:11:33Z</time>
      </trkpt>
      <trkpt lat="43.7122" lon="7.09631">
        <ele>314.488403</ele>
        <time>2010-08-13T16:11:34Z</time>
      </trkpt>
      <trkpt lat="43.71217" lon="7.09631">
        <ele>314.969116</ele>
        <time>2010-08-13T16:11:35Z</time>
      </trkpt>
      <trkpt lat="43.71215" lon="7.09631">
        <ele>315.449829</ele>
        <time>2010-08-13T16:11:36Z</time>
      </trkpt>
      <trkpt lat="43.71212" lon="7.09631">
        <ele>315.449829</ele>
        <time>2010-08-13T16:11:37Z</time>
      </trkpt>
      <trkpt lat="43.71209" lon="7.0963">
        <ele>315.93042</ele>
        <time>2010-08-13T16:11:38Z</time>
      </trkpt>
      <trkpt lat="43.71206" lon="7.0963">
        <ele>315.93042</ele>
        <time>2010-08-13T16:11:39Z</time>
      </trkpt>
      <trkpt lat="43.71204" lon="7.0963">
        <ele>316.891724</ele>
        <time>2010-08-13T16:11:40Z</time>
      </trkpt>
      <trkpt lat="43.71201" lon="7.0963">
        <ele>316.891724</ele>
        <time>2010-08-13T16:11:41Z</time>
      </trkpt>
      <trkpt lat="43.71199" lon="7.0963">
        <ele>315.93042</ele>
        <time>2010-08-13T16:11:42Z</time>
      </trkpt>
      <trkpt lat="43.71197" lon="7.09629">
        <ele>315.449829</ele>
        <time>2010-08-13T16:11:43Z</time>
      </trkpt>
      <trkpt lat="43.71194" lon="7.09628">
        <ele>315.449829</ele>
        <time>2010-08-13T16:11:44Z</time>
      </trkpt>
      <trkpt lat="43.71192" lon="7.09628">
        <ele>315.93042</ele>
        <time>2010-08-13T16:11:45Z</time>
      </trkpt>
      <trkpt lat="43.7119" lon="7.09627">
        <ele>315.93042</ele>
        <time>2010-08-13T16:11:46Z</time>
      </trkpt>
      <trkpt lat="43.71188" lon="7.09626">
        <ele>316.411011</ele>
        <time>2010-08-13T16:11:47Z</time>
      </trkpt>
      <trkpt lat="43.71187" lon="7.09625">
        <ele>315.449829</ele>
        <time>2010-08-13T16:11:48Z</time>
      </trkpt>
      <trkpt lat="43.71186" lon="7.09623">
        <ele>314.969116</ele>
        <time>2010-08-13T16:11:49Z</time>
      </trkpt>
      <trkpt lat="43.71185" lon="7.09622">
        <ele>314.969116</ele>
        <time>2010-08-13T16:11:50Z</time>
      </trkpt>
      <trkpt lat="43.71185" lon="7.09622">
        <ele>315.449829</ele>
        <time>2010-08-13T16:11:51Z</time>
      </trkpt>
      <trkpt lat="43.71184" lon="7.09621">
        <ele>315.449829</ele>
        <time>2010-08-13T16:11:52Z</time>
      </trkpt>
      <trkpt lat="43.71183" lon="7.0962">
        <ele>315.449829</ele>
        <time>2010-08-13T16:11:53Z</time>
      </trkpt>
      <trkpt lat="43.71183" lon="7.09619">
        <ele>315.449829</ele>
        <time>2010-08-13T16:11:54Z</time>
      </trkpt>
      <trkpt lat="43.71181" lon="7.09617">
        <ele>315.449829</ele>
        <time>2010-08-13T16:11:55Z</time>
      </trkpt>
      <trkpt lat="43.7118" lon="7.09615">
        <ele>315.449829</ele>
        <time>2010-08-13T16:11:56Z</time>
      </trkpt>
      <trkpt lat="43.71179" lon="7.09612">
        <ele>314.488403</ele>
        <time>2010-08-13T16:11:57Z</time>
      </trkpt>
      <trkpt lat="43.71178" lon="7.0961">
        <ele>314.488403</ele>
        <time>2010-08-13T16:11:58Z</time>
      </trkpt>
      <trkpt lat="43.71176" lon="7.09607">
        <ele>314.488403</ele>
        <time>2010-08-13T16:11:59Z</time>
      </trkpt>
      <trkpt lat="43.71174" lon="7.09604">
        <ele>314.488403</ele>
        <time>2010-08-13T16:12:00Z</time>
      </trkpt>
      <trkpt lat="43.71174" lon="7.09601">
        <ele>314.007812</ele>
        <time>2010-08-13T16:12:01Z</time>
      </trkpt>
      <trkpt lat="43.71174" lon="7.09598">
        <ele>314.007812</ele>
        <time>2010-08-13T16:12:02Z</time>
      </trkpt>
      <trkpt lat="43.71174" lon="7.09595">
        <ele>313.527222</ele>
        <time>2010-08-13T16:12:03Z</time>
      </trkpt>
      <trkpt lat="43.71174" lon="7.09592">
        <ele>313.046509</ele>
        <time>2010-08-13T16:12:04Z</time>
      </trkpt>
      <trkpt lat="43.71174" lon="7.0959">
        <ele>312.085205</ele>
        <time>2010-08-13T16:12:05Z</time>
      </trkpt>
      <trkpt lat="43.71174" lon="7.09587">
        <ele>311.123779</ele>
        <time>2010-08-13T16:12:06Z</time>
      </trkpt>
      <trkpt lat="43.71175" lon="7.09585">
        <ele>311.604492</ele>
        <time>2010-08-13T16:12:07Z</time>
      </trkpt>
      <trkpt lat="43.71175" lon="7.09582">
        <ele>312.565796</ele>
        <time>2010-08-13T16:12:08Z</time>
      </trkpt>
      <trkpt lat="43.71175" lon="7.09581">
        <ele>312.565796</ele>
        <time>2010-08-13T16:12:09Z</time>
      </trkpt>
      <trkpt lat="43.71176" lon="7.09579">
        <ele>312.085205</ele>
        <time>2010-08-13T16:12:10Z</time>
      </trkpt>
      <trkpt lat="43.71176" lon="7.09577">
        <ele>311.123779</ele>
        <time>2010-08-13T16:12:11Z</time>
      </trkpt>
      <trkpt lat="43.71176" lon="7.09574">
        <ele>311.123779</ele>
        <time>2010-08-13T16:12:12Z</time>
      </trkpt>
      <trkpt lat="43.71176" lon="7.0957">
        <ele>310.162476</ele>
        <time>2010-08-13T16:12:13Z</time>
      </trkpt>
      <trkpt lat="43.71176" lon="7.09566">
        <ele>310.162476</ele>
        <time>2010-08-13T16:12:14Z</time>
      </trkpt>
      <trkpt lat="43.71176" lon="7.09563">
        <ele>310.162476</ele>
        <time>2010-08-13T16:12:15Z</time>
      </trkpt>
      <trkpt lat="43.71176" lon="7.0956">
        <ele>309.681885</ele>
        <time>2010-08-13T16:12:16Z</time>
      </trkpt>
      <trkpt lat="43.71174" lon="7.09558">
        <ele>308.239868</ele>
        <time>2010-08-13T16:12:17Z</time>
      </trkpt>
      <trkpt lat="43.71174" lon="7.09556">
        <ele>308.239868</ele>
        <time>2010-08-13T16:12:18Z</time>
      </trkpt>
      <trkpt lat="43.71173" lon="7.09553">
        <ele>307.759277</ele>
        <time>2010-08-13T16:12:19Z</time>
      </trkpt>
      <trkpt lat="43.71173" lon="7.09551">
        <ele>307.759277</ele>
        <time>2010-08-13T16:12:20Z</time>
      </trkpt>
      <trkpt lat="43.71172" lon="7.09548">
        <ele>307.759277</ele>
        <time>2010-08-13T16:12:21Z</time>
      </trkpt>
      <trkpt lat="43.7117" lon="7.09546">
        <ele>306.797852</ele>
        <time>2010-08-13T16:12:22Z</time>
      </trkpt>
      <trkpt lat="43.71169" lon="7.09544">
        <ele>307.278564</ele>
        <time>2010-08-13T16:12:23Z</time>
      </trkpt>
      <trkpt lat="43.71167" lon="7.09542">
        <ele>306.317261</ele>
        <time>2010-08-13T16:12:24Z</time>
      </trkpt>
      <trkpt lat="43.71166" lon="7.09541">
        <ele>306.797852</ele>
        <time>2010-08-13T16:12:25Z</time>
      </trkpt>
      <trkpt lat="43.71164" lon="7.0954">
        <ele>305.83667</ele>
        <time>2010-08-13T16:12:26Z</time>
      </trkpt>
      <trkpt lat="43.71162" lon="7.0954">
        <ele>305.355957</ele>
        <time>2010-08-13T16:12:27Z</time>
      </trkpt>
      <trkpt lat="43.71161" lon="7.09541">
        <ele>306.317261</ele>
        <time>2010-08-13T16:12:28Z</time>
      </trkpt>
      <trkpt lat="43.71159" lon="7.09542">
        <ele>306.797852</ele>
        <time>2010-08-13T16:12:29Z</time>
      </trkpt>
      <trkpt lat="43.71157" lon="7.09542">
        <ele>306.797852</ele>
        <time>2010-08-13T16:12:30Z</time>
      </trkpt>
      <trkpt lat="43.71156" lon="7.09542">
        <ele>307.278564</ele>
        <time>2010-08-13T16:12:31Z</time>
      </trkpt>
      <trkpt lat="43.71154" lon="7.09543">
        <ele>306.797852</ele>
        <time>2010-08-13T16:12:32Z</time>
      </trkpt>
      <trkpt lat="43.71153" lon="7.09543">
        <ele>306.797852</ele>
        <time>2010-08-13T16:12:33Z</time>
      </trkpt>
      <trkpt lat="43.71151" lon="7.09543">
        <ele>306.317261</ele>
        <time>2010-08-13T16:12:34Z</time>
      </trkpt>
      <trkpt lat="43.71149" lon="7.09544">
        <ele>307.278564</ele>
        <time>2010-08-13T16:12:35Z</time>
      </trkpt>
      <trkpt lat="43.71146" lon="7.09545">
        <ele>307.278564</ele>
        <time>2010-08-13T16:12:36Z</time>
      </trkpt>
      <trkpt lat="43.71144" lon="7.09546">
        <ele>307.278564</ele>
        <time>2010-08-13T16:12:37Z</time>
      </trkpt>
      <trkpt lat="43.71141" lon="7.09547">
        <ele>307.759277</ele>
        <time>2010-08-13T16:12:38Z</time>
      </trkpt>
      <trkpt lat="43.71139" lon="7.09548">
        <ele>307.278564</ele>
        <time>2010-08-13T16:12:39Z</time>
      </trkpt>
      <trkpt lat="43.71137" lon="7.09549">
        <ele>307.278564</ele>
        <time>2010-08-13T16:12:40Z</time>
      </trkpt>
      <trkpt lat="43.71134" lon="7.09552">
        <ele>308.720459</ele>
        <time>2010-08-13T16:12:41Z</time>
      </trkpt>
      <trkpt lat="43.71132" lon="7.09553">
        <ele>309.201172</ele>
        <time>2010-08-13T16:12:42Z</time>
      </trkpt>
      <trkpt lat="43.71131" lon="7.09555">
        <ele>309.201172</ele>
        <time>2010-08-13T16:12:43Z</time>
      </trkpt>
      <trkpt lat="43.71129" lon="7.09556">
        <ele>309.681885</ele>
        <time>2010-08-13T16:12:44Z</time>
      </trkpt>
      <trkpt lat="43.71126" lon="7.09557">
        <ele>310.162476</ele>
        <time>2010-08-13T16:12:45Z</time>
      </trkpt>
      <trkpt lat="43.71124" lon="7.09557">
        <ele>310.643066</ele>
        <time>2010-08-13T16:12:46Z</time>
      </trkpt>
      <trkpt lat="43.71121" lon="7.09559">
        <ele>313.046509</ele>
        <time>2010-08-13T16:12:47Z</time>
      </trkpt>
      <trkpt lat="43.71119" lon="7.09561">
        <ele>314.969116</ele>
        <time>2010-08-13T16:12:48Z</time>
      </trkpt>
      <trkpt lat="43.71116" lon="7.09562">
        <ele>315.93042</ele>
        <time>2010-08-13T16:12:49Z</time>
      </trkpt>
      <trkpt lat="43.71114" lon="7.09563">
        <ele>316.891724</ele>
        <time>2010-08-13T16:12:50Z</time>
      </trkpt>
      <trkpt lat="43.71112" lon="7.09563">
        <ele>316.891724</ele>
        <time>2010-08-13T16:12:51Z</time>
      </trkpt>
      <trkpt lat="43.71109" lon="7.09564">
        <ele>317.372437</ele>
        <time>2010-08-13T16:12:52Z</time>
      </trkpt>
      <trkpt lat="43.71107" lon="7.09565">
        <ele>317.853027</ele>
        <time>2010-08-13T16:12:53Z</time>
      </trkpt>
      <trkpt lat="43.71105" lon="7.09566">
        <ele>318.814331</ele>
        <time>2010-08-13T16:12:54Z</time>
      </trkpt>
      <trkpt lat="43.71103" lon="7.09566">
        <ele>319.295044</ele>
        <time>2010-08-13T16:12:55Z</time>
      </trkpt>
      <trkpt lat="43.71101" lon="7.09566">
        <ele>319.775635</ele>
        <time>2010-08-13T16:12:56Z</time>
      </trkpt>
      <trkpt lat="43.71099" lon="7.09567">
        <ele>319.775635</ele>
        <time>2010-08-13T16:12:57Z</time>
      </trkpt>
      <trkpt lat="43.71097" lon="7.09567">
        <ele>319.775635</ele>
        <time>2010-08-13T16:12:58Z</time>
      </trkpt>
      <trkpt lat="43.71095" lon="7.09568">
        <ele>318.814331</ele>
        <time>2010-08-13T16:12:59Z</time>
      </trkpt>
      <trkpt lat="43.71093" lon="7.09569">
        <ele>318.814331</ele>
        <time>2010-08-13T16:13:00Z</time>
      </trkpt>
      <trkpt lat="43.71091" lon="7.0957">
        <ele>319.775635</ele>
        <time>2010-08-13T16:13:01Z</time>
      </trkpt>
      <trkpt lat="43.71089" lon="7.09571">
        <ele>320.256348</ele>
        <time>2010-08-13T16:13:02Z</time>
      </trkpt>
      <trkpt lat="43.71087" lon="7.09573">
        <ele>321.698364</ele>
        <time>2010-08-13T16:13:03Z</time>
      </trkpt>
      <trkpt lat="43.71084" lon="7.09575">
        <ele>322.659668</ele>
        <time>2010-08-13T16:13:04Z</time>
      </trkpt>
      <trkpt lat="43.71082" lon="7.09575">
        <ele>323.140381</ele>
        <time>2010-08-13T16:13:05Z</time>
      </trkpt>
      <trkpt lat="43.71081" lon="7.09575">
        <ele>322.659668</ele>
        <time>2010-08-13T16:13:06Z</time>
      </trkpt>
      <trkpt lat="43.71079" lon="7.09576">
        <ele>322.659668</ele>
        <time>2010-08-13T16:13:07Z</time>
      </trkpt>
      <trkpt lat="43.71078" lon="7.09577">
        <ele>322.659668</ele>
        <time>2010-08-13T16:13:08Z</time>
      </trkpt>
      <trkpt lat="43.71076" lon="7.0958">
        <ele>324.582275</ele>
        <time>2010-08-13T16:13:09Z</time>
      </trkpt>
      <trkpt lat="43.71074" lon="7.09583">
        <ele>325.062988</ele>
        <time>2010-08-13T16:13:10Z</time>
      </trkpt>
      <trkpt lat="43.71072" lon="7.09586">
        <ele>326.02417</ele>
        <time>2010-08-13T16:13:11Z</time>
      </trkpt>
      <trkpt lat="43.7107" lon="7.09588">
        <ele>326.02417</ele>
        <time>2010-08-13T16:13:12Z</time>
      </trkpt>
      <trkpt lat="43.71068" lon="7.0959">
        <ele>326.02417</ele>
        <time>2010-08-13T16:13:13Z</time>
      </trkpt>
      <trkpt lat="43.71066" lon="7.09591">
        <ele>325.543579</ele>
        <time>2010-08-13T16:13:14Z</time>
      </trkpt>
      <trkpt lat="43.71065" lon="7.09592">
        <ele>325.062988</ele>
        <time>2010-08-13T16:13:15Z</time>
      </trkpt>
      <trkpt lat="43.71062" lon="7.09592">
        <ele>324.582275</ele>
        <time>2010-08-13T16:13:16Z</time>
      </trkpt>
      <trkpt lat="43.7106" lon="7.09593">
        <ele>324.101562</ele>
        <time>2010-08-13T16:13:17Z</time>
      </trkpt>
      <trkpt lat="43.71057" lon="7.09593">
        <ele>324.582275</ele>
        <time>2010-08-13T16:13:18Z</time>
      </trkpt>
      <trkpt lat="43.71056" lon="7.09594">
        <ele>324.582275</ele>
        <time>2010-08-13T16:13:19Z</time>
      </trkpt>
      <trkpt lat="43.71054" lon="7.09595">
        <ele>324.582275</ele>
        <time>2010-08-13T16:13:20Z</time>
      </trkpt>
      <trkpt lat="43.71051" lon="7.09596">
        <ele>324.582275</ele>
        <time>2010-08-13T16:13:21Z</time>
      </trkpt>
      <trkpt lat="43.71048" lon="7.09597">
        <ele>324.101562</ele>
        <time>2010-08-13T16:13:22Z</time>
      </trkpt>
      <trkpt lat="43.71046" lon="7.09598">
        <ele>323.140381</ele>
        <time>2010-08-13T16:13:23Z</time>
      </trkpt>
      <trkpt lat="43.71043" lon="7.09597">
        <ele>322.659668</ele>
        <time>2010-08-13T16:13:24Z</time>
      </trkpt>
      <trkpt lat="43.71041" lon="7.09596">
        <ele>322.178955</ele>
        <time>2010-08-13T16:13:25Z</time>
      </trkpt>
      <trkpt lat="43.71038" lon="7.09598">
        <ele>321.698364</ele>
        <time>2010-08-13T16:13:26Z</time>
      </trkpt>
      <trkpt lat="43.71036" lon="7.09599">
        <ele>321.217773</ele>
        <time>2010-08-13T16:13:27Z</time>
      </trkpt>
      <trkpt lat="43.71034" lon="7.09601">
        <ele>320.737061</ele>
        <time>2010-08-13T16:13:28Z</time>
      </trkpt>
      <trkpt lat="43.71032" lon="7.09603">
        <ele>320.256348</ele>
        <time>2010-08-13T16:13:29Z</time>
      </trkpt>
      <trkpt lat="43.7103" lon="7.09605">
        <ele>320.256348</ele>
        <time>2010-08-13T16:13:30Z</time>
      </trkpt>
      <trkpt lat="43.71028" lon="7.09607">
        <ele>319.775635</ele>
        <time>2010-08-13T16:13:31Z</time>
      </trkpt>
      <trkpt lat="43.71026" lon="7.09609">
        <ele>318.814331</ele>
        <time>2010-08-13T16:13:32Z</time>
      </trkpt>
      <trkpt lat="43.71025" lon="7.09611">
        <ele>318.814331</ele>
        <time>2010-08-13T16:13:33Z</time>
      </trkpt>
      <trkpt lat="43.71022" lon="7.09613">
        <ele>318.814331</ele>
        <time>2010-08-13T16:13:34Z</time>
      </trkpt>
      <trkpt lat="43.7102" lon="7.09616">
        <ele>318.814331</ele>
        <time>2010-08-13T16:13:35Z</time>
      </trkpt>
      <trkpt lat="43.71017" lon="7.09617">
        <ele>318.333618</ele>
        <time>2010-08-13T16:13:36Z</time>
      </trkpt>
      <trkpt lat="43.71014" lon="7.09618">
        <ele>318.333618</ele>
        <time>2010-08-13T16:13:37Z</time>
      </trkpt>
      <trkpt lat="43.71012" lon="7.09619">
        <ele>318.333618</ele>
        <time>2010-08-13T16:13:38Z</time>
      </trkpt>
      <trkpt lat="43.7101" lon="7.09621">
        <ele>318.814331</ele>
        <time>2010-08-13T16:13:39Z</time>
      </trkpt>
      <trkpt lat="43.71007" lon="7.09623">
        <ele>319.295044</ele>
        <time>2010-08-13T16:13:40Z</time>
      </trkpt>
      <trkpt lat="43.71005" lon="7.09623">
        <ele>318.814331</ele>
        <time>2010-08-13T16:13:41Z</time>
      </trkpt>
      <trkpt lat="43.71002" lon="7.09623">
        <ele>318.333618</ele>
        <time>2010-08-13T16:13:42Z</time>
      </trkpt>
      <trkpt lat="43.70999" lon="7.09623">
        <ele>317.853027</ele>
        <time>2010-08-13T16:13:43Z</time>
      </trkpt>
      <trkpt lat="43.70996" lon="7.09623">
        <ele>318.814331</ele>
        <time>2010-08-13T16:13:44Z</time>
      </trkpt>
      <trkpt lat="43.70994" lon="7.09622">
        <ele>318.814331</ele>
        <time>2010-08-13T16:13:45Z</time>
      </trkpt>
      <trkpt lat="43.70991" lon="7.09622">
        <ele>318.814331</ele>
        <time>2010-08-13T16:13:46Z</time>
      </trkpt>
      <trkpt lat="43.70989" lon="7.09621">
        <ele>318.814331</ele>
        <time>2010-08-13T16:13:47Z</time>
      </trkpt>
      <trkpt lat="43.70987" lon="7.0962">
        <ele>319.295044</ele>
        <time>2010-08-13T16:13:48Z</time>
      </trkpt>
      <trkpt lat="43.70985" lon="7.09618">
        <ele>320.256348</ele>
        <time>2010-08-13T16:13:49Z</time>
      </trkpt>
      <trkpt lat="43.70984" lon="7.09617">
        <ele>321.217773</ele>
        <time>2010-08-13T16:13:50Z</time>
      </trkpt>
      <trkpt lat="43.70982" lon="7.09617">
        <ele>321.698364</ele>
        <time>2010-08-13T16:13:51Z</time>
      </trkpt>
      <trkpt lat="43.7098" lon="7.09616">
        <ele>321.698364</ele>
        <time>2010-08-13T16:13:52Z</time>
      </trkpt>
      <trkpt lat="43.70978" lon="7.09615">
        <ele>321.217773</ele>
        <time>2010-08-13T16:13:53Z</time>
      </trkpt>
      <trkpt lat="43.70976" lon="7.09614">
        <ele>321.698364</ele>
        <time>2010-08-13T16:13:54Z</time>
      </trkpt>
      <trkpt lat="43.70975" lon="7.09613">
        <ele>321.217773</ele>
        <time>2010-08-13T16:13:55Z</time>
      </trkpt>
      <trkpt lat="43.70972" lon="7.09612">
        <ele>320.737061</ele>
        <time>2010-08-13T16:13:56Z</time>
      </trkpt>
      <trkpt lat="43.7097" lon="7.09611">
        <ele>321.217773</ele>
        <time>2010-08-13T16:13:57Z</time>
      </trkpt>
      <trkpt lat="43.70968" lon="7.0961">
        <ele>320.737061</ele>
        <time>2010-08-13T16:13:58Z</time>
      </trkpt>
      <trkpt lat="43.70965" lon="7.09609">
        <ele>320.737061</ele>
        <time>2010-08-13T16:13:59Z</time>
      </trkpt>
      <trkpt lat="43.70963" lon="7.09608">
        <ele>319.775635</ele>
        <time>2010-08-13T16:14:00Z</time>
      </trkpt>
      <trkpt lat="43.70961" lon="7.09607">
        <ele>319.295044</ele>
        <time>2010-08-13T16:14:01Z</time>
      </trkpt>
      <trkpt lat="43.70959" lon="7.09606">
        <ele>318.333618</ele>
        <time>2010-08-13T16:14:02Z</time>
      </trkpt>
      <trkpt lat="43.70957" lon="7.09605">
        <ele>317.853027</ele>
        <time>2010-08-13T16:14:03Z</time>
      </trkpt>
      <trkpt lat="43.70955" lon="7.09605">
        <ele>317.853027</ele>
        <time>2010-08-13T16:14:04Z</time>
      </trkpt>
      <trkpt lat="43.70952" lon="7.09604">
        <ele>316.891724</ele>
        <time>2010-08-13T16:14:05Z</time>
      </trkpt>
      <trkpt lat="43.7095" lon="7.09604">
        <ele>317.372437</ele>
        <time>2010-08-13T16:14:06Z</time>
      </trkpt>
      <trkpt lat="43.70948" lon="7.09603">
        <ele>316.891724</ele>
        <time>2010-08-13T16:14:07Z</time>
      </trkpt>
      <trkpt lat="43.70946" lon="7.09603">
        <ele>316.411011</ele>
        <time>2010-08-13T16:14:08Z</time>
      </trkpt>
      <trkpt lat="43.70944" lon="7.09602">
        <ele>315.449829</ele>
        <time>2010-08-13T16:14:09Z</time>
      </trkpt>
      <trkpt lat="43.70942" lon="7.09602">
        <ele>314.007812</ele>
        <time>2010-08-13T16:14:10Z</time>
      </trkpt>
      <trkpt lat="43.7094" lon="7.09602">
        <ele>314.007812</ele>
        <time>2010-08-13T16:14:11Z</time>
      </trkpt>
      <trkpt lat="43.70938" lon="7.09602">
        <ele>314.007812</ele>
        <time>2010-08-13T16:14:12Z</time>
      </trkpt>
      <trkpt lat="43.70936" lon="7.09602">
        <ele>314.488403</ele>
        <time>2010-08-13T16:14:13Z</time>
      </trkpt>
      <trkpt lat="43.70933" lon="7.09602">
        <ele>314.969116</ele>
        <time>2010-08-13T16:14:14Z</time>
      </trkpt>
      <trkpt lat="43.70931" lon="7.09602">
        <ele>315.449829</ele>
        <time>2010-08-13T16:14:15Z</time>
      </trkpt>
      <trkpt lat="43.70929" lon="7.09602">
        <ele>315.93042</ele>
        <time>2010-08-13T16:14:16Z</time>
      </trkpt>
      <trkpt lat="43.70926" lon="7.09603">
        <ele>317.853027</ele>
        <time>2010-08-13T16:14:17Z</time>
      </trkpt>
      <trkpt lat="43.70924" lon="7.09604">
        <ele>318.814331</ele>
        <time>2010-08-13T16:14:18Z</time>
      </trkpt>
      <trkpt lat="43.70921" lon="7.09605">
        <ele>320.256348</ele>
        <time>2010-08-13T16:14:19Z</time>
      </trkpt>
      <trkpt lat="43.70919" lon="7.09605">
        <ele>321.217773</ele>
        <time>2010-08-13T16:14:20Z</time>
      </trkpt>
      <trkpt lat="43.70916" lon="7.09606">
        <ele>321.217773</ele>
        <time>2010-08-13T16:14:21Z</time>
      </trkpt>
      <trkpt lat="43.70913" lon="7.09607">
        <ele>321.698364</ele>
        <time>2010-08-13T16:14:22Z</time>
      </trkpt>
      <trkpt lat="43.7091" lon="7.09607">
        <ele>322.659668</ele>
        <time>2010-08-13T16:14:23Z</time>
      </trkpt>
      <trkpt lat="43.70908" lon="7.09609">
        <ele>325.062988</ele>
        <time>2010-08-13T16:14:24Z</time>
      </trkpt>
      <trkpt lat="43.70905" lon="7.09609">
        <ele>326.985596</ele>
        <time>2010-08-13T16:14:25Z</time>
      </trkpt>
      <trkpt lat="43.70902" lon="7.0961">
        <ele>327.466187</ele>
        <time>2010-08-13T16:14:26Z</time>
      </trkpt>
      <trkpt lat="43.70901" lon="7.0961">
        <ele>327.946777</ele>
        <time>2010-08-13T16:14:27Z</time>
      </trkpt>
      <trkpt lat="43.70899" lon="7.0961">
        <ele>327.946777</ele>
        <time>2010-08-13T16:14:28Z</time>
      </trkpt>
      <trkpt lat="43.70897" lon="7.0961">
        <ele>327.946777</ele>
        <time>2010-08-13T16:14:29Z</time>
      </trkpt>
      <trkpt lat="43.70895" lon="7.09612">
        <ele>327.946777</ele>
        <time>2010-08-13T16:14:30Z</time>
      </trkpt>
      <trkpt lat="43.70892" lon="7.09614">
        <ele>327.946777</ele>
        <time>2010-08-13T16:14:31Z</time>
      </trkpt>
      <trkpt lat="43.70891" lon="7.09615">
        <ele>328.908325</ele>
        <time>2010-08-13T16:14:32Z</time>
      </trkpt>
      <trkpt lat="43.70888" lon="7.09616">
        <ele>328.908325</ele>
        <time>2010-08-13T16:14:33Z</time>
      </trkpt>
      <trkpt lat="43.70886" lon="7.09617">
        <ele>328.908325</ele>
        <time>2010-08-13T16:14:34Z</time>
      </trkpt>
      <trkpt lat="43.70883" lon="7.09619">
        <ele>330.35022</ele>
        <time>2010-08-13T16:14:35Z</time>
      </trkpt>
      <trkpt lat="43.70881" lon="7.0962">
        <ele>330.830933</ele>
        <time>2010-08-13T16:14:36Z</time>
      </trkpt>
      <trkpt lat="43.70878" lon="7.09622">
        <ele>330.830933</ele>
        <time>2010-08-13T16:14:37Z</time>
      </trkpt>
      <trkpt lat="43.70876" lon="7.09623">
        <ele>329.869507</ele>
        <time>2010-08-13T16:14:38Z</time>
      </trkpt>
      <trkpt lat="43.70873" lon="7.09625">
        <ele>330.35022</ele>
        <time>2010-08-13T16:14:39Z</time>
      </trkpt>
      <trkpt lat="43.70871" lon="7.09626">
        <ele>329.388916</ele>
        <time>2010-08-13T16:14:40Z</time>
      </trkpt>
      <trkpt lat="43.70869" lon="7.09625">
        <ele>328.908325</ele>
        <time>2010-08-13T16:14:41Z</time>
      </trkpt>
      <trkpt lat="43.70866" lon="7.09625">
        <ele>329.388916</ele>
        <time>2010-08-13T16:14:42Z</time>
      </trkpt>
      <trkpt lat="43.70863" lon="7.09626">
        <ele>329.388916</ele>
        <time>2010-08-13T16:14:43Z</time>
      </trkpt>
      <trkpt lat="43.7086" lon="7.09626">
        <ele>328.908325</ele>
        <time>2010-08-13T16:14:44Z</time>
      </trkpt>
      <trkpt lat="43.70858" lon="7.09627">
        <ele>328.427612</ele>
        <time>2010-08-13T16:14:45Z</time>
      </trkpt>
      <trkpt lat="43.70855" lon="7.09627">
        <ele>328.427612</ele>
        <time>2010-08-13T16:14:46Z</time>
      </trkpt>
      <trkpt lat="43.70851" lon="7.09627">
        <ele>328.427612</ele>
        <time>2010-08-13T16:14:47Z</time>
      </trkpt>
      <trkpt lat="43.70849" lon="7.09627">
        <ele>328.908325</ele>
        <time>2010-08-13T16:14:48Z</time>
      </trkpt>
      <trkpt lat="43.70846" lon="7.09628">
        <ele>328.908325</ele>
        <time>2010-08-13T16:14:49Z</time>
      </trkpt>
      <trkpt lat="43.70842" lon="7.09629">
        <ele>328.427612</ele>
        <time>2010-08-13T16:14:50Z</time>
      </trkpt>
      <trkpt lat="43.70839" lon="7.09629">
        <ele>328.908325</ele>
        <time>2010-08-13T16:14:51Z</time>
      </trkpt>
      <trkpt lat="43.70837" lon="7.09628">
        <ele>328.908325</ele>
        <time>2010-08-13T16:14:52Z</time>
      </trkpt>
      <trkpt lat="43.70834" lon="7.09629">
        <ele>328.908325</ele>
        <time>2010-08-13T16:14:53Z</time>
      </trkpt>
      <trkpt lat="43.70832" lon="7.09629">
        <ele>328.908325</ele>
        <time>2010-08-13T16:14:54Z</time>
      </trkpt>
      <trkpt lat="43.7083" lon="7.09628">
        <ele>327.466187</ele>
        <time>2010-08-13T16:14:55Z</time>
      </trkpt>
      <trkpt lat="43.70827" lon="7.09627">
        <ele>327.466187</ele>
        <time>2010-08-13T16:14:56Z</time>
      </trkpt>
      <trkpt lat="43.70825" lon="7.09626">
        <ele>327.946777</ele>
        <time>2010-08-13T16:14:57Z</time>
      </trkpt>
      <trkpt lat="43.70822" lon="7.09627">
        <ele>327.946777</ele>
        <time>2010-08-13T16:14:58Z</time>
      </trkpt>
      <trkpt lat="43.7082" lon="7.09627">
        <ele>327.946777</ele>
        <time>2010-08-13T16:14:59Z</time>
      </trkpt>
      <trkpt lat="43.70817" lon="7.09628">
        <ele>327.946777</ele>
        <time>2010-08-13T16:15:00Z</time>
      </trkpt>
      <trkpt lat="43.70815" lon="7.09628">
        <ele>328.427612</ele>
        <time>2010-08-13T16:15:01Z</time>
      </trkpt>
      <trkpt lat="43.70812" lon="7.09627">
        <ele>328.427612</ele>
        <time>2010-08-13T16:15:02Z</time>
      </trkpt>
      <trkpt lat="43.7081" lon="7.09627">
        <ele>328.427612</ele>
        <time>2010-08-13T16:15:03Z</time>
      </trkpt>
      <trkpt lat="43.70807" lon="7.09627">
        <ele>328.427612</ele>
        <time>2010-08-13T16:15:04Z</time>
      </trkpt>
      <trkpt lat="43.70805" lon="7.09627">
        <ele>327.946777</ele>
        <time>2010-08-13T16:15:05Z</time>
      </trkpt>
      <trkpt lat="43.70803" lon="7.09627">
        <ele>327.946777</ele>
        <time>2010-08-13T16:15:06Z</time>
      </trkpt>
      <trkpt lat="43.70801" lon="7.09627">
        <ele>326.985596</ele>
        <time>2010-08-13T16:15:07Z</time>
      </trkpt>
      <trkpt lat="43.70798" lon="7.09626">
        <ele>326.02417</ele>
        <time>2010-08-13T16:15:08Z</time>
      </trkpt>
      <trkpt lat="43.70796" lon="7.09625">
        <ele>326.02417</ele>
        <time>2010-08-13T16:15:09Z</time>
      </trkpt>
      <trkpt lat="43.70793" lon="7.09625">
        <ele>326.504883</ele>
        <time>2010-08-13T16:15:10Z</time>
      </trkpt>
      <trkpt lat="43.7079" lon="7.09624">
        <ele>326.02417</ele>
        <time>2010-08-13T16:15:11Z</time>
      </trkpt>
      <trkpt lat="43.70788" lon="7.09624">
        <ele>326.02417</ele>
        <time>2010-08-13T16:15:12Z</time>
      </trkpt>
      <trkpt lat="43.70786" lon="7.09624">
        <ele>326.02417</ele>
        <time>2010-08-13T16:15:13Z</time>
      </trkpt>
      <trkpt lat="43.70784" lon="7.09624">
        <ele>326.02417</ele>
        <time>2010-08-13T16:15:14Z</time>
      </trkpt>
      <trkpt lat="43.70782" lon="7.09623">
        <ele>325.543579</ele>
        <time>2010-08-13T16:15:15Z</time>
      </trkpt>
      <trkpt lat="43.7078" lon="7.09621">
        <ele>325.062988</ele>
        <time>2010-08-13T16:15:16Z</time>
      </trkpt>
      <trkpt lat="43.70778" lon="7.0962">
        <ele>325.062988</ele>
        <time>2010-08-13T16:15:17Z</time>
      </trkpt>
      <trkpt lat="43.70776" lon="7.09618">
        <ele>324.582275</ele>
        <time>2010-08-13T16:15:18Z</time>
      </trkpt>
      <trkpt lat="43.70774" lon="7.09616">
        <ele>324.582275</ele>
        <time>2010-08-13T16:15:19Z</time>
      </trkpt>
      <trkpt lat="43.70772" lon="7.09615">
        <ele>323.620972</ele>
        <time>2010-08-13T16:15:20Z</time>
      </trkpt>
      <trkpt lat="43.70771" lon="7.09615">
        <ele>323.620972</ele>
        <time>2010-08-13T16:15:21Z</time>
      </trkpt>
      <trkpt lat="43.70769" lon="7.09616">
        <ele>323.620972</ele>
        <time>2010-08-13T16:15:22Z</time>
      </trkpt>
      <trkpt lat="43.70767" lon="7.09616">
        <ele>323.620972</ele>
        <time>2010-08-13T16:15:23Z</time>
      </trkpt>
      <trkpt lat="43.70765" lon="7.09616">
        <ele>323.140381</ele>
        <time>2010-08-13T16:15:24Z</time>
      </trkpt>
      <trkpt lat="43.70763" lon="7.09617">
        <ele>322.178955</ele>
        <time>2010-08-13T16:15:25Z</time>
      </trkpt>
      <trkpt lat="43.70761" lon="7.0962">
        <ele>321.698364</ele>
        <time>2010-08-13T16:15:26Z</time>
      </trkpt>
      <trkpt lat="43.70759" lon="7.09622">
        <ele>321.217773</ele>
        <time>2010-08-13T16:15:27Z</time>
      </trkpt>
      <trkpt lat="43.70757" lon="7.09624">
        <ele>321.698364</ele>
        <time>2010-08-13T16:15:28Z</time>
      </trkpt>
      <trkpt lat="43.70756" lon="7.09626">
        <ele>320.737061</ele>
        <time>2010-08-13T16:15:29Z</time>
      </trkpt>
      <trkpt lat="43.70754" lon="7.09628">
        <ele>321.217773</ele>
        <time>2010-08-13T16:15:30Z</time>
      </trkpt>
      <trkpt lat="43.70753" lon="7.09631">
        <ele>321.698364</ele>
        <time>2010-08-13T16:15:31Z</time>
      </trkpt>
      <trkpt lat="43.70752" lon="7.09635">
        <ele>323.620972</ele>
        <time>2010-08-13T16:15:32Z</time>
      </trkpt>
      <trkpt lat="43.70751" lon="7.09638">
        <ele>325.543579</ele>
        <time>2010-08-13T16:15:33Z</time>
      </trkpt>
      <trkpt lat="43.70751" lon="7.09642">
        <ele>326.985596</ele>
        <time>2010-08-13T16:15:34Z</time>
      </trkpt>
      <trkpt lat="43.70751" lon="7.09644">
        <ele>327.946777</ele>
        <time>2010-08-13T16:15:35Z</time>
      </trkpt>
      <trkpt lat="43.70751" lon="7.09647">
        <ele>328.427612</ele>
        <time>2010-08-13T16:15:36Z</time>
      </trkpt>
      <trkpt lat="43.70751" lon="7.09649">
        <ele>329.388916</ele>
        <time>2010-08-13T16:15:37Z</time>
      </trkpt>
      <trkpt lat="43.70751" lon="7.0965">
        <ele>329.388916</ele>
        <time>2010-08-13T16:15:38Z</time>
      </trkpt>
      <trkpt lat="43.70751" lon="7.09651">
        <ele>329.388916</ele>
        <time>2010-08-13T16:15:39Z</time>
      </trkpt>
      <trkpt lat="43.7075" lon="7.09651">
        <ele>329.869507</ele>
        <time>2010-08-13T16:15:40Z</time>
      </trkpt>
      <trkpt lat="43.7075" lon="7.09651">
        <ele>329.869507</ele>
        <time>2010-08-13T16:15:41Z</time>
      </trkpt>
      <trkpt lat="43.7075" lon="7.09651">
        <ele>329.869507</ele>
        <time>2010-08-13T16:15:42Z</time>
      </trkpt>
      <trkpt lat="43.7075" lon="7.09651">
        <ele>329.869507</ele>
        <time>2010-08-13T16:15:43Z</time>
      </trkpt>
      <trkpt lat="43.7075" lon="7.09651">
        <ele>329.869507</ele>
        <time>2010-08-13T16:15:44Z</time>
      </trkpt>
      <trkpt lat="43.7075" lon="7.09652">
        <ele>330.35022</ele>
        <time>2010-08-13T16:15:45Z</time>
      </trkpt>
      <trkpt lat="43.7075" lon="7.09652">
        <ele>330.830933</ele>
        <time>2010-08-13T16:15:46Z</time>
      </trkpt>
      <trkpt lat="43.70749" lon="7.09653">
        <ele>330.830933</ele>
        <time>2010-08-13T16:15:47Z</time>
      </trkpt>
      <trkpt lat="43.70749" lon="7.09653">
        <ele>331.311523</ele>
        <time>2010-08-13T16:15:48Z</time>
      </trkpt>
      <trkpt lat="43.70749" lon="7.09652">
        <ele>331.311523</ele>
        <time>2010-08-13T16:15:49Z</time>
      </trkpt>
      <trkpt lat="43.70749" lon="7.09651">
        <ele>331.311523</ele>
        <time>2010-08-13T16:15:50Z</time>
      </trkpt>
      <trkpt lat="43.70748" lon="7.0965">
        <ele>331.311523</ele>
        <time>2010-08-13T16:15:51Z</time>
      </trkpt>
      <trkpt lat="43.70748" lon="7.09649">
        <ele>331.311523</ele>
        <time>2010-08-13T16:15:52Z</time>
      </trkpt>
      <trkpt lat="43.70747" lon="7.09647">
        <ele>331.792114</ele>
        <time>2010-08-13T16:15:53Z</time>
      </trkpt>
      <trkpt lat="43.70747" lon="7.09646">
        <ele>331.792114</ele>
        <time>2010-08-13T16:15:54Z</time>
      </trkpt>
      <trkpt lat="43.70747" lon="7.09644">
        <ele>331.792114</ele>
        <time>2010-08-13T16:15:55Z</time>
      </trkpt>
      <trkpt lat="43.70746" lon="7.09643">
        <ele>331.792114</ele>
        <time>2010-08-13T16:15:56Z</time>
      </trkpt>
      <trkpt lat="43.70745" lon="7.09641">
        <ele>331.792114</ele>
        <time>2010-08-13T16:15:57Z</time>
      </trkpt>
      <trkpt lat="43.70745" lon="7.0964">
        <ele>331.792114</ele>
        <time>2010-08-13T16:15:58Z</time>
      </trkpt>
      <trkpt lat="43.70744" lon="7.09638">
        <ele>331.792114</ele>
        <time>2010-08-13T16:15:59Z</time>
      </trkpt>
      <trkpt lat="43.70743" lon="7.09637">
        <ele>331.311523</ele>
        <time>2010-08-13T16:16:00Z</time>
      </trkpt>
      <trkpt lat="43.70743" lon="7.09636">
        <ele>330.830933</ele>
        <time>2010-08-13T16:16:01Z</time>
      </trkpt>
      <trkpt lat="43.70743" lon="7.09635">
        <ele>330.830933</ele>
        <time>2010-08-13T16:16:02Z</time>
      </trkpt>
      <trkpt lat="43.70742" lon="7.09633">
        <ele>330.35022</ele>
        <time>2010-08-13T16:16:03Z</time>
      </trkpt>
      <trkpt lat="43.70742" lon="7.09631">
        <ele>329.869507</ele>
        <time>2010-08-13T16:16:04Z</time>
      </trkpt>
      <trkpt lat="43.70741" lon="7.09629">
        <ele>329.388916</ele>
        <time>2010-08-13T16:16:05Z</time>
      </trkpt>
      <trkpt lat="43.70741" lon="7.09627">
        <ele>328.908325</ele>
        <time>2010-08-13T16:16:06Z</time>
      </trkpt>
      <trkpt lat="43.7074" lon="7.09625">
        <ele>328.427612</ele>
        <time>2010-08-13T16:16:07Z</time>
      </trkpt>
      <trkpt lat="43.70739" lon="7.09622">
        <ele>328.427612</ele>
        <time>2010-08-13T16:16:08Z</time>
      </trkpt>
      <trkpt lat="43.70739" lon="7.09618">
        <ele>329.869507</ele>
        <time>2010-08-13T16:16:09Z</time>
      </trkpt>
      <trkpt lat="43.7074" lon="7.09615">
        <ele>331.792114</ele>
        <time>2010-08-13T16:16:10Z</time>
      </trkpt>
      <trkpt lat="43.7074" lon="7.09612">
        <ele>331.311523</ele>
        <time>2010-08-13T16:16:11Z</time>
      </trkpt>
      <trkpt lat="43.70741" lon="7.0961">
        <ele>331.792114</ele>
        <time>2010-08-13T16:16:12Z</time>
      </trkpt>
      <trkpt lat="43.70743" lon="7.09608">
        <ele>331.311523</ele>
        <time>2010-08-13T16:16:13Z</time>
      </trkpt>
      <trkpt lat="43.70744" lon="7.09607">
        <ele>331.792114</ele>
        <time>2010-08-13T16:16:14Z</time>
      </trkpt>
      <trkpt lat="43.70746" lon="7.09605">
        <ele>332.75354</ele>
        <time>2010-08-13T16:16:15Z</time>
      </trkpt>
      <trkpt lat="43.70748" lon="7.09603">
        <ele>333.234131</ele>
        <time>2010-08-13T16:16:16Z</time>
      </trkpt>
      <trkpt lat="43.7075" lon="7.09602">
        <ele>335.156738</ele>
        <time>2010-08-13T16:16:17Z</time>
      </trkpt>
      <trkpt lat="43.70752" lon="7.096">
        <ele>336.598877</ele>
        <time>2010-08-13T16:16:18Z</time>
      </trkpt>
      <trkpt lat="43.70754" lon="7.09598">
        <ele>338.521484</ele>
        <time>2010-08-13T16:16:19Z</time>
      </trkpt>
      <trkpt lat="43.70756" lon="7.09597">
        <ele>339.482666</ele>
        <time>2010-08-13T16:16:20Z</time>
      </trkpt>
      <trkpt lat="43.70758" lon="7.09595">
        <ele>340.924683</ele>
        <time>2010-08-13T16:16:21Z</time>
      </trkpt>
      <trkpt lat="43.7076" lon="7.09594">
        <ele>340.924683</ele>
        <time>2010-08-13T16:16:22Z</time>
      </trkpt>
      <trkpt lat="43.70761" lon="7.09594">
        <ele>341.405273</ele>
        <time>2010-08-13T16:16:23Z</time>
      </trkpt>
      <trkpt lat="43.70763" lon="7.09594">
        <ele>341.885986</ele>
        <time>2010-08-13T16:16:24Z</time>
      </trkpt>
      <trkpt lat="43.70765" lon="7.09593">
        <ele>340.924683</ele>
        <time>2010-08-13T16:16:25Z</time>
      </trkpt>
      <trkpt lat="43.70767" lon="7.09592">
        <ele>340.924683</ele>
        <time>2010-08-13T16:16:26Z</time>
      </trkpt>
      <trkpt lat="43.70769" lon="7.09592">
        <ele>341.885986</ele>
        <time>2010-08-13T16:16:27Z</time>
      </trkpt>
      <trkpt lat="43.70771" lon="7.09592">
        <ele>341.885986</ele>
        <time>2010-08-13T16:16:28Z</time>
      </trkpt>
      <trkpt lat="43.70774" lon="7.09592">
        <ele>342.366699</ele>
        <time>2010-08-13T16:16:29Z</time>
      </trkpt>
      <trkpt lat="43.70776" lon="7.09593">
        <ele>343.327881</ele>
        <time>2010-08-13T16:16:30Z</time>
      </trkpt>
      <trkpt lat="43.70779" lon="7.09592">
        <ele>344.289429</ele>
        <time>2010-08-13T16:16:31Z</time>
      </trkpt>
      <trkpt lat="43.70781" lon="7.09592">
        <ele>344.77002</ele>
        <time>2010-08-13T16:16:32Z</time>
      </trkpt>
      <trkpt lat="43.70784" lon="7.09591">
        <ele>344.77002</ele>
        <time>2010-08-13T16:16:33Z</time>
      </trkpt>
      <trkpt lat="43.70786" lon="7.0959">
        <ele>345.25061</ele>
        <time>2010-08-13T16:16:34Z</time>
      </trkpt>
      <trkpt lat="43.70788" lon="7.0959">
        <ele>345.731323</ele>
        <time>2010-08-13T16:16:35Z</time>
      </trkpt>
      <trkpt lat="43.70791" lon="7.09589">
        <ele>345.25061</ele>
        <time>2010-08-13T16:16:36Z</time>
      </trkpt>
      <trkpt lat="43.70794" lon="7.09588">
        <ele>345.25061</ele>
        <time>2010-08-13T16:16:37Z</time>
      </trkpt>
      <trkpt lat="43.70796" lon="7.09589">
        <ele>345.25061</ele>
        <time>2010-08-13T16:16:38Z</time>
      </trkpt>
      <trkpt lat="43.70798" lon="7.09589">
        <ele>344.77002</ele>
        <time>2010-08-13T16:16:39Z</time>
      </trkpt>
      <trkpt lat="43.708" lon="7.09589">
        <ele>344.289429</ele>
        <time>2010-08-13T16:16:40Z</time>
      </trkpt>
      <trkpt lat="43.70803" lon="7.09589">
        <ele>344.77002</ele>
        <time>2010-08-13T16:16:41Z</time>
      </trkpt>
      <trkpt lat="43.70804" lon="7.09589">
        <ele>344.289429</ele>
        <time>2010-08-13T16:16:42Z</time>
      </trkpt>
      <trkpt lat="43.70805" lon="7.09589">
        <ele>343.808594</ele>
        <time>2010-08-13T16:16:43Z</time>
      </trkpt>
      <trkpt lat="43.70807" lon="7.09589">
        <ele>342.84729</ele>
        <time>2010-08-13T16:16:44Z</time>
      </trkpt>
      <trkpt lat="43.70809" lon="7.09588">
        <ele>342.84729</ele>
        <time>2010-08-13T16:16:45Z</time>
      </trkpt>
      <trkpt lat="43.70811" lon="7.09587">
        <ele>343.327881</ele>
        <time>2010-08-13T16:16:46Z</time>
      </trkpt>
      <trkpt lat="43.70813" lon="7.09584">
        <ele>343.327881</ele>
        <time>2010-08-13T16:16:47Z</time>
      </trkpt>
      <trkpt lat="43.70814" lon="7.09582">
        <ele>342.366699</ele>
        <time>2010-08-13T16:16:48Z</time>
      </trkpt>
      <trkpt lat="43.70815" lon="7.09581">
        <ele>341.405273</ele>
        <time>2010-08-13T16:16:49Z</time>
      </trkpt>
      <trkpt lat="43.70815" lon="7.0958">
        <ele>341.405273</ele>
        <time>2010-08-13T16:16:50Z</time>
      </trkpt>
      <trkpt lat="43.70816" lon="7.09579">
        <ele>341.405273</ele>
        <time>2010-08-13T16:16:51Z</time>
      </trkpt>
      <trkpt lat="43.70816" lon="7.09579">
        <ele>340.924683</ele>
        <time>2010-08-13T16:16:52Z</time>
      </trkpt>
      <trkpt lat="43.70817" lon="7.09579">
        <ele>340.444092</ele>
        <time>2010-08-13T16:16:53Z</time>
      </trkpt>
      <trkpt lat="43.70817" lon="7.09579">
        <ele>339.482666</ele>
        <time>2010-08-13T16:16:54Z</time>
      </trkpt>
      <trkpt lat="43.70817" lon="7.09579">
        <ele>338.040771</ele>
        <time>2010-08-13T16:16:55Z</time>
      </trkpt>
      <trkpt lat="43.70817" lon="7.09579">
        <ele>339.002075</ele>
        <time>2010-08-13T16:16:56Z</time>
      </trkpt>
      <trkpt lat="43.70817" lon="7.09577">
        <ele>339.002075</ele>
        <time>2010-08-13T16:16:57Z</time>
      </trkpt>
      <trkpt lat="43.70818" lon="7.09575">
        <ele>339.002075</ele>
        <time>2010-08-13T16:16:58Z</time>
      </trkpt>
      <trkpt lat="43.70819" lon="7.09573">
        <ele>339.002075</ele>
        <time>2010-08-13T16:16:59Z</time>
      </trkpt>
      <trkpt lat="43.7082" lon="7.0957">
        <ele>339.002075</ele>
        <time>2010-08-13T16:17:00Z</time>
      </trkpt>
      <trkpt lat="43.70822" lon="7.09569">
        <ele>339.002075</ele>
        <time>2010-08-13T16:17:01Z</time>
      </trkpt>
      <trkpt lat="43.70823" lon="7.09567">
        <ele>338.521484</ele>
        <time>2010-08-13T16:17:02Z</time>
      </trkpt>
      <trkpt lat="43.70824" lon="7.09565">
        <ele>338.040771</ele>
        <time>2010-08-13T16:17:03Z</time>
      </trkpt>
      <trkpt lat="43.70826" lon="7.09564">
        <ele>338.040771</ele>
        <time>2010-08-13T16:17:04Z</time>
      </trkpt>
      <trkpt lat="43.70828" lon="7.09563">
        <ele>338.040771</ele>
        <time>2010-08-13T16:17:05Z</time>
      </trkpt>
      <trkpt lat="43.7083" lon="7.0956">
        <ele>339.482666</ele>
        <time>2010-08-13T16:17:06Z</time>
      </trkpt>
      <trkpt lat="43.70831" lon="7.09558">
        <ele>340.924683</ele>
        <time>2010-08-13T16:17:07Z</time>
      </trkpt>
      <trkpt lat="43.70832" lon="7.09555">
        <ele>343.327881</ele>
        <time>2010-08-13T16:17:08Z</time>
      </trkpt>
      <trkpt lat="43.70833" lon="7.09554">
        <ele>344.77002</ele>
        <time>2010-08-13T16:17:09Z</time>
      </trkpt>
      <trkpt lat="43.70834" lon="7.09553">
        <ele>343.808594</ele>
        <time>2010-08-13T16:17:10Z</time>
      </trkpt>
      <trkpt lat="43.70835" lon="7.09551">
        <ele>344.77002</ele>
        <time>2010-08-13T16:17:11Z</time>
      </trkpt>
      <trkpt lat="43.70837" lon="7.09549">
        <ele>344.289429</ele>
        <time>2010-08-13T16:17:12Z</time>
      </trkpt>
      <trkpt lat="43.70838" lon="7.09547">
        <ele>343.808594</ele>
        <time>2010-08-13T16:17:13Z</time>
      </trkpt>
      <trkpt lat="43.7084" lon="7.09545">
        <ele>344.289429</ele>
        <time>2010-08-13T16:17:14Z</time>
      </trkpt>
      <trkpt lat="43.70841" lon="7.09542">
        <ele>344.289429</ele>
        <time>2010-08-13T16:17:15Z</time>
      </trkpt>
      <trkpt lat="43.70841" lon="7.09539">
        <ele>343.327881</ele>
        <time>2010-08-13T16:17:16Z</time>
      </trkpt>
      <trkpt lat="43.70842" lon="7.09537">
        <ele>343.327881</ele>
        <time>2010-08-13T16:17:17Z</time>
      </trkpt>
      <trkpt lat="43.70842" lon="7.09534">
        <ele>343.808594</ele>
        <time>2010-08-13T16:17:18Z</time>
      </trkpt>
      <trkpt lat="43.70841" lon="7.09532">
        <ele>343.808594</ele>
        <time>2010-08-13T16:17:19Z</time>
      </trkpt>
      <trkpt lat="43.70841" lon="7.09529">
        <ele>343.327881</ele>
        <time>2010-08-13T16:17:20Z</time>
      </trkpt>
      <trkpt lat="43.70841" lon="7.09527">
        <ele>342.84729</ele>
        <time>2010-08-13T16:17:21Z</time>
      </trkpt>
      <trkpt lat="43.70841" lon="7.09525">
        <ele>343.327881</ele>
        <time>2010-08-13T16:17:22Z</time>
      </trkpt>
      <trkpt lat="43.7084" lon="7.09522">
        <ele>344.289429</ele>
        <time>2010-08-13T16:17:23Z</time>
      </trkpt>
      <trkpt lat="43.7084" lon="7.09519">
        <ele>344.289429</ele>
        <time>2010-08-13T16:17:24Z</time>
      </trkpt>
      <trkpt lat="43.7084" lon="7.09516">
        <ele>344.289429</ele>
        <time>2010-08-13T16:17:25Z</time>
      </trkpt>
      <trkpt lat="43.70841" lon="7.09512">
        <ele>345.731323</ele>
        <time>2010-08-13T16:17:26Z</time>
      </trkpt>
      <trkpt lat="43.70841" lon="7.09509">
        <ele>344.77002</ele>
        <time>2010-08-13T16:17:27Z</time>
      </trkpt>
      <trkpt lat="43.70841" lon="7.09507">
        <ele>343.808594</ele>
        <time>2010-08-13T16:17:28Z</time>
      </trkpt>
      <trkpt lat="43.70841" lon="7.09504">
        <ele>344.289429</ele>
        <time>2010-08-13T16:17:29Z</time>
      </trkpt>
      <trkpt lat="43.70841" lon="7.095">
        <ele>344.77002</ele>
        <time>2010-08-13T16:17:30Z</time>
      </trkpt>
      <trkpt lat="43.70841" lon="7.09497">
        <ele>345.25061</ele>
        <time>2010-08-13T16:17:31Z</time>
      </trkpt>
      <trkpt lat="43.70841" lon="7.09493">
        <ele>342.84729</ele>
        <time>2010-08-13T16:17:32Z</time>
      </trkpt>
      <trkpt lat="43.7084" lon="7.09489">
        <ele>341.885986</ele>
        <time>2010-08-13T16:17:33Z</time>
      </trkpt>
      <trkpt lat="43.7084" lon="7.09486">
        <ele>341.405273</ele>
        <time>2010-08-13T16:17:34Z</time>
      </trkpt>
      <trkpt lat="43.70839" lon="7.09482">
        <ele>340.924683</ele>
        <time>2010-08-13T16:17:35Z</time>
      </trkpt>
      <trkpt lat="43.70839" lon="7.09478">
        <ele>340.444092</ele>
        <time>2010-08-13T16:17:36Z</time>
      </trkpt>
      <trkpt lat="43.70838" lon="7.09475">
        <ele>339.963379</ele>
        <time>2010-08-13T16:17:37Z</time>
      </trkpt>
      <trkpt lat="43.70838" lon="7.09473">
        <ele>340.444092</ele>
        <time>2010-08-13T16:17:38Z</time>
      </trkpt>
      <trkpt lat="43.70838" lon="7.09469">
        <ele>340.924683</ele>
        <time>2010-08-13T16:17:39Z</time>
      </trkpt>
      <trkpt lat="43.70838" lon="7.09466">
        <ele>341.405273</ele>
        <time>2010-08-13T16:17:40Z</time>
      </trkpt>
      <trkpt lat="43.70837" lon="7.09462">
        <ele>340.924683</ele>
        <time>2010-08-13T16:17:41Z</time>
      </trkpt>
      <trkpt lat="43.70837" lon="7.09459">
        <ele>340.924683</ele>
        <time>2010-08-13T16:17:42Z</time>
      </trkpt>
      <trkpt lat="43.70837" lon="7.09456">
        <ele>340.924683</ele>
        <time>2010-08-13T16:17:43Z</time>
      </trkpt>
      <trkpt lat="43.70837" lon="7.09454">
        <ele>341.405273</ele>
        <time>2010-08-13T16:17:44Z</time>
      </trkpt>
      <trkpt lat="43.70837" lon="7.09451">
        <ele>341.885986</ele>
        <time>2010-08-13T16:17:45Z</time>
      </trkpt>
      <trkpt lat="43.70838" lon="7.09449">
        <ele>342.366699</ele>
        <time>2010-08-13T16:17:46Z</time>
      </trkpt>
      <trkpt lat="43.70838" lon="7.09446">
        <ele>342.84729</ele>
        <time>2010-08-13T16:17:47Z</time>
      </trkpt>
      <trkpt lat="43.70837" lon="7.09445">
        <ele>341.405273</ele>
        <time>2010-08-13T16:17:48Z</time>
      </trkpt>
      <trkpt lat="43.70838" lon="7.09443">
        <ele>340.924683</ele>
        <time>2010-08-13T16:17:49Z</time>
      </trkpt>
      <trkpt lat="43.70838" lon="7.0944">
        <ele>340.924683</ele>
        <time>2010-08-13T16:17:50Z</time>
      </trkpt>
      <trkpt lat="43.70838" lon="7.09437">
        <ele>342.84729</ele>
        <time>2010-08-13T16:17:51Z</time>
      </trkpt>
      <trkpt lat="43.70839" lon="7.09434">
        <ele>344.77002</ele>
        <time>2010-08-13T16:17:52Z</time>
      </trkpt>
      <trkpt lat="43.70839" lon="7.09432">
        <ele>344.77002</ele>
        <time>2010-08-13T16:17:53Z</time>
      </trkpt>
      <trkpt lat="43.70838" lon="7.09429">
        <ele>344.77002</ele>
        <time>2010-08-13T16:17:54Z</time>
      </trkpt>
      <trkpt lat="43.70838" lon="7.09426">
        <ele>343.327881</ele>
        <time>2010-08-13T16:17:55Z</time>
      </trkpt>
      <trkpt lat="43.70837" lon="7.09423">
        <ele>341.405273</ele>
        <time>2010-08-13T16:17:56Z</time>
      </trkpt>
      <trkpt lat="43.70837" lon="7.0942">
        <ele>340.444092</ele>
        <time>2010-08-13T16:17:57Z</time>
      </trkpt>
      <trkpt lat="43.70838" lon="7.09416">
        <ele>339.963379</ele>
        <time>2010-08-13T16:17:58Z</time>
      </trkpt>
      <trkpt lat="43.70838" lon="7.09413">
        <ele>338.521484</ele>
        <time>2010-08-13T16:17:59Z</time>
      </trkpt>
      <trkpt lat="43.70839" lon="7.0941">
        <ele>337.079468</ele>
        <time>2010-08-13T16:18:00Z</time>
      </trkpt>
      <trkpt lat="43.7084" lon="7.09408">
        <ele>336.598877</ele>
        <time>2010-08-13T16:18:01Z</time>
      </trkpt>
      <trkpt lat="43.70841" lon="7.09405">
        <ele>335.637329</ele>
        <time>2010-08-13T16:18:02Z</time>
      </trkpt>
      <trkpt lat="43.70842" lon="7.09403">
        <ele>335.156738</ele>
        <time>2010-08-13T16:18:03Z</time>
      </trkpt>
      <trkpt lat="43.70842" lon="7.094">
        <ele>334.676147</ele>
        <time>2010-08-13T16:18:04Z</time>
      </trkpt>
      <trkpt lat="43.70843" lon="7.09397">
        <ele>334.195435</ele>
        <time>2010-08-13T16:18:05Z</time>
      </trkpt>
      <trkpt lat="43.70842" lon="7.09394">
        <ele>333.234131</ele>
        <time>2010-08-13T16:18:06Z</time>
      </trkpt>
      <trkpt lat="43.70842" lon="7.09391">
        <ele>332.75354</ele>
        <time>2010-08-13T16:18:07Z</time>
      </trkpt>
      <trkpt lat="43.70841" lon="7.09388">
        <ele>332.272827</ele>
        <time>2010-08-13T16:18:08Z</time>
      </trkpt>
      <trkpt lat="43.70841" lon="7.09385">
        <ele>332.75354</ele>
        <time>2010-08-13T16:18:09Z</time>
      </trkpt>
      <trkpt lat="43.70841" lon="7.09382">
        <ele>333.234131</ele>
        <time>2010-08-13T16:18:10Z</time>
      </trkpt>
      <trkpt lat="43.70841" lon="7.09379">
        <ele>333.714722</ele>
        <time>2010-08-13T16:18:11Z</time>
      </trkpt>
      <trkpt lat="43.70841" lon="7.09377">
        <ele>333.714722</ele>
        <time>2010-08-13T16:18:12Z</time>
      </trkpt>
      <trkpt lat="43.70841" lon="7.09374">
        <ele>334.676147</ele>
        <time>2010-08-13T16:18:13Z</time>
      </trkpt>
      <trkpt lat="43.70842" lon="7.09371">
        <ele>335.637329</ele>
        <time>2010-08-13T16:18:14Z</time>
      </trkpt>
      <trkpt lat="43.70842" lon="7.09368">
        <ele>334.676147</ele>
        <time>2010-08-13T16:18:15Z</time>
      </trkpt>
      <trkpt lat="43.70842" lon="7.09366">
        <ele>334.195435</ele>
        <time>2010-08-13T16:18:16Z</time>
      </trkpt>
      <trkpt lat="43.70841" lon="7.09363">
        <ele>334.195435</ele>
        <time>2010-08-13T16:18:17Z</time>
      </trkpt>
      <trkpt lat="43.7084" lon="7.0936">
        <ele>334.195435</ele>
        <time>2010-08-13T16:18:18Z</time>
      </trkpt>
      <trkpt lat="43.70839" lon="7.09358">
        <ele>335.156738</ele>
        <time>2010-08-13T16:18:19Z</time>
      </trkpt>
      <trkpt lat="43.70838" lon="7.09355">
        <ele>335.156738</ele>
        <time>2010-08-13T16:18:20Z</time>
      </trkpt>
      <trkpt lat="43.70837" lon="7.09351">
        <ele>335.156738</ele>
        <time>2010-08-13T16:18:21Z</time>
      </trkpt>
      <trkpt lat="43.70836" lon="7.09348">
        <ele>335.156738</ele>
        <time>2010-08-13T16:18:22Z</time>
      </trkpt>
      <trkpt lat="43.70835" lon="7.09346">
        <ele>335.156738</ele>
        <time>2010-08-13T16:18:23Z</time>
      </trkpt>
      <trkpt lat="43.70834" lon="7.09343">
        <ele>335.156738</ele>
        <time>2010-08-13T16:18:24Z</time>
      </trkpt>
      <trkpt lat="43.70833" lon="7.09341">
        <ele>334.676147</ele>
        <time>2010-08-13T16:18:25Z</time>
      </trkpt>
      <trkpt lat="43.70832" lon="7.09339">
        <ele>334.195435</ele>
        <time>2010-08-13T16:18:26Z</time>
      </trkpt>
      <trkpt lat="43.70832" lon="7.09336">
        <ele>334.195435</ele>
        <time>2010-08-13T16:18:27Z</time>
      </trkpt>
      <trkpt lat="43.70831" lon="7.09333">
        <ele>334.195435</ele>
        <time>2010-08-13T16:18:28Z</time>
      </trkpt>
      <trkpt lat="43.7083" lon="7.0933">
        <ele>334.676147</ele>
        <time>2010-08-13T16:18:29Z</time>
      </trkpt>
      <trkpt lat="43.7083" lon="7.09328">
        <ele>335.156738</ele>
        <time>2010-08-13T16:18:30Z</time>
      </trkpt>
      <trkpt lat="43.70829" lon="7.09325">
        <ele>335.637329</ele>
        <time>2010-08-13T16:18:31Z</time>
      </trkpt>
      <trkpt lat="43.7083" lon="7.09322">
        <ele>336.118164</ele>
        <time>2010-08-13T16:18:32Z</time>
      </trkpt>
      <trkpt lat="43.7083" lon="7.09319">
        <ele>336.598877</ele>
        <time>2010-08-13T16:18:33Z</time>
      </trkpt>
      <trkpt lat="43.70831" lon="7.09316">
        <ele>337.079468</ele>
        <time>2010-08-13T16:18:34Z</time>
      </trkpt>
      <trkpt lat="43.70831" lon="7.09313">
        <ele>337.560059</ele>
        <time>2010-08-13T16:18:35Z</time>
      </trkpt>
      <trkpt lat="43.70831" lon="7.09311">
        <ele>337.560059</ele>
        <time>2010-08-13T16:18:36Z</time>
      </trkpt>
      <trkpt lat="43.70832" lon="7.09308">
        <ele>337.560059</ele>
        <time>2010-08-13T16:18:37Z</time>
      </trkpt>
      <trkpt lat="43.70832" lon="7.09305">
        <ele>339.963379</ele>
        <time>2010-08-13T16:18:38Z</time>
      </trkpt>
      <trkpt lat="43.70832" lon="7.09302">
        <ele>340.924683</ele>
        <time>2010-08-13T16:18:39Z</time>
      </trkpt>
      <trkpt lat="43.70832" lon="7.09299">
        <ele>342.366699</ele>
        <time>2010-08-13T16:18:40Z</time>
      </trkpt>
      <trkpt lat="43.70831" lon="7.09297">
        <ele>342.366699</ele>
        <time>2010-08-13T16:18:41Z</time>
      </trkpt>
      <trkpt lat="43.7083" lon="7.09295">
        <ele>342.84729</ele>
        <time>2010-08-13T16:18:42Z</time>
      </trkpt>
      <trkpt lat="43.7083" lon="7.09292">
        <ele>342.84729</ele>
        <time>2010-08-13T16:18:43Z</time>
      </trkpt>
      <trkpt lat="43.70829" lon="7.0929">
        <ele>342.84729</ele>
        <time>2010-08-13T16:18:44Z</time>
      </trkpt>
      <trkpt lat="43.70829" lon="7.09286">
        <ele>342.366699</ele>
        <time>2010-08-13T16:18:45Z</time>
      </trkpt>
      <trkpt lat="43.70828" lon="7.09283">
        <ele>341.405273</ele>
        <time>2010-08-13T16:18:46Z</time>
      </trkpt>
      <trkpt lat="43.70827" lon="7.0928">
        <ele>341.885986</ele>
        <time>2010-08-13T16:18:47Z</time>
      </trkpt>
      <trkpt lat="43.70827" lon="7.09277">
        <ele>342.366699</ele>
        <time>2010-08-13T16:18:48Z</time>
      </trkpt>
      <trkpt lat="43.70828" lon="7.09274">
        <ele>341.885986</ele>
        <time>2010-08-13T16:18:49Z</time>
      </trkpt>
      <trkpt lat="43.70828" lon="7.09271">
        <ele>341.885986</ele>
        <time>2010-08-13T16:18:50Z</time>
      </trkpt>
      <trkpt lat="43.70828" lon="7.09268">
        <ele>341.405273</ele>
        <time>2010-08-13T16:18:51Z</time>
      </trkpt>
      <trkpt lat="43.70828" lon="7.09265">
        <ele>341.405273</ele>
        <time>2010-08-13T16:18:52Z</time>
      </trkpt>
      <trkpt lat="43.70828" lon="7.09261">
        <ele>340.444092</ele>
        <time>2010-08-13T16:18:53Z</time>
      </trkpt>
      <trkpt lat="43.70828" lon="7.09258">
        <ele>339.963379</ele>
        <time>2010-08-13T16:18:54Z</time>
      </trkpt>
      <trkpt lat="43.70828" lon="7.09255">
        <ele>340.924683</ele>
        <time>2010-08-13T16:18:55Z</time>
      </trkpt>
      <trkpt lat="43.70829" lon="7.09253">
        <ele>342.366699</ele>
        <time>2010-08-13T16:18:56Z</time>
      </trkpt>
      <trkpt lat="43.7083" lon="7.0925">
        <ele>343.808594</ele>
        <time>2010-08-13T16:18:57Z</time>
      </trkpt>
      <trkpt lat="43.70831" lon="7.09246">
        <ele>344.77002</ele>
        <time>2010-08-13T16:18:58Z</time>
      </trkpt>
      <trkpt lat="43.7083" lon="7.09243">
        <ele>344.77002</ele>
        <time>2010-08-13T16:18:59Z</time>
      </trkpt>
      <trkpt lat="43.7083" lon="7.09239">
        <ele>344.77002</ele>
        <time>2010-08-13T16:19:00Z</time>
      </trkpt>
      <trkpt lat="43.7083" lon="7.09235">
        <ele>344.77002</ele>
        <time>2010-08-13T16:19:01Z</time>
      </trkpt>
      <trkpt lat="43.7083" lon="7.09232">
        <ele>344.77002</ele>
        <time>2010-08-13T16:19:02Z</time>
      </trkpt>
      <trkpt lat="43.70829" lon="7.09229">
        <ele>346.212036</ele>
        <time>2010-08-13T16:19:03Z</time>
      </trkpt>
      <trkpt lat="43.70829" lon="7.09225">
        <ele>346.692627</ele>
        <time>2010-08-13T16:19:04Z</time>
      </trkpt>
      <trkpt lat="43.70829" lon="7.09221">
        <ele>346.692627</ele>
        <time>2010-08-13T16:19:05Z</time>
      </trkpt>
      <trkpt lat="43.70828" lon="7.09217">
        <ele>347.173218</ele>
        <time>2010-08-13T16:19:06Z</time>
      </trkpt>
      <trkpt lat="43.70827" lon="7.09214">
        <ele>346.692627</ele>
        <time>2010-08-13T16:19:07Z</time>
      </trkpt>
      <trkpt lat="43.70826" lon="7.09211">
        <ele>346.212036</ele>
        <time>2010-08-13T16:19:08Z</time>
      </trkpt>
      <trkpt lat="43.70825" lon="7.09208">
        <ele>346.212036</ele>
        <time>2010-08-13T16:19:09Z</time>
      </trkpt>
      <trkpt lat="43.70825" lon="7.09205">
        <ele>345.731323</ele>
        <time>2010-08-13T16:19:10Z</time>
      </trkpt>
      <trkpt lat="43.70825" lon="7.09202">
        <ele>345.731323</ele>
        <time>2010-08-13T16:19:11Z</time>
      </trkpt>
      <trkpt lat="43.70824" lon="7.09198">
        <ele>346.212036</ele>
        <time>2010-08-13T16:19:12Z</time>
      </trkpt>
      <trkpt lat="43.70824" lon="7.09195">
        <ele>346.692627</ele>
        <time>2010-08-13T16:19:13Z</time>
      </trkpt>
      <trkpt lat="43.70824" lon="7.09192">
        <ele>347.173218</ele>
        <time>2010-08-13T16:19:14Z</time>
      </trkpt>
      <trkpt lat="43.70824" lon="7.09189">
        <ele>348.615234</ele>
        <time>2010-08-13T16:19:15Z</time>
      </trkpt>
      <trkpt lat="43.70825" lon="7.09186">
        <ele>349.095825</ele>
        <time>2010-08-13T16:19:16Z</time>
      </trkpt>
      <trkpt lat="43.70826" lon="7.09183">
        <ele>348.615234</ele>
        <time>2010-08-13T16:19:17Z</time>
      </trkpt>
      <trkpt lat="43.70826" lon="7.0918">
        <ele>349.095825</ele>
        <time>2010-08-13T16:19:18Z</time>
      </trkpt>
      <trkpt lat="43.70826" lon="7.09178">
        <ele>348.134644</ele>
        <time>2010-08-13T16:19:19Z</time>
      </trkpt>
      <trkpt lat="43.70825" lon="7.09175">
        <ele>348.615234</ele>
        <time>2010-08-13T16:19:20Z</time>
      </trkpt>
      <trkpt lat="43.70826" lon="7.09171">
        <ele>349.576538</ele>
        <time>2010-08-13T16:19:21Z</time>
      </trkpt>
      <trkpt lat="43.70826" lon="7.09167">
        <ele>349.576538</ele>
        <time>2010-08-13T16:19:22Z</time>
      </trkpt>
      <trkpt lat="43.70825" lon="7.09163">
        <ele>347.653931</ele>
        <time>2010-08-13T16:19:23Z</time>
      </trkpt>
      <trkpt lat="43.70824" lon="7.0916">
        <ele>345.731323</ele>
        <time>2010-08-13T16:19:24Z</time>
      </trkpt>
      <trkpt lat="43.70823" lon="7.09157">
        <ele>344.77002</ele>
        <time>2010-08-13T16:19:25Z</time>
      </trkpt>
      <trkpt lat="43.70823" lon="7.09155">
        <ele>344.77002</ele>
        <time>2010-08-13T16:19:26Z</time>
      </trkpt>
      <trkpt lat="43.70823" lon="7.09151">
        <ele>343.808594</ele>
        <time>2010-08-13T16:19:27Z</time>
      </trkpt>
      <trkpt lat="43.70822" lon="7.09148">
        <ele>342.84729</ele>
        <time>2010-08-13T16:19:28Z</time>
      </trkpt>
      <trkpt lat="43.70821" lon="7.09145">
        <ele>342.366699</ele>
        <time>2010-08-13T16:19:29Z</time>
      </trkpt>
      <trkpt lat="43.7082" lon="7.09141">
        <ele>341.885986</ele>
        <time>2010-08-13T16:19:30Z</time>
      </trkpt>
      <trkpt lat="43.70821" lon="7.09138">
        <ele>343.808594</ele>
        <time>2010-08-13T16:19:31Z</time>
      </trkpt>
      <trkpt lat="43.70822" lon="7.09136">
        <ele>344.77002</ele>
        <time>2010-08-13T16:19:32Z</time>
      </trkpt>
      <trkpt lat="43.70822" lon="7.09133">
        <ele>345.25061</ele>
        <time>2010-08-13T16:19:33Z</time>
      </trkpt>
      <trkpt lat="43.70823" lon="7.0913">
        <ele>343.327881</ele>
        <time>2010-08-13T16:19:34Z</time>
      </trkpt>
      <trkpt lat="43.70823" lon="7.09129">
        <ele>342.366699</ele>
        <time>2010-08-13T16:19:35Z</time>
      </trkpt>
      <trkpt lat="43.70824" lon="7.09128">
        <ele>341.885986</ele>
        <time>2010-08-13T16:19:36Z</time>
      </trkpt>
      <trkpt lat="43.70825" lon="7.09126">
        <ele>341.405273</ele>
        <time>2010-08-13T16:19:37Z</time>
      </trkpt>
      <trkpt lat="43.70826" lon="7.09124">
        <ele>342.366699</ele>
        <time>2010-08-13T16:19:38Z</time>
      </trkpt>
      <trkpt lat="43.70828" lon="7.09123">
        <ele>344.289429</ele>
        <time>2010-08-13T16:19:39Z</time>
      </trkpt>
      <trkpt lat="43.7083" lon="7.09122">
        <ele>346.212036</ele>
        <time>2010-08-13T16:19:40Z</time>
      </trkpt>
      <trkpt lat="43.70832" lon="7.09122">
        <ele>347.653931</ele>
        <time>2010-08-13T16:19:41Z</time>
      </trkpt>
      <trkpt lat="43.70834" lon="7.09121">
        <ele>349.095825</ele>
        <time>2010-08-13T16:19:42Z</time>
      </trkpt>
      <trkpt lat="43.70835" lon="7.09121">
        <ele>349.095825</ele>
        <time>2010-08-13T16:19:43Z</time>
      </trkpt>
      <trkpt lat="43.70837" lon="7.0912">
        <ele>349.095825</ele>
        <time>2010-08-13T16:19:44Z</time>
      </trkpt>
      <trkpt lat="43.70838" lon="7.09119">
        <ele>349.095825</ele>
        <time>2010-08-13T16:19:45Z</time>
      </trkpt>
      <trkpt lat="43.70839" lon="7.09117">
        <ele>348.615234</ele>
        <time>2010-08-13T16:19:46Z</time>
      </trkpt>
      <trkpt lat="43.7084" lon="7.09117">
        <ele>348.615234</ele>
        <time>2010-08-13T16:19:47Z</time>
      </trkpt>
      <trkpt lat="43.70842" lon="7.09116">
        <ele>349.095825</ele>
        <time>2010-08-13T16:19:48Z</time>
      </trkpt>
      <trkpt lat="43.70845" lon="7.09115">
        <ele>350.537842</ele>
        <time>2010-08-13T16:19:49Z</time>
      </trkpt>
      <trkpt lat="43.70846" lon="7.09114">
        <ele>351.499146</ele>
        <time>2010-08-13T16:19:50Z</time>
      </trkpt>
      <trkpt lat="43.70848" lon="7.09114">
        <ele>351.499146</ele>
        <time>2010-08-13T16:19:51Z</time>
      </trkpt>
      <trkpt lat="43.70851" lon="7.09113">
        <ele>352.460571</ele>
        <time>2010-08-13T16:19:52Z</time>
      </trkpt>
      <trkpt lat="43.70854" lon="7.09112">
        <ele>355.825195</ele>
        <time>2010-08-13T16:19:53Z</time>
      </trkpt>
      <trkpt lat="43.70856" lon="7.09111">
        <ele>356.786377</ele>
        <time>2010-08-13T16:19:54Z</time>
      </trkpt>
      <trkpt lat="43.70858" lon="7.0911">
        <ele>356.786377</ele>
        <time>2010-08-13T16:19:55Z</time>
      </trkpt>
      <trkpt lat="43.7086" lon="7.09109">
        <ele>357.26709</ele>
        <time>2010-08-13T16:19:56Z</time>
      </trkpt>
      <trkpt lat="43.70862" lon="7.09108">
        <ele>357.747803</ele>
        <time>2010-08-13T16:19:57Z</time>
      </trkpt>
      <trkpt lat="43.70864" lon="7.09107">
        <ele>356.786377</ele>
        <time>2010-08-13T16:19:58Z</time>
      </trkpt>
      <trkpt lat="43.70866" lon="7.09107">
        <ele>356.786377</ele>
        <time>2010-08-13T16:19:59Z</time>
      </trkpt>
      <trkpt lat="43.70868" lon="7.09106">
        <ele>356.786377</ele>
        <time>2010-08-13T16:20:00Z</time>
      </trkpt>
      <trkpt lat="43.7087" lon="7.09105">
        <ele>357.747803</ele>
        <time>2010-08-13T16:20:01Z</time>
      </trkpt>
      <trkpt lat="43.70872" lon="7.09103">
        <ele>358.708984</ele>
        <time>2010-08-13T16:20:02Z</time>
      </trkpt>
      <trkpt lat="43.70873" lon="7.09102">
        <ele>358.228394</ele>
        <time>2010-08-13T16:20:03Z</time>
      </trkpt>
      <trkpt lat="43.70875" lon="7.091">
        <ele>358.228394</ele>
        <time>2010-08-13T16:20:04Z</time>
      </trkpt>
      <trkpt lat="43.70878" lon="7.09098">
        <ele>357.747803</ele>
        <time>2010-08-13T16:20:05Z</time>
      </trkpt>
      <trkpt lat="43.7088" lon="7.09097">
        <ele>356.305786</ele>
        <time>2010-08-13T16:20:06Z</time>
      </trkpt>
      <trkpt lat="43.70883" lon="7.09098">
        <ele>355.825195</ele>
        <time>2010-08-13T16:20:07Z</time>
      </trkpt>
      <trkpt lat="43.70885" lon="7.09098">
        <ele>356.305786</ele>
        <time>2010-08-13T16:20:08Z</time>
      </trkpt>
      <trkpt lat="43.70887" lon="7.09097">
        <ele>356.786377</ele>
        <time>2010-08-13T16:20:09Z</time>
      </trkpt>
      <trkpt lat="43.7089" lon="7.09096">
        <ele>357.26709</ele>
        <time>2010-08-13T16:20:10Z</time>
      </trkpt>
      <trkpt lat="43.70892" lon="7.09094">
        <ele>358.708984</ele>
        <time>2010-08-13T16:20:11Z</time>
      </trkpt>
      <trkpt lat="43.70894" lon="7.09092">
        <ele>359.189697</ele>
        <time>2010-08-13T16:20:12Z</time>
      </trkpt>
      <trkpt lat="43.70896" lon="7.09091">
        <ele>360.631714</ele>
        <time>2010-08-13T16:20:13Z</time>
      </trkpt>
      <trkpt lat="43.70898" lon="7.09088">
        <ele>362.554321</ele>
        <time>2010-08-13T16:20:14Z</time>
      </trkpt>
      <trkpt lat="43.709" lon="7.09086">
        <ele>362.07373</ele>
        <time>2010-08-13T16:20:15Z</time>
      </trkpt>
      <trkpt lat="43.70902" lon="7.09085">
        <ele>359.67041</ele>
        <time>2010-08-13T16:20:16Z</time>
      </trkpt>
      <trkpt lat="43.70903" lon="7.09083">
        <ele>357.747803</ele>
        <time>2010-08-13T16:20:17Z</time>
      </trkpt>
      <trkpt lat="43.70904" lon="7.09082">
        <ele>356.786377</ele>
        <time>2010-08-13T16:20:18Z</time>
      </trkpt>
      <trkpt lat="43.70905" lon="7.09081">
        <ele>355.825195</ele>
        <time>2010-08-13T16:20:19Z</time>
      </trkpt>
      <trkpt lat="43.70907" lon="7.09079">
        <ele>355.825195</ele>
        <time>2010-08-13T16:20:20Z</time>
      </trkpt>
      <trkpt lat="43.70907" lon="7.09078">
        <ele>353.902588</ele>
        <time>2010-08-13T16:20:21Z</time>
      </trkpt>
      <trkpt lat="43.70909" lon="7.09077">
        <ele>351.979858</ele>
        <time>2010-08-13T16:20:22Z</time>
      </trkpt>
      <trkpt lat="43.7091" lon="7.09076">
        <ele>351.499146</ele>
        <time>2010-08-13T16:20:23Z</time>
      </trkpt>
      <trkpt lat="43.70911" lon="7.09074">
        <ele>350.537842</ele>
        <time>2010-08-13T16:20:24Z</time>
      </trkpt>
      <trkpt lat="43.70912" lon="7.09072">
        <ele>349.576538</ele>
        <time>2010-08-13T16:20:25Z</time>
      </trkpt>
      <trkpt lat="43.70912" lon="7.09069">
        <ele>347.653931</ele>
        <time>2010-08-13T16:20:26Z</time>
      </trkpt>
      <trkpt lat="43.70912" lon="7.09065">
        <ele>346.692627</ele>
        <time>2010-08-13T16:20:27Z</time>
      </trkpt>
      <trkpt lat="43.70911" lon="7.09063">
        <ele>345.25061</ele>
        <time>2010-08-13T16:20:28Z</time>
      </trkpt>
      <trkpt lat="43.7091" lon="7.09061">
        <ele>344.77002</ele>
        <time>2010-08-13T16:20:29Z</time>
      </trkpt>
      <trkpt lat="43.70909" lon="7.0906">
        <ele>342.84729</ele>
        <time>2010-08-13T16:20:30Z</time>
      </trkpt>
      <trkpt lat="43.70909" lon="7.09058">
        <ele>341.885986</ele>
        <time>2010-08-13T16:20:31Z</time>
      </trkpt>
      <trkpt lat="43.70909" lon="7.09057">
        <ele>340.924683</ele>
        <time>2010-08-13T16:20:32Z</time>
      </trkpt>
      <trkpt lat="43.70908" lon="7.09055">
        <ele>339.482666</ele>
        <time>2010-08-13T16:20:33Z</time>
      </trkpt>
      <trkpt lat="43.70908" lon="7.09053">
        <ele>339.002075</ele>
        <time>2010-08-13T16:20:34Z</time>
      </trkpt>
      <trkpt lat="43.70907" lon="7.09052">
        <ele>337.560059</ele>
        <time>2010-08-13T16:20:35Z</time>
      </trkpt>
      <trkpt lat="43.70907" lon="7.0905">
        <ele>336.118164</ele>
        <time>2010-08-13T16:20:36Z</time>
      </trkpt>
      <trkpt lat="43.70907" lon="7.09047">
        <ele>335.156738</ele>
        <time>2010-08-13T16:20:37Z</time>
      </trkpt>
      <trkpt lat="43.70906" lon="7.09045">
        <ele>333.714722</ele>
        <time>2010-08-13T16:20:38Z</time>
      </trkpt>
      <trkpt lat="43.70905" lon="7.09042">
        <ele>332.272827</ele>
        <time>2010-08-13T16:20:39Z</time>
      </trkpt>
      <trkpt lat="43.70904" lon="7.0904">
        <ele>331.792114</ele>
        <time>2010-08-13T16:20:40Z</time>
      </trkpt>
      <trkpt lat="43.70903" lon="7.09038">
        <ele>331.311523</ele>
        <time>2010-08-13T16:20:41Z</time>
      </trkpt>
      <trkpt lat="43.70903" lon="7.09035">
        <ele>331.311523</ele>
        <time>2010-08-13T16:20:42Z</time>
      </trkpt>
      <trkpt lat="43.70903" lon="7.09032">
        <ele>331.311523</ele>
        <time>2010-08-13T16:20:43Z</time>
      </trkpt>
      <trkpt lat="43.70903" lon="7.09029">
        <ele>331.311523</ele>
        <time>2010-08-13T16:20:44Z</time>
      </trkpt>
      <trkpt lat="43.70904" lon="7.09025">
        <ele>330.35022</ele>
        <time>2010-08-13T16:20:45Z</time>
      </trkpt>
      <trkpt lat="43.70905" lon="7.09021">
        <ele>329.869507</ele>
        <time>2010-08-13T16:20:46Z</time>
      </trkpt>
      <trkpt lat="43.70905" lon="7.09018">
        <ele>328.908325</ele>
        <time>2010-08-13T16:20:47Z</time>
      </trkpt>
      <trkpt lat="43.70905" lon="7.09014">
        <ele>327.466187</ele>
        <time>2010-08-13T16:20:48Z</time>
      </trkpt>
      <trkpt lat="43.70906" lon="7.09012">
        <ele>326.985596</ele>
        <time>2010-08-13T16:20:49Z</time>
      </trkpt>
      <trkpt lat="43.70906" lon="7.09009">
        <ele>327.466187</ele>
        <time>2010-08-13T16:20:50Z</time>
      </trkpt>
      <trkpt lat="43.70906" lon="7.09007">
        <ele>326.985596</ele>
        <time>2010-08-13T16:20:51Z</time>
      </trkpt>
      <trkpt lat="43.70906" lon="7.09005">
        <ele>327.466187</ele>
        <time>2010-08-13T16:20:52Z</time>
      </trkpt>
      <trkpt lat="43.70905" lon="7.09002">
        <ele>326.504883</ele>
        <time>2010-08-13T16:20:53Z</time>
      </trkpt>
      <trkpt lat="43.70904" lon="7.08999">
        <ele>326.504883</ele>
        <time>2010-08-13T16:20:54Z</time>
      </trkpt>
      <trkpt lat="43.70903" lon="7.08995">
        <ele>326.985596</ele>
        <time>2010-08-13T16:20:55Z</time>
      </trkpt>
      <trkpt lat="43.70902" lon="7.08992">
        <ele>327.946777</ele>
        <time>2010-08-13T16:20:56Z</time>
      </trkpt>
      <trkpt lat="43.70901" lon="7.08989">
        <ele>328.427612</ele>
        <time>2010-08-13T16:20:57Z</time>
      </trkpt>
      <trkpt lat="43.709" lon="7.08986">
        <ele>329.388916</ele>
        <time>2010-08-13T16:20:58Z</time>
      </trkpt>
      <trkpt lat="43.70899" lon="7.08984">
        <ele>329.388916</ele>
        <time>2010-08-13T16:20:59Z</time>
      </trkpt>
      <trkpt lat="43.70898" lon="7.08982">
        <ele>330.35022</ele>
        <time>2010-08-13T16:21:00Z</time>
      </trkpt>
      <trkpt lat="43.70897" lon="7.08979">
        <ele>330.830933</ele>
        <time>2010-08-13T16:21:01Z</time>
      </trkpt>
      <trkpt lat="43.70896" lon="7.08977">
        <ele>331.792114</ele>
        <time>2010-08-13T16:21:02Z</time>
      </trkpt>
      <trkpt lat="43.70895" lon="7.08974">
        <ele>332.272827</ele>
        <time>2010-08-13T16:21:03Z</time>
      </trkpt>
      <trkpt lat="43.70895" lon="7.08971">
        <ele>333.234131</ele>
        <time>2010-08-13T16:21:04Z</time>
      </trkpt>
      <trkpt lat="43.70894" lon="7.08967">
        <ele>333.714722</ele>
        <time>2010-08-13T16:21:05Z</time>
      </trkpt>
      <trkpt lat="43.70893" lon="7.08964">
        <ele>334.676147</ele>
        <time>2010-08-13T16:21:06Z</time>
      </trkpt>
      <trkpt lat="43.70893" lon="7.08961">
        <ele>336.118164</ele>
        <time>2010-08-13T16:21:07Z</time>
      </trkpt>
      <trkpt lat="43.70892" lon="7.08957">
        <ele>336.118164</ele>
        <time>2010-08-13T16:21:08Z</time>
      </trkpt>
      <trkpt lat="43.70891" lon="7.08954">
        <ele>335.637329</ele>
        <time>2010-08-13T16:21:09Z</time>
      </trkpt>
      <trkpt lat="43.70891" lon="7.08951">
        <ele>335.637329</ele>
        <time>2010-08-13T16:21:10Z</time>
      </trkpt>
      <trkpt lat="43.7089" lon="7.08949">
        <ele>336.598877</ele>
        <time>2010-08-13T16:21:11Z</time>
      </trkpt>
      <trkpt lat="43.70889" lon="7.08946">
        <ele>336.598877</ele>
        <time>2010-08-13T16:21:12Z</time>
      </trkpt>
      <trkpt lat="43.70887" lon="7.08943">
        <ele>337.079468</ele>
        <time>2010-08-13T16:21:13Z</time>
      </trkpt>
      <trkpt lat="43.70886" lon="7.08941">
        <ele>337.079468</ele>
        <time>2010-08-13T16:21:14Z</time>
      </trkpt>
      <trkpt lat="43.70885" lon="7.08937">
        <ele>336.598877</ele>
        <time>2010-08-13T16:21:15Z</time>
      </trkpt>
      <trkpt lat="43.70884" lon="7.08934">
        <ele>336.598877</ele>
        <time>2010-08-13T16:21:16Z</time>
      </trkpt>
      <trkpt lat="43.70883" lon="7.08931">
        <ele>337.560059</ele>
        <time>2010-08-13T16:21:17Z</time>
      </trkpt>
      <trkpt lat="43.70882" lon="7.08927">
        <ele>337.560059</ele>
        <time>2010-08-13T16:21:18Z</time>
      </trkpt>
      <trkpt lat="43.70881" lon="7.08924">
        <ele>337.560059</ele>
        <time>2010-08-13T16:21:19Z</time>
      </trkpt>
      <trkpt lat="43.7088" lon="7.0892">
        <ele>336.598877</ele>
        <time>2010-08-13T16:21:20Z</time>
      </trkpt>
      <trkpt lat="43.70879" lon="7.08917">
        <ele>336.598877</ele>
        <time>2010-08-13T16:21:21Z</time>
      </trkpt>
      <trkpt lat="43.70878" lon="7.08914">
        <ele>336.118164</ele>
        <time>2010-08-13T16:21:22Z</time>
      </trkpt>
      <trkpt lat="43.70878" lon="7.08911">
        <ele>335.637329</ele>
        <time>2010-08-13T16:21:23Z</time>
      </trkpt>
      <trkpt lat="43.70877" lon="7.08908">
        <ele>335.156738</ele>
        <time>2010-08-13T16:21:24Z</time>
      </trkpt>
      <trkpt lat="43.70877" lon="7.08904">
        <ele>334.195435</ele>
        <time>2010-08-13T16:21:25Z</time>
      </trkpt>
      <trkpt lat="43.70877" lon="7.08901">
        <ele>334.195435</ele>
        <time>2010-08-13T16:21:26Z</time>
      </trkpt>
      <trkpt lat="43.70876" lon="7.08898">
        <ele>333.234131</ele>
        <time>2010-08-13T16:21:27Z</time>
      </trkpt>
      <trkpt lat="43.70875" lon="7.08895">
        <ele>333.234131</ele>
        <time>2010-08-13T16:21:28Z</time>
      </trkpt>
      <trkpt lat="43.70874" lon="7.08893">
        <ele>332.75354</ele>
        <time>2010-08-13T16:21:29Z</time>
      </trkpt>
      <trkpt lat="43.70872" lon="7.0889">
        <ele>332.75354</ele>
        <time>2010-08-13T16:21:30Z</time>
      </trkpt>
      <trkpt lat="43.70871" lon="7.08887">
        <ele>332.75354</ele>
        <time>2010-08-13T16:21:31Z</time>
      </trkpt>
      <trkpt lat="43.7087" lon="7.08883">
        <ele>332.272827</ele>
        <time>2010-08-13T16:21:32Z</time>
      </trkpt>
      <trkpt lat="43.70869" lon="7.08879">
        <ele>332.272827</ele>
        <time>2010-08-13T16:21:33Z</time>
      </trkpt>
      <trkpt lat="43.70868" lon="7.08875">
        <ele>331.792114</ele>
        <time>2010-08-13T16:21:34Z</time>
      </trkpt>
      <trkpt lat="43.70866" lon="7.08871">
        <ele>331.792114</ele>
        <time>2010-08-13T16:21:35Z</time>
      </trkpt>
      <trkpt lat="43.70866" lon="7.08867">
        <ele>331.311523</ele>
        <time>2010-08-13T16:21:36Z</time>
      </trkpt>
      <trkpt lat="43.70865" lon="7.08862">
        <ele>330.35022</ele>
        <time>2010-08-13T16:21:37Z</time>
      </trkpt>
      <trkpt lat="43.70865" lon="7.08859">
        <ele>330.830933</ele>
        <time>2010-08-13T16:21:38Z</time>
      </trkpt>
      <trkpt lat="43.70865" lon="7.08855">
        <ele>330.830933</ele>
        <time>2010-08-13T16:21:39Z</time>
      </trkpt>
      <trkpt lat="43.70865" lon="7.08853">
        <ele>330.830933</ele>
        <time>2010-08-13T16:21:40Z</time>
      </trkpt>
      <trkpt lat="43.70865" lon="7.0885">
        <ele>330.830933</ele>
        <time>2010-08-13T16:21:41Z</time>
      </trkpt>
      <trkpt lat="43.70865" lon="7.08848">
        <ele>330.830933</ele>
        <time>2010-08-13T16:21:42Z</time>
      </trkpt>
      <trkpt lat="43.70866" lon="7.08846">
        <ele>330.830933</ele>
        <time>2010-08-13T16:21:43Z</time>
      </trkpt>
      <trkpt lat="43.70866" lon="7.08845">
        <ele>330.830933</ele>
        <time>2010-08-13T16:21:44Z</time>
      </trkpt>
      <trkpt lat="43.70865" lon="7.08843">
        <ele>330.35022</ele>
        <time>2010-08-13T16:21:45Z</time>
      </trkpt>
      <trkpt lat="43.70864" lon="7.08841">
        <ele>329.869507</ele>
        <time>2010-08-13T16:21:46Z</time>
      </trkpt>
      <trkpt lat="43.70864" lon="7.08838">
        <ele>328.908325</ele>
        <time>2010-08-13T16:21:47Z</time>
      </trkpt>
      <trkpt lat="43.70864" lon="7.08836">
        <ele>328.908325</ele>
        <time>2010-08-13T16:21:48Z</time>
      </trkpt>
      <trkpt lat="43.70864" lon="7.08834">
        <ele>328.908325</ele>
        <time>2010-08-13T16:21:49Z</time>
      </trkpt>
      <trkpt lat="43.70864" lon="7.08833">
        <ele>328.908325</ele>
        <time>2010-08-13T16:21:50Z</time>
      </trkpt>
      <trkpt lat="43.70864" lon="7.08831">
        <ele>328.427612</ele>
        <time>2010-08-13T16:21:51Z</time>
      </trkpt>
      <trkpt lat="43.70863" lon="7.08828">
        <ele>327.946777</ele>
        <time>2010-08-13T16:21:52Z</time>
      </trkpt>
      <trkpt lat="43.70863" lon="7.08825">
        <ele>327.466187</ele>
        <time>2010-08-13T16:21:53Z</time>
      </trkpt>
      <trkpt lat="43.70863" lon="7.08821">
        <ele>326.985596</ele>
        <time>2010-08-13T16:21:54Z</time>
      </trkpt>
      <trkpt lat="43.70863" lon="7.08817">
        <ele>326.02417</ele>
        <time>2010-08-13T16:21:55Z</time>
      </trkpt>
      <trkpt lat="43.70863" lon="7.08814">
        <ele>325.062988</ele>
        <time>2010-08-13T16:21:56Z</time>
      </trkpt>
      <trkpt lat="43.70863" lon="7.08812">
        <ele>325.062988</ele>
        <time>2010-08-13T16:21:57Z</time>
      </trkpt>
      <trkpt lat="43.70863" lon="7.08809">
        <ele>325.062988</ele>
        <time>2010-08-13T16:21:58Z</time>
      </trkpt>
      <trkpt lat="43.70863" lon="7.08806">
        <ele>325.062988</ele>
        <time>2010-08-13T16:21:59Z</time>
      </trkpt>
      <trkpt lat="43.70861" lon="7.08802">
        <ele>325.062988</ele>
        <time>2010-08-13T16:22:00Z</time>
      </trkpt>
      <trkpt lat="43.70859" lon="7.088">
        <ele>325.062988</ele>
        <time>2010-08-13T16:22:01Z</time>
      </trkpt>
      <trkpt lat="43.70858" lon="7.08796">
        <ele>325.062988</ele>
        <time>2010-08-13T16:22:02Z</time>
      </trkpt>
      <trkpt lat="43.70857" lon="7.08793">
        <ele>325.062988</ele>
        <time>2010-08-13T16:22:03Z</time>
      </trkpt>
      <trkpt lat="43.70855" lon="7.0879">
        <ele>324.582275</ele>
        <time>2010-08-13T16:22:04Z</time>
      </trkpt>
      <trkpt lat="43.70853" lon="7.08786">
        <ele>323.620972</ele>
        <time>2010-08-13T16:22:05Z</time>
      </trkpt>
      <trkpt lat="43.70852" lon="7.08784">
        <ele>323.620972</ele>
        <time>2010-08-13T16:22:06Z</time>
      </trkpt>
      <trkpt lat="43.70851" lon="7.08781">
        <ele>323.140381</ele>
        <time>2010-08-13T16:22:07Z</time>
      </trkpt>
      <trkpt lat="43.7085" lon="7.08778">
        <ele>322.178955</ele>
        <time>2010-08-13T16:22:08Z</time>
      </trkpt>
      <trkpt lat="43.70848" lon="7.08775">
        <ele>322.178955</ele>
        <time>2010-08-13T16:22:09Z</time>
      </trkpt>
      <trkpt lat="43.70847" lon="7.08772">
        <ele>322.178955</ele>
        <time>2010-08-13T16:22:10Z</time>
      </trkpt>
      <trkpt lat="43.70846" lon="7.0877">
        <ele>321.698364</ele>
        <time>2010-08-13T16:22:11Z</time>
      </trkpt>
      <trkpt lat="43.70845" lon="7.08767">
        <ele>320.737061</ele>
        <time>2010-08-13T16:22:12Z</time>
      </trkpt>
      <trkpt lat="43.70845" lon="7.08764">
        <ele>320.256348</ele>
        <time>2010-08-13T16:22:13Z</time>
      </trkpt>
      <trkpt lat="43.70845" lon="7.08761">
        <ele>319.775635</ele>
        <time>2010-08-13T16:22:14Z</time>
      </trkpt>
      <trkpt lat="43.70845" lon="7.08757">
        <ele>318.814331</ele>
        <time>2010-08-13T16:22:15Z</time>
      </trkpt>
      <trkpt lat="43.70845" lon="7.08753">
        <ele>318.333618</ele>
        <time>2010-08-13T16:22:16Z</time>
      </trkpt>
      <trkpt lat="43.70845" lon="7.08749">
        <ele>317.372437</ele>
        <time>2010-08-13T16:22:17Z</time>
      </trkpt>
      <trkpt lat="43.70846" lon="7.08746">
        <ele>316.411011</ele>
        <time>2010-08-13T16:22:18Z</time>
      </trkpt>
      <trkpt lat="43.70846" lon="7.08742">
        <ele>315.93042</ele>
        <time>2010-08-13T16:22:19Z</time>
      </trkpt>
      <trkpt lat="43.70845" lon="7.08739">
        <ele>315.449829</ele>
        <time>2010-08-13T16:22:20Z</time>
      </trkpt>
      <trkpt lat="43.70845" lon="7.08737">
        <ele>315.449829</ele>
        <time>2010-08-13T16:22:21Z</time>
      </trkpt>
      <trkpt lat="43.70844" lon="7.08734">
        <ele>314.969116</ele>
        <time>2010-08-13T16:22:22Z</time>
      </trkpt>
      <trkpt lat="43.70843" lon="7.08731">
        <ele>314.488403</ele>
        <time>2010-08-13T16:22:23Z</time>
      </trkpt>
      <trkpt lat="43.70839" lon="7.0873">
        <ele>314.969116</ele>
        <time>2010-08-13T16:22:24Z</time>
      </trkpt>
      <trkpt lat="43.70836" lon="7.08728">
        <ele>316.411011</ele>
        <time>2010-08-13T16:22:25Z</time>
      </trkpt>
      <trkpt lat="43.70834" lon="7.08726">
        <ele>316.891724</ele>
        <time>2010-08-13T16:22:26Z</time>
      </trkpt>
      <trkpt lat="43.70832" lon="7.08724">
        <ele>317.372437</ele>
        <time>2010-08-13T16:22:27Z</time>
      </trkpt>
      <trkpt lat="43.7083" lon="7.08722">
        <ele>317.853027</ele>
        <time>2010-08-13T16:22:28Z</time>
      </trkpt>
      <trkpt lat="43.70829" lon="7.08719">
        <ele>317.853027</ele>
        <time>2010-08-13T16:22:29Z</time>
      </trkpt>
      <trkpt lat="43.70827" lon="7.08716">
        <ele>317.372437</ele>
        <time>2010-08-13T16:22:30Z</time>
      </trkpt>
      <trkpt lat="43.70826" lon="7.08713">
        <ele>317.853027</ele>
        <time>2010-08-13T16:22:31Z</time>
      </trkpt>
      <trkpt lat="43.70825" lon="7.08711">
        <ele>318.814331</ele>
        <time>2010-08-13T16:22:32Z</time>
      </trkpt>
      <trkpt lat="43.70824" lon="7.08708">
        <ele>318.814331</ele>
        <time>2010-08-13T16:22:33Z</time>
      </trkpt>
      <trkpt lat="43.70824" lon="7.08705">
        <ele>318.814331</ele>
        <time>2010-08-13T16:22:34Z</time>
      </trkpt>
      <trkpt lat="43.70824" lon="7.08702">
        <ele>317.853027</ele>
        <time>2010-08-13T16:22:35Z</time>
      </trkpt>
      <trkpt lat="43.70824" lon="7.08699">
        <ele>317.372437</ele>
        <time>2010-08-13T16:22:36Z</time>
      </trkpt>
      <trkpt lat="43.70823" lon="7.08697">
        <ele>317.372437</ele>
        <time>2010-08-13T16:22:37Z</time>
      </trkpt>
      <trkpt lat="43.70822" lon="7.08694">
        <ele>316.891724</ele>
        <time>2010-08-13T16:22:38Z</time>
      </trkpt>
      <trkpt lat="43.70821" lon="7.08691">
        <ele>316.891724</ele>
        <time>2010-08-13T16:22:39Z</time>
      </trkpt>
      <trkpt lat="43.7082" lon="7.08688">
        <ele>316.891724</ele>
        <time>2010-08-13T16:22:40Z</time>
      </trkpt>
      <trkpt lat="43.70819" lon="7.08686">
        <ele>316.891724</ele>
        <time>2010-08-13T16:22:41Z</time>
      </trkpt>
      <trkpt lat="43.70817" lon="7.08684">
        <ele>316.411011</ele>
        <time>2010-08-13T16:22:42Z</time>
      </trkpt>
      <trkpt lat="43.70816" lon="7.08682">
        <ele>315.93042</ele>
        <time>2010-08-13T16:22:43Z</time>
      </trkpt>
      <trkpt lat="43.70815" lon="7.08679">
        <ele>316.891724</ele>
        <time>2010-08-13T16:22:44Z</time>
      </trkpt>
      <trkpt lat="43.70814" lon="7.08676">
        <ele>318.333618</ele>
        <time>2010-08-13T16:22:45Z</time>
      </trkpt>
      <trkpt lat="43.70812" lon="7.08673">
        <ele>318.333618</ele>
        <time>2010-08-13T16:22:46Z</time>
      </trkpt>
      <trkpt lat="43.7081" lon="7.0867">
        <ele>317.853027</ele>
        <time>2010-08-13T16:22:47Z</time>
      </trkpt>
      <trkpt lat="43.70809" lon="7.08669">
        <ele>317.372437</ele>
        <time>2010-08-13T16:22:48Z</time>
      </trkpt>
      <trkpt lat="43.70808" lon="7.08668">
        <ele>317.853027</ele>
        <time>2010-08-13T16:22:49Z</time>
      </trkpt>
      <trkpt lat="43.70807" lon="7.08668">
        <ele>318.333618</ele>
        <time>2010-08-13T16:22:50Z</time>
      </trkpt>
      <trkpt lat="43.70807" lon="7.08668">
        <ele>318.814331</ele>
        <time>2010-08-13T16:22:51Z</time>
      </trkpt>
      <trkpt lat="43.70806" lon="7.08669">
        <ele>319.295044</ele>
        <time>2010-08-13T16:22:52Z</time>
      </trkpt>
      <trkpt lat="43.70804" lon="7.08669">
        <ele>319.775635</ele>
        <time>2010-08-13T16:22:53Z</time>
      </trkpt>
      <trkpt lat="43.70801" lon="7.08669">
        <ele>319.775635</ele>
        <time>2010-08-13T16:22:54Z</time>
      </trkpt>
      <trkpt lat="43.70799" lon="7.08668">
        <ele>319.295044</ele>
        <time>2010-08-13T16:22:55Z</time>
      </trkpt>
      <trkpt lat="43.70797" lon="7.08667">
        <ele>318.814331</ele>
        <time>2010-08-13T16:22:56Z</time>
      </trkpt>
      <trkpt lat="43.70795" lon="7.08666">
        <ele>318.333618</ele>
        <time>2010-08-13T16:22:57Z</time>
      </trkpt>
      <trkpt lat="43.70793" lon="7.08665">
        <ele>317.853027</ele>
        <time>2010-08-13T16:22:58Z</time>
      </trkpt>
      <trkpt lat="43.70792" lon="7.08663">
        <ele>316.411011</ele>
        <time>2010-08-13T16:22:59Z</time>
      </trkpt>
      <trkpt lat="43.70791" lon="7.08662">
        <ele>315.93042</ele>
        <time>2010-08-13T16:23:00Z</time>
      </trkpt>
      <trkpt lat="43.70789" lon="7.08662">
        <ele>315.93042</ele>
        <time>2010-08-13T16:23:01Z</time>
      </trkpt>
      <trkpt lat="43.70787" lon="7.08662">
        <ele>315.449829</ele>
        <time>2010-08-13T16:23:02Z</time>
      </trkpt>
      <trkpt lat="43.70785" lon="7.08661">
        <ele>314.488403</ele>
        <time>2010-08-13T16:23:03Z</time>
      </trkpt>
      <trkpt lat="43.70783" lon="7.0866">
        <ele>314.488403</ele>
        <time>2010-08-13T16:23:04Z</time>
      </trkpt>
      <trkpt lat="43.70781" lon="7.0866">
        <ele>314.488403</ele>
        <time>2010-08-13T16:23:05Z</time>
      </trkpt>
      <trkpt lat="43.70779" lon="7.0866">
        <ele>314.488403</ele>
        <time>2010-08-13T16:23:06Z</time>
      </trkpt>
      <trkpt lat="43.70777" lon="7.08659">
        <ele>314.007812</ele>
        <time>2010-08-13T16:23:07Z</time>
      </trkpt>
      <trkpt lat="43.70774" lon="7.08659">
        <ele>314.488403</ele>
        <time>2010-08-13T16:23:08Z</time>
      </trkpt>
      <trkpt lat="43.70772" lon="7.08658">
        <ele>316.411011</ele>
        <time>2010-08-13T16:23:09Z</time>
      </trkpt>
      <trkpt lat="43.70772" lon="7.08657">
        <ele>316.891724</ele>
        <time>2010-08-13T16:23:10Z</time>
      </trkpt>
      <trkpt lat="43.70769" lon="7.08657">
        <ele>316.891724</ele>
        <time>2010-08-13T16:23:11Z</time>
      </trkpt>
      <trkpt lat="43.70768" lon="7.08656">
        <ele>316.891724</ele>
        <time>2010-08-13T16:23:12Z</time>
      </trkpt>
      <trkpt lat="43.70766" lon="7.08655">
        <ele>316.411011</ele>
        <time>2010-08-13T16:23:13Z</time>
      </trkpt>
      <trkpt lat="43.70764" lon="7.08654">
        <ele>316.411011</ele>
        <time>2010-08-13T16:23:14Z</time>
      </trkpt>
      <trkpt lat="43.70762" lon="7.08653">
        <ele>315.449829</ele>
        <time>2010-08-13T16:23:15Z</time>
      </trkpt>
      <trkpt lat="43.7076" lon="7.08652">
        <ele>315.449829</ele>
        <time>2010-08-13T16:23:16Z</time>
      </trkpt>
      <trkpt lat="43.70759" lon="7.08652">
        <ele>315.449829</ele>
        <time>2010-08-13T16:23:17Z</time>
      </trkpt>
      <trkpt lat="43.70757" lon="7.08652">
        <ele>315.449829</ele>
        <time>2010-08-13T16:23:18Z</time>
      </trkpt>
      <trkpt lat="43.70756" lon="7.08651">
        <ele>314.969116</ele>
        <time>2010-08-13T16:23:19Z</time>
      </trkpt>
      <trkpt lat="43.70754" lon="7.0865">
        <ele>314.969116</ele>
        <time>2010-08-13T16:23:20Z</time>
      </trkpt>
      <trkpt lat="43.70752" lon="7.0865">
        <ele>314.007812</ele>
        <time>2010-08-13T16:23:21Z</time>
      </trkpt>
      <trkpt lat="43.7075" lon="7.08649">
        <ele>313.527222</ele>
        <time>2010-08-13T16:23:22Z</time>
      </trkpt>
      <trkpt lat="43.70747" lon="7.08648">
        <ele>313.046509</ele>
        <time>2010-08-13T16:23:23Z</time>
      </trkpt>
      <trkpt lat="43.70744" lon="7.08647">
        <ele>312.085205</ele>
        <time>2010-08-13T16:23:24Z</time>
      </trkpt>
      <trkpt lat="43.70742" lon="7.08646">
        <ele>311.604492</ele>
        <time>2010-08-13T16:23:25Z</time>
      </trkpt>
      <trkpt lat="43.70741" lon="7.08645">
        <ele>311.123779</ele>
        <time>2010-08-13T16:23:26Z</time>
      </trkpt>
      <trkpt lat="43.70739" lon="7.08644">
        <ele>310.643066</ele>
        <time>2010-08-13T16:23:27Z</time>
      </trkpt>
      <trkpt lat="43.70737" lon="7.08643">
        <ele>310.643066</ele>
        <time>2010-08-13T16:23:28Z</time>
      </trkpt>
      <trkpt lat="43.70733" lon="7.08643">
        <ele>312.565796</ele>
        <time>2010-08-13T16:23:29Z</time>
      </trkpt>
      <trkpt lat="43.70731" lon="7.08641">
        <ele>313.046509</ele>
        <time>2010-08-13T16:23:30Z</time>
      </trkpt>
      <trkpt lat="43.70729" lon="7.0864">
        <ele>312.565796</ele>
        <time>2010-08-13T16:23:31Z</time>
      </trkpt>
      <trkpt lat="43.70727" lon="7.08638">
        <ele>312.565796</ele>
        <time>2010-08-13T16:23:32Z</time>
      </trkpt>
      <trkpt lat="43.70725" lon="7.08637">
        <ele>312.565796</ele>
        <time>2010-08-13T16:23:33Z</time>
      </trkpt>
      <trkpt lat="43.70723" lon="7.08636">
        <ele>312.565796</ele>
        <time>2010-08-13T16:23:34Z</time>
      </trkpt>
      <trkpt lat="43.70721" lon="7.08635">
        <ele>312.565796</ele>
        <time>2010-08-13T16:23:35Z</time>
      </trkpt>
      <trkpt lat="43.70718" lon="7.08634">
        <ele>312.565796</ele>
        <time>2010-08-13T16:23:36Z</time>
      </trkpt>
      <trkpt lat="43.70715" lon="7.08634">
        <ele>312.565796</ele>
        <time>2010-08-13T16:23:37Z</time>
      </trkpt>
      <trkpt lat="43.70713" lon="7.08632">
        <ele>312.565796</ele>
        <time>2010-08-13T16:23:38Z</time>
      </trkpt>
      <trkpt lat="43.70711" lon="7.08631">
        <ele>312.565796</ele>
        <time>2010-08-13T16:23:39Z</time>
      </trkpt>
      <trkpt lat="43.70709" lon="7.0863">
        <ele>312.565796</ele>
        <time>2010-08-13T16:23:40Z</time>
      </trkpt>
      <trkpt lat="43.70706" lon="7.0863">
        <ele>314.007812</ele>
        <time>2010-08-13T16:23:41Z</time>
      </trkpt>
      <trkpt lat="43.70704" lon="7.08629">
        <ele>314.007812</ele>
        <time>2010-08-13T16:23:42Z</time>
      </trkpt>
      <trkpt lat="43.70702" lon="7.08628">
        <ele>314.488403</ele>
        <time>2010-08-13T16:23:43Z</time>
      </trkpt>
      <trkpt lat="43.70701" lon="7.08627">
        <ele>314.488403</ele>
        <time>2010-08-13T16:23:44Z</time>
      </trkpt>
      <trkpt lat="43.70699" lon="7.08625">
        <ele>315.449829</ele>
        <time>2010-08-13T16:23:45Z</time>
      </trkpt>
      <trkpt lat="43.70697" lon="7.08624">
        <ele>316.411011</ele>
        <time>2010-08-13T16:23:46Z</time>
      </trkpt>
      <trkpt lat="43.70695" lon="7.08623">
        <ele>316.411011</ele>
        <time>2010-08-13T16:23:47Z</time>
      </trkpt>
      <trkpt lat="43.70692" lon="7.08622">
        <ele>315.93042</ele>
        <time>2010-08-13T16:23:48Z</time>
      </trkpt>
      <trkpt lat="43.70689" lon="7.08621">
        <ele>315.449829</ele>
        <time>2010-08-13T16:23:49Z</time>
      </trkpt>
      <trkpt lat="43.70687" lon="7.0862">
        <ele>315.93042</ele>
        <time>2010-08-13T16:23:50Z</time>
      </trkpt>
      <trkpt lat="43.70685" lon="7.08619">
        <ele>315.93042</ele>
        <time>2010-08-13T16:23:51Z</time>
      </trkpt>
      <trkpt lat="43.70682" lon="7.08619">
        <ele>316.411011</ele>
        <time>2010-08-13T16:23:52Z</time>
      </trkpt>
      <trkpt lat="43.7068" lon="7.08619">
        <ele>315.449829</ele>
        <time>2010-08-13T16:23:53Z</time>
      </trkpt>
      <trkpt lat="43.70678" lon="7.08618">
        <ele>314.969116</ele>
        <time>2010-08-13T16:23:54Z</time>
      </trkpt>
      <trkpt lat="43.70676" lon="7.08619">
        <ele>314.007812</ele>
        <time>2010-08-13T16:23:55Z</time>
      </trkpt>
      <trkpt lat="43.70674" lon="7.08619">
        <ele>314.007812</ele>
        <time>2010-08-13T16:23:56Z</time>
      </trkpt>
      <trkpt lat="43.70672" lon="7.08619">
        <ele>314.007812</ele>
        <time>2010-08-13T16:23:57Z</time>
      </trkpt>
      <trkpt lat="43.70669" lon="7.0862">
        <ele>313.046509</ele>
        <time>2010-08-13T16:23:58Z</time>
      </trkpt>
      <trkpt lat="43.70667" lon="7.08622">
        <ele>313.046509</ele>
        <time>2010-08-13T16:23:59Z</time>
      </trkpt>
      <trkpt lat="43.70664" lon="7.08623">
        <ele>313.046509</ele>
        <time>2010-08-13T16:24:00Z</time>
      </trkpt>
      <trkpt lat="43.70661" lon="7.08623">
        <ele>313.527222</ele>
        <time>2010-08-13T16:24:01Z</time>
      </trkpt>
      <trkpt lat="43.70658" lon="7.08624">
        <ele>314.488403</ele>
        <time>2010-08-13T16:24:02Z</time>
      </trkpt>
      <trkpt lat="43.70657" lon="7.08624">
        <ele>314.488403</ele>
        <time>2010-08-13T16:24:03Z</time>
      </trkpt>
      <trkpt lat="43.70655" lon="7.08625">
        <ele>314.007812</ele>
        <time>2010-08-13T16:24:04Z</time>
      </trkpt>
      <trkpt lat="43.70653" lon="7.08624">
        <ele>313.527222</ele>
        <time>2010-08-13T16:24:05Z</time>
      </trkpt>
      <trkpt lat="43.7065" lon="7.08624">
        <ele>313.046509</ele>
        <time>2010-08-13T16:24:06Z</time>
      </trkpt>
      <trkpt lat="43.70648" lon="7.08625">
        <ele>313.527222</ele>
        <time>2010-08-13T16:24:07Z</time>
      </trkpt>
      <trkpt lat="43.70646" lon="7.08625">
        <ele>313.046509</ele>
        <time>2010-08-13T16:24:08Z</time>
      </trkpt>
      <trkpt lat="43.70643" lon="7.08626">
        <ele>314.488403</ele>
        <time>2010-08-13T16:24:09Z</time>
      </trkpt>
      <trkpt lat="43.70641" lon="7.08627">
        <ele>314.969116</ele>
        <time>2010-08-13T16:24:10Z</time>
      </trkpt>
      <trkpt lat="43.70638" lon="7.08627">
        <ele>315.93042</ele>
        <time>2010-08-13T16:24:11Z</time>
      </trkpt>
      <trkpt lat="43.70636" lon="7.08629">
        <ele>316.891724</ele>
        <time>2010-08-13T16:24:12Z</time>
      </trkpt>
      <trkpt lat="43.70634" lon="7.08629">
        <ele>316.411011</ele>
        <time>2010-08-13T16:24:13Z</time>
      </trkpt>
      <trkpt lat="43.70633" lon="7.08629">
        <ele>316.411011</ele>
        <time>2010-08-13T16:24:14Z</time>
      </trkpt>
      <trkpt lat="43.7063" lon="7.0863">
        <ele>316.891724</ele>
        <time>2010-08-13T16:24:15Z</time>
      </trkpt>
      <trkpt lat="43.70628" lon="7.08631">
        <ele>316.891724</ele>
        <time>2010-08-13T16:24:16Z</time>
      </trkpt>
      <trkpt lat="43.70625" lon="7.08632">
        <ele>317.853027</ele>
        <time>2010-08-13T16:24:17Z</time>
      </trkpt>
      <trkpt lat="43.70622" lon="7.08632">
        <ele>317.853027</ele>
        <time>2010-08-13T16:24:18Z</time>
      </trkpt>
      <trkpt lat="43.70619" lon="7.08631">
        <ele>317.853027</ele>
        <time>2010-08-13T16:24:19Z</time>
      </trkpt>
      <trkpt lat="43.70618" lon="7.08629">
        <ele>318.333618</ele>
        <time>2010-08-13T16:24:20Z</time>
      </trkpt>
      <trkpt lat="43.70616" lon="7.08628">
        <ele>318.333618</ele>
        <time>2010-08-13T16:24:21Z</time>
      </trkpt>
      <trkpt lat="43.70615" lon="7.08626">
        <ele>317.372437</ele>
        <time>2010-08-13T16:24:22Z</time>
      </trkpt>
      <trkpt lat="43.70613" lon="7.08624">
        <ele>317.372437</ele>
        <time>2010-08-13T16:24:23Z</time>
      </trkpt>
      <trkpt lat="43.70612" lon="7.08622">
        <ele>316.411011</ele>
        <time>2010-08-13T16:24:24Z</time>
      </trkpt>
      <trkpt lat="43.7061" lon="7.08621">
        <ele>315.93042</ele>
        <time>2010-08-13T16:24:25Z</time>
      </trkpt>
      <trkpt lat="43.70608" lon="7.08621">
        <ele>315.449829</ele>
        <time>2010-08-13T16:24:26Z</time>
      </trkpt>
      <trkpt lat="43.70606" lon="7.08622">
        <ele>316.411011</ele>
        <time>2010-08-13T16:24:27Z</time>
      </trkpt>
      <trkpt lat="43.70604" lon="7.08623">
        <ele>316.411011</ele>
        <time>2010-08-13T16:24:28Z</time>
      </trkpt>
      <trkpt lat="43.70603" lon="7.08624">
        <ele>315.93042</ele>
        <time>2010-08-13T16:24:29Z</time>
      </trkpt>
      <trkpt lat="43.70601" lon="7.08625">
        <ele>314.969116</ele>
        <time>2010-08-13T16:24:30Z</time>
      </trkpt>
      <trkpt lat="43.70599" lon="7.08626">
        <ele>314.007812</ele>
        <time>2010-08-13T16:24:31Z</time>
      </trkpt>
      <trkpt lat="43.70598" lon="7.08627">
        <ele>313.046509</ele>
        <time>2010-08-13T16:24:32Z</time>
      </trkpt>
      <trkpt lat="43.70595" lon="7.08627">
        <ele>312.565796</ele>
        <time>2010-08-13T16:24:33Z</time>
      </trkpt>
      <trkpt lat="43.70594" lon="7.08628">
        <ele>311.604492</ele>
        <time>2010-08-13T16:24:34Z</time>
      </trkpt>
      <trkpt lat="43.70591" lon="7.08628">
        <ele>311.604492</ele>
        <time>2010-08-13T16:24:35Z</time>
      </trkpt>
      <trkpt lat="43.70588" lon="7.0863">
        <ele>312.085205</ele>
        <time>2010-08-13T16:24:36Z</time>
      </trkpt>
      <trkpt lat="43.70586" lon="7.08631">
        <ele>311.604492</ele>
        <time>2010-08-13T16:24:37Z</time>
      </trkpt>
      <trkpt lat="43.70583" lon="7.08632">
        <ele>311.604492</ele>
        <time>2010-08-13T16:24:38Z</time>
      </trkpt>
      <trkpt lat="43.70581" lon="7.08633">
        <ele>310.643066</ele>
        <time>2010-08-13T16:24:39Z</time>
      </trkpt>
      <trkpt lat="43.70578" lon="7.08634">
        <ele>309.681885</ele>
        <time>2010-08-13T16:24:40Z</time>
      </trkpt>
      <trkpt lat="43.70576" lon="7.08635">
        <ele>309.681885</ele>
        <time>2010-08-13T16:24:41Z</time>
      </trkpt>
      <trkpt lat="43.70573" lon="7.08636">
        <ele>309.201172</ele>
        <time>2010-08-13T16:24:42Z</time>
      </trkpt>
      <trkpt lat="43.70571" lon="7.08638">
        <ele>309.201172</ele>
        <time>2010-08-13T16:24:43Z</time>
      </trkpt>
      <trkpt lat="43.70568" lon="7.08638">
        <ele>310.162476</ele>
        <time>2010-08-13T16:24:44Z</time>
      </trkpt>
      <trkpt lat="43.70566" lon="7.08638">
        <ele>311.123779</ele>
        <time>2010-08-13T16:24:45Z</time>
      </trkpt>
      <trkpt lat="43.70563" lon="7.08638">
        <ele>312.085205</ele>
        <time>2010-08-13T16:24:46Z</time>
      </trkpt>
      <trkpt lat="43.70561" lon="7.08638">
        <ele>313.046509</ele>
        <time>2010-08-13T16:24:47Z</time>
      </trkpt>
      <trkpt lat="43.70559" lon="7.08638">
        <ele>314.007812</ele>
        <time>2010-08-13T16:24:48Z</time>
      </trkpt>
      <trkpt lat="43.70557" lon="7.08639">
        <ele>314.007812</ele>
        <time>2010-08-13T16:24:49Z</time>
      </trkpt>
      <trkpt lat="43.70554" lon="7.0864">
        <ele>314.007812</ele>
        <time>2010-08-13T16:24:50Z</time>
      </trkpt>
      <trkpt lat="43.70552" lon="7.0864">
        <ele>314.007812</ele>
        <time>2010-08-13T16:24:51Z</time>
      </trkpt>
      <trkpt lat="43.7055" lon="7.08642">
        <ele>314.007812</ele>
        <time>2010-08-13T16:24:52Z</time>
      </trkpt>
      <trkpt lat="43.70547" lon="7.08643">
        <ele>314.488403</ele>
        <time>2010-08-13T16:24:53Z</time>
      </trkpt>
      <trkpt lat="43.70544" lon="7.08644">
        <ele>314.488403</ele>
        <time>2010-08-13T16:24:54Z</time>
      </trkpt>
      <trkpt lat="43.70542" lon="7.08645">
        <ele>314.488403</ele>
        <time>2010-08-13T16:24:55Z</time>
      </trkpt>
      <trkpt lat="43.70539" lon="7.08645">
        <ele>314.969116</ele>
        <time>2010-08-13T16:24:56Z</time>
      </trkpt>
      <trkpt lat="43.70536" lon="7.08645">
        <ele>314.969116</ele>
        <time>2010-08-13T16:24:57Z</time>
      </trkpt>
      <trkpt lat="43.70534" lon="7.08645">
        <ele>314.969116</ele>
        <time>2010-08-13T16:24:58Z</time>
      </trkpt>
      <trkpt lat="43.70531" lon="7.08645">
        <ele>314.969116</ele>
        <time>2010-08-13T16:24:59Z</time>
      </trkpt>
      <trkpt lat="43.70529" lon="7.08645">
        <ele>314.969116</ele>
        <time>2010-08-13T16:25:00Z</time>
      </trkpt>
      <trkpt lat="43.70526" lon="7.08645">
        <ele>315.449829</ele>
        <time>2010-08-13T16:25:01Z</time>
      </trkpt>
      <trkpt lat="43.70524" lon="7.08645">
        <ele>315.449829</ele>
        <time>2010-08-13T16:25:02Z</time>
      </trkpt>
      <trkpt lat="43.70521" lon="7.08645">
        <ele>315.449829</ele>
        <time>2010-08-13T16:25:03Z</time>
      </trkpt>
      <trkpt lat="43.70519" lon="7.08645">
        <ele>315.449829</ele>
        <time>2010-08-13T16:25:04Z</time>
      </trkpt>
      <trkpt lat="43.70516" lon="7.08645">
        <ele>315.449829</ele>
        <time>2010-08-13T16:25:05Z</time>
      </trkpt>
      <trkpt lat="43.70514" lon="7.08645">
        <ele>315.449829</ele>
        <time>2010-08-13T16:25:06Z</time>
      </trkpt>
      <trkpt lat="43.70512" lon="7.08646">
        <ele>315.93042</ele>
        <time>2010-08-13T16:25:07Z</time>
      </trkpt>
      <trkpt lat="43.7051" lon="7.08646">
        <ele>316.891724</ele>
        <time>2010-08-13T16:25:08Z</time>
      </trkpt>
      <trkpt lat="43.70508" lon="7.08647">
        <ele>316.891724</ele>
        <time>2010-08-13T16:25:09Z</time>
      </trkpt>
      <trkpt lat="43.70506" lon="7.08647">
        <ele>317.372437</ele>
        <time>2010-08-13T16:25:10Z</time>
      </trkpt>
      <trkpt lat="43.70504" lon="7.08648">
        <ele>318.333618</ele>
        <time>2010-08-13T16:25:11Z</time>
      </trkpt>
      <trkpt lat="43.70502" lon="7.08648">
        <ele>318.814331</ele>
        <time>2010-08-13T16:25:12Z</time>
      </trkpt>
      <trkpt lat="43.705" lon="7.0865">
        <ele>318.814331</ele>
        <time>2010-08-13T16:25:13Z</time>
      </trkpt>
      <trkpt lat="43.70498" lon="7.0865">
        <ele>318.814331</ele>
        <time>2010-08-13T16:25:14Z</time>
      </trkpt>
      <trkpt lat="43.70496" lon="7.08651">
        <ele>318.814331</ele>
        <time>2010-08-13T16:25:15Z</time>
      </trkpt>
      <trkpt lat="43.70494" lon="7.08652">
        <ele>319.295044</ele>
        <time>2010-08-13T16:25:16Z</time>
      </trkpt>
      <trkpt lat="43.70492" lon="7.08652">
        <ele>319.775635</ele>
        <time>2010-08-13T16:25:17Z</time>
      </trkpt>
      <trkpt lat="43.70491" lon="7.08653">
        <ele>320.737061</ele>
        <time>2010-08-13T16:25:18Z</time>
      </trkpt>
      <trkpt lat="43.70488" lon="7.08655">
        <ele>321.217773</ele>
        <time>2010-08-13T16:25:19Z</time>
      </trkpt>
      <trkpt lat="43.70486" lon="7.08655">
        <ele>320.737061</ele>
        <time>2010-08-13T16:25:20Z</time>
      </trkpt>
      <trkpt lat="43.70484" lon="7.08656">
        <ele>320.256348</ele>
        <time>2010-08-13T16:25:21Z</time>
      </trkpt>
      <trkpt lat="43.70482" lon="7.08658">
        <ele>320.256348</ele>
        <time>2010-08-13T16:25:22Z</time>
      </trkpt>
      <trkpt lat="43.70479" lon="7.08659">
        <ele>320.256348</ele>
        <time>2010-08-13T16:25:23Z</time>
      </trkpt>
      <trkpt lat="43.70477" lon="7.08659">
        <ele>320.737061</ele>
        <time>2010-08-13T16:25:24Z</time>
      </trkpt>
      <trkpt lat="43.70475" lon="7.0866">
        <ele>320.256348</ele>
        <time>2010-08-13T16:25:25Z</time>
      </trkpt>
      <trkpt lat="43.70472" lon="7.08661">
        <ele>320.256348</ele>
        <time>2010-08-13T16:25:26Z</time>
      </trkpt>
      <trkpt lat="43.7047" lon="7.08662">
        <ele>319.775635</ele>
        <time>2010-08-13T16:25:27Z</time>
      </trkpt>
      <trkpt lat="43.70468" lon="7.08662">
        <ele>319.775635</ele>
        <time>2010-08-13T16:25:28Z</time>
      </trkpt>
      <trkpt lat="43.70466" lon="7.08663">
        <ele>319.295044</ele>
        <time>2010-08-13T16:25:29Z</time>
      </trkpt>
      <trkpt lat="43.70465" lon="7.08664">
        <ele>318.814331</ele>
        <time>2010-08-13T16:25:30Z</time>
      </trkpt>
      <trkpt lat="43.70463" lon="7.08664">
        <ele>318.814331</ele>
        <time>2010-08-13T16:25:31Z</time>
      </trkpt>
      <trkpt lat="43.70462" lon="7.08665">
        <ele>318.814331</ele>
        <time>2010-08-13T16:25:32Z</time>
      </trkpt>
      <trkpt lat="43.7046" lon="7.08665">
        <ele>318.333618</ele>
        <time>2010-08-13T16:25:33Z</time>
      </trkpt>
      <trkpt lat="43.70458" lon="7.08664">
        <ele>317.372437</ele>
        <time>2010-08-13T16:25:34Z</time>
      </trkpt>
      <trkpt lat="43.70456" lon="7.08664">
        <ele>316.411011</ele>
        <time>2010-08-13T16:25:35Z</time>
      </trkpt>
      <trkpt lat="43.70455" lon="7.08665">
        <ele>315.93042</ele>
        <time>2010-08-13T16:25:36Z</time>
      </trkpt>
      <trkpt lat="43.70453" lon="7.08665">
        <ele>314.969116</ele>
        <time>2010-08-13T16:25:37Z</time>
      </trkpt>
      <trkpt lat="43.7045" lon="7.08665">
        <ele>314.007812</ele>
        <time>2010-08-13T16:25:38Z</time>
      </trkpt>
      <trkpt lat="43.70448" lon="7.08666">
        <ele>314.007812</ele>
        <time>2010-08-13T16:25:39Z</time>
      </trkpt>
      <trkpt lat="43.70446" lon="7.08667">
        <ele>313.527222</ele>
        <time>2010-08-13T16:25:40Z</time>
      </trkpt>
      <trkpt lat="43.70444" lon="7.08668">
        <ele>313.527222</ele>
        <time>2010-08-13T16:25:41Z</time>
      </trkpt>
      <trkpt lat="43.70442" lon="7.0867">
        <ele>313.046509</ele>
        <time>2010-08-13T16:25:42Z</time>
      </trkpt>
      <trkpt lat="43.7044" lon="7.08671">
        <ele>313.046509</ele>
        <time>2010-08-13T16:25:43Z</time>
      </trkpt>
      <trkpt lat="43.70439" lon="7.08673">
        <ele>312.085205</ele>
        <time>2010-08-13T16:25:44Z</time>
      </trkpt>
      <trkpt lat="43.70436" lon="7.08674">
        <ele>312.085205</ele>
        <time>2010-08-13T16:25:45Z</time>
      </trkpt>
      <trkpt lat="43.70434" lon="7.08675">
        <ele>311.604492</ele>
        <time>2010-08-13T16:25:46Z</time>
      </trkpt>
      <trkpt lat="43.70431" lon="7.08676">
        <ele>311.604492</ele>
        <time>2010-08-13T16:25:47Z</time>
      </trkpt>
      <trkpt lat="43.70429" lon="7.08678">
        <ele>311.604492</ele>
        <time>2010-08-13T16:25:48Z</time>
      </trkpt>
      <trkpt lat="43.70427" lon="7.08679">
        <ele>310.643066</ele>
        <time>2010-08-13T16:25:49Z</time>
      </trkpt>
      <trkpt lat="43.70424" lon="7.0868">
        <ele>310.643066</ele>
        <time>2010-08-13T16:25:50Z</time>
      </trkpt>
      <trkpt lat="43.70422" lon="7.08681">
        <ele>311.123779</ele>
        <time>2010-08-13T16:25:51Z</time>
      </trkpt>
      <trkpt lat="43.7042" lon="7.08682">
        <ele>311.123779</ele>
        <time>2010-08-13T16:25:52Z</time>
      </trkpt>
      <trkpt lat="43.70417" lon="7.08683">
        <ele>310.643066</ele>
        <time>2010-08-13T16:25:53Z</time>
      </trkpt>
      <trkpt lat="43.70415" lon="7.08683">
        <ele>309.681885</ele>
        <time>2010-08-13T16:25:54Z</time>
      </trkpt>
      <trkpt lat="43.70413" lon="7.08682">
        <ele>309.681885</ele>
        <time>2010-08-13T16:25:55Z</time>
      </trkpt>
      <trkpt lat="43.70412" lon="7.08682">
        <ele>309.201172</ele>
        <time>2010-08-13T16:25:56Z</time>
      </trkpt>
      <trkpt lat="43.7041" lon="7.08682">
        <ele>309.201172</ele>
        <time>2010-08-13T16:25:57Z</time>
      </trkpt>
      <trkpt lat="43.70408" lon="7.08682">
        <ele>309.681885</ele>
        <time>2010-08-13T16:25:58Z</time>
      </trkpt>
      <trkpt lat="43.70406" lon="7.08682">
        <ele>309.201172</ele>
        <time>2010-08-13T16:25:59Z</time>
      </trkpt>
      <trkpt lat="43.70404" lon="7.08682">
        <ele>309.201172</ele>
        <time>2010-08-13T16:26:00Z</time>
      </trkpt>
      <trkpt lat="43.70402" lon="7.08682">
        <ele>310.162476</ele>
        <time>2010-08-13T16:26:01Z</time>
      </trkpt>
      <trkpt lat="43.704" lon="7.08684">
        <ele>309.681885</ele>
        <time>2010-08-13T16:26:02Z</time>
      </trkpt>
      <trkpt lat="43.70398" lon="7.08685">
        <ele>309.681885</ele>
        <time>2010-08-13T16:26:03Z</time>
      </trkpt>
      <trkpt lat="43.70396" lon="7.08686">
        <ele>309.681885</ele>
        <time>2010-08-13T16:26:04Z</time>
      </trkpt>
      <trkpt lat="43.70393" lon="7.08688">
        <ele>309.201172</ele>
        <time>2010-08-13T16:26:05Z</time>
      </trkpt>
      <trkpt lat="43.70391" lon="7.08689">
        <ele>308.720459</ele>
        <time>2010-08-13T16:26:06Z</time>
      </trkpt>
      <trkpt lat="43.70389" lon="7.08689">
        <ele>308.239868</ele>
        <time>2010-08-13T16:26:07Z</time>
      </trkpt>
      <trkpt lat="43.70387" lon="7.08689">
        <ele>308.239868</ele>
        <time>2010-08-13T16:26:08Z</time>
      </trkpt>
      <trkpt lat="43.70384" lon="7.08688">
        <ele>306.797852</ele>
        <time>2010-08-13T16:26:09Z</time>
      </trkpt>
      <trkpt lat="43.70382" lon="7.08687">
        <ele>305.83667</ele>
        <time>2010-08-13T16:26:10Z</time>
      </trkpt>
      <trkpt lat="43.70381" lon="7.08686">
        <ele>305.83667</ele>
        <time>2010-08-13T16:26:11Z</time>
      </trkpt>
      <trkpt lat="43.70379" lon="7.08685">
        <ele>305.355957</ele>
        <time>2010-08-13T16:26:12Z</time>
      </trkpt>
      <trkpt lat="43.70378" lon="7.08683">
        <ele>304.875244</ele>
        <time>2010-08-13T16:26:13Z</time>
      </trkpt>
      <trkpt lat="43.70376" lon="7.08681">
        <ele>304.394653</ele>
        <time>2010-08-13T16:26:14Z</time>
      </trkpt>
      <trkpt lat="43.70375" lon="7.08679">
        <ele>303.433228</ele>
        <time>2010-08-13T16:26:15Z</time>
      </trkpt>
      <trkpt lat="43.70373" lon="7.08676">
        <ele>302.952515</ele>
        <time>2010-08-13T16:26:16Z</time>
      </trkpt>
      <trkpt lat="43.70371" lon="7.08674">
        <ele>302.471924</ele>
        <time>2010-08-13T16:26:17Z</time>
      </trkpt>
      <trkpt lat="43.7037" lon="7.08671">
        <ele>301.51062</ele>
        <time>2010-08-13T16:26:18Z</time>
      </trkpt>
      <trkpt lat="43.70367" lon="7.0867">
        <ele>301.991333</ele>
        <time>2010-08-13T16:26:19Z</time>
      </trkpt>
      <trkpt lat="43.70365" lon="7.08668">
        <ele>301.51062</ele>
        <time>2010-08-13T16:26:20Z</time>
      </trkpt>
      <trkpt lat="43.70364" lon="7.08665">
        <ele>301.51062</ele>
        <time>2010-08-13T16:26:21Z</time>
      </trkpt>
      <trkpt lat="43.70362" lon="7.08663">
        <ele>302.471924</ele>
        <time>2010-08-13T16:26:22Z</time>
      </trkpt>
      <trkpt lat="43.7036" lon="7.08661">
        <ele>302.952515</ele>
        <time>2010-08-13T16:26:23Z</time>
      </trkpt>
      <trkpt lat="43.70358" lon="7.08659">
        <ele>303.91394</ele>
        <time>2010-08-13T16:26:24Z</time>
      </trkpt>
      <trkpt lat="43.70356" lon="7.08657">
        <ele>303.91394</ele>
        <time>2010-08-13T16:26:25Z</time>
      </trkpt>
      <trkpt lat="43.70354" lon="7.08655">
        <ele>303.91394</ele>
        <time>2010-08-13T16:26:26Z</time>
      </trkpt>
      <trkpt lat="43.70352" lon="7.08652">
        <ele>304.394653</ele>
        <time>2010-08-13T16:26:27Z</time>
      </trkpt>
      <trkpt lat="43.7035" lon="7.0865">
        <ele>304.394653</ele>
        <time>2010-08-13T16:26:28Z</time>
      </trkpt>
      <trkpt lat="43.70348" lon="7.08648">
        <ele>304.875244</ele>
        <time>2010-08-13T16:26:29Z</time>
      </trkpt>
      <trkpt lat="43.70346" lon="7.08645">
        <ele>304.875244</ele>
        <time>2010-08-13T16:26:30Z</time>
      </trkpt>
      <trkpt lat="43.70345" lon="7.08642">
        <ele>305.355957</ele>
        <time>2010-08-13T16:26:31Z</time>
      </trkpt>
      <trkpt lat="43.70343" lon="7.0864">
        <ele>305.355957</ele>
        <time>2010-08-13T16:26:32Z</time>
      </trkpt>
      <trkpt lat="43.70341" lon="7.08637">
        <ele>305.355957</ele>
        <time>2010-08-13T16:26:33Z</time>
      </trkpt>
      <trkpt lat="43.70339" lon="7.08635">
        <ele>305.355957</ele>
        <time>2010-08-13T16:26:34Z</time>
      </trkpt>
      <trkpt lat="43.70338" lon="7.08633">
        <ele>306.317261</ele>
        <time>2010-08-13T16:26:35Z</time>
      </trkpt>
      <trkpt lat="43.70336" lon="7.08631">
        <ele>306.317261</ele>
        <time>2010-08-13T16:26:36Z</time>
      </trkpt>
      <trkpt lat="43.70335" lon="7.08629">
        <ele>306.797852</ele>
        <time>2010-08-13T16:26:37Z</time>
      </trkpt>
      <trkpt lat="43.70333" lon="7.08628">
        <ele>307.278564</ele>
        <time>2010-08-13T16:26:38Z</time>
      </trkpt>
      <trkpt lat="43.70331" lon="7.08626">
        <ele>307.278564</ele>
        <time>2010-08-13T16:26:39Z</time>
      </trkpt>
      <trkpt lat="43.7033" lon="7.08623">
        <ele>307.759277</ele>
        <time>2010-08-13T16:26:40Z</time>
      </trkpt>
      <trkpt lat="43.70328" lon="7.08621">
        <ele>307.759277</ele>
        <time>2010-08-13T16:26:41Z</time>
      </trkpt>
      <trkpt lat="43.70325" lon="7.08618">
        <ele>308.239868</ele>
        <time>2010-08-13T16:26:42Z</time>
      </trkpt>
      <trkpt lat="43.70322" lon="7.08617">
        <ele>308.720459</ele>
        <time>2010-08-13T16:26:43Z</time>
      </trkpt>
      <trkpt lat="43.7032" lon="7.08614">
        <ele>308.239868</ele>
        <time>2010-08-13T16:26:44Z</time>
      </trkpt>
      <trkpt lat="43.70318" lon="7.08611">
        <ele>308.720459</ele>
        <time>2010-08-13T16:26:45Z</time>
      </trkpt>
      <trkpt lat="43.70316" lon="7.08609">
        <ele>308.720459</ele>
        <time>2010-08-13T16:26:46Z</time>
      </trkpt>
      <trkpt lat="43.70314" lon="7.08607">
        <ele>307.759277</ele>
        <time>2010-08-13T16:26:47Z</time>
      </trkpt>
      <trkpt lat="43.70312" lon="7.08605">
        <ele>307.278564</ele>
        <time>2010-08-13T16:26:48Z</time>
      </trkpt>
      <trkpt lat="43.7031" lon="7.08603">
        <ele>307.278564</ele>
        <time>2010-08-13T16:26:49Z</time>
      </trkpt>
      <trkpt lat="43.70308" lon="7.08602">
        <ele>307.278564</ele>
        <time>2010-08-13T16:26:50Z</time>
      </trkpt>
      <trkpt lat="43.70307" lon="7.08601">
        <ele>307.278564</ele>
        <time>2010-08-13T16:26:51Z</time>
      </trkpt>
      <trkpt lat="43.70307" lon="7.08601">
        <ele>307.278564</ele>
        <time>2010-08-13T16:26:52Z</time>
      </trkpt>
      <trkpt lat="43.70306" lon="7.08602">
        <ele>306.797852</ele>
        <time>2010-08-13T16:26:53Z</time>
      </trkpt>
      <trkpt lat="43.70306" lon="7.08602">
        <ele>306.317261</ele>
        <time>2010-08-13T16:26:54Z</time>
      </trkpt>
      <trkpt lat="43.70306" lon="7.08602">
        <ele>305.83667</ele>
        <time>2010-08-13T16:26:55Z</time>
      </trkpt>
      <trkpt lat="43.70306" lon="7.08602">
        <ele>305.83667</ele>
        <time>2010-08-13T16:26:56Z</time>
      </trkpt>
      <trkpt lat="43.70306" lon="7.08602">
        <ele>305.83667</ele>
        <time>2010-08-13T16:26:57Z</time>
      </trkpt>
      <trkpt lat="43.70305" lon="7.08603">
        <ele>305.83667</ele>
        <time>2010-08-13T16:26:58Z</time>
      </trkpt>
      <trkpt lat="43.70305" lon="7.08603">
        <ele>305.83667</ele>
        <time>2010-08-13T16:26:59Z</time>
      </trkpt>
      <trkpt lat="43.70305" lon="7.08603">
        <ele>306.317261</ele>
        <time>2010-08-13T16:27:00Z</time>
      </trkpt>
      <trkpt lat="43.70305" lon="7.08603">
        <ele>306.317261</ele>
        <time>2010-08-13T16:27:01Z</time>
      </trkpt>
      <trkpt lat="43.70304" lon="7.08603">
        <ele>306.797852</ele>
        <time>2010-08-13T16:27:02Z</time>
      </trkpt>
      <trkpt lat="43.70304" lon="7.08603">
        <ele>306.797852</ele>
        <time>2010-08-13T16:27:03Z</time>
      </trkpt>
      <trkpt lat="43.70304" lon="7.08603">
        <ele>306.797852</ele>
        <time>2010-08-13T16:27:04Z</time>
      </trkpt>
      <trkpt lat="43.70304" lon="7.08604">
        <ele>306.797852</ele>
        <time>2010-08-13T16:27:05Z</time>
      </trkpt>
      <trkpt lat="43.70304" lon="7.08604">
        <ele>306.797852</ele>
        <time>2010-08-13T16:27:06Z</time>
      </trkpt>
      <trkpt lat="43.70304" lon="7.08604">
        <ele>307.278564</ele>
        <time>2010-08-13T16:27:07Z</time>
      </trkpt>
      <trkpt lat="43.70304" lon="7.08604">
        <ele>307.759277</ele>
        <time>2010-08-13T16:27:08Z</time>
      </trkpt>
      <trkpt lat="43.70304" lon="7.08604">
        <ele>307.759277</ele>
        <time>2010-08-13T16:27:09Z</time>
      </trkpt>
      <trkpt lat="43.70304" lon="7.08604">
        <ele>307.759277</ele>
        <time>2010-08-13T16:27:10Z</time>
      </trkpt>
      <trkpt lat="43.70304" lon="7.08604">
        <ele>307.759277</ele>
        <time>2010-08-13T16:27:11Z</time>
      </trkpt>
      <trkpt lat="43.70305" lon="7.08605">
        <ele>308.239868</ele>
        <time>2010-08-13T16:27:12Z</time>
      </trkpt>
      <trkpt lat="43.70306" lon="7.08606">
        <ele>308.720459</ele>
        <time>2010-08-13T16:27:13Z</time>
      </trkpt>
      <trkpt lat="43.70306" lon="7.08606">
        <ele>308.239868</ele>
        <time>2010-08-13T16:27:14Z</time>
      </trkpt>
      <trkpt lat="43.70306" lon="7.08606">
        <ele>307.759277</ele>
        <time>2010-08-13T16:27:15Z</time>
      </trkpt>
      <trkpt lat="43.70305" lon="7.08605">
        <ele>307.759277</ele>
        <time>2010-08-13T16:27:16Z</time>
      </trkpt>
      <trkpt lat="43.70305" lon="7.08605">
        <ele>307.278564</ele>
        <time>2010-08-13T16:27:17Z</time>
      </trkpt>
      <trkpt lat="43.70304" lon="7.08605">
        <ele>306.797852</ele>
        <time>2010-08-13T16:27:18Z</time>
      </trkpt>
      <trkpt lat="43.70304" lon="7.08604">
        <ele>306.797852</ele>
        <time>2010-08-13T16:27:19Z</time>
      </trkpt>
      <trkpt lat="43.70303" lon="7.08604">
        <ele>306.797852</ele>
        <time>2010-08-13T16:27:20Z</time>
      </trkpt>
      <trkpt lat="43.70303" lon="7.08604">
        <ele>306.797852</ele>
        <time>2010-08-13T16:27:21Z</time>
      </trkpt>
      <trkpt lat="43.70303" lon="7.08604">
        <ele>307.278564</ele>
        <time>2010-08-13T16:27:22Z</time>
      </trkpt>
      <trkpt lat="43.70303" lon="7.08603">
        <ele>306.797852</ele>
        <time>2010-08-13T16:27:23Z</time>
      </trkpt>
      <trkpt lat="43.70303" lon="7.08603">
        <ele>306.797852</ele>
        <time>2010-08-13T16:27:24Z</time>
      </trkpt>
      <trkpt lat="43.70303" lon="7.08603">
        <ele>306.317261</ele>
        <time>2010-08-13T16:27:25Z</time>
      </trkpt>
      <trkpt lat="43.70303" lon="7.08603">
        <ele>306.317261</ele>
        <time>2010-08-13T16:27:26Z</time>
      </trkpt>
      <trkpt lat="43.70303" lon="7.08603">
        <ele>305.83667</ele>
        <time>2010-08-13T16:27:27Z</time>
      </trkpt>
      <trkpt lat="43.70303" lon="7.08603">
        <ele>305.355957</ele>
        <time>2010-08-13T16:27:28Z</time>
      </trkpt>
      <trkpt lat="43.70302" lon="7.08603">
        <ele>305.355957</ele>
        <time>2010-08-13T16:27:29Z</time>
      </trkpt>
      <trkpt lat="43.70302" lon="7.08603">
        <ele>304.875244</ele>
        <time>2010-08-13T16:27:30Z</time>
      </trkpt>
      <trkpt lat="43.70303" lon="7.08603">
        <ele>304.875244</ele>
        <time>2010-08-13T16:27:31Z</time>
      </trkpt>
      <trkpt lat="43.70303" lon="7.08603">
        <ele>304.875244</ele>
        <time>2010-08-13T16:27:32Z</time>
      </trkpt>
      <trkpt lat="43.70303" lon="7.08603">
        <ele>304.394653</ele>
        <time>2010-08-13T16:27:33Z</time>
      </trkpt>
      <trkpt lat="43.70303" lon="7.08603">
        <ele>304.394653</ele>
        <time>2010-08-13T16:27:34Z</time>
      </trkpt>
      <trkpt lat="43.70303" lon="7.08603">
        <ele>303.91394</ele>
        <time>2010-08-13T16:27:35Z</time>
      </trkpt>
      <trkpt lat="43.70303" lon="7.08603">
        <ele>303.91394</ele>
        <time>2010-08-13T16:27:36Z</time>
      </trkpt>
      <trkpt lat="43.70303" lon="7.08602">
        <ele>305.355957</ele>
        <time>2010-08-13T16:27:37Z</time>
      </trkpt>
      <trkpt lat="43.70304" lon="7.08603">
        <ele>306.797852</ele>
        <time>2010-08-13T16:27:38Z</time>
      </trkpt>
      <trkpt lat="43.70304" lon="7.08603">
        <ele>307.759277</ele>
        <time>2010-08-13T16:27:39Z</time>
      </trkpt>
      <trkpt lat="43.70305" lon="7.08603">
        <ele>308.720459</ele>
        <time>2010-08-13T16:27:40Z</time>
      </trkpt>
      <trkpt lat="43.70305" lon="7.08603">
        <ele>309.201172</ele>
        <time>2010-08-13T16:27:41Z</time>
      </trkpt>
      <trkpt lat="43.70305" lon="7.08603">
        <ele>309.681885</ele>
        <time>2010-08-13T16:27:42Z</time>
      </trkpt>
      <trkpt lat="43.70305" lon="7.08603">
        <ele>310.162476</ele>
        <time>2010-08-13T16:27:43Z</time>
      </trkpt>
      <trkpt lat="43.70305" lon="7.08603">
        <ele>310.162476</ele>
        <time>2010-08-13T16:27:44Z</time>
      </trkpt>
      <trkpt lat="43.70305" lon="7.08603">
        <ele>310.162476</ele>
        <time>2010-08-13T16:27:45Z</time>
      </trkpt>
      <trkpt lat="43.70304" lon="7.08603">
        <ele>310.643066</ele>
        <time>2010-08-13T16:27:46Z</time>
      </trkpt>
      <trkpt lat="43.70304" lon="7.08602">
        <ele>310.643066</ele>
        <time>2010-08-13T16:27:47Z</time>
      </trkpt>
      <trkpt lat="43.70304" lon="7.08602">
        <ele>310.643066</ele>
        <time>2010-08-13T16:27:48Z</time>
      </trkpt>
      <trkpt lat="43.70304" lon="7.08601">
        <ele>310.643066</ele>
        <time>2010-08-13T16:27:49Z</time>
      </trkpt>
      <trkpt lat="43.70304" lon="7.08601">
        <ele>311.123779</ele>
        <time>2010-08-13T16:27:50Z</time>
      </trkpt>
      <trkpt lat="43.70304" lon="7.08601">
        <ele>311.123779</ele>
        <time>2010-08-13T16:27:51Z</time>
      </trkpt>
      <trkpt lat="43.70304" lon="7.08601">
        <ele>311.123779</ele>
        <time>2010-08-13T16:27:52Z</time>
      </trkpt>
      <trkpt lat="43.70304" lon="7.08601">
        <ele>311.123779</ele>
        <time>2010-08-13T16:27:53Z</time>
      </trkpt>
      <trkpt lat="43.70304" lon="7.086">
        <ele>310.643066</ele>
        <time>2010-08-13T16:27:54Z</time>
      </trkpt>
      <trkpt lat="43.70303" lon="7.086">
        <ele>309.201172</ele>
        <time>2010-08-13T16:27:55Z</time>
      </trkpt>
      <trkpt lat="43.70303" lon="7.08599">
        <ele>308.720459</ele>
        <time>2010-08-13T16:27:56Z</time>
      </trkpt>
      <trkpt lat="43.70303" lon="7.08599">
        <ele>308.720459</ele>
        <time>2010-08-13T16:27:57Z</time>
      </trkpt>
      <trkpt lat="43.70303" lon="7.08599">
        <ele>308.720459</ele>
        <time>2010-08-13T16:27:58Z</time>
      </trkpt>
      <trkpt lat="43.70303" lon="7.086">
        <ele>309.201172</ele>
        <time>2010-08-13T16:27:59Z</time>
      </trkpt>
      <trkpt lat="43.70303" lon="7.086">
        <ele>309.201172</ele>
        <time>2010-08-13T16:28:00Z</time>
      </trkpt>
      <trkpt lat="43.70303" lon="7.086">
        <ele>309.681885</ele>
        <time>2010-08-13T16:28:01Z</time>
      </trkpt>
      <trkpt lat="43.70303" lon="7.086">
        <ele>309.681885</ele>
        <time>2010-08-13T16:28:02Z</time>
      </trkpt>
      <trkpt lat="43.70303" lon="7.08599">
        <ele>308.720459</ele>
        <time>2010-08-13T16:28:03Z</time>
      </trkpt>
      <trkpt lat="43.70302" lon="7.08599">
        <ele>308.720459</ele>
        <time>2010-08-13T16:28:04Z</time>
      </trkpt>
      <trkpt lat="43.70302" lon="7.08599">
        <ele>308.720459</ele>
        <time>2010-08-13T16:28:05Z</time>
      </trkpt>
      <trkpt lat="43.70302" lon="7.08599">
        <ele>308.720459</ele>
        <time>2010-08-13T16:28:06Z</time>
      </trkpt>
      <trkpt lat="43.70302" lon="7.08599">
        <ele>308.720459</ele>
        <time>2010-08-13T16:28:07Z</time>
      </trkpt>
      <trkpt lat="43.70302" lon="7.08599">
        <ele>308.239868</ele>
        <time>2010-08-13T16:28:08Z</time>
      </trkpt>
      <trkpt lat="43.70303" lon="7.08599">
        <ele>307.278564</ele>
        <time>2010-08-13T16:28:09Z</time>
      </trkpt>
      <trkpt lat="43.70303" lon="7.086">
        <ele>307.759277</ele>
        <time>2010-08-13T16:28:10Z</time>
      </trkpt>
      <trkpt lat="43.70304" lon="7.086">
        <ele>307.278564</ele>
        <time>2010-08-13T16:28:11Z</time>
      </trkpt>
      <trkpt lat="43.70304" lon="7.08601">
        <ele>306.797852</ele>
        <time>2010-08-13T16:28:12Z</time>
      </trkpt>
      <trkpt lat="43.70304" lon="7.08601">
        <ele>306.797852</ele>
        <time>2010-08-13T16:28:13Z</time>
      </trkpt>
      <trkpt lat="43.70304" lon="7.08602">
        <ele>306.317261</ele>
        <time>2010-08-13T16:28:14Z</time>
      </trkpt>
      <trkpt lat="43.70304" lon="7.08602">
        <ele>306.317261</ele>
        <time>2010-08-13T16:28:15Z</time>
      </trkpt>
      <trkpt lat="43.70304" lon="7.08602">
        <ele>305.83667</ele>
        <time>2010-08-13T16:28:16Z</time>
      </trkpt>
      <trkpt lat="43.70304" lon="7.08602">
        <ele>305.83667</ele>
        <time>2010-08-13T16:28:17Z</time>
      </trkpt>
      <trkpt lat="43.70304" lon="7.08602">
        <ele>305.355957</ele>
        <time>2010-08-13T16:28:18Z</time>
      </trkpt>
      <trkpt lat="43.70304" lon="7.08602">
        <ele>305.355957</ele>
        <time>2010-08-13T16:28:19Z</time>
      </trkpt>
      <trkpt lat="43.70304" lon="7.08602">
        <ele>304.875244</ele>
        <time>2010-08-13T16:28:20Z</time>
      </trkpt>
      <trkpt lat="43.70304" lon="7.08602">
        <ele>304.875244</ele>
        <time>2010-08-13T16:28:21Z</time>
      </trkpt>
      <trkpt lat="43.70304" lon="7.08602">
        <ele>304.875244</ele>
        <time>2010-08-13T16:28:22Z</time>
      </trkpt>
      <trkpt lat="43.70304" lon="7.08602">
        <ele>304.875244</ele>
        <time>2010-08-13T16:28:23Z</time>
      </trkpt>
      <trkpt lat="43.70304" lon="7.08602">
        <ele>304.875244</ele>
        <time>2010-08-13T16:28:24Z</time>
      </trkpt>
      <trkpt lat="43.70304" lon="7.08602">
        <ele>304.394653</ele>
        <time>2010-08-13T16:28:25Z</time>
      </trkpt>
      <trkpt lat="43.70304" lon="7.08602">
        <ele>304.394653</ele>
        <time>2010-08-13T16:28:26Z</time>
      </trkpt>
      <trkpt lat="43.70304" lon="7.08602">
        <ele>303.91394</ele>
        <time>2010-08-13T16:28:27Z</time>
      </trkpt>
      <trkpt lat="43.70305" lon="7.08602">
        <ele>303.91394</ele>
        <time>2010-08-13T16:28:28Z</time>
      </trkpt>
      <trkpt lat="43.70305" lon="7.08602">
        <ele>303.91394</ele>
        <time>2010-08-13T16:28:29Z</time>
      </trkpt>
      <trkpt lat="43.70305" lon="7.08601">
        <ele>303.91394</ele>
        <time>2010-08-13T16:28:30Z</time>
      </trkpt>
      <trkpt lat="43.70305" lon="7.08601">
        <ele>303.91394</ele>
        <time>2010-08-13T16:28:31Z</time>
      </trkpt>
      <trkpt lat="43.70305" lon="7.08601">
        <ele>303.91394</ele>
        <time>2010-08-13T16:28:32Z</time>
      </trkpt>
      <trkpt lat="43.70305" lon="7.08601">
        <ele>303.91394</ele>
        <time>2010-08-13T16:28:33Z</time>
      </trkpt>
      <trkpt lat="43.70305" lon="7.08601">
        <ele>304.394653</ele>
        <time>2010-08-13T16:28:34Z</time>
      </trkpt>
      <trkpt lat="43.70305" lon="7.08601">
        <ele>304.394653</ele>
        <time>2010-08-13T16:28:35Z</time>
      </trkpt>
      <trkpt lat="43.70305" lon="7.086">
        <ele>304.394653</ele>
        <time>2010-08-13T16:28:36Z</time>
      </trkpt>
      <trkpt lat="43.70306" lon="7.08599">
        <ele>303.91394</ele>
        <time>2010-08-13T16:28:37Z</time>
      </trkpt>
      <trkpt lat="43.70306" lon="7.08598">
        <ele>304.875244</ele>
        <time>2010-08-13T16:28:38Z</time>
      </trkpt>
      <trkpt lat="43.70306" lon="7.08598">
        <ele>305.355957</ele>
        <time>2010-08-13T16:28:39Z</time>
      </trkpt>
      <trkpt lat="43.70307" lon="7.08597">
        <ele>305.355957</ele>
        <time>2010-08-13T16:28:40Z</time>
      </trkpt>
      <trkpt lat="43.70308" lon="7.08596">
        <ele>305.355957</ele>
        <time>2010-08-13T16:28:41Z</time>
      </trkpt>
      <trkpt lat="43.70309" lon="7.08594">
        <ele>304.875244</ele>
        <time>2010-08-13T16:28:42Z</time>
      </trkpt>
      <trkpt lat="43.7031" lon="7.08591">
        <ele>305.355957</ele>
        <time>2010-08-13T16:28:43Z</time>
      </trkpt>
      <trkpt lat="43.70312" lon="7.08589">
        <ele>305.83667</ele>
        <time>2010-08-13T16:28:44Z</time>
      </trkpt>
      <trkpt lat="43.70313" lon="7.08586">
        <ele>305.83667</ele>
        <time>2010-08-13T16:28:45Z</time>
      </trkpt>
      <trkpt lat="43.70315" lon="7.08583">
        <ele>306.317261</ele>
        <time>2010-08-13T16:28:46Z</time>
      </trkpt>
      <trkpt lat="43.70316" lon="7.0858">
        <ele>306.797852</ele>
        <time>2010-08-13T16:28:47Z</time>
      </trkpt>
      <trkpt lat="43.70316" lon="7.08577">
        <ele>306.797852</ele>
        <time>2010-08-13T16:28:48Z</time>
      </trkpt>
      <trkpt lat="43.70317" lon="7.08574">
        <ele>307.759277</ele>
        <time>2010-08-13T16:28:49Z</time>
      </trkpt>
      <trkpt lat="43.70318" lon="7.08571">
        <ele>308.239868</ele>
        <time>2010-08-13T16:28:50Z</time>
      </trkpt>
      <trkpt lat="43.7032" lon="7.08569">
        <ele>308.720459</ele>
        <time>2010-08-13T16:28:51Z</time>
      </trkpt>
      <trkpt lat="43.70321" lon="7.08567">
        <ele>308.720459</ele>
        <time>2010-08-13T16:28:52Z</time>
      </trkpt>
      <trkpt lat="43.70322" lon="7.08566">
        <ele>308.239868</ele>
        <time>2010-08-13T16:28:53Z</time>
      </trkpt>
      <trkpt lat="43.70323" lon="7.08564">
        <ele>308.720459</ele>
        <time>2010-08-13T16:28:54Z</time>
      </trkpt>
      <trkpt lat="43.70324" lon="7.08562">
        <ele>309.201172</ele>
        <time>2010-08-13T16:28:55Z</time>
      </trkpt>
      <trkpt lat="43.70325" lon="7.0856">
        <ele>309.681885</ele>
        <time>2010-08-13T16:28:56Z</time>
      </trkpt>
      <trkpt lat="43.70326" lon="7.08558">
        <ele>310.162476</ele>
        <time>2010-08-13T16:28:57Z</time>
      </trkpt>
      <trkpt lat="43.70328" lon="7.08556">
        <ele>311.123779</ele>
        <time>2010-08-13T16:28:58Z</time>
      </trkpt>
      <trkpt lat="43.70329" lon="7.08553">
        <ele>312.565796</ele>
        <time>2010-08-13T16:28:59Z</time>
      </trkpt>
      <trkpt lat="43.70331" lon="7.08552">
        <ele>313.527222</ele>
        <time>2010-08-13T16:29:00Z</time>
      </trkpt>
      <trkpt lat="43.70332" lon="7.08551">
        <ele>314.969116</ele>
        <time>2010-08-13T16:29:01Z</time>
      </trkpt>
      <trkpt lat="43.70333" lon="7.0855">
        <ele>314.969116</ele>
        <time>2010-08-13T16:29:02Z</time>
      </trkpt>
      <trkpt lat="43.70334" lon="7.08547">
        <ele>314.488403</ele>
        <time>2010-08-13T16:29:03Z</time>
      </trkpt>
      <trkpt lat="43.70334" lon="7.08545">
        <ele>315.449829</ele>
        <time>2010-08-13T16:29:04Z</time>
      </trkpt>
      <trkpt lat="43.70335" lon="7.08542">
        <ele>315.449829</ele>
        <time>2010-08-13T16:29:05Z</time>
      </trkpt>
      <trkpt lat="43.70335" lon="7.0854">
        <ele>315.449829</ele>
        <time>2010-08-13T16:29:06Z</time>
      </trkpt>
      <trkpt lat="43.70336" lon="7.08538">
        <ele>315.93042</ele>
        <time>2010-08-13T16:29:07Z</time>
      </trkpt>
      <trkpt lat="43.70337" lon="7.08536">
        <ele>316.891724</ele>
        <time>2010-08-13T16:29:08Z</time>
      </trkpt>
      <trkpt lat="43.70338" lon="7.08534">
        <ele>316.891724</ele>
        <time>2010-08-13T16:29:09Z</time>
      </trkpt>
      <trkpt lat="43.70339" lon="7.08531">
        <ele>317.372437</ele>
        <time>2010-08-13T16:29:10Z</time>
      </trkpt>
      <trkpt lat="43.7034" lon="7.0853">
        <ele>316.891724</ele>
        <time>2010-08-13T16:29:11Z</time>
      </trkpt>
      <trkpt lat="43.70341" lon="7.08527">
        <ele>316.411011</ele>
        <time>2010-08-13T16:29:12Z</time>
      </trkpt>
      <trkpt lat="43.70342" lon="7.08525">
        <ele>316.411011</ele>
        <time>2010-08-13T16:29:13Z</time>
      </trkpt>
      <trkpt lat="43.70344" lon="7.08524">
        <ele>316.891724</ele>
        <time>2010-08-13T16:29:14Z</time>
      </trkpt>
      <trkpt lat="43.70345" lon="7.08521">
        <ele>316.411011</ele>
        <time>2010-08-13T16:29:15Z</time>
      </trkpt>
      <trkpt lat="43.70346" lon="7.08519">
        <ele>316.411011</ele>
        <time>2010-08-13T16:29:16Z</time>
      </trkpt>
      <trkpt lat="43.70347" lon="7.08517">
        <ele>315.93042</ele>
        <time>2010-08-13T16:29:17Z</time>
      </trkpt>
      <trkpt lat="43.70349" lon="7.08514">
        <ele>316.411011</ele>
        <time>2010-08-13T16:29:18Z</time>
      </trkpt>
      <trkpt lat="43.7035" lon="7.08512">
        <ele>316.411011</ele>
        <time>2010-08-13T16:29:19Z</time>
      </trkpt>
      <trkpt lat="43.70351" lon="7.08511">
        <ele>316.411011</ele>
        <time>2010-08-13T16:29:20Z</time>
      </trkpt>
      <trkpt lat="43.70353" lon="7.08509">
        <ele>316.411011</ele>
        <time>2010-08-13T16:29:21Z</time>
      </trkpt>
      <trkpt lat="43.70354" lon="7.08508">
        <ele>316.411011</ele>
        <time>2010-08-13T16:29:22Z</time>
      </trkpt>
      <trkpt lat="43.70356" lon="7.08506">
        <ele>316.411011</ele>
        <time>2010-08-13T16:29:23Z</time>
      </trkpt>
      <trkpt lat="43.70358" lon="7.08505">
        <ele>317.372437</ele>
        <time>2010-08-13T16:29:24Z</time>
      </trkpt>
      <trkpt lat="43.70359" lon="7.08504">
        <ele>316.891724</ele>
        <time>2010-08-13T16:29:25Z</time>
      </trkpt>
      <trkpt lat="43.70361" lon="7.08503">
        <ele>317.372437</ele>
        <time>2010-08-13T16:29:26Z</time>
      </trkpt>
      <trkpt lat="43.70363" lon="7.08502">
        <ele>317.372437</ele>
        <time>2010-08-13T16:29:27Z</time>
      </trkpt>
      <trkpt lat="43.70365" lon="7.08502">
        <ele>317.853027</ele>
        <time>2010-08-13T16:29:28Z</time>
      </trkpt>
      <trkpt lat="43.70366" lon="7.08502">
        <ele>318.333618</ele>
        <time>2010-08-13T16:29:29Z</time>
      </trkpt>
      <trkpt lat="43.70368" lon="7.08502">
        <ele>317.853027</ele>
        <time>2010-08-13T16:29:30Z</time>
      </trkpt>
      <trkpt lat="43.70369" lon="7.08503">
        <ele>317.372437</ele>
        <time>2010-08-13T16:29:31Z</time>
      </trkpt>
      <trkpt lat="43.70371" lon="7.08503">
        <ele>317.853027</ele>
        <time>2010-08-13T16:29:32Z</time>
      </trkpt>
      <trkpt lat="43.70373" lon="7.08503">
        <ele>316.891724</ele>
        <time>2010-08-13T16:29:33Z</time>
      </trkpt>
      <trkpt lat="43.70375" lon="7.08504">
        <ele>315.449829</ele>
        <time>2010-08-13T16:29:34Z</time>
      </trkpt>
      <trkpt lat="43.70377" lon="7.08506">
        <ele>315.93042</ele>
        <time>2010-08-13T16:29:35Z</time>
      </trkpt>
      <trkpt lat="43.70378" lon="7.08507">
        <ele>315.93042</ele>
        <time>2010-08-13T16:29:36Z</time>
      </trkpt>
      <trkpt lat="43.7038" lon="7.08507">
        <ele>315.449829</ele>
        <time>2010-08-13T16:29:37Z</time>
      </trkpt>
      <trkpt lat="43.70382" lon="7.08508">
        <ele>314.969116</ele>
        <time>2010-08-13T16:29:38Z</time>
      </trkpt>
      <trkpt lat="43.70384" lon="7.08508">
        <ele>315.93042</ele>
        <time>2010-08-13T16:29:39Z</time>
      </trkpt>
      <trkpt lat="43.70386" lon="7.08509">
        <ele>315.449829</ele>
        <time>2010-08-13T16:29:40Z</time>
      </trkpt>
      <trkpt lat="43.70387" lon="7.08509">
        <ele>314.969116</ele>
        <time>2010-08-13T16:29:41Z</time>
      </trkpt>
      <trkpt lat="43.70389" lon="7.08509">
        <ele>314.488403</ele>
        <time>2010-08-13T16:29:42Z</time>
      </trkpt>
      <trkpt lat="43.70392" lon="7.08509">
        <ele>314.007812</ele>
        <time>2010-08-13T16:29:43Z</time>
      </trkpt>
      <trkpt lat="43.70394" lon="7.08509">
        <ele>314.007812</ele>
        <time>2010-08-13T16:29:44Z</time>
      </trkpt>
      <trkpt lat="43.70396" lon="7.08508">
        <ele>314.488403</ele>
        <time>2010-08-13T16:29:45Z</time>
      </trkpt>
      <trkpt lat="43.70399" lon="7.08508">
        <ele>314.969116</ele>
        <time>2010-08-13T16:29:46Z</time>
      </trkpt>
      <trkpt lat="43.70401" lon="7.08507">
        <ele>314.969116</ele>
        <time>2010-08-13T16:29:47Z</time>
      </trkpt>
      <trkpt lat="43.70404" lon="7.08508">
        <ele>315.449829</ele>
        <time>2010-08-13T16:29:48Z</time>
      </trkpt>
      <trkpt lat="43.70406" lon="7.08507">
        <ele>315.93042</ele>
        <time>2010-08-13T16:29:49Z</time>
      </trkpt>
      <trkpt lat="43.70408" lon="7.08507">
        <ele>315.93042</ele>
        <time>2010-08-13T16:29:50Z</time>
      </trkpt>
      <trkpt lat="43.7041" lon="7.08506">
        <ele>316.891724</ele>
        <time>2010-08-13T16:29:51Z</time>
      </trkpt>
      <trkpt lat="43.70412" lon="7.08507">
        <ele>317.372437</ele>
        <time>2010-08-13T16:29:52Z</time>
      </trkpt>
      <trkpt lat="43.70415" lon="7.08507">
        <ele>317.372437</ele>
        <time>2010-08-13T16:29:53Z</time>
      </trkpt>
      <trkpt lat="43.70416" lon="7.08507">
        <ele>316.891724</ele>
        <time>2010-08-13T16:29:54Z</time>
      </trkpt>
      <trkpt lat="43.70419" lon="7.08507">
        <ele>320.737061</ele>
        <time>2010-08-13T16:29:55Z</time>
      </trkpt>
      <trkpt lat="43.70421" lon="7.08507">
        <ele>320.737061</ele>
        <time>2010-08-13T16:29:56Z</time>
      </trkpt>
      <trkpt lat="43.70423" lon="7.08507">
        <ele>321.217773</ele>
        <time>2010-08-13T16:29:57Z</time>
      </trkpt>
      <trkpt lat="43.70425" lon="7.08507">
        <ele>321.217773</ele>
        <time>2010-08-13T16:29:58Z</time>
      </trkpt>
      <trkpt lat="43.70427" lon="7.08507">
        <ele>321.698364</ele>
        <time>2010-08-13T16:29:59Z</time>
      </trkpt>
      <trkpt lat="43.7043" lon="7.08507">
        <ele>322.178955</ele>
        <time>2010-08-13T16:30:00Z</time>
      </trkpt>
      <trkpt lat="43.70432" lon="7.08507">
        <ele>322.178955</ele>
        <time>2010-08-13T16:30:01Z</time>
      </trkpt>
      <trkpt lat="43.70434" lon="7.08507">
        <ele>320.737061</ele>
        <time>2010-08-13T16:30:02Z</time>
      </trkpt>
      <trkpt lat="43.70436" lon="7.08507">
        <ele>319.775635</ele>
        <time>2010-08-13T16:30:03Z</time>
      </trkpt>
      <trkpt lat="43.70438" lon="7.08507">
        <ele>320.256348</ele>
        <time>2010-08-13T16:30:04Z</time>
      </trkpt>
      <trkpt lat="43.70441" lon="7.08508">
        <ele>320.256348</ele>
        <time>2010-08-13T16:30:05Z</time>
      </trkpt>
      <trkpt lat="43.70443" lon="7.08508">
        <ele>321.217773</ele>
        <time>2010-08-13T16:30:06Z</time>
      </trkpt>
      <trkpt lat="43.70446" lon="7.08508">
        <ele>320.737061</ele>
        <time>2010-08-13T16:30:07Z</time>
      </trkpt>
      <trkpt lat="43.70448" lon="7.08509">
        <ele>321.217773</ele>
        <time>2010-08-13T16:30:08Z</time>
      </trkpt>
      <trkpt lat="43.70451" lon="7.0851">
        <ele>321.217773</ele>
        <time>2010-08-13T16:30:09Z</time>
      </trkpt>
      <trkpt lat="43.70453" lon="7.08512">
        <ele>321.217773</ele>
        <time>2010-08-13T16:30:10Z</time>
      </trkpt>
      <trkpt lat="43.70455" lon="7.08514">
        <ele>320.737061</ele>
        <time>2010-08-13T16:30:11Z</time>
      </trkpt>
      <trkpt lat="43.70457" lon="7.08515">
        <ele>319.775635</ele>
        <time>2010-08-13T16:30:12Z</time>
      </trkpt>
      <trkpt lat="43.7046" lon="7.08516">
        <ele>319.295044</ele>
        <time>2010-08-13T16:30:13Z</time>
      </trkpt>
      <trkpt lat="43.70463" lon="7.08517">
        <ele>318.814331</ele>
        <time>2010-08-13T16:30:14Z</time>
      </trkpt>
      <trkpt lat="43.70465" lon="7.08518">
        <ele>317.853027</ele>
        <time>2010-08-13T16:30:15Z</time>
      </trkpt>
      <trkpt lat="43.70468" lon="7.08519">
        <ele>317.372437</ele>
        <time>2010-08-13T16:30:16Z</time>
      </trkpt>
      <trkpt lat="43.7047" lon="7.08521">
        <ele>317.372437</ele>
        <time>2010-08-13T16:30:17Z</time>
      </trkpt>
      <trkpt lat="43.70472" lon="7.08522">
        <ele>316.891724</ele>
        <time>2010-08-13T16:30:18Z</time>
      </trkpt>
      <trkpt lat="43.70475" lon="7.08523">
        <ele>317.853027</ele>
        <time>2010-08-13T16:30:19Z</time>
      </trkpt>
      <trkpt lat="43.70477" lon="7.08524">
        <ele>317.372437</ele>
        <time>2010-08-13T16:30:20Z</time>
      </trkpt>
      <trkpt lat="43.70479" lon="7.08526">
        <ele>316.891724</ele>
        <time>2010-08-13T16:30:21Z</time>
      </trkpt>
      <trkpt lat="43.70481" lon="7.08528">
        <ele>316.891724</ele>
        <time>2010-08-13T16:30:22Z</time>
      </trkpt>
      <trkpt lat="43.70483" lon="7.08529">
        <ele>316.411011</ele>
        <time>2010-08-13T16:30:23Z</time>
      </trkpt>
      <trkpt lat="43.70485" lon="7.08531">
        <ele>315.93042</ele>
        <time>2010-08-13T16:30:24Z</time>
      </trkpt>
      <trkpt lat="43.70487" lon="7.08532">
        <ele>314.969116</ele>
        <time>2010-08-13T16:30:25Z</time>
      </trkpt>
      <trkpt lat="43.70489" lon="7.08534">
        <ele>314.488403</ele>
        <time>2010-08-13T16:30:26Z</time>
      </trkpt>
      <trkpt lat="43.70491" lon="7.08536">
        <ele>313.527222</ele>
        <time>2010-08-13T16:30:27Z</time>
      </trkpt>
      <trkpt lat="43.70493" lon="7.08538">
        <ele>313.046509</ele>
        <time>2010-08-13T16:30:28Z</time>
      </trkpt>
      <trkpt lat="43.70495" lon="7.0854">
        <ele>311.604492</ele>
        <time>2010-08-13T16:30:29Z</time>
      </trkpt>
      <trkpt lat="43.70497" lon="7.08542">
        <ele>311.604492</ele>
        <time>2010-08-13T16:30:30Z</time>
      </trkpt>
      <trkpt lat="43.70499" lon="7.08544">
        <ele>311.604492</ele>
        <time>2010-08-13T16:30:31Z</time>
      </trkpt>
      <trkpt lat="43.705" lon="7.08546">
        <ele>311.604492</ele>
        <time>2010-08-13T16:30:32Z</time>
      </trkpt>
      <trkpt lat="43.70502" lon="7.08548">
        <ele>311.604492</ele>
        <time>2010-08-13T16:30:33Z</time>
      </trkpt>
      <trkpt lat="43.70503" lon="7.0855">
        <ele>311.604492</ele>
        <time>2010-08-13T16:30:34Z</time>
      </trkpt>
      <trkpt lat="43.70505" lon="7.08552">
        <ele>311.123779</ele>
        <time>2010-08-13T16:30:35Z</time>
      </trkpt>
      <trkpt lat="43.70507" lon="7.08554">
        <ele>311.123779</ele>
        <time>2010-08-13T16:30:36Z</time>
      </trkpt>
      <trkpt lat="43.70509" lon="7.08556">
        <ele>311.123779</ele>
        <time>2010-08-13T16:30:37Z</time>
      </trkpt>
      <trkpt lat="43.70511" lon="7.08558">
        <ele>310.643066</ele>
        <time>2010-08-13T16:30:38Z</time>
      </trkpt>
      <trkpt lat="43.70513" lon="7.0856">
        <ele>310.643066</ele>
        <time>2010-08-13T16:30:39Z</time>
      </trkpt>
      <trkpt lat="43.70515" lon="7.08562">
        <ele>310.643066</ele>
        <time>2010-08-13T16:30:40Z</time>
      </trkpt>
      <trkpt lat="43.70517" lon="7.08564">
        <ele>310.643066</ele>
        <time>2010-08-13T16:30:41Z</time>
      </trkpt>
      <trkpt lat="43.70519" lon="7.08566">
        <ele>310.643066</ele>
        <time>2010-08-13T16:30:42Z</time>
      </trkpt>
      <trkpt lat="43.70521" lon="7.08568">
        <ele>311.123779</ele>
        <time>2010-08-13T16:30:43Z</time>
      </trkpt>
      <trkpt lat="43.70523" lon="7.0857">
        <ele>310.643066</ele>
        <time>2010-08-13T16:30:44Z</time>
      </trkpt>
      <trkpt lat="43.70525" lon="7.08572">
        <ele>310.162476</ele>
        <time>2010-08-13T16:30:45Z</time>
      </trkpt>
      <trkpt lat="43.70528" lon="7.08574">
        <ele>310.162476</ele>
        <time>2010-08-13T16:30:46Z</time>
      </trkpt>
      <trkpt lat="43.70529" lon="7.08576">
        <ele>309.201172</ele>
        <time>2010-08-13T16:30:47Z</time>
      </trkpt>
      <trkpt lat="43.70531" lon="7.08578">
        <ele>309.201172</ele>
        <time>2010-08-13T16:30:48Z</time>
      </trkpt>
      <trkpt lat="43.70533" lon="7.0858">
        <ele>309.201172</ele>
        <time>2010-08-13T16:30:49Z</time>
      </trkpt>
      <trkpt lat="43.70535" lon="7.08583">
        <ele>309.201172</ele>
        <time>2010-08-13T16:30:50Z</time>
      </trkpt>
      <trkpt lat="43.70537" lon="7.08585">
        <ele>308.720459</ele>
        <time>2010-08-13T16:30:51Z</time>
      </trkpt>
      <trkpt lat="43.70539" lon="7.08588">
        <ele>308.239868</ele>
        <time>2010-08-13T16:30:52Z</time>
      </trkpt>
      <trkpt lat="43.70541" lon="7.0859">
        <ele>308.239868</ele>
        <time>2010-08-13T16:30:53Z</time>
      </trkpt>
      <trkpt lat="43.70542" lon="7.08593">
        <ele>307.759277</ele>
        <time>2010-08-13T16:30:54Z</time>
      </trkpt>
      <trkpt lat="43.70544" lon="7.08595">
        <ele>307.759277</ele>
        <time>2010-08-13T16:30:55Z</time>
      </trkpt>
      <trkpt lat="43.70546" lon="7.08597">
        <ele>307.759277</ele>
        <time>2010-08-13T16:30:56Z</time>
      </trkpt>
      <trkpt lat="43.70548" lon="7.08599">
        <ele>307.278564</ele>
        <time>2010-08-13T16:30:57Z</time>
      </trkpt>
      <trkpt lat="43.70549" lon="7.08601">
        <ele>307.278564</ele>
        <time>2010-08-13T16:30:58Z</time>
      </trkpt>
      <trkpt lat="43.70551" lon="7.08603">
        <ele>307.278564</ele>
        <time>2010-08-13T16:30:59Z</time>
      </trkpt>
      <trkpt lat="43.70553" lon="7.08605">
        <ele>307.278564</ele>
        <time>2010-08-13T16:31:00Z</time>
      </trkpt>
      <trkpt lat="43.70555" lon="7.08606">
        <ele>306.797852</ele>
        <time>2010-08-13T16:31:01Z</time>
      </trkpt>
      <trkpt lat="43.70557" lon="7.08608">
        <ele>306.797852</ele>
        <time>2010-08-13T16:31:02Z</time>
      </trkpt>
      <trkpt lat="43.7056" lon="7.0861">
        <ele>306.797852</ele>
        <time>2010-08-13T16:31:03Z</time>
      </trkpt>
      <trkpt lat="43.70562" lon="7.08612">
        <ele>307.278564</ele>
        <time>2010-08-13T16:31:04Z</time>
      </trkpt>
      <trkpt lat="43.70565" lon="7.08614">
        <ele>307.759277</ele>
        <time>2010-08-13T16:31:05Z</time>
      </trkpt>
      <trkpt lat="43.70567" lon="7.08617">
        <ele>308.239868</ele>
        <time>2010-08-13T16:31:06Z</time>
      </trkpt>
      <trkpt lat="43.70569" lon="7.0862">
        <ele>308.239868</ele>
        <time>2010-08-13T16:31:07Z</time>
      </trkpt>
      <trkpt lat="43.7057" lon="7.08623">
        <ele>308.239868</ele>
        <time>2010-08-13T16:31:08Z</time>
      </trkpt>
      <trkpt lat="43.70569" lon="7.08626">
        <ele>308.720459</ele>
        <time>2010-08-13T16:31:09Z</time>
      </trkpt>
      <trkpt lat="43.70568" lon="7.08628">
        <ele>308.239868</ele>
        <time>2010-08-13T16:31:10Z</time>
      </trkpt>
      <trkpt lat="43.70569" lon="7.08631">
        <ele>308.239868</ele>
        <time>2010-08-13T16:31:11Z</time>
      </trkpt>
      <trkpt lat="43.7057" lon="7.08633">
        <ele>308.239868</ele>
        <time>2010-08-13T16:31:12Z</time>
      </trkpt>
      <trkpt lat="43.70571" lon="7.08636">
        <ele>308.239868</ele>
        <time>2010-08-13T16:31:13Z</time>
      </trkpt>
      <trkpt lat="43.70572" lon="7.08638">
        <ele>308.720459</ele>
        <time>2010-08-13T16:31:14Z</time>
      </trkpt>
      <trkpt lat="43.70574" lon="7.0864">
        <ele>309.681885</ele>
        <time>2010-08-13T16:31:15Z</time>
      </trkpt>
      <trkpt lat="43.70575" lon="7.08641">
        <ele>309.201172</ele>
        <time>2010-08-13T16:31:16Z</time>
      </trkpt>
      <trkpt lat="43.70576" lon="7.08643">
        <ele>309.681885</ele>
        <time>2010-08-13T16:31:17Z</time>
      </trkpt>
      <trkpt lat="43.70578" lon="7.08644">
        <ele>309.681885</ele>
        <time>2010-08-13T16:31:18Z</time>
      </trkpt>
      <trkpt lat="43.7058" lon="7.08646">
        <ele>310.162476</ele>
        <time>2010-08-13T16:31:19Z</time>
      </trkpt>
      <trkpt lat="43.70582" lon="7.08648">
        <ele>310.643066</ele>
        <time>2010-08-13T16:31:20Z</time>
      </trkpt>
      <trkpt lat="43.70583" lon="7.0865">
        <ele>311.123779</ele>
        <time>2010-08-13T16:31:21Z</time>
      </trkpt>
      <trkpt lat="43.70585" lon="7.08653">
        <ele>311.604492</ele>
        <time>2010-08-13T16:31:22Z</time>
      </trkpt>
      <trkpt lat="43.70587" lon="7.08654">
        <ele>311.604492</ele>
        <time>2010-08-13T16:31:23Z</time>
      </trkpt>
      <trkpt lat="43.70589" lon="7.08656">
        <ele>311.604492</ele>
        <time>2010-08-13T16:31:24Z</time>
      </trkpt>
      <trkpt lat="43.70591" lon="7.08658">
        <ele>311.604492</ele>
        <time>2010-08-13T16:31:25Z</time>
      </trkpt>
      <trkpt lat="43.70592" lon="7.0866">
        <ele>311.604492</ele>
        <time>2010-08-13T16:31:26Z</time>
      </trkpt>
      <trkpt lat="43.70594" lon="7.08662">
        <ele>312.085205</ele>
        <time>2010-08-13T16:31:27Z</time>
      </trkpt>
      <trkpt lat="43.70596" lon="7.08663">
        <ele>312.085205</ele>
        <time>2010-08-13T16:31:28Z</time>
      </trkpt>
      <trkpt lat="43.70598" lon="7.08665">
        <ele>312.085205</ele>
        <time>2010-08-13T16:31:29Z</time>
      </trkpt>
      <trkpt lat="43.70599" lon="7.08668">
        <ele>312.565796</ele>
        <time>2010-08-13T16:31:30Z</time>
      </trkpt>
      <trkpt lat="43.70602" lon="7.08669">
        <ele>313.527222</ele>
        <time>2010-08-13T16:31:31Z</time>
      </trkpt>
      <trkpt lat="43.70604" lon="7.0867">
        <ele>314.488403</ele>
        <time>2010-08-13T16:31:32Z</time>
      </trkpt>
      <trkpt lat="43.70606" lon="7.08671">
        <ele>313.527222</ele>
        <time>2010-08-13T16:31:33Z</time>
      </trkpt>
      <trkpt lat="43.70608" lon="7.08672">
        <ele>314.488403</ele>
        <time>2010-08-13T16:31:34Z</time>
      </trkpt>
      <trkpt lat="43.7061" lon="7.08674">
        <ele>314.969116</ele>
        <time>2010-08-13T16:31:35Z</time>
      </trkpt>
      <trkpt lat="43.70611" lon="7.08676">
        <ele>315.449829</ele>
        <time>2010-08-13T16:31:36Z</time>
      </trkpt>
      <trkpt lat="43.70613" lon="7.08678">
        <ele>315.93042</ele>
        <time>2010-08-13T16:31:37Z</time>
      </trkpt>
      <trkpt lat="43.70614" lon="7.0868">
        <ele>315.93042</ele>
        <time>2010-08-13T16:31:38Z</time>
      </trkpt>
      <trkpt lat="43.70616" lon="7.08682">
        <ele>316.411011</ele>
        <time>2010-08-13T16:31:39Z</time>
      </trkpt>
      <trkpt lat="43.70617" lon="7.08684">
        <ele>316.411011</ele>
        <time>2010-08-13T16:31:40Z</time>
      </trkpt>
      <trkpt lat="43.70619" lon="7.08685">
        <ele>316.891724</ele>
        <time>2010-08-13T16:31:41Z</time>
      </trkpt>
      <trkpt lat="43.7062" lon="7.08687">
        <ele>316.891724</ele>
        <time>2010-08-13T16:31:42Z</time>
      </trkpt>
      <trkpt lat="43.70621" lon="7.08689">
        <ele>315.449829</ele>
        <time>2010-08-13T16:31:43Z</time>
      </trkpt>
      <trkpt lat="43.70622" lon="7.08691">
        <ele>314.488403</ele>
        <time>2010-08-13T16:31:44Z</time>
      </trkpt>
      <trkpt lat="43.70624" lon="7.08693">
        <ele>314.488403</ele>
        <time>2010-08-13T16:31:45Z</time>
      </trkpt>
      <trkpt lat="43.70626" lon="7.08695">
        <ele>314.488403</ele>
        <time>2010-08-13T16:31:46Z</time>
      </trkpt>
      <trkpt lat="43.70627" lon="7.08697">
        <ele>314.488403</ele>
        <time>2010-08-13T16:31:47Z</time>
      </trkpt>
      <trkpt lat="43.70629" lon="7.08699">
        <ele>314.007812</ele>
        <time>2010-08-13T16:31:48Z</time>
      </trkpt>
      <trkpt lat="43.70631" lon="7.08701">
        <ele>314.488403</ele>
        <time>2010-08-13T16:31:49Z</time>
      </trkpt>
      <trkpt lat="43.70633" lon="7.08703">
        <ele>314.969116</ele>
        <time>2010-08-13T16:31:50Z</time>
      </trkpt>
      <trkpt lat="43.70635" lon="7.08705">
        <ele>314.488403</ele>
        <time>2010-08-13T16:31:51Z</time>
      </trkpt>
      <trkpt lat="43.70636" lon="7.08707">
        <ele>314.969116</ele>
        <time>2010-08-13T16:31:52Z</time>
      </trkpt>
      <trkpt lat="43.70638" lon="7.08709">
        <ele>315.93042</ele>
        <time>2010-08-13T16:31:53Z</time>
      </trkpt>
      <trkpt lat="43.7064" lon="7.08711">
        <ele>315.93042</ele>
        <time>2010-08-13T16:31:54Z</time>
      </trkpt>
      <trkpt lat="43.70641" lon="7.08713">
        <ele>314.488403</ele>
        <time>2010-08-13T16:31:55Z</time>
      </trkpt>
      <trkpt lat="43.70643" lon="7.08714">
        <ele>315.449829</ele>
        <time>2010-08-13T16:31:56Z</time>
      </trkpt>
      <trkpt lat="43.70645" lon="7.08716">
        <ele>314.969116</ele>
        <time>2010-08-13T16:31:57Z</time>
      </trkpt>
      <trkpt lat="43.70647" lon="7.08718">
        <ele>314.969116</ele>
        <time>2010-08-13T16:31:58Z</time>
      </trkpt>
      <trkpt lat="43.70649" lon="7.0872">
        <ele>314.969116</ele>
        <time>2010-08-13T16:31:59Z</time>
      </trkpt>
      <trkpt lat="43.7065" lon="7.08721">
        <ele>314.488403</ele>
        <time>2010-08-13T16:32:00Z</time>
      </trkpt>
      <trkpt lat="43.70652" lon="7.08722">
        <ele>314.488403</ele>
        <time>2010-08-13T16:32:01Z</time>
      </trkpt>
      <trkpt lat="43.70654" lon="7.08724">
        <ele>314.969116</ele>
        <time>2010-08-13T16:32:02Z</time>
      </trkpt>
      <trkpt lat="43.70656" lon="7.08726">
        <ele>315.449829</ele>
        <time>2010-08-13T16:32:03Z</time>
      </trkpt>
      <trkpt lat="43.70658" lon="7.08728">
        <ele>314.969116</ele>
        <time>2010-08-13T16:32:04Z</time>
      </trkpt>
      <trkpt lat="43.7066" lon="7.0873">
        <ele>314.969116</ele>
        <time>2010-08-13T16:32:05Z</time>
      </trkpt>
      <trkpt lat="43.70661" lon="7.08732">
        <ele>314.969116</ele>
        <time>2010-08-13T16:32:06Z</time>
      </trkpt>
      <trkpt lat="43.70663" lon="7.08734">
        <ele>315.449829</ele>
        <time>2010-08-13T16:32:07Z</time>
      </trkpt>
      <trkpt lat="43.70665" lon="7.08736">
        <ele>314.969116</ele>
        <time>2010-08-13T16:32:08Z</time>
      </trkpt>
      <trkpt lat="43.70667" lon="7.08738">
        <ele>314.488403</ele>
        <time>2010-08-13T16:32:09Z</time>
      </trkpt>
      <trkpt lat="43.70669" lon="7.08741">
        <ele>314.969116</ele>
        <time>2010-08-13T16:32:10Z</time>
      </trkpt>
      <trkpt lat="43.70671" lon="7.08743">
        <ele>314.969116</ele>
        <time>2010-08-13T16:32:11Z</time>
      </trkpt>
      <trkpt lat="43.70673" lon="7.08744">
        <ele>314.488403</ele>
        <time>2010-08-13T16:32:12Z</time>
      </trkpt>
      <trkpt lat="43.70674" lon="7.08745">
        <ele>314.969116</ele>
        <time>2010-08-13T16:32:13Z</time>
      </trkpt>
      <trkpt lat="43.70676" lon="7.08746">
        <ele>314.969116</ele>
        <time>2010-08-13T16:32:14Z</time>
      </trkpt>
      <trkpt lat="43.70676" lon="7.08746">
        <ele>316.411011</ele>
        <time>2010-08-13T16:32:15Z</time>
      </trkpt>
      <trkpt lat="43.70677" lon="7.08746">
        <ele>317.372437</ele>
        <time>2010-08-13T16:32:16Z</time>
      </trkpt>
      <trkpt lat="43.70677" lon="7.08746">
        <ele>317.853027</ele>
        <time>2010-08-13T16:32:17Z</time>
      </trkpt>
      <trkpt lat="43.70677" lon="7.08746">
        <ele>319.295044</ele>
        <time>2010-08-13T16:32:18Z</time>
      </trkpt>
      <trkpt lat="43.70678" lon="7.08746">
        <ele>319.295044</ele>
        <time>2010-08-13T16:32:19Z</time>
      </trkpt>
      <trkpt lat="43.70678" lon="7.08746">
        <ele>320.737061</ele>
        <time>2010-08-13T16:32:20Z</time>
      </trkpt>
      <trkpt lat="43.70678" lon="7.08746">
        <ele>319.775635</ele>
        <time>2010-08-13T16:32:21Z</time>
      </trkpt>
      <trkpt lat="43.70678" lon="7.08746">
        <ele>319.295044</ele>
        <time>2010-08-13T16:32:22Z</time>
      </trkpt>
      <trkpt lat="43.70678" lon="7.08747">
        <ele>318.814331</ele>
        <time>2010-08-13T16:32:23Z</time>
      </trkpt>
      <trkpt lat="43.70679" lon="7.08747">
        <ele>318.333618</ele>
        <time>2010-08-13T16:32:24Z</time>
      </trkpt>
      <trkpt lat="43.70679" lon="7.08747">
        <ele>318.333618</ele>
        <time>2010-08-13T16:32:25Z</time>
      </trkpt>
      <trkpt lat="43.70679" lon="7.08747">
        <ele>318.333618</ele>
        <time>2010-08-13T16:32:26Z</time>
      </trkpt>
      <trkpt lat="43.70679" lon="7.08747">
        <ele>318.333618</ele>
        <time>2010-08-13T16:32:27Z</time>
      </trkpt>
      <trkpt lat="43.70679" lon="7.08747">
        <ele>317.853027</ele>
        <time>2010-08-13T16:32:28Z</time>
      </trkpt>
      <trkpt lat="43.70679" lon="7.08748">
        <ele>317.853027</ele>
        <time>2010-08-13T16:32:29Z</time>
      </trkpt>
      <trkpt lat="43.70679" lon="7.08749">
        <ele>317.853027</ele>
        <time>2010-08-13T16:32:30Z</time>
      </trkpt>
      <trkpt lat="43.7068" lon="7.08751">
        <ele>317.853027</ele>
        <time>2010-08-13T16:32:31Z</time>
      </trkpt>
      <trkpt lat="43.70682" lon="7.08753">
        <ele>317.853027</ele>
        <time>2010-08-13T16:32:32Z</time>
      </trkpt>
      <trkpt lat="43.70683" lon="7.08755">
        <ele>317.853027</ele>
        <time>2010-08-13T16:32:33Z</time>
      </trkpt>
      <trkpt lat="43.70685" lon="7.08757">
        <ele>317.372437</ele>
        <time>2010-08-13T16:32:34Z</time>
      </trkpt>
      <trkpt lat="43.70686" lon="7.08759">
        <ele>317.853027</ele>
        <time>2010-08-13T16:32:35Z</time>
      </trkpt>
      <trkpt lat="43.70688" lon="7.08762">
        <ele>318.333618</ele>
        <time>2010-08-13T16:32:36Z</time>
      </trkpt>
      <trkpt lat="43.7069" lon="7.08763">
        <ele>318.333618</ele>
        <time>2010-08-13T16:32:37Z</time>
      </trkpt>
      <trkpt lat="43.70692" lon="7.08765">
        <ele>318.814331</ele>
        <time>2010-08-13T16:32:38Z</time>
      </trkpt>
      <trkpt lat="43.70694" lon="7.08767">
        <ele>318.814331</ele>
        <time>2010-08-13T16:32:39Z</time>
      </trkpt>
      <trkpt lat="43.70696" lon="7.08769">
        <ele>319.295044</ele>
        <time>2010-08-13T16:32:40Z</time>
      </trkpt>
      <trkpt lat="43.70698" lon="7.08771">
        <ele>319.775635</ele>
        <time>2010-08-13T16:32:41Z</time>
      </trkpt>
      <trkpt lat="43.707" lon="7.08773">
        <ele>319.775635</ele>
        <time>2010-08-13T16:32:42Z</time>
      </trkpt>
      <trkpt lat="43.70702" lon="7.08775">
        <ele>319.295044</ele>
        <time>2010-08-13T16:32:43Z</time>
      </trkpt>
      <trkpt lat="43.70703" lon="7.08778">
        <ele>319.775635</ele>
        <time>2010-08-13T16:32:44Z</time>
      </trkpt>
      <trkpt lat="43.70704" lon="7.0878">
        <ele>319.295044</ele>
        <time>2010-08-13T16:32:45Z</time>
      </trkpt>
      <trkpt lat="43.70706" lon="7.08782">
        <ele>319.295044</ele>
        <time>2010-08-13T16:32:46Z</time>
      </trkpt>
      <trkpt lat="43.70708" lon="7.08784">
        <ele>319.295044</ele>
        <time>2010-08-13T16:32:47Z</time>
      </trkpt>
      <trkpt lat="43.70709" lon="7.08787">
        <ele>319.295044</ele>
        <time>2010-08-13T16:32:48Z</time>
      </trkpt>
      <trkpt lat="43.70711" lon="7.08789">
        <ele>318.814331</ele>
        <time>2010-08-13T16:32:49Z</time>
      </trkpt>
      <trkpt lat="43.70714" lon="7.0879">
        <ele>317.853027</ele>
        <time>2010-08-13T16:32:50Z</time>
      </trkpt>
      <trkpt lat="43.70716" lon="7.08792">
        <ele>317.853027</ele>
        <time>2010-08-13T16:32:51Z</time>
      </trkpt>
      <trkpt lat="43.70718" lon="7.08794">
        <ele>318.333618</ele>
        <time>2010-08-13T16:32:52Z</time>
      </trkpt>
      <trkpt lat="43.70719" lon="7.08795">
        <ele>317.372437</ele>
        <time>2010-08-13T16:32:53Z</time>
      </trkpt>
      <trkpt lat="43.70721" lon="7.08797">
        <ele>317.372437</ele>
        <time>2010-08-13T16:32:54Z</time>
      </trkpt>
      <trkpt lat="43.70723" lon="7.08798">
        <ele>317.853027</ele>
        <time>2010-08-13T16:32:55Z</time>
      </trkpt>
      <trkpt lat="43.70724" lon="7.08801">
        <ele>316.891724</ele>
        <time>2010-08-13T16:32:56Z</time>
      </trkpt>
      <trkpt lat="43.70726" lon="7.08804">
        <ele>316.891724</ele>
        <time>2010-08-13T16:32:57Z</time>
      </trkpt>
      <trkpt lat="43.70728" lon="7.08806">
        <ele>317.372437</ele>
        <time>2010-08-13T16:32:58Z</time>
      </trkpt>
      <trkpt lat="43.70729" lon="7.08808">
        <ele>317.372437</ele>
        <time>2010-08-13T16:32:59Z</time>
      </trkpt>
      <trkpt lat="43.70731" lon="7.0881">
        <ele>317.853027</ele>
        <time>2010-08-13T16:33:00Z</time>
      </trkpt>
      <trkpt lat="43.70733" lon="7.08812">
        <ele>316.411011</ele>
        <time>2010-08-13T16:33:01Z</time>
      </trkpt>
      <trkpt lat="43.70735" lon="7.08814">
        <ele>317.372437</ele>
        <time>2010-08-13T16:33:02Z</time>
      </trkpt>
      <trkpt lat="43.70738" lon="7.08816">
        <ele>317.372437</ele>
        <time>2010-08-13T16:33:03Z</time>
      </trkpt>
      <trkpt lat="43.7074" lon="7.08817">
        <ele>317.372437</ele>
        <time>2010-08-13T16:33:04Z</time>
      </trkpt>
      <trkpt lat="43.70742" lon="7.08819">
        <ele>317.853027</ele>
        <time>2010-08-13T16:33:05Z</time>
      </trkpt>
      <trkpt lat="43.70743" lon="7.08822">
        <ele>317.372437</ele>
        <time>2010-08-13T16:33:06Z</time>
      </trkpt>
      <trkpt lat="43.70745" lon="7.08823">
        <ele>317.853027</ele>
        <time>2010-08-13T16:33:07Z</time>
      </trkpt>
      <trkpt lat="43.70747" lon="7.08824">
        <ele>318.333618</ele>
        <time>2010-08-13T16:33:08Z</time>
      </trkpt>
      <trkpt lat="43.70749" lon="7.08826">
        <ele>319.295044</ele>
        <time>2010-08-13T16:33:09Z</time>
      </trkpt>
      <trkpt lat="43.70752" lon="7.08827">
        <ele>319.775635</ele>
        <time>2010-08-13T16:33:10Z</time>
      </trkpt>
      <trkpt lat="43.70754" lon="7.08829">
        <ele>320.256348</ele>
        <time>2010-08-13T16:33:11Z</time>
      </trkpt>
      <trkpt lat="43.70755" lon="7.08831">
        <ele>320.737061</ele>
        <time>2010-08-13T16:33:12Z</time>
      </trkpt>
      <trkpt lat="43.70758" lon="7.08832">
        <ele>321.217773</ele>
        <time>2010-08-13T16:33:13Z</time>
      </trkpt>
      <trkpt lat="43.7076" lon="7.08833">
        <ele>321.698364</ele>
        <time>2010-08-13T16:33:14Z</time>
      </trkpt>
      <trkpt lat="43.70762" lon="7.08835">
        <ele>320.737061</ele>
        <time>2010-08-13T16:33:15Z</time>
      </trkpt>
      <trkpt lat="43.70764" lon="7.08837">
        <ele>320.256348</ele>
        <time>2010-08-13T16:33:16Z</time>
      </trkpt>
      <trkpt lat="43.70765" lon="7.08839">
        <ele>319.775635</ele>
        <time>2010-08-13T16:33:17Z</time>
      </trkpt>
      <trkpt lat="43.70767" lon="7.0884">
        <ele>319.775635</ele>
        <time>2010-08-13T16:33:18Z</time>
      </trkpt>
      <trkpt lat="43.70768" lon="7.08841">
        <ele>319.775635</ele>
        <time>2010-08-13T16:33:19Z</time>
      </trkpt>
      <trkpt lat="43.7077" lon="7.08843">
        <ele>321.698364</ele>
        <time>2010-08-13T16:33:20Z</time>
      </trkpt>
      <trkpt lat="43.70772" lon="7.08844">
        <ele>320.737061</ele>
        <time>2010-08-13T16:33:21Z</time>
      </trkpt>
      <trkpt lat="43.70773" lon="7.08845">
        <ele>320.256348</ele>
        <time>2010-08-13T16:33:22Z</time>
      </trkpt>
      <trkpt lat="43.70775" lon="7.08847">
        <ele>321.217773</ele>
        <time>2010-08-13T16:33:23Z</time>
      </trkpt>
      <trkpt lat="43.70777" lon="7.08849">
        <ele>321.217773</ele>
        <time>2010-08-13T16:33:24Z</time>
      </trkpt>
      <trkpt lat="43.70778" lon="7.08851">
        <ele>321.217773</ele>
        <time>2010-08-13T16:33:25Z</time>
      </trkpt>
      <trkpt lat="43.7078" lon="7.08853">
        <ele>321.698364</ele>
        <time>2010-08-13T16:33:26Z</time>
      </trkpt>
      <trkpt lat="43.70783" lon="7.08855">
        <ele>324.101562</ele>
        <time>2010-08-13T16:33:27Z</time>
      </trkpt>
      <trkpt lat="43.70785" lon="7.08856">
        <ele>324.101562</ele>
        <time>2010-08-13T16:33:28Z</time>
      </trkpt>
      <trkpt lat="43.70787" lon="7.08858">
        <ele>324.582275</ele>
        <time>2010-08-13T16:33:29Z</time>
      </trkpt>
      <trkpt lat="43.70789" lon="7.0886">
        <ele>324.582275</ele>
        <time>2010-08-13T16:33:30Z</time>
      </trkpt>
      <trkpt lat="43.70791" lon="7.08861">
        <ele>325.062988</ele>
        <time>2010-08-13T16:33:31Z</time>
      </trkpt>
      <trkpt lat="43.70792" lon="7.08862">
        <ele>324.582275</ele>
        <time>2010-08-13T16:33:32Z</time>
      </trkpt>
      <trkpt lat="43.70793" lon="7.08863">
        <ele>324.582275</ele>
        <time>2010-08-13T16:33:33Z</time>
      </trkpt>
      <trkpt lat="43.70794" lon="7.08864">
        <ele>325.543579</ele>
        <time>2010-08-13T16:33:34Z</time>
      </trkpt>
      <trkpt lat="43.70795" lon="7.08864">
        <ele>325.543579</ele>
        <time>2010-08-13T16:33:35Z</time>
      </trkpt>
      <trkpt lat="43.70797" lon="7.08867">
        <ele>326.02417</ele>
        <time>2010-08-13T16:33:36Z</time>
      </trkpt>
      <trkpt lat="43.70799" lon="7.0887">
        <ele>325.543579</ele>
        <time>2010-08-13T16:33:37Z</time>
      </trkpt>
      <trkpt lat="43.70801" lon="7.08872">
        <ele>324.582275</ele>
        <time>2010-08-13T16:33:38Z</time>
      </trkpt>
      <trkpt lat="43.70803" lon="7.08874">
        <ele>326.985596</ele>
        <time>2010-08-13T16:33:39Z</time>
      </trkpt>
      <trkpt lat="43.70805" lon="7.08877">
        <ele>327.946777</ele>
        <time>2010-08-13T16:33:40Z</time>
      </trkpt>
      <trkpt lat="43.70807" lon="7.0888">
        <ele>328.427612</ele>
        <time>2010-08-13T16:33:41Z</time>
      </trkpt>
      <trkpt lat="43.70809" lon="7.08882">
        <ele>328.427612</ele>
        <time>2010-08-13T16:33:42Z</time>
      </trkpt>
      <trkpt lat="43.70811" lon="7.08885">
        <ele>328.908325</ele>
        <time>2010-08-13T16:33:43Z</time>
      </trkpt>
      <trkpt lat="43.70813" lon="7.08886">
        <ele>328.427612</ele>
        <time>2010-08-13T16:33:44Z</time>
      </trkpt>
      <trkpt lat="43.70816" lon="7.08887">
        <ele>327.946777</ele>
        <time>2010-08-13T16:33:45Z</time>
      </trkpt>
      <trkpt lat="43.70817" lon="7.08889">
        <ele>327.946777</ele>
        <time>2010-08-13T16:33:46Z</time>
      </trkpt>
      <trkpt lat="43.70819" lon="7.08891">
        <ele>326.985596</ele>
        <time>2010-08-13T16:33:47Z</time>
      </trkpt>
      <trkpt lat="43.70821" lon="7.08893">
        <ele>327.466187</ele>
        <time>2010-08-13T16:33:48Z</time>
      </trkpt>
      <trkpt lat="43.70823" lon="7.08894">
        <ele>326.504883</ele>
        <time>2010-08-13T16:33:49Z</time>
      </trkpt>
      <trkpt lat="43.70825" lon="7.08895">
        <ele>326.504883</ele>
        <time>2010-08-13T16:33:50Z</time>
      </trkpt>
      <trkpt lat="43.70826" lon="7.08897">
        <ele>326.504883</ele>
        <time>2010-08-13T16:33:51Z</time>
      </trkpt>
      <trkpt lat="43.70828" lon="7.08899">
        <ele>327.466187</ele>
        <time>2010-08-13T16:33:52Z</time>
      </trkpt>
      <trkpt lat="43.7083" lon="7.08901">
        <ele>327.946777</ele>
        <time>2010-08-13T16:33:53Z</time>
      </trkpt>
      <trkpt lat="43.70831" lon="7.08904">
        <ele>327.946777</ele>
        <time>2010-08-13T16:33:54Z</time>
      </trkpt>
      <trkpt lat="43.70833" lon="7.08905">
        <ele>329.388916</ele>
        <time>2010-08-13T16:33:55Z</time>
      </trkpt>
      <trkpt lat="43.70835" lon="7.08907">
        <ele>329.388916</ele>
        <time>2010-08-13T16:33:56Z</time>
      </trkpt>
      <trkpt lat="43.70837" lon="7.08909">
        <ele>329.388916</ele>
        <time>2010-08-13T16:33:57Z</time>
      </trkpt>
      <trkpt lat="43.70839" lon="7.08912">
        <ele>329.388916</ele>
        <time>2010-08-13T16:33:58Z</time>
      </trkpt>
      <trkpt lat="43.70841" lon="7.08914">
        <ele>328.908325</ele>
        <time>2010-08-13T16:33:59Z</time>
      </trkpt>
      <trkpt lat="43.70843" lon="7.08916">
        <ele>328.427612</ele>
        <time>2010-08-13T16:34:00Z</time>
      </trkpt>
      <trkpt lat="43.70844" lon="7.08917">
        <ele>328.427612</ele>
        <time>2010-08-13T16:34:01Z</time>
      </trkpt>
      <trkpt lat="43.70846" lon="7.08918">
        <ele>329.388916</ele>
        <time>2010-08-13T16:34:02Z</time>
      </trkpt>
      <trkpt lat="43.70848" lon="7.0892">
        <ele>329.869507</ele>
        <time>2010-08-13T16:34:03Z</time>
      </trkpt>
      <trkpt lat="43.70849" lon="7.08921">
        <ele>329.869507</ele>
        <time>2010-08-13T16:34:04Z</time>
      </trkpt>
      <trkpt lat="43.70851" lon="7.08923">
        <ele>329.869507</ele>
        <time>2010-08-13T16:34:05Z</time>
      </trkpt>
      <trkpt lat="43.70852" lon="7.08925">
        <ele>328.908325</ele>
        <time>2010-08-13T16:34:06Z</time>
      </trkpt>
      <trkpt lat="43.70854" lon="7.08927">
        <ele>328.908325</ele>
        <time>2010-08-13T16:34:07Z</time>
      </trkpt>
      <trkpt lat="43.70855" lon="7.08929">
        <ele>329.388916</ele>
        <time>2010-08-13T16:34:08Z</time>
      </trkpt>
      <trkpt lat="43.70857" lon="7.08932">
        <ele>329.869507</ele>
        <time>2010-08-13T16:34:09Z</time>
      </trkpt>
      <trkpt lat="43.70858" lon="7.08934">
        <ele>328.427612</ele>
        <time>2010-08-13T16:34:10Z</time>
      </trkpt>
      <trkpt lat="43.7086" lon="7.08936">
        <ele>327.946777</ele>
        <time>2010-08-13T16:34:11Z</time>
      </trkpt>
      <trkpt lat="43.70861" lon="7.08937">
        <ele>328.908325</ele>
        <time>2010-08-13T16:34:12Z</time>
      </trkpt>
      <trkpt lat="43.70863" lon="7.08938">
        <ele>328.908325</ele>
        <time>2010-08-13T16:34:13Z</time>
      </trkpt>
      <trkpt lat="43.70865" lon="7.08939">
        <ele>328.908325</ele>
        <time>2010-08-13T16:34:14Z</time>
      </trkpt>
      <trkpt lat="43.70867" lon="7.08941">
        <ele>329.388916</ele>
        <time>2010-08-13T16:34:15Z</time>
      </trkpt>
      <trkpt lat="43.70869" lon="7.08942">
        <ele>327.946777</ele>
        <time>2010-08-13T16:34:16Z</time>
      </trkpt>
      <trkpt lat="43.70871" lon="7.08944">
        <ele>327.946777</ele>
        <time>2010-08-13T16:34:17Z</time>
      </trkpt>
      <trkpt lat="43.70872" lon="7.08946">
        <ele>326.02417</ele>
        <time>2010-08-13T16:34:18Z</time>
      </trkpt>
      <trkpt lat="43.70873" lon="7.08947">
        <ele>323.620972</ele>
        <time>2010-08-13T16:34:19Z</time>
      </trkpt>
      <trkpt lat="43.70874" lon="7.08947">
        <ele>322.659668</ele>
        <time>2010-08-13T16:34:20Z</time>
      </trkpt>
      <trkpt lat="43.70876" lon="7.08948">
        <ele>322.659668</ele>
        <time>2010-08-13T16:34:21Z</time>
      </trkpt>
      <trkpt lat="43.70877" lon="7.08949">
        <ele>323.140381</ele>
        <time>2010-08-13T16:34:22Z</time>
      </trkpt>
      <trkpt lat="43.70878" lon="7.08951">
        <ele>322.178955</ele>
        <time>2010-08-13T16:34:23Z</time>
      </trkpt>
      <trkpt lat="43.7088" lon="7.08953">
        <ele>322.659668</ele>
        <time>2010-08-13T16:34:24Z</time>
      </trkpt>
      <trkpt lat="43.70882" lon="7.08955">
        <ele>322.178955</ele>
        <time>2010-08-13T16:34:25Z</time>
      </trkpt>
      <trkpt lat="43.70883" lon="7.08956">
        <ele>322.178955</ele>
        <time>2010-08-13T16:34:26Z</time>
      </trkpt>
      <trkpt lat="43.70884" lon="7.08958">
        <ele>323.140381</ele>
        <time>2010-08-13T16:34:27Z</time>
      </trkpt>
      <trkpt lat="43.70886" lon="7.08961">
        <ele>323.620972</ele>
        <time>2010-08-13T16:34:28Z</time>
      </trkpt>
      <trkpt lat="43.70888" lon="7.08963">
        <ele>323.140381</ele>
        <time>2010-08-13T16:34:29Z</time>
      </trkpt>
      <trkpt lat="43.70889" lon="7.08964">
        <ele>323.620972</ele>
        <time>2010-08-13T16:34:30Z</time>
      </trkpt>
      <trkpt lat="43.70889" lon="7.08965">
        <ele>324.582275</ele>
        <time>2010-08-13T16:34:31Z</time>
      </trkpt>
      <trkpt lat="43.70889" lon="7.08965">
        <ele>325.062988</ele>
        <time>2010-08-13T16:34:32Z</time>
      </trkpt>
      <trkpt lat="43.70889" lon="7.08966">
        <ele>325.062988</ele>
        <time>2010-08-13T16:34:33Z</time>
      </trkpt>
      <trkpt lat="43.70889" lon="7.08965">
        <ele>325.062988</ele>
        <time>2010-08-13T16:34:34Z</time>
      </trkpt>
      <trkpt lat="43.7089" lon="7.08965">
        <ele>327.466187</ele>
        <time>2010-08-13T16:34:35Z</time>
      </trkpt>
      <trkpt lat="43.7089" lon="7.08965">
        <ele>326.02417</ele>
        <time>2010-08-13T16:34:36Z</time>
      </trkpt>
      <trkpt lat="43.70891" lon="7.08966">
        <ele>325.543579</ele>
        <time>2010-08-13T16:34:37Z</time>
      </trkpt>
      <trkpt lat="43.70891" lon="7.08967">
        <ele>325.543579</ele>
        <time>2010-08-13T16:34:38Z</time>
      </trkpt>
      <trkpt lat="43.7089" lon="7.08967">
        <ele>325.543579</ele>
        <time>2010-08-13T16:34:39Z</time>
      </trkpt>
      <trkpt lat="43.70889" lon="7.08968">
        <ele>326.504883</ele>
        <time>2010-08-13T16:34:40Z</time>
      </trkpt>
      <trkpt lat="43.70888" lon="7.08968">
        <ele>327.946777</ele>
        <time>2010-08-13T16:34:41Z</time>
      </trkpt>
      <trkpt lat="43.70887" lon="7.08969">
        <ele>328.427612</ele>
        <time>2010-08-13T16:34:42Z</time>
      </trkpt>
      <trkpt lat="43.70887" lon="7.0897">
        <ele>329.388916</ele>
        <time>2010-08-13T16:34:43Z</time>
      </trkpt>
      <trkpt lat="43.70887" lon="7.08971">
        <ele>330.35022</ele>
        <time>2010-08-13T16:34:44Z</time>
      </trkpt>
      <trkpt lat="43.70887" lon="7.08971">
        <ele>330.830933</ele>
        <time>2010-08-13T16:34:45Z</time>
      </trkpt>
      <trkpt lat="43.70887" lon="7.08971">
        <ele>331.311523</ele>
        <time>2010-08-13T16:34:46Z</time>
      </trkpt>
      <trkpt lat="43.70887" lon="7.08972">
        <ele>330.830933</ele>
        <time>2010-08-13T16:34:47Z</time>
      </trkpt>
      <trkpt lat="43.70887" lon="7.08972">
        <ele>331.792114</ele>
        <time>2010-08-13T16:34:48Z</time>
      </trkpt>
      <trkpt lat="43.70887" lon="7.08973">
        <ele>332.75354</ele>
        <time>2010-08-13T16:34:49Z</time>
      </trkpt>
      <trkpt lat="43.70887" lon="7.08973">
        <ele>333.234131</ele>
        <time>2010-08-13T16:34:50Z</time>
      </trkpt>
      <trkpt lat="43.70887" lon="7.08973">
        <ele>333.714722</ele>
        <time>2010-08-13T16:34:51Z</time>
      </trkpt>
      <trkpt lat="43.70887" lon="7.08973">
        <ele>333.234131</ele>
        <time>2010-08-13T16:34:52Z</time>
      </trkpt>
      <trkpt lat="43.70887" lon="7.08973">
        <ele>333.234131</ele>
        <time>2010-08-13T16:34:53Z</time>
      </trkpt>
      <trkpt lat="43.70888" lon="7.08973">
        <ele>332.75354</ele>
        <time>2010-08-13T16:34:54Z</time>
      </trkpt>
      <trkpt lat="43.70888" lon="7.08972">
        <ele>332.272827</ele>
        <time>2010-08-13T16:34:55Z</time>
      </trkpt>
      <trkpt lat="43.70889" lon="7.08971">
        <ele>331.792114</ele>
        <time>2010-08-13T16:34:56Z</time>
      </trkpt>
      <trkpt lat="43.7089" lon="7.08969">
        <ele>332.272827</ele>
        <time>2010-08-13T16:34:57Z</time>
      </trkpt>
      <trkpt lat="43.70891" lon="7.08969">
        <ele>332.272827</ele>
        <time>2010-08-13T16:34:58Z</time>
      </trkpt>
      <trkpt lat="43.70892" lon="7.08969">
        <ele>331.792114</ele>
        <time>2010-08-13T16:34:59Z</time>
      </trkpt>
      <trkpt lat="43.70893" lon="7.08969">
        <ele>332.75354</ele>
        <time>2010-08-13T16:35:00Z</time>
      </trkpt>
      <trkpt lat="43.70894" lon="7.08971">
        <ele>333.714722</ele>
        <time>2010-08-13T16:35:01Z</time>
      </trkpt>
      <trkpt lat="43.70894" lon="7.08972">
        <ele>334.195435</ele>
        <time>2010-08-13T16:35:02Z</time>
      </trkpt>
      <trkpt lat="43.70894" lon="7.08972">
        <ele>334.195435</ele>
        <time>2010-08-13T16:35:03Z</time>
      </trkpt>
      <trkpt lat="43.70895" lon="7.08973">
        <ele>335.156738</ele>
        <time>2010-08-13T16:35:04Z</time>
      </trkpt>
      <trkpt lat="43.70895" lon="7.08973">
        <ele>336.598877</ele>
        <time>2010-08-13T16:35:05Z</time>
      </trkpt>
      <trkpt lat="43.70896" lon="7.08974">
        <ele>338.040771</ele>
        <time>2010-08-13T16:35:06Z</time>
      </trkpt>
      <trkpt lat="43.70896" lon="7.08975">
        <ele>339.002075</ele>
        <time>2010-08-13T16:35:07Z</time>
      </trkpt>
      <trkpt lat="43.70897" lon="7.08975">
        <ele>339.482666</ele>
        <time>2010-08-13T16:35:08Z</time>
      </trkpt>
      <trkpt lat="43.70897" lon="7.08976">
        <ele>339.482666</ele>
        <time>2010-08-13T16:35:09Z</time>
      </trkpt>
      <trkpt lat="43.70898" lon="7.08978">
        <ele>340.444092</ele>
        <time>2010-08-13T16:35:10Z</time>
      </trkpt>
      <trkpt lat="43.70899" lon="7.0898">
        <ele>341.405273</ele>
        <time>2010-08-13T16:35:11Z</time>
      </trkpt>
      <trkpt lat="43.70899" lon="7.08982">
        <ele>341.885986</ele>
        <time>2010-08-13T16:35:12Z</time>
      </trkpt>
      <trkpt lat="43.70899" lon="7.08984">
        <ele>342.84729</ele>
        <time>2010-08-13T16:35:13Z</time>
      </trkpt>
      <trkpt lat="43.709" lon="7.08985">
        <ele>343.808594</ele>
        <time>2010-08-13T16:35:14Z</time>
      </trkpt>
      <trkpt lat="43.709" lon="7.08986">
        <ele>344.289429</ele>
        <time>2010-08-13T16:35:15Z</time>
      </trkpt>
      <trkpt lat="43.70901" lon="7.08988">
        <ele>344.289429</ele>
        <time>2010-08-13T16:35:16Z</time>
      </trkpt>
      <trkpt lat="43.70902" lon="7.0899">
        <ele>343.808594</ele>
        <time>2010-08-13T16:35:17Z</time>
      </trkpt>
      <trkpt lat="43.70902" lon="7.08993">
        <ele>343.808594</ele>
        <time>2010-08-13T16:35:18Z</time>
      </trkpt>
      <trkpt lat="43.70902" lon="7.08995">
        <ele>344.289429</ele>
        <time>2010-08-13T16:35:19Z</time>
      </trkpt>
      <trkpt lat="43.70902" lon="7.08998">
        <ele>344.289429</ele>
        <time>2010-08-13T16:35:20Z</time>
      </trkpt>
      <trkpt lat="43.70903" lon="7.08999">
        <ele>343.808594</ele>
        <time>2010-08-13T16:35:21Z</time>
      </trkpt>
      <trkpt lat="43.70904" lon="7.09">
        <ele>342.84729</ele>
        <time>2010-08-13T16:35:22Z</time>
      </trkpt>
      <trkpt lat="43.70906" lon="7.09001">
        <ele>342.84729</ele>
        <time>2010-08-13T16:35:23Z</time>
      </trkpt>
      <trkpt lat="43.70907" lon="7.09">
        <ele>342.366699</ele>
        <time>2010-08-13T16:35:24Z</time>
      </trkpt>
      <trkpt lat="43.70909" lon="7.08999">
        <ele>341.405273</ele>
        <time>2010-08-13T16:35:25Z</time>
      </trkpt>
      <trkpt lat="43.70912" lon="7.08997">
        <ele>341.405273</ele>
        <time>2010-08-13T16:35:26Z</time>
      </trkpt>
      <trkpt lat="43.70914" lon="7.08995">
        <ele>341.405273</ele>
        <time>2010-08-13T16:35:27Z</time>
      </trkpt>
      <trkpt lat="43.70916" lon="7.08995">
        <ele>341.405273</ele>
        <time>2010-08-13T16:35:28Z</time>
      </trkpt>
      <trkpt lat="43.70917" lon="7.08994">
        <ele>341.405273</ele>
        <time>2010-08-13T16:35:29Z</time>
      </trkpt>
      <trkpt lat="43.70919" lon="7.08993">
        <ele>340.924683</ele>
        <time>2010-08-13T16:35:30Z</time>
      </trkpt>
      <trkpt lat="43.70921" lon="7.08994">
        <ele>340.924683</ele>
        <time>2010-08-13T16:35:31Z</time>
      </trkpt>
      <trkpt lat="43.70922" lon="7.08996">
        <ele>341.405273</ele>
        <time>2010-08-13T16:35:32Z</time>
      </trkpt>
      <trkpt lat="43.70924" lon="7.08997">
        <ele>340.924683</ele>
        <time>2010-08-13T16:35:33Z</time>
      </trkpt>
      <trkpt lat="43.70926" lon="7.08998">
        <ele>341.405273</ele>
        <time>2010-08-13T16:35:34Z</time>
      </trkpt>
      <trkpt lat="43.70927" lon="7.08998">
        <ele>341.405273</ele>
        <time>2010-08-13T16:35:35Z</time>
      </trkpt>
      <trkpt lat="43.70929" lon="7.08999">
        <ele>341.885986</ele>
        <time>2010-08-13T16:35:36Z</time>
      </trkpt>
      <trkpt lat="43.70932" lon="7.08999">
        <ele>341.405273</ele>
        <time>2010-08-13T16:35:37Z</time>
      </trkpt>
      <trkpt lat="43.70934" lon="7.08999">
        <ele>341.405273</ele>
        <time>2010-08-13T16:35:38Z</time>
      </trkpt>
      <trkpt lat="43.70935" lon="7.09">
        <ele>340.924683</ele>
        <time>2010-08-13T16:35:39Z</time>
      </trkpt>
      <trkpt lat="43.70937" lon="7.08999">
        <ele>340.924683</ele>
        <time>2010-08-13T16:35:40Z</time>
      </trkpt>
      <trkpt lat="43.70939" lon="7.08999">
        <ele>339.963379</ele>
        <time>2010-08-13T16:35:41Z</time>
      </trkpt>
      <trkpt lat="43.70941" lon="7.08998">
        <ele>339.482666</ele>
        <time>2010-08-13T16:35:42Z</time>
      </trkpt>
      <trkpt lat="43.70943" lon="7.08997">
        <ele>339.482666</ele>
        <time>2010-08-13T16:35:43Z</time>
      </trkpt>
      <trkpt lat="43.70945" lon="7.08995">
        <ele>339.482666</ele>
        <time>2010-08-13T16:35:44Z</time>
      </trkpt>
      <trkpt lat="43.70947" lon="7.08993">
        <ele>339.002075</ele>
        <time>2010-08-13T16:35:45Z</time>
      </trkpt>
      <trkpt lat="43.70949" lon="7.08992">
        <ele>339.002075</ele>
        <time>2010-08-13T16:35:46Z</time>
      </trkpt>
      <trkpt lat="43.70951" lon="7.08991">
        <ele>339.002075</ele>
        <time>2010-08-13T16:35:47Z</time>
      </trkpt>
      <trkpt lat="43.70953" lon="7.0899">
        <ele>339.002075</ele>
        <time>2010-08-13T16:35:48Z</time>
      </trkpt>
      <trkpt lat="43.70955" lon="7.0899">
        <ele>338.521484</ele>
        <time>2010-08-13T16:35:49Z</time>
      </trkpt>
      <trkpt lat="43.70958" lon="7.08991">
        <ele>338.040771</ele>
        <time>2010-08-13T16:35:50Z</time>
      </trkpt>
      <trkpt lat="43.7096" lon="7.08991">
        <ele>338.040771</ele>
        <time>2010-08-13T16:35:51Z</time>
      </trkpt>
      <trkpt lat="43.70962" lon="7.08991">
        <ele>337.560059</ele>
        <time>2010-08-13T16:35:52Z</time>
      </trkpt>
      <trkpt lat="43.70964" lon="7.0899">
        <ele>338.040771</ele>
        <time>2010-08-13T16:35:53Z</time>
      </trkpt>
      <trkpt lat="43.70966" lon="7.08989">
        <ele>337.560059</ele>
        <time>2010-08-13T16:35:54Z</time>
      </trkpt>
      <trkpt lat="43.70969" lon="7.08988">
        <ele>338.040771</ele>
        <time>2010-08-13T16:35:55Z</time>
      </trkpt>
      <trkpt lat="43.70971" lon="7.08988">
        <ele>337.560059</ele>
        <time>2010-08-13T16:35:56Z</time>
      </trkpt>
      <trkpt lat="43.70973" lon="7.08988">
        <ele>338.040771</ele>
        <time>2010-08-13T16:35:57Z</time>
      </trkpt>
      <trkpt lat="43.70976" lon="7.08989">
        <ele>338.040771</ele>
        <time>2010-08-13T16:35:58Z</time>
      </trkpt>
      <trkpt lat="43.70978" lon="7.08989">
        <ele>337.560059</ele>
        <time>2010-08-13T16:35:59Z</time>
      </trkpt>
      <trkpt lat="43.7098" lon="7.0899">
        <ele>337.560059</ele>
        <time>2010-08-13T16:36:00Z</time>
      </trkpt>
      <trkpt lat="43.70982" lon="7.0899">
        <ele>338.040771</ele>
        <time>2010-08-13T16:36:01Z</time>
      </trkpt>
      <trkpt lat="43.70984" lon="7.0899">
        <ele>337.560059</ele>
        <time>2010-08-13T16:36:02Z</time>
      </trkpt>
      <trkpt lat="43.70987" lon="7.08991">
        <ele>337.560059</ele>
        <time>2010-08-13T16:36:03Z</time>
      </trkpt>
      <trkpt lat="43.70989" lon="7.08991">
        <ele>338.040771</ele>
        <time>2010-08-13T16:36:04Z</time>
      </trkpt>
      <trkpt lat="43.70991" lon="7.08992">
        <ele>337.079468</ele>
        <time>2010-08-13T16:36:05Z</time>
      </trkpt>
      <trkpt lat="43.70993" lon="7.08992">
        <ele>337.560059</ele>
        <time>2010-08-13T16:36:06Z</time>
      </trkpt>
      <trkpt lat="43.70995" lon="7.08992">
        <ele>337.560059</ele>
        <time>2010-08-13T16:36:07Z</time>
      </trkpt>
      <trkpt lat="43.70997" lon="7.08991">
        <ele>338.040771</ele>
        <time>2010-08-13T16:36:08Z</time>
      </trkpt>
      <trkpt lat="43.70999" lon="7.0899">
        <ele>337.560059</ele>
        <time>2010-08-13T16:36:09Z</time>
      </trkpt>
      <trkpt lat="43.71001" lon="7.08989">
        <ele>337.079468</ele>
        <time>2010-08-13T16:36:10Z</time>
      </trkpt>
      <trkpt lat="43.71002" lon="7.08987">
        <ele>337.079468</ele>
        <time>2010-08-13T16:36:11Z</time>
      </trkpt>
      <trkpt lat="43.71003" lon="7.08985">
        <ele>337.079468</ele>
        <time>2010-08-13T16:36:12Z</time>
      </trkpt>
      <trkpt lat="43.71005" lon="7.08983">
        <ele>336.598877</ele>
        <time>2010-08-13T16:36:13Z</time>
      </trkpt>
      <trkpt lat="43.71007" lon="7.0898">
        <ele>336.598877</ele>
        <time>2010-08-13T16:36:14Z</time>
      </trkpt>
      <trkpt lat="43.71009" lon="7.08978">
        <ele>336.598877</ele>
        <time>2010-08-13T16:36:15Z</time>
      </trkpt>
      <trkpt lat="43.71011" lon="7.08975">
        <ele>336.598877</ele>
        <time>2010-08-13T16:36:16Z</time>
      </trkpt>
      <trkpt lat="43.71013" lon="7.08971">
        <ele>336.118164</ele>
        <time>2010-08-13T16:36:17Z</time>
      </trkpt>
      <trkpt lat="43.71014" lon="7.08968">
        <ele>336.598877</ele>
        <time>2010-08-13T16:36:18Z</time>
      </trkpt>
      <trkpt lat="43.71014" lon="7.08966">
        <ele>337.079468</ele>
        <time>2010-08-13T16:36:19Z</time>
      </trkpt>
      <trkpt lat="43.71015" lon="7.08963">
        <ele>336.598877</ele>
        <time>2010-08-13T16:36:20Z</time>
      </trkpt>
      <trkpt lat="43.71016" lon="7.08961">
        <ele>336.118164</ele>
        <time>2010-08-13T16:36:21Z</time>
      </trkpt>
      <trkpt lat="43.71018" lon="7.08958">
        <ele>335.156738</ele>
        <time>2010-08-13T16:36:22Z</time>
      </trkpt>
      <trkpt lat="43.71019" lon="7.08955">
        <ele>334.195435</ele>
        <time>2010-08-13T16:36:23Z</time>
      </trkpt>
      <trkpt lat="43.71021" lon="7.08953">
        <ele>333.714722</ele>
        <time>2010-08-13T16:36:24Z</time>
      </trkpt>
      <trkpt lat="43.71023" lon="7.08951">
        <ele>333.234131</ele>
        <time>2010-08-13T16:36:25Z</time>
      </trkpt>
      <trkpt lat="43.71024" lon="7.08951">
        <ele>333.714722</ele>
        <time>2010-08-13T16:36:26Z</time>
      </trkpt>
      <trkpt lat="43.71026" lon="7.08951">
        <ele>333.234131</ele>
        <time>2010-08-13T16:36:27Z</time>
      </trkpt>
      <trkpt lat="43.71028" lon="7.08951">
        <ele>332.272827</ele>
        <time>2010-08-13T16:36:28Z</time>
      </trkpt>
      <trkpt lat="43.7103" lon="7.08953">
        <ele>332.272827</ele>
        <time>2010-08-13T16:36:29Z</time>
      </trkpt>
      <trkpt lat="43.71032" lon="7.08955">
        <ele>331.311523</ele>
        <time>2010-08-13T16:36:30Z</time>
      </trkpt>
      <trkpt lat="43.71034" lon="7.08956">
        <ele>330.35022</ele>
        <time>2010-08-13T16:36:31Z</time>
      </trkpt>
      <trkpt lat="43.71037" lon="7.08956">
        <ele>329.869507</ele>
        <time>2010-08-13T16:36:32Z</time>
      </trkpt>
      <trkpt lat="43.71039" lon="7.08955">
        <ele>329.388916</ele>
        <time>2010-08-13T16:36:33Z</time>
      </trkpt>
      <trkpt lat="43.71041" lon="7.08954">
        <ele>329.388916</ele>
        <time>2010-08-13T16:36:34Z</time>
      </trkpt>
      <trkpt lat="43.71043" lon="7.08954">
        <ele>328.908325</ele>
        <time>2010-08-13T16:36:35Z</time>
      </trkpt>
      <trkpt lat="43.71045" lon="7.08953">
        <ele>328.908325</ele>
        <time>2010-08-13T16:36:36Z</time>
      </trkpt>
      <trkpt lat="43.71047" lon="7.08952">
        <ele>327.946777</ele>
        <time>2010-08-13T16:36:37Z</time>
      </trkpt>
      <trkpt lat="43.7105" lon="7.08951">
        <ele>327.946777</ele>
        <time>2010-08-13T16:36:38Z</time>
      </trkpt>
      <trkpt lat="43.71052" lon="7.0895">
        <ele>326.985596</ele>
        <time>2010-08-13T16:36:39Z</time>
      </trkpt>
      <trkpt lat="43.71054" lon="7.08949">
        <ele>326.985596</ele>
        <time>2010-08-13T16:36:40Z</time>
      </trkpt>
      <trkpt lat="43.71056" lon="7.08948">
        <ele>326.02417</ele>
        <time>2010-08-13T16:36:41Z</time>
      </trkpt>
      <trkpt lat="43.71058" lon="7.08947">
        <ele>327.466187</ele>
        <time>2010-08-13T16:36:42Z</time>
      </trkpt>
      <trkpt lat="43.71061" lon="7.08946">
        <ele>329.388916</ele>
        <time>2010-08-13T16:36:43Z</time>
      </trkpt>
      <trkpt lat="43.71063" lon="7.08944">
        <ele>330.35022</ele>
        <time>2010-08-13T16:36:44Z</time>
      </trkpt>
      <trkpt lat="43.71064" lon="7.08941">
        <ele>329.869507</ele>
        <time>2010-08-13T16:36:45Z</time>
      </trkpt>
      <trkpt lat="43.71066" lon="7.08939">
        <ele>329.869507</ele>
        <time>2010-08-13T16:36:46Z</time>
      </trkpt>
      <trkpt lat="43.71068" lon="7.08937">
        <ele>329.388916</ele>
        <time>2010-08-13T16:36:47Z</time>
      </trkpt>
      <trkpt lat="43.7107" lon="7.08935">
        <ele>328.427612</ele>
        <time>2010-08-13T16:36:48Z</time>
      </trkpt>
      <trkpt lat="43.71072" lon="7.08934">
        <ele>328.427612</ele>
        <time>2010-08-13T16:36:49Z</time>
      </trkpt>
      <trkpt lat="43.71074" lon="7.08933">
        <ele>327.946777</ele>
        <time>2010-08-13T16:36:50Z</time>
      </trkpt>
      <trkpt lat="43.71076" lon="7.08933">
        <ele>327.946777</ele>
        <time>2010-08-13T16:36:51Z</time>
      </trkpt>
      <trkpt lat="43.71078" lon="7.08933">
        <ele>327.946777</ele>
        <time>2010-08-13T16:36:52Z</time>
      </trkpt>
      <trkpt lat="43.7108" lon="7.08933">
        <ele>327.466187</ele>
        <time>2010-08-13T16:36:53Z</time>
      </trkpt>
      <trkpt lat="43.71082" lon="7.08933">
        <ele>327.946777</ele>
        <time>2010-08-13T16:36:54Z</time>
      </trkpt>
      <trkpt lat="43.71083" lon="7.08933">
        <ele>327.466187</ele>
        <time>2010-08-13T16:36:55Z</time>
      </trkpt>
      <trkpt lat="43.71085" lon="7.08933">
        <ele>327.466187</ele>
        <time>2010-08-13T16:36:56Z</time>
      </trkpt>
      <trkpt lat="43.71088" lon="7.08933">
        <ele>326.985596</ele>
        <time>2010-08-13T16:36:57Z</time>
      </trkpt>
      <trkpt lat="43.7109" lon="7.08934">
        <ele>326.985596</ele>
        <time>2010-08-13T16:36:58Z</time>
      </trkpt>
      <trkpt lat="43.71092" lon="7.08935">
        <ele>326.985596</ele>
        <time>2010-08-13T16:36:59Z</time>
      </trkpt>
      <trkpt lat="43.71094" lon="7.08935">
        <ele>326.985596</ele>
        <time>2010-08-13T16:37:00Z</time>
      </trkpt>
      <trkpt lat="43.71096" lon="7.08935">
        <ele>326.504883</ele>
        <time>2010-08-13T16:37:01Z</time>
      </trkpt>
      <trkpt lat="43.71097" lon="7.08935">
        <ele>326.985596</ele>
        <time>2010-08-13T16:37:02Z</time>
      </trkpt>
      <trkpt lat="43.711" lon="7.08935">
        <ele>326.985596</ele>
        <time>2010-08-13T16:37:03Z</time>
      </trkpt>
      <trkpt lat="43.71102" lon="7.08935">
        <ele>326.504883</ele>
        <time>2010-08-13T16:37:04Z</time>
      </trkpt>
      <trkpt lat="43.71104" lon="7.08936">
        <ele>326.504883</ele>
        <time>2010-08-13T16:37:05Z</time>
      </trkpt>
      <trkpt lat="43.71106" lon="7.08936">
        <ele>326.02417</ele>
        <time>2010-08-13T16:37:06Z</time>
      </trkpt>
      <trkpt lat="43.71109" lon="7.08935">
        <ele>326.02417</ele>
        <time>2010-08-13T16:37:07Z</time>
      </trkpt>
      <trkpt lat="43.71111" lon="7.08935">
        <ele>325.543579</ele>
        <time>2010-08-13T16:37:08Z</time>
      </trkpt>
      <trkpt lat="43.71112" lon="7.08935">
        <ele>325.062988</ele>
        <time>2010-08-13T16:37:09Z</time>
      </trkpt>
      <trkpt lat="43.71114" lon="7.08935">
        <ele>325.062988</ele>
        <time>2010-08-13T16:37:10Z</time>
      </trkpt>
      <trkpt lat="43.71116" lon="7.08936">
        <ele>324.101562</ele>
        <time>2010-08-13T16:37:11Z</time>
      </trkpt>
      <trkpt lat="43.71118" lon="7.08936">
        <ele>324.582275</ele>
        <time>2010-08-13T16:37:12Z</time>
      </trkpt>
      <trkpt lat="43.7112" lon="7.08935">
        <ele>324.101562</ele>
        <time>2010-08-13T16:37:13Z</time>
      </trkpt>
      <trkpt lat="43.71122" lon="7.08935">
        <ele>324.101562</ele>
        <time>2010-08-13T16:37:14Z</time>
      </trkpt>
      <trkpt lat="43.71123" lon="7.08934">
        <ele>324.101562</ele>
        <time>2010-08-13T16:37:15Z</time>
      </trkpt>
      <trkpt lat="43.71125" lon="7.08933">
        <ele>324.582275</ele>
        <time>2010-08-13T16:37:16Z</time>
      </trkpt>
      <trkpt lat="43.71127" lon="7.08931">
        <ele>325.543579</ele>
        <time>2010-08-13T16:37:17Z</time>
      </trkpt>
      <trkpt lat="43.71129" lon="7.0893">
        <ele>326.02417</ele>
        <time>2010-08-13T16:37:18Z</time>
      </trkpt>
      <trkpt lat="43.7113" lon="7.08929">
        <ele>326.504883</ele>
        <time>2010-08-13T16:37:19Z</time>
      </trkpt>
      <trkpt lat="43.71132" lon="7.08927">
        <ele>326.504883</ele>
        <time>2010-08-13T16:37:20Z</time>
      </trkpt>
      <trkpt lat="43.71134" lon="7.08926">
        <ele>326.985596</ele>
        <time>2010-08-13T16:37:21Z</time>
      </trkpt>
      <trkpt lat="43.71136" lon="7.08924">
        <ele>326.985596</ele>
        <time>2010-08-13T16:37:22Z</time>
      </trkpt>
      <trkpt lat="43.71137" lon="7.08922">
        <ele>326.985596</ele>
        <time>2010-08-13T16:37:23Z</time>
      </trkpt>
      <trkpt lat="43.71138" lon="7.08922">
        <ele>326.504883</ele>
        <time>2010-08-13T16:37:24Z</time>
      </trkpt>
      <trkpt lat="43.7114" lon="7.08921">
        <ele>325.543579</ele>
        <time>2010-08-13T16:37:25Z</time>
      </trkpt>
      <trkpt lat="43.71142" lon="7.08921">
        <ele>326.02417</ele>
        <time>2010-08-13T16:37:26Z</time>
      </trkpt>
      <trkpt lat="43.71145" lon="7.08921">
        <ele>326.02417</ele>
        <time>2010-08-13T16:37:27Z</time>
      </trkpt>
      <trkpt lat="43.71147" lon="7.08922">
        <ele>325.543579</ele>
        <time>2010-08-13T16:37:28Z</time>
      </trkpt>
      <trkpt lat="43.7115" lon="7.08922">
        <ele>325.543579</ele>
        <time>2010-08-13T16:37:29Z</time>
      </trkpt>
      <trkpt lat="43.71152" lon="7.08922">
        <ele>326.02417</ele>
        <time>2010-08-13T16:37:30Z</time>
      </trkpt>
      <trkpt lat="43.71155" lon="7.08921">
        <ele>326.504883</ele>
        <time>2010-08-13T16:37:31Z</time>
      </trkpt>
      <trkpt lat="43.71157" lon="7.0892">
        <ele>326.985596</ele>
        <time>2010-08-13T16:37:32Z</time>
      </trkpt>
      <trkpt lat="43.7116" lon="7.0892">
        <ele>327.946777</ele>
        <time>2010-08-13T16:37:33Z</time>
      </trkpt>
      <trkpt lat="43.71162" lon="7.08918">
        <ele>329.388916</ele>
        <time>2010-08-13T16:37:34Z</time>
      </trkpt>
      <trkpt lat="43.71164" lon="7.08918">
        <ele>329.869507</ele>
        <time>2010-08-13T16:37:35Z</time>
      </trkpt>
      <trkpt lat="43.71166" lon="7.08917">
        <ele>329.869507</ele>
        <time>2010-08-13T16:37:36Z</time>
      </trkpt>
      <trkpt lat="43.71168" lon="7.08916">
        <ele>329.869507</ele>
        <time>2010-08-13T16:37:37Z</time>
      </trkpt>
      <trkpt lat="43.71171" lon="7.08916">
        <ele>330.35022</ele>
        <time>2010-08-13T16:37:38Z</time>
      </trkpt>
      <trkpt lat="43.71174" lon="7.08917">
        <ele>331.792114</ele>
        <time>2010-08-13T16:37:39Z</time>
      </trkpt>
      <trkpt lat="43.71176" lon="7.08917">
        <ele>332.75354</ele>
        <time>2010-08-13T16:37:40Z</time>
      </trkpt>
      <trkpt lat="43.71178" lon="7.08915">
        <ele>333.714722</ele>
        <time>2010-08-13T16:37:41Z</time>
      </trkpt>
      <trkpt lat="43.7118" lon="7.08914">
        <ele>335.156738</ele>
        <time>2010-08-13T16:37:42Z</time>
      </trkpt>
      <trkpt lat="43.71182" lon="7.08912">
        <ele>336.118164</ele>
        <time>2010-08-13T16:37:43Z</time>
      </trkpt>
      <trkpt lat="43.71184" lon="7.0891">
        <ele>336.118164</ele>
        <time>2010-08-13T16:37:44Z</time>
      </trkpt>
      <trkpt lat="43.71185" lon="7.08908">
        <ele>336.118164</ele>
        <time>2010-08-13T16:37:45Z</time>
      </trkpt>
      <trkpt lat="43.71187" lon="7.08906">
        <ele>336.118164</ele>
        <time>2010-08-13T16:37:46Z</time>
      </trkpt>
      <trkpt lat="43.7119" lon="7.08905">
        <ele>336.118164</ele>
        <time>2010-08-13T16:37:47Z</time>
      </trkpt>
      <trkpt lat="43.71191" lon="7.08904">
        <ele>336.118164</ele>
        <time>2010-08-13T16:37:48Z</time>
      </trkpt>
      <trkpt lat="43.71194" lon="7.08903">
        <ele>336.118164</ele>
        <time>2010-08-13T16:37:49Z</time>
      </trkpt>
      <trkpt lat="43.71196" lon="7.08903">
        <ele>335.156738</ele>
        <time>2010-08-13T16:37:50Z</time>
      </trkpt>
      <trkpt lat="43.71198" lon="7.08903">
        <ele>335.156738</ele>
        <time>2010-08-13T16:37:51Z</time>
      </trkpt>
      <trkpt lat="43.712" lon="7.08904">
        <ele>334.676147</ele>
        <time>2010-08-13T16:37:52Z</time>
      </trkpt>
      <trkpt lat="43.71203" lon="7.08904">
        <ele>334.195435</ele>
        <time>2010-08-13T16:37:53Z</time>
      </trkpt>
      <trkpt lat="43.71205" lon="7.08904">
        <ele>333.714722</ele>
        <time>2010-08-13T16:37:54Z</time>
      </trkpt>
      <trkpt lat="43.71206" lon="7.08903">
        <ele>334.195435</ele>
        <time>2010-08-13T16:37:55Z</time>
      </trkpt>
      <trkpt lat="43.71208" lon="7.08902">
        <ele>334.676147</ele>
        <time>2010-08-13T16:37:56Z</time>
      </trkpt>
      <trkpt lat="43.71211" lon="7.08902">
        <ele>335.156738</ele>
        <time>2010-08-13T16:37:57Z</time>
      </trkpt>
      <trkpt lat="43.71213" lon="7.08901">
        <ele>335.637329</ele>
        <time>2010-08-13T16:37:58Z</time>
      </trkpt>
      <trkpt lat="43.71215" lon="7.089">
        <ele>336.598877</ele>
        <time>2010-08-13T16:37:59Z</time>
      </trkpt>
      <trkpt lat="43.71217" lon="7.089">
        <ele>337.079468</ele>
        <time>2010-08-13T16:38:00Z</time>
      </trkpt>
      <trkpt lat="43.71219" lon="7.08899">
        <ele>336.598877</ele>
        <time>2010-08-13T16:38:01Z</time>
      </trkpt>
      <trkpt lat="43.71222" lon="7.08899">
        <ele>335.637329</ele>
        <time>2010-08-13T16:38:02Z</time>
      </trkpt>
      <trkpt lat="43.71223" lon="7.08898">
        <ele>335.156738</ele>
        <time>2010-08-13T16:38:03Z</time>
      </trkpt>
      <trkpt lat="43.71225" lon="7.08897">
        <ele>335.637329</ele>
        <time>2010-08-13T16:38:04Z</time>
      </trkpt>
      <trkpt lat="43.71227" lon="7.08895">
        <ele>337.560059</ele>
        <time>2010-08-13T16:38:05Z</time>
      </trkpt>
      <trkpt lat="43.71229" lon="7.08894">
        <ele>337.560059</ele>
        <time>2010-08-13T16:38:06Z</time>
      </trkpt>
      <trkpt lat="43.7123" lon="7.08892">
        <ele>337.079468</ele>
        <time>2010-08-13T16:38:07Z</time>
      </trkpt>
      <trkpt lat="43.71232" lon="7.0889">
        <ele>336.598877</ele>
        <time>2010-08-13T16:38:08Z</time>
      </trkpt>
      <trkpt lat="43.71233" lon="7.08888">
        <ele>337.079468</ele>
        <time>2010-08-13T16:38:09Z</time>
      </trkpt>
      <trkpt lat="43.71235" lon="7.08885">
        <ele>337.079468</ele>
        <time>2010-08-13T16:38:10Z</time>
      </trkpt>
      <trkpt lat="43.71236" lon="7.08883">
        <ele>336.598877</ele>
        <time>2010-08-13T16:38:11Z</time>
      </trkpt>
      <trkpt lat="43.71237" lon="7.0888">
        <ele>336.598877</ele>
        <time>2010-08-13T16:38:12Z</time>
      </trkpt>
      <trkpt lat="43.71238" lon="7.08878">
        <ele>336.598877</ele>
        <time>2010-08-13T16:38:13Z</time>
      </trkpt>
      <trkpt lat="43.71239" lon="7.08875">
        <ele>336.118164</ele>
        <time>2010-08-13T16:38:14Z</time>
      </trkpt>
      <trkpt lat="43.7124" lon="7.08873">
        <ele>336.118164</ele>
        <time>2010-08-13T16:38:15Z</time>
      </trkpt>
      <trkpt lat="43.71241" lon="7.08871">
        <ele>335.637329</ele>
        <time>2010-08-13T16:38:16Z</time>
      </trkpt>
      <trkpt lat="43.71243" lon="7.08868">
        <ele>336.118164</ele>
        <time>2010-08-13T16:38:17Z</time>
      </trkpt>
      <trkpt lat="43.71244" lon="7.08865">
        <ele>336.598877</ele>
        <time>2010-08-13T16:38:18Z</time>
      </trkpt>
      <trkpt lat="43.71245" lon="7.08861">
        <ele>336.118164</ele>
        <time>2010-08-13T16:38:19Z</time>
      </trkpt>
      <trkpt lat="43.71246" lon="7.08858">
        <ele>336.118164</ele>
        <time>2010-08-13T16:38:20Z</time>
      </trkpt>
      <trkpt lat="43.71248" lon="7.08857">
        <ele>335.637329</ele>
        <time>2010-08-13T16:38:21Z</time>
      </trkpt>
      <trkpt lat="43.71248" lon="7.08857">
        <ele>336.118164</ele>
        <time>2010-08-13T16:38:22Z</time>
      </trkpt>
      <trkpt lat="43.71248" lon="7.08857">
        <ele>335.637329</ele>
        <time>2010-08-13T16:38:23Z</time>
      </trkpt>
      <trkpt lat="43.71248" lon="7.08857">
        <ele>335.637329</ele>
        <time>2010-08-13T16:38:24Z</time>
      </trkpt>
      <trkpt lat="43.71248" lon="7.08859">
        <ele>335.637329</ele>
        <time>2010-08-13T16:38:25Z</time>
      </trkpt>
      <trkpt lat="43.71248" lon="7.08861">
        <ele>335.156738</ele>
        <time>2010-08-13T16:38:26Z</time>
      </trkpt>
      <trkpt lat="43.71249" lon="7.08862">
        <ele>335.156738</ele>
        <time>2010-08-13T16:38:27Z</time>
      </trkpt>
      <trkpt lat="43.7125" lon="7.08863">
        <ele>334.195435</ele>
        <time>2010-08-13T16:38:28Z</time>
      </trkpt>
      <trkpt lat="43.71251" lon="7.08865">
        <ele>333.714722</ele>
        <time>2010-08-13T16:38:29Z</time>
      </trkpt>
      <trkpt lat="43.71253" lon="7.08868">
        <ele>334.195435</ele>
        <time>2010-08-13T16:38:30Z</time>
      </trkpt>
      <trkpt lat="43.71255" lon="7.08871">
        <ele>334.676147</ele>
        <time>2010-08-13T16:38:31Z</time>
      </trkpt>
      <trkpt lat="43.71257" lon="7.08874">
        <ele>334.676147</ele>
        <time>2010-08-13T16:38:32Z</time>
      </trkpt>
      <trkpt lat="43.71258" lon="7.08875">
        <ele>335.156738</ele>
        <time>2010-08-13T16:38:33Z</time>
      </trkpt>
      <trkpt lat="43.7126" lon="7.08877">
        <ele>334.676147</ele>
        <time>2010-08-13T16:38:34Z</time>
      </trkpt>
      <trkpt lat="43.71262" lon="7.0888">
        <ele>333.714722</ele>
        <time>2010-08-13T16:38:35Z</time>
      </trkpt>
      <trkpt lat="43.71265" lon="7.08881">
        <ele>333.234131</ele>
        <time>2010-08-13T16:38:36Z</time>
      </trkpt>
      <trkpt lat="43.71267" lon="7.08881">
        <ele>332.272827</ele>
        <time>2010-08-13T16:38:37Z</time>
      </trkpt>
      <trkpt lat="43.7127" lon="7.08881">
        <ele>331.792114</ele>
        <time>2010-08-13T16:38:38Z</time>
      </trkpt>
      <trkpt lat="43.71272" lon="7.0888">
        <ele>331.311523</ele>
        <time>2010-08-13T16:38:39Z</time>
      </trkpt>
      <trkpt lat="43.71274" lon="7.08879">
        <ele>331.792114</ele>
        <time>2010-08-13T16:38:40Z</time>
      </trkpt>
      <trkpt lat="43.71276" lon="7.08878">
        <ele>332.272827</ele>
        <time>2010-08-13T16:38:41Z</time>
      </trkpt>
      <trkpt lat="43.71279" lon="7.08878">
        <ele>332.272827</ele>
        <time>2010-08-13T16:38:42Z</time>
      </trkpt>
      <trkpt lat="43.71281" lon="7.08878">
        <ele>332.272827</ele>
        <time>2010-08-13T16:38:43Z</time>
      </trkpt>
      <trkpt lat="43.71283" lon="7.08878">
        <ele>332.75354</ele>
        <time>2010-08-13T16:38:44Z</time>
      </trkpt>
      <trkpt lat="43.71285" lon="7.08878">
        <ele>332.75354</ele>
        <time>2010-08-13T16:38:45Z</time>
      </trkpt>
      <trkpt lat="43.71287" lon="7.08879">
        <ele>332.272827</ele>
        <time>2010-08-13T16:38:46Z</time>
      </trkpt>
      <trkpt lat="43.7129" lon="7.08879">
        <ele>331.792114</ele>
        <time>2010-08-13T16:38:47Z</time>
      </trkpt>
      <trkpt lat="43.71292" lon="7.08881">
        <ele>331.792114</ele>
        <time>2010-08-13T16:38:48Z</time>
      </trkpt>
      <trkpt lat="43.71294" lon="7.08882">
        <ele>331.311523</ele>
        <time>2010-08-13T16:38:49Z</time>
      </trkpt>
      <trkpt lat="43.71297" lon="7.08883">
        <ele>329.869507</ele>
        <time>2010-08-13T16:38:50Z</time>
      </trkpt>
      <trkpt lat="43.71299" lon="7.08885">
        <ele>329.869507</ele>
        <time>2010-08-13T16:38:51Z</time>
      </trkpt>
      <trkpt lat="43.71302" lon="7.08887">
        <ele>329.388916</ele>
        <time>2010-08-13T16:38:52Z</time>
      </trkpt>
      <trkpt lat="43.71304" lon="7.08888">
        <ele>328.908325</ele>
        <time>2010-08-13T16:38:53Z</time>
      </trkpt>
      <trkpt lat="43.71306" lon="7.08889">
        <ele>327.946777</ele>
        <time>2010-08-13T16:38:54Z</time>
      </trkpt>
      <trkpt lat="43.71308" lon="7.0889">
        <ele>327.466187</ele>
        <time>2010-08-13T16:38:55Z</time>
      </trkpt>
      <trkpt lat="43.7131" lon="7.08891">
        <ele>326.985596</ele>
        <time>2010-08-13T16:38:56Z</time>
      </trkpt>
      <trkpt lat="43.71313" lon="7.08892">
        <ele>326.504883</ele>
        <time>2010-08-13T16:38:57Z</time>
      </trkpt>
      <trkpt lat="43.71315" lon="7.08893">
        <ele>326.02417</ele>
        <time>2010-08-13T16:38:58Z</time>
      </trkpt>
      <trkpt lat="43.71317" lon="7.08895">
        <ele>325.543579</ele>
        <time>2010-08-13T16:38:59Z</time>
      </trkpt>
      <trkpt lat="43.71319" lon="7.08896">
        <ele>325.062988</ele>
        <time>2010-08-13T16:39:00Z</time>
      </trkpt>
      <trkpt lat="43.71321" lon="7.08898">
        <ele>324.582275</ele>
        <time>2010-08-13T16:39:01Z</time>
      </trkpt>
      <trkpt lat="43.71321" lon="7.08901">
        <ele>325.543579</ele>
        <time>2010-08-13T16:39:02Z</time>
      </trkpt>
      <trkpt lat="43.71322" lon="7.08902">
        <ele>325.543579</ele>
        <time>2010-08-13T16:39:03Z</time>
      </trkpt>
      <trkpt lat="43.71323" lon="7.08904">
        <ele>326.02417</ele>
        <time>2010-08-13T16:39:04Z</time>
      </trkpt>
      <trkpt lat="43.71325" lon="7.08906">
        <ele>326.02417</ele>
        <time>2010-08-13T16:39:05Z</time>
      </trkpt>
      <trkpt lat="43.71327" lon="7.08907">
        <ele>325.543579</ele>
        <time>2010-08-13T16:39:06Z</time>
      </trkpt>
      <trkpt lat="43.71329" lon="7.08908">
        <ele>325.543579</ele>
        <time>2010-08-13T16:39:07Z</time>
      </trkpt>
      <trkpt lat="43.71331" lon="7.08909">
        <ele>325.062988</ele>
        <time>2010-08-13T16:39:08Z</time>
      </trkpt>
      <trkpt lat="43.71332" lon="7.08911">
        <ele>325.062988</ele>
        <time>2010-08-13T16:39:09Z</time>
      </trkpt>
      <trkpt lat="43.71334" lon="7.08912">
        <ele>325.062988</ele>
        <time>2010-08-13T16:39:10Z</time>
      </trkpt>
      <trkpt lat="43.71335" lon="7.08914">
        <ele>325.062988</ele>
        <time>2010-08-13T16:39:11Z</time>
      </trkpt>
      <trkpt lat="43.71337" lon="7.08916">
        <ele>325.062988</ele>
        <time>2010-08-13T16:39:12Z</time>
      </trkpt>
      <trkpt lat="43.71338" lon="7.08919">
        <ele>325.062988</ele>
        <time>2010-08-13T16:39:13Z</time>
      </trkpt>
      <trkpt lat="43.71339" lon="7.08922">
        <ele>325.062988</ele>
        <time>2010-08-13T16:39:14Z</time>
      </trkpt>
      <trkpt lat="43.71339" lon="7.08925">
        <ele>325.062988</ele>
        <time>2010-08-13T16:39:15Z</time>
      </trkpt>
      <trkpt lat="43.7134" lon="7.08928">
        <ele>325.543579</ele>
        <time>2010-08-13T16:39:16Z</time>
      </trkpt>
      <trkpt lat="43.71341" lon="7.08931">
        <ele>326.504883</ele>
        <time>2010-08-13T16:39:17Z</time>
      </trkpt>
      <trkpt lat="43.71341" lon="7.08934">
        <ele>326.504883</ele>
        <time>2010-08-13T16:39:18Z</time>
      </trkpt>
      <trkpt lat="43.71341" lon="7.08937">
        <ele>326.985596</ele>
        <time>2010-08-13T16:39:19Z</time>
      </trkpt>
      <trkpt lat="43.71341" lon="7.0894">
        <ele>327.466187</ele>
        <time>2010-08-13T16:39:20Z</time>
      </trkpt>
      <trkpt lat="43.71341" lon="7.08942">
        <ele>327.946777</ele>
        <time>2010-08-13T16:39:21Z</time>
      </trkpt>
      <trkpt lat="43.7134" lon="7.08943">
        <ele>327.946777</ele>
        <time>2010-08-13T16:39:22Z</time>
      </trkpt>
      <trkpt lat="43.7134" lon="7.08943">
        <ele>328.427612</ele>
        <time>2010-08-13T16:39:23Z</time>
      </trkpt>
      <trkpt lat="43.71341" lon="7.08943">
        <ele>328.427612</ele>
        <time>2010-08-13T16:39:24Z</time>
      </trkpt>
      <trkpt lat="43.71342" lon="7.08944">
        <ele>328.427612</ele>
        <time>2010-08-13T16:39:25Z</time>
      </trkpt>
      <trkpt lat="43.71344" lon="7.08945">
        <ele>328.427612</ele>
        <time>2010-08-13T16:39:26Z</time>
      </trkpt>
      <trkpt lat="43.71346" lon="7.08947">
        <ele>328.427612</ele>
        <time>2010-08-13T16:39:27Z</time>
      </trkpt>
      <trkpt lat="43.71348" lon="7.08949">
        <ele>328.427612</ele>
        <time>2010-08-13T16:39:28Z</time>
      </trkpt>
      <trkpt lat="43.71351" lon="7.0895">
        <ele>327.466187</ele>
        <time>2010-08-13T16:39:29Z</time>
      </trkpt>
      <trkpt lat="43.71353" lon="7.08952">
        <ele>326.985596</ele>
        <time>2010-08-13T16:39:30Z</time>
      </trkpt>
      <trkpt lat="43.71356" lon="7.08954">
        <ele>326.985596</ele>
        <time>2010-08-13T16:39:31Z</time>
      </trkpt>
      <trkpt lat="43.71358" lon="7.08956">
        <ele>326.504883</ele>
        <time>2010-08-13T16:39:32Z</time>
      </trkpt>
      <trkpt lat="43.7136" lon="7.08958">
        <ele>326.02417</ele>
        <time>2010-08-13T16:39:33Z</time>
      </trkpt>
      <trkpt lat="43.71362" lon="7.0896">
        <ele>326.02417</ele>
        <time>2010-08-13T16:39:34Z</time>
      </trkpt>
      <trkpt lat="43.71364" lon="7.08962">
        <ele>326.02417</ele>
        <time>2010-08-13T16:39:35Z</time>
      </trkpt>
      <trkpt lat="43.71365" lon="7.08964">
        <ele>325.543579</ele>
        <time>2010-08-13T16:39:36Z</time>
      </trkpt>
      <trkpt lat="43.71367" lon="7.08965">
        <ele>326.02417</ele>
        <time>2010-08-13T16:39:37Z</time>
      </trkpt>
      <trkpt lat="43.71369" lon="7.08966">
        <ele>326.02417</ele>
        <time>2010-08-13T16:39:38Z</time>
      </trkpt>
      <trkpt lat="43.7137" lon="7.08968">
        <ele>326.02417</ele>
        <time>2010-08-13T16:39:39Z</time>
      </trkpt>
      <trkpt lat="43.71371" lon="7.08969">
        <ele>326.02417</ele>
        <time>2010-08-13T16:39:40Z</time>
      </trkpt>
      <trkpt lat="43.71371" lon="7.08969">
        <ele>326.504883</ele>
        <time>2010-08-13T16:39:41Z</time>
      </trkpt>
      <trkpt lat="43.71371" lon="7.08969">
        <ele>326.504883</ele>
        <time>2010-08-13T16:39:42Z</time>
      </trkpt>
      <trkpt lat="43.71371" lon="7.08969">
        <ele>326.985596</ele>
        <time>2010-08-13T16:39:43Z</time>
      </trkpt>
      <trkpt lat="43.71371" lon="7.08968">
        <ele>326.985596</ele>
        <time>2010-08-13T16:39:44Z</time>
      </trkpt>
      <trkpt lat="43.71371" lon="7.08968">
        <ele>327.466187</ele>
        <time>2010-08-13T16:39:45Z</time>
      </trkpt>
      <trkpt lat="43.7137" lon="7.08968">
        <ele>327.466187</ele>
        <time>2010-08-13T16:39:46Z</time>
      </trkpt>
      <trkpt lat="43.71369" lon="7.08967">
        <ele>327.946777</ele>
        <time>2010-08-13T16:39:47Z</time>
      </trkpt>
      <trkpt lat="43.71368" lon="7.08966">
        <ele>327.946777</ele>
        <time>2010-08-13T16:39:48Z</time>
      </trkpt>
      <trkpt lat="43.71366" lon="7.08964">
        <ele>328.427612</ele>
        <time>2010-08-13T16:39:49Z</time>
      </trkpt>
      <trkpt lat="43.71364" lon="7.08962">
        <ele>328.908325</ele>
        <time>2010-08-13T16:39:50Z</time>
      </trkpt>
      <trkpt lat="43.71362" lon="7.0896">
        <ele>328.908325</ele>
        <time>2010-08-13T16:39:51Z</time>
      </trkpt>
      <trkpt lat="43.71361" lon="7.08957">
        <ele>328.908325</ele>
        <time>2010-08-13T16:39:52Z</time>
      </trkpt>
      <trkpt lat="43.71359" lon="7.08955">
        <ele>329.388916</ele>
        <time>2010-08-13T16:39:53Z</time>
      </trkpt>
      <trkpt lat="43.71357" lon="7.08955">
        <ele>328.427612</ele>
        <time>2010-08-13T16:39:54Z</time>
      </trkpt>
      <trkpt lat="43.71356" lon="7.08955">
        <ele>327.946777</ele>
        <time>2010-08-13T16:39:55Z</time>
      </trkpt>
      <trkpt lat="43.71355" lon="7.08957">
        <ele>327.946777</ele>
        <time>2010-08-13T16:39:56Z</time>
      </trkpt>
      <trkpt lat="43.71354" lon="7.0896">
        <ele>328.427612</ele>
        <time>2010-08-13T16:39:57Z</time>
      </trkpt>
      <trkpt lat="43.71353" lon="7.08963">
        <ele>328.427612</ele>
        <time>2010-08-13T16:39:58Z</time>
      </trkpt>
      <trkpt lat="43.71353" lon="7.08966">
        <ele>328.427612</ele>
        <time>2010-08-13T16:39:59Z</time>
      </trkpt>
      <trkpt lat="43.71353" lon="7.08969">
        <ele>328.908325</ele>
        <time>2010-08-13T16:40:00Z</time>
      </trkpt>
      <trkpt lat="43.71352" lon="7.08972">
        <ele>328.908325</ele>
        <time>2010-08-13T16:40:01Z</time>
      </trkpt>
      <trkpt lat="43.71351" lon="7.08976">
        <ele>329.388916</ele>
        <time>2010-08-13T16:40:02Z</time>
      </trkpt>
      <trkpt lat="43.71351" lon="7.08979">
        <ele>329.869507</ele>
        <time>2010-08-13T16:40:03Z</time>
      </trkpt>
      <trkpt lat="43.7135" lon="7.08982">
        <ele>329.869507</ele>
        <time>2010-08-13T16:40:04Z</time>
      </trkpt>
      <trkpt lat="43.7135" lon="7.08986">
        <ele>330.35022</ele>
        <time>2010-08-13T16:40:05Z</time>
      </trkpt>
      <trkpt lat="43.7135" lon="7.08989">
        <ele>330.830933</ele>
        <time>2010-08-13T16:40:06Z</time>
      </trkpt>
      <trkpt lat="43.71349" lon="7.08993">
        <ele>331.311523</ele>
        <time>2010-08-13T16:40:07Z</time>
      </trkpt>
      <trkpt lat="43.71349" lon="7.08997">
        <ele>331.311523</ele>
        <time>2010-08-13T16:40:08Z</time>
      </trkpt>
      <trkpt lat="43.71348" lon="7.09001">
        <ele>331.792114</ele>
        <time>2010-08-13T16:40:09Z</time>
      </trkpt>
      <trkpt lat="43.71348" lon="7.09004">
        <ele>331.792114</ele>
        <time>2010-08-13T16:40:10Z</time>
      </trkpt>
      <trkpt lat="43.71347" lon="7.09008">
        <ele>331.792114</ele>
        <time>2010-08-13T16:40:11Z</time>
      </trkpt>
      <trkpt lat="43.71346" lon="7.09011">
        <ele>331.792114</ele>
        <time>2010-08-13T16:40:12Z</time>
      </trkpt>
      <trkpt lat="43.71345" lon="7.09014">
        <ele>331.792114</ele>
        <time>2010-08-13T16:40:13Z</time>
      </trkpt>
      <trkpt lat="43.71344" lon="7.09016">
        <ele>331.792114</ele>
        <time>2010-08-13T16:40:14Z</time>
      </trkpt>
      <trkpt lat="43.71343" lon="7.09019">
        <ele>331.792114</ele>
        <time>2010-08-13T16:40:15Z</time>
      </trkpt>
      <trkpt lat="43.71342" lon="7.09023">
        <ele>331.792114</ele>
        <time>2010-08-13T16:40:16Z</time>
      </trkpt>
      <trkpt lat="43.71341" lon="7.09026">
        <ele>331.792114</ele>
        <time>2010-08-13T16:40:17Z</time>
      </trkpt>
      <trkpt lat="43.7134" lon="7.09029">
        <ele>331.792114</ele>
        <time>2010-08-13T16:40:18Z</time>
      </trkpt>
      <trkpt lat="43.71339" lon="7.09032">
        <ele>331.311523</ele>
        <time>2010-08-13T16:40:19Z</time>
      </trkpt>
      <trkpt lat="43.71339" lon="7.09034">
        <ele>331.311523</ele>
        <time>2010-08-13T16:40:20Z</time>
      </trkpt>
      <trkpt lat="43.71338" lon="7.09038">
        <ele>330.830933</ele>
        <time>2010-08-13T16:40:21Z</time>
      </trkpt>
      <trkpt lat="43.71337" lon="7.09041">
        <ele>330.830933</ele>
        <time>2010-08-13T16:40:22Z</time>
      </trkpt>
      <trkpt lat="43.71336" lon="7.09044">
        <ele>330.35022</ele>
        <time>2010-08-13T16:40:23Z</time>
      </trkpt>
      <trkpt lat="43.71335" lon="7.09047">
        <ele>329.869507</ele>
        <time>2010-08-13T16:40:24Z</time>
      </trkpt>
      <trkpt lat="43.71335" lon="7.0905">
        <ele>329.869507</ele>
        <time>2010-08-13T16:40:25Z</time>
      </trkpt>
      <trkpt lat="43.71334" lon="7.09054">
        <ele>329.869507</ele>
        <time>2010-08-13T16:40:26Z</time>
      </trkpt>
      <trkpt lat="43.71334" lon="7.09057">
        <ele>329.869507</ele>
        <time>2010-08-13T16:40:27Z</time>
      </trkpt>
      <trkpt lat="43.71334" lon="7.09061">
        <ele>330.35022</ele>
        <time>2010-08-13T16:40:28Z</time>
      </trkpt>
      <trkpt lat="43.71333" lon="7.09064">
        <ele>330.35022</ele>
        <time>2010-08-13T16:40:29Z</time>
      </trkpt>
      <trkpt lat="43.71333" lon="7.09066">
        <ele>330.35022</ele>
        <time>2010-08-13T16:40:30Z</time>
      </trkpt>
      <trkpt lat="43.71333" lon="7.09069">
        <ele>331.792114</ele>
        <time>2010-08-13T16:40:31Z</time>
      </trkpt>
      <trkpt lat="43.71333" lon="7.09072">
        <ele>331.792114</ele>
        <time>2010-08-13T16:40:32Z</time>
      </trkpt>
      <trkpt lat="43.71333" lon="7.09074">
        <ele>332.272827</ele>
        <time>2010-08-13T16:40:33Z</time>
      </trkpt>
      <trkpt lat="43.71334" lon="7.09077">
        <ele>332.272827</ele>
        <time>2010-08-13T16:40:34Z</time>
      </trkpt>
      <trkpt lat="43.71333" lon="7.0908">
        <ele>332.272827</ele>
        <time>2010-08-13T16:40:35Z</time>
      </trkpt>
      <trkpt lat="43.71333" lon="7.09082">
        <ele>331.792114</ele>
        <time>2010-08-13T16:40:36Z</time>
      </trkpt>
      <trkpt lat="43.71333" lon="7.09085">
        <ele>332.272827</ele>
        <time>2010-08-13T16:40:37Z</time>
      </trkpt>
      <trkpt lat="43.71332" lon="7.09088">
        <ele>333.234131</ele>
        <time>2010-08-13T16:40:38Z</time>
      </trkpt>
      <trkpt lat="43.71331" lon="7.0909">
        <ele>333.234131</ele>
        <time>2010-08-13T16:40:39Z</time>
      </trkpt>
      <trkpt lat="43.71331" lon="7.09092">
        <ele>334.195435</ele>
        <time>2010-08-13T16:40:40Z</time>
      </trkpt>
      <trkpt lat="43.7133" lon="7.09095">
        <ele>334.676147</ele>
        <time>2010-08-13T16:40:41Z</time>
      </trkpt>
      <trkpt lat="43.71329" lon="7.09098">
        <ele>335.637329</ele>
        <time>2010-08-13T16:40:42Z</time>
      </trkpt>
      <trkpt lat="43.71329" lon="7.09101">
        <ele>336.118164</ele>
        <time>2010-08-13T16:40:43Z</time>
      </trkpt>
      <trkpt lat="43.71328" lon="7.09103">
        <ele>335.637329</ele>
        <time>2010-08-13T16:40:44Z</time>
      </trkpt>
      <trkpt lat="43.71327" lon="7.09105">
        <ele>334.676147</ele>
        <time>2010-08-13T16:40:45Z</time>
      </trkpt>
      <trkpt lat="43.71326" lon="7.09108">
        <ele>334.195435</ele>
        <time>2010-08-13T16:40:46Z</time>
      </trkpt>
      <trkpt lat="43.71325" lon="7.0911">
        <ele>333.714722</ele>
        <time>2010-08-13T16:40:47Z</time>
      </trkpt>
      <trkpt lat="43.71323" lon="7.09112">
        <ele>333.234131</ele>
        <time>2010-08-13T16:40:48Z</time>
      </trkpt>
      <trkpt lat="43.71321" lon="7.09115">
        <ele>333.234131</ele>
        <time>2010-08-13T16:40:49Z</time>
      </trkpt>
      <trkpt lat="43.7132" lon="7.09117">
        <ele>333.234131</ele>
        <time>2010-08-13T16:40:50Z</time>
      </trkpt>
      <trkpt lat="43.71319" lon="7.0912">
        <ele>333.234131</ele>
        <time>2010-08-13T16:40:51Z</time>
      </trkpt>
      <trkpt lat="43.71318" lon="7.09123">
        <ele>333.714722</ele>
        <time>2010-08-13T16:40:52Z</time>
      </trkpt>
      <trkpt lat="43.71317" lon="7.09126">
        <ele>333.714722</ele>
        <time>2010-08-13T16:40:53Z</time>
      </trkpt>
      <trkpt lat="43.71316" lon="7.09129">
        <ele>333.714722</ele>
        <time>2010-08-13T16:40:54Z</time>
      </trkpt>
      <trkpt lat="43.71315" lon="7.09132">
        <ele>333.714722</ele>
        <time>2010-08-13T16:40:55Z</time>
      </trkpt>
      <trkpt lat="43.71315" lon="7.09135">
        <ele>334.195435</ele>
        <time>2010-08-13T16:40:56Z</time>
      </trkpt>
      <trkpt lat="43.71314" lon="7.09139">
        <ele>333.714722</ele>
        <time>2010-08-13T16:40:57Z</time>
      </trkpt>
      <trkpt lat="43.71314" lon="7.09142">
        <ele>333.714722</ele>
        <time>2010-08-13T16:40:58Z</time>
      </trkpt>
      <trkpt lat="43.71314" lon="7.09146">
        <ele>333.714722</ele>
        <time>2010-08-13T16:40:59Z</time>
      </trkpt>
      <trkpt lat="43.71314" lon="7.09149">
        <ele>333.234131</ele>
        <time>2010-08-13T16:41:00Z</time>
      </trkpt>
      <trkpt lat="43.71313" lon="7.09152">
        <ele>333.234131</ele>
        <time>2010-08-13T16:41:01Z</time>
      </trkpt>
      <trkpt lat="43.71312" lon="7.09156">
        <ele>332.75354</ele>
        <time>2010-08-13T16:41:02Z</time>
      </trkpt>
      <trkpt lat="43.71312" lon="7.09159">
        <ele>333.234131</ele>
        <time>2010-08-13T16:41:03Z</time>
      </trkpt>
      <trkpt lat="43.71311" lon="7.09162">
        <ele>333.234131</ele>
        <time>2010-08-13T16:41:04Z</time>
      </trkpt>
      <trkpt lat="43.7131" lon="7.09165">
        <ele>333.234131</ele>
        <time>2010-08-13T16:41:05Z</time>
      </trkpt>
      <trkpt lat="43.7131" lon="7.09168">
        <ele>332.272827</ele>
        <time>2010-08-13T16:41:06Z</time>
      </trkpt>
      <trkpt lat="43.71309" lon="7.0917">
        <ele>332.272827</ele>
        <time>2010-08-13T16:41:07Z</time>
      </trkpt>
      <trkpt lat="43.71308" lon="7.09172">
        <ele>331.792114</ele>
        <time>2010-08-13T16:41:08Z</time>
      </trkpt>
      <trkpt lat="43.71307" lon="7.09176">
        <ele>331.311523</ele>
        <time>2010-08-13T16:41:09Z</time>
      </trkpt>
      <trkpt lat="43.71305" lon="7.09179">
        <ele>331.311523</ele>
        <time>2010-08-13T16:41:10Z</time>
      </trkpt>
      <trkpt lat="43.71305" lon="7.09183">
        <ele>330.830933</ele>
        <time>2010-08-13T16:41:11Z</time>
      </trkpt>
      <trkpt lat="43.71305" lon="7.09186">
        <ele>331.311523</ele>
        <time>2010-08-13T16:41:12Z</time>
      </trkpt>
      <trkpt lat="43.71306" lon="7.09189">
        <ele>332.272827</ele>
        <time>2010-08-13T16:41:13Z</time>
      </trkpt>
      <trkpt lat="43.71306" lon="7.09193">
        <ele>333.714722</ele>
        <time>2010-08-13T16:41:14Z</time>
      </trkpt>
      <trkpt lat="43.71307" lon="7.09196">
        <ele>333.234131</ele>
        <time>2010-08-13T16:41:15Z</time>
      </trkpt>
      <trkpt lat="43.71308" lon="7.09198">
        <ele>332.75354</ele>
        <time>2010-08-13T16:41:16Z</time>
      </trkpt>
      <trkpt lat="43.71309" lon="7.09202">
        <ele>333.234131</ele>
        <time>2010-08-13T16:41:17Z</time>
      </trkpt>
      <trkpt lat="43.71309" lon="7.09206">
        <ele>333.714722</ele>
        <time>2010-08-13T16:41:18Z</time>
      </trkpt>
      <trkpt lat="43.7131" lon="7.09209">
        <ele>334.676147</ele>
        <time>2010-08-13T16:41:19Z</time>
      </trkpt>
      <trkpt lat="43.71311" lon="7.09212">
        <ele>334.195435</ele>
        <time>2010-08-13T16:41:20Z</time>
      </trkpt>
      <trkpt lat="43.71313" lon="7.09215">
        <ele>335.156738</ele>
        <time>2010-08-13T16:41:21Z</time>
      </trkpt>
      <trkpt lat="43.71314" lon="7.09218">
        <ele>335.637329</ele>
        <time>2010-08-13T16:41:22Z</time>
      </trkpt>
      <trkpt lat="43.71315" lon="7.09221">
        <ele>335.156738</ele>
        <time>2010-08-13T16:41:23Z</time>
      </trkpt>
      <trkpt lat="43.71316" lon="7.09224">
        <ele>335.156738</ele>
        <time>2010-08-13T16:41:24Z</time>
      </trkpt>
      <trkpt lat="43.71317" lon="7.09227">
        <ele>335.637329</ele>
        <time>2010-08-13T16:41:25Z</time>
      </trkpt>
      <trkpt lat="43.71317" lon="7.0923">
        <ele>335.637329</ele>
        <time>2010-08-13T16:41:26Z</time>
      </trkpt>
      <trkpt lat="43.71317" lon="7.09233">
        <ele>335.637329</ele>
        <time>2010-08-13T16:41:27Z</time>
      </trkpt>
      <trkpt lat="43.71317" lon="7.09236">
        <ele>335.637329</ele>
        <time>2010-08-13T16:41:28Z</time>
      </trkpt>
      <trkpt lat="43.71317" lon="7.09239">
        <ele>335.156738</ele>
        <time>2010-08-13T16:41:29Z</time>
      </trkpt>
      <trkpt lat="43.71317" lon="7.09242">
        <ele>334.676147</ele>
        <time>2010-08-13T16:41:30Z</time>
      </trkpt>
      <trkpt lat="43.71318" lon="7.09245">
        <ele>334.195435</ele>
        <time>2010-08-13T16:41:31Z</time>
      </trkpt>
      <trkpt lat="43.71318" lon="7.09248">
        <ele>334.195435</ele>
        <time>2010-08-13T16:41:32Z</time>
      </trkpt>
      <trkpt lat="43.71318" lon="7.0925">
        <ele>334.676147</ele>
        <time>2010-08-13T16:41:33Z</time>
      </trkpt>
      <trkpt lat="43.7132" lon="7.09254">
        <ele>336.118164</ele>
        <time>2010-08-13T16:41:34Z</time>
      </trkpt>
      <trkpt lat="43.71322" lon="7.09257">
        <ele>336.598877</ele>
        <time>2010-08-13T16:41:35Z</time>
      </trkpt>
      <trkpt lat="43.71323" lon="7.0926">
        <ele>337.560059</ele>
        <time>2010-08-13T16:41:36Z</time>
      </trkpt>
      <trkpt lat="43.71324" lon="7.09263">
        <ele>336.598877</ele>
        <time>2010-08-13T16:41:37Z</time>
      </trkpt>
      <trkpt lat="43.71324" lon="7.09267">
        <ele>336.598877</ele>
        <time>2010-08-13T16:41:38Z</time>
      </trkpt>
      <trkpt lat="43.71325" lon="7.09271">
        <ele>336.118164</ele>
        <time>2010-08-13T16:41:39Z</time>
      </trkpt>
      <trkpt lat="43.71325" lon="7.09274">
        <ele>336.118164</ele>
        <time>2010-08-13T16:41:40Z</time>
      </trkpt>
      <trkpt lat="43.71326" lon="7.09277">
        <ele>336.598877</ele>
        <time>2010-08-13T16:41:41Z</time>
      </trkpt>
      <trkpt lat="43.71326" lon="7.0928">
        <ele>337.079468</ele>
        <time>2010-08-13T16:41:42Z</time>
      </trkpt>
      <trkpt lat="43.71324" lon="7.09283">
        <ele>336.598877</ele>
        <time>2010-08-13T16:41:43Z</time>
      </trkpt>
      <trkpt lat="43.71323" lon="7.09286">
        <ele>336.118164</ele>
        <time>2010-08-13T16:41:44Z</time>
      </trkpt>
      <trkpt lat="43.71323" lon="7.09289">
        <ele>335.637329</ele>
        <time>2010-08-13T16:41:45Z</time>
      </trkpt>
      <trkpt lat="43.71322" lon="7.09293">
        <ele>335.637329</ele>
        <time>2010-08-13T16:41:46Z</time>
      </trkpt>
      <trkpt lat="43.71322" lon="7.09298">
        <ele>335.637329</ele>
        <time>2010-08-13T16:41:47Z</time>
      </trkpt>
      <trkpt lat="43.71321" lon="7.09302">
        <ele>336.118164</ele>
        <time>2010-08-13T16:41:48Z</time>
      </trkpt>
      <trkpt lat="43.71321" lon="7.09305">
        <ele>335.637329</ele>
        <time>2010-08-13T16:41:49Z</time>
      </trkpt>
      <trkpt lat="43.7132" lon="7.09308">
        <ele>336.118164</ele>
        <time>2010-08-13T16:41:50Z</time>
      </trkpt>
      <trkpt lat="43.71318" lon="7.09311">
        <ele>336.118164</ele>
        <time>2010-08-13T16:41:51Z</time>
      </trkpt>
      <trkpt lat="43.71317" lon="7.09313">
        <ele>335.637329</ele>
        <time>2010-08-13T16:41:52Z</time>
      </trkpt>
      <trkpt lat="43.71317" lon="7.09316">
        <ele>335.156738</ele>
        <time>2010-08-13T16:41:53Z</time>
      </trkpt>
      <trkpt lat="43.71318" lon="7.09319">
        <ele>335.156738</ele>
        <time>2010-08-13T16:41:54Z</time>
      </trkpt>
      <trkpt lat="43.71319" lon="7.09322">
        <ele>335.156738</ele>
        <time>2010-08-13T16:41:55Z</time>
      </trkpt>
      <trkpt lat="43.7132" lon="7.09325">
        <ele>335.156738</ele>
        <time>2010-08-13T16:41:56Z</time>
      </trkpt>
      <trkpt lat="43.71321" lon="7.09328">
        <ele>335.156738</ele>
        <time>2010-08-13T16:41:57Z</time>
      </trkpt>
      <trkpt lat="43.71322" lon="7.0933">
        <ele>334.676147</ele>
        <time>2010-08-13T16:41:58Z</time>
      </trkpt>
      <trkpt lat="43.71324" lon="7.09332">
        <ele>334.676147</ele>
        <time>2010-08-13T16:41:59Z</time>
      </trkpt>
      <trkpt lat="43.71325" lon="7.09336">
        <ele>334.195435</ele>
        <time>2010-08-13T16:42:00Z</time>
      </trkpt>
      <trkpt lat="43.71326" lon="7.09339">
        <ele>332.75354</ele>
        <time>2010-08-13T16:42:01Z</time>
      </trkpt>
      <trkpt lat="43.71327" lon="7.09343">
        <ele>332.272827</ele>
        <time>2010-08-13T16:42:02Z</time>
      </trkpt>
      <trkpt lat="43.71327" lon="7.09347">
        <ele>332.75354</ele>
        <time>2010-08-13T16:42:03Z</time>
      </trkpt>
      <trkpt lat="43.71327" lon="7.09351">
        <ele>332.75354</ele>
        <time>2010-08-13T16:42:04Z</time>
      </trkpt>
      <trkpt lat="43.71327" lon="7.09354">
        <ele>333.234131</ele>
        <time>2010-08-13T16:42:05Z</time>
      </trkpt>
      <trkpt lat="43.71327" lon="7.09358">
        <ele>333.234131</ele>
        <time>2010-08-13T16:42:06Z</time>
      </trkpt>
      <trkpt lat="43.71327" lon="7.09361">
        <ele>333.234131</ele>
        <time>2010-08-13T16:42:07Z</time>
      </trkpt>
      <trkpt lat="43.71327" lon="7.09364">
        <ele>332.75354</ele>
        <time>2010-08-13T16:42:08Z</time>
      </trkpt>
      <trkpt lat="43.71327" lon="7.09366">
        <ele>333.234131</ele>
        <time>2010-08-13T16:42:09Z</time>
      </trkpt>
      <trkpt lat="43.71327" lon="7.09369">
        <ele>333.234131</ele>
        <time>2010-08-13T16:42:10Z</time>
      </trkpt>
      <trkpt lat="43.71328" lon="7.09371">
        <ele>333.714722</ele>
        <time>2010-08-13T16:42:11Z</time>
      </trkpt>
      <trkpt lat="43.71328" lon="7.09373">
        <ele>333.714722</ele>
        <time>2010-08-13T16:42:12Z</time>
      </trkpt>
      <trkpt lat="43.71329" lon="7.09376">
        <ele>334.195435</ele>
        <time>2010-08-13T16:42:13Z</time>
      </trkpt>
      <trkpt lat="43.7133" lon="7.09379">
        <ele>333.234131</ele>
        <time>2010-08-13T16:42:14Z</time>
      </trkpt>
      <trkpt lat="43.7133" lon="7.09381">
        <ele>331.311523</ele>
        <time>2010-08-13T16:42:15Z</time>
      </trkpt>
      <trkpt lat="43.71329" lon="7.09385">
        <ele>330.35022</ele>
        <time>2010-08-13T16:42:16Z</time>
      </trkpt>
      <trkpt lat="43.71329" lon="7.09389">
        <ele>329.388916</ele>
        <time>2010-08-13T16:42:17Z</time>
      </trkpt>
      <trkpt lat="43.71328" lon="7.09392">
        <ele>328.908325</ele>
        <time>2010-08-13T16:42:18Z</time>
      </trkpt>
      <trkpt lat="43.71329" lon="7.09396">
        <ele>328.427612</ele>
        <time>2010-08-13T16:42:19Z</time>
      </trkpt>
      <trkpt lat="43.71329" lon="7.094">
        <ele>328.427612</ele>
        <time>2010-08-13T16:42:20Z</time>
      </trkpt>
      <trkpt lat="43.7133" lon="7.09404">
        <ele>328.908325</ele>
        <time>2010-08-13T16:42:21Z</time>
      </trkpt>
      <trkpt lat="43.7133" lon="7.09409">
        <ele>328.908325</ele>
        <time>2010-08-13T16:42:22Z</time>
      </trkpt>
      <trkpt lat="43.71329" lon="7.09413">
        <ele>329.869507</ele>
        <time>2010-08-13T16:42:23Z</time>
      </trkpt>
      <trkpt lat="43.71328" lon="7.09418">
        <ele>329.869507</ele>
        <time>2010-08-13T16:42:24Z</time>
      </trkpt>
      <trkpt lat="43.71327" lon="7.09422">
        <ele>329.388916</ele>
        <time>2010-08-13T16:42:25Z</time>
      </trkpt>
      <trkpt lat="43.71327" lon="7.09423">
        <ele>329.388916</ele>
        <time>2010-08-13T16:42:26Z</time>
      </trkpt>
      <trkpt lat="43.71326" lon="7.09424">
        <ele>329.388916</ele>
        <time>2010-08-13T16:42:27Z</time>
      </trkpt>
    </trkseg>
  </trk>
</gpx>